<?xml version="1.0" encoding="UTF-8"?>
<gpx version="1.1" creator="2bulu-scraper" xmlns="http://www.topografix.com/GPX/1/1">
  <metadata><name>庞坡洞大旗山环线</name><desc>source: 2bulu.com trackId=80259002; exported 2026-09-01T16:12:12.347Z</desc>
    <bounds minlat="29.764023" minlon="103.4307519" maxlat="29.8108188" maxlon="103.4525953"/>
    <link href="https://www.2bulu.com/track/t-Rhga5H9%252FCvjp%252FR2KBg5Tzw%253D%253D.htm"><text>2bulu 源页面</text></link>
  </metadata>
  <wpt lat="29.8106301" lon="103.4329884"><ele>413</ele><name>
        </name></wpt>
  <wpt lat="29.8106724" lon="103.4318303"><ele>410</ele><name>
        </name></wpt>
  <wpt lat="29.8070256" lon="103.4331464"><ele>426</ele><name>
        </name></wpt>
  <wpt lat="29.8068969" lon="103.4332872"><ele>423</ele><name>
        </name></wpt>
  <wpt lat="29.8063928" lon="103.4332507"><ele>420</ele><name>
        </name></wpt>
  <wpt lat="29.8058898" lon="103.4324254"><ele>422</ele><name>
        </name></wpt>
  <wpt lat="29.8058556" lon="103.4326229"><ele>422</ele><name>
        </name></wpt>
  <wpt lat="29.8059037" lon="103.4341749"><ele>455</ele><name>
        </name></wpt>
  <wpt lat="29.8056357" lon="103.4341612"><ele>477</ele><name>
        </name></wpt>
  <wpt lat="29.805671" lon="103.4342889"><ele>487</ele><name>
        </name></wpt>
  <wpt lat="29.8054897" lon="103.43401"><ele>476</ele><name>
        </name></wpt>
  <wpt lat="29.8054897" lon="103.43401"><ele>476</ele><name>
        </name></wpt>
  <wpt lat="29.8047205" lon="103.4347923"><ele>509</ele><name>
        </name></wpt>
  <wpt lat="29.8004255" lon="103.4403125"><ele>588</ele><name>
        </name></wpt>
  <wpt lat="29.7974536" lon="103.4387087"><ele>489</ele><name>
        </name></wpt>
  <wpt lat="29.7973515" lon="103.4384591"><ele>492</ele><name>
        </name></wpt>
  <wpt lat="29.7968048" lon="103.438591"><ele>490</ele><name>
        </name></wpt>
  <wpt lat="29.7937586" lon="103.4394525"><ele>510</ele><name>
        </name></wpt>
  <wpt lat="29.7858538" lon="103.4437446"><ele>640</ele><name>
        </name></wpt>
  <wpt lat="29.7852731" lon="103.4441644"><ele>664</ele><name>
        </name></wpt>
  <wpt lat="29.7850785" lon="103.4443423"><ele>668</ele><name>
        </name></wpt>
  <wpt lat="29.7849025" lon="103.443813"><ele>674</ele><name>
        </name></wpt>
  <wpt lat="29.7807416" lon="103.4454526"><ele>745</ele><name>
        </name></wpt>
  <wpt lat="29.7812287" lon="103.4505063"><ele>842</ele><name>
        </name></wpt>
  <wpt lat="29.7801739" lon="103.4525403"><ele>874</ele><name>
        </name></wpt>
  <wpt lat="29.7801198" lon="103.4525294"><ele>876</ele><name>
        </name></wpt>
  <wpt lat="29.7787418" lon="103.4514576"><ele>895</ele><name>
        </name></wpt>
  <wpt lat="29.7782189" lon="103.4510385"><ele>902</ele><name>
        </name></wpt>
  <wpt lat="29.777896" lon="103.450914"><ele>905</ele><name>
        </name></wpt>
  <wpt lat="29.7734517" lon="103.4488164"><ele>998</ele><name>
        </name></wpt>
  <wpt lat="29.7712793" lon="103.4469664"><ele>960</ele><name>
        </name></wpt>
  <wpt lat="29.7709149" lon="103.4474139"><ele>979</ele><name>
        </name></wpt>
  <wpt lat="29.7659763" lon="103.4423981"><ele>1063</ele><name>
        </name></wpt>
  <wpt lat="29.7650736" lon="103.4411845"><ele>1073</ele><name>
        </name></wpt>
  <wpt lat="29.7644257" lon="103.4392949"><ele>1059</ele><name>
        </name></wpt>
  <wpt lat="29.77041" lon="103.4378582"><ele>897</ele><name>
        </name></wpt>
  <wpt lat="29.77007" lon="103.4358092"><ele>937</ele><name>
        </name></wpt>
  <wpt lat="29.7702697" lon="103.4355308"><ele>961</ele><name>
        </name></wpt>
  <wpt lat="29.7702229" lon="103.4355282"><ele>961</ele><name>
        </name></wpt>
  <wpt lat="29.780362" lon="103.4335022"><ele>837</ele><name>
        </name></wpt>
  <wpt lat="29.7814584" lon="103.4335658"><ele>857</ele><name>
        </name></wpt>
  <wpt lat="29.7839111" lon="103.433145"><ele>812</ele><name>
        </name></wpt>
  <wpt lat="29.7840826" lon="103.4332013"><ele>810</ele><name>
        </name></wpt>
  <wpt lat="29.7845035" lon="103.4332423"><ele>812</ele><name>
        </name></wpt>
  <wpt lat="29.7848103" lon="103.4334956"><ele>799</ele><name>
        </name></wpt>
  <wpt lat="29.7850012" lon="103.4337755"><ele>788</ele><name>
        </name></wpt>
  <wpt lat="29.7851685" lon="103.4341694"><ele>796</ele><name>
        </name></wpt>
  <wpt lat="29.789582" lon="103.4349919"><ele>733</ele><name>
        </name></wpt>
  <wpt lat="29.7901448" lon="103.4348958"><ele>720</ele><name>
        </name></wpt>
  <wpt lat="29.7932478" lon="103.4339922"><ele>671</ele><name>
        </name></wpt>
  <wpt lat="29.7948028" lon="103.4351102"><ele>654</ele><name>
        </name></wpt>
  <wpt lat="29.7951849" lon="103.4352736"><ele>653</ele><name>
        </name></wpt>
  <wpt lat="29.7971751" lon="103.4352762"><ele>552</ele><name>
        </name></wpt>
  <wpt lat="29.7986986" lon="103.4324963"><ele>469</ele><name>
        </name></wpt>
  <wpt lat="29.8001444" lon="103.4320547"><ele>451</ele><name>
        </name></wpt>
  <wpt lat="29.8016584" lon="103.4316788"><ele>411</ele><name>
        </name></wpt>
  <trk><name>庞坡洞大旗山环线</name>
      <trkseg>
        <trkpt lat="29.8105949" lon="103.433086"><ele>413.27</ele><time>2026-03-11T18:01:45.000Z</time></trkpt>
        <trkpt lat="29.8106121" lon="103.43304"><ele>413.27</ele><time>2026-03-11T18:01:49.000Z</time></trkpt>
        <trkpt lat="29.8106301" lon="103.4329884"><ele>413.37</ele><time>2026-03-11T18:01:53.000Z</time></trkpt>
        <trkpt lat="29.8106597" lon="103.4329354"><ele>413.34</ele><time>2026-03-11T18:02:01.000Z</time></trkpt>
        <trkpt lat="29.8106821" lon="103.4328674"><ele>412.5</ele><time>2026-03-11T18:02:05.000Z</time></trkpt>
        <trkpt lat="29.8106867" lon="103.4327953"><ele>412.37</ele><time>2026-03-11T18:02:09.000Z</time></trkpt>
        <trkpt lat="29.8106927" lon="103.4327322"><ele>412.31</ele><time>2026-03-11T18:02:14.000Z</time></trkpt>
        <trkpt lat="29.8107203" lon="103.4326858"><ele>412.16</ele><time>2026-03-11T18:02:18.000Z</time></trkpt>
        <trkpt lat="29.8107496" lon="103.4326448"><ele>412.56</ele><time>2026-03-11T18:02:22.000Z</time></trkpt>
        <trkpt lat="29.8107785" lon="103.4325979"><ele>412.15</ele><time>2026-03-11T18:02:26.000Z</time></trkpt>
        <trkpt lat="29.8108047" lon="103.4325485"><ele>412.04</ele><time>2026-03-11T18:02:30.000Z</time></trkpt>
        <trkpt lat="29.8108188" lon="103.432495"><ele>412.22</ele><time>2026-03-11T18:02:34.000Z</time></trkpt>
        <trkpt lat="29.8108181" lon="103.4324374"><ele>412.57</ele><time>2026-03-11T18:02:38.000Z</time></trkpt>
        <trkpt lat="29.8108125" lon="103.4323785"><ele>413.53</ele><time>2026-03-11T18:02:42.000Z</time></trkpt>
        <trkpt lat="29.8108061" lon="103.4323233"><ele>414.15</ele><time>2026-03-11T18:02:46.000Z</time></trkpt>
        <trkpt lat="29.8107971" lon="103.4322681"><ele>414.25</ele><time>2026-03-11T18:02:50.000Z</time></trkpt>
        <trkpt lat="29.8108063" lon="103.4322159"><ele>413.98</ele><time>2026-03-11T18:02:58.000Z</time></trkpt>
        <trkpt lat="29.8107988" lon="103.4321658"><ele>412.38</ele><time>2026-03-11T18:03:02.000Z</time></trkpt>
        <trkpt lat="29.8107876" lon="103.4320946"><ele>410.73</ele><time>2026-03-11T18:03:08.000Z</time></trkpt>
        <trkpt lat="29.810769" lon="103.432034"><ele>410.63</ele><time>2026-03-11T18:03:12.000Z</time></trkpt>
        <trkpt lat="29.8107342" lon="103.4319861"><ele>410.25</ele><time>2026-03-11T18:03:16.000Z</time></trkpt>
        <trkpt lat="29.8107069" lon="103.4319393"><ele>411.15</ele><time>2026-03-11T18:03:20.000Z</time></trkpt>
        <trkpt lat="29.8106947" lon="103.4318832"><ele>411.54</ele><time>2026-03-11T18:03:24.000Z</time></trkpt>
        <trkpt lat="29.8106724" lon="103.4318303"><ele>411.64</ele><time>2026-03-11T18:03:30.000Z</time></trkpt>
        <trkpt lat="29.8106366" lon="103.4317866"><ele>410.76</ele><time>2026-03-11T18:03:36.000Z</time></trkpt>
        <trkpt lat="29.8105988" lon="103.4317438"><ele>410.33</ele><time>2026-03-11T18:03:40.000Z</time></trkpt>
        <trkpt lat="29.8105593" lon="103.4316872"><ele>409.9</ele><time>2026-03-11T18:03:46.000Z</time></trkpt>
        <trkpt lat="29.8105308" lon="103.4316594"><ele>409.02</ele><time>2026-03-11T18:03:52.000Z</time></trkpt>
        <trkpt lat="29.8105097" lon="103.4316124"><ele>408.11</ele><time>2026-03-11T18:04:08.000Z</time></trkpt>
        <trkpt lat="29.8104895" lon="103.4315633"><ele>408.35</ele><time>2026-03-11T18:04:12.000Z</time></trkpt>
        <trkpt lat="29.8104622" lon="103.4314987"><ele>408.18</ele><time>2026-03-11T18:04:18.000Z</time></trkpt>
        <trkpt lat="29.8104375" lon="103.4314467"><ele>408.32</ele><time>2026-03-11T18:04:22.000Z</time></trkpt>
        <trkpt lat="29.8104153" lon="103.4313987"><ele>408.38</ele><time>2026-03-11T18:04:26.000Z</time></trkpt>
        <trkpt lat="29.8104043" lon="103.4313439"><ele>408.49</ele><time>2026-03-11T18:04:30.000Z</time></trkpt>
        <trkpt lat="29.8103833" lon="103.4313086"><ele>407.66</ele><time>2026-03-11T18:04:34.000Z</time></trkpt>
        <trkpt lat="29.810342" lon="103.4313333"><ele>407.96</ele><time>2026-03-11T18:04:48.000Z</time></trkpt>
        <trkpt lat="29.8102885" lon="103.4313228"><ele>408.95</ele><time>2026-03-11T18:04:52.000Z</time></trkpt>
        <trkpt lat="29.8102388" lon="103.4312963"><ele>409.8</ele><time>2026-03-11T18:04:56.000Z</time></trkpt>
        <trkpt lat="29.8101867" lon="103.4312738"><ele>409.54</ele><time>2026-03-11T18:05:00.000Z</time></trkpt>
        <trkpt lat="29.8101353" lon="103.431255"><ele>410.29</ele><time>2026-03-11T18:05:04.000Z</time></trkpt>
        <trkpt lat="29.8100864" lon="103.4312426"><ele>411.29</ele><time>2026-03-11T18:05:08.000Z</time></trkpt>
        <trkpt lat="29.8100226" lon="103.4312236"><ele>411.32</ele><time>2026-03-11T18:05:14.000Z</time></trkpt>
        <trkpt lat="29.8099566" lon="103.4312155"><ele>411.84</ele><time>2026-03-11T18:05:20.000Z</time></trkpt>
        <trkpt lat="29.8099082" lon="103.4312395"><ele>410.82</ele><time>2026-03-11T18:05:24.000Z</time></trkpt>
        <trkpt lat="29.8098558" lon="103.431263"><ele>410.32</ele><time>2026-03-11T18:05:30.000Z</time></trkpt>
        <trkpt lat="29.8098087" lon="103.4312747"><ele>409.73</ele><time>2026-03-11T18:05:34.000Z</time></trkpt>
        <trkpt lat="29.8097457" lon="103.4312697"><ele>409.36</ele><time>2026-03-11T18:05:40.000Z</time></trkpt>
        <trkpt lat="29.8096916" lon="103.4312607"><ele>409.14</ele><time>2026-03-11T18:05:44.000Z</time></trkpt>
        <trkpt lat="29.8096395" lon="103.4312434"><ele>408.84</ele><time>2026-03-11T18:05:48.000Z</time></trkpt>
        <trkpt lat="29.8095941" lon="103.4312468"><ele>409.88</ele><time>2026-03-11T18:05:52.000Z</time></trkpt>
        <trkpt lat="29.8095325" lon="103.431264"><ele>409.71</ele><time>2026-03-11T18:05:58.000Z</time></trkpt>
        <trkpt lat="29.8094773" lon="103.4312866"><ele>409.6</ele><time>2026-03-11T18:06:02.000Z</time></trkpt>
        <trkpt lat="29.8094156" lon="103.4313071"><ele>409.83</ele><time>2026-03-11T18:06:06.000Z</time></trkpt>
        <trkpt lat="29.8093566" lon="103.4313158"><ele>410.77</ele><time>2026-03-11T18:06:10.000Z</time></trkpt>
        <trkpt lat="29.8093015" lon="103.4313263"><ele>411.72</ele><time>2026-03-11T18:06:14.000Z</time></trkpt>
        <trkpt lat="29.8092396" lon="103.4313461"><ele>412.27</ele><time>2026-03-11T18:06:18.000Z</time></trkpt>
        <trkpt lat="29.809182" lon="103.4313777"><ele>415.13</ele><time>2026-03-11T18:06:24.000Z</time></trkpt>
        <trkpt lat="29.8091234" lon="103.4313985"><ele>417.04</ele><time>2026-03-11T18:06:30.000Z</time></trkpt>
        <trkpt lat="29.8090784" lon="103.4314238"><ele>418.14</ele><time>2026-03-11T18:06:34.000Z</time></trkpt>
        <trkpt lat="29.8090296" lon="103.4314472"><ele>418.78</ele><time>2026-03-11T18:06:40.000Z</time></trkpt>
        <trkpt lat="29.8089825" lon="103.4314568"><ele>418.7</ele><time>2026-03-11T18:06:44.000Z</time></trkpt>
        <trkpt lat="29.8089236" lon="103.431463"><ele>418.89</ele><time>2026-03-11T18:06:50.000Z</time></trkpt>
        <trkpt lat="29.8088719" lon="103.4314672"><ele>418.92</ele><time>2026-03-11T18:06:54.000Z</time></trkpt>
        <trkpt lat="29.8088241" lon="103.431469"><ele>418.32</ele><time>2026-03-11T18:06:58.000Z</time></trkpt>
        <trkpt lat="29.808779" lon="103.4314811"><ele>417.54</ele><time>2026-03-11T18:07:02.000Z</time></trkpt>
        <trkpt lat="29.8087366" lon="103.4315059"><ele>416.4</ele><time>2026-03-11T18:07:06.000Z</time></trkpt>
        <trkpt lat="29.8086935" lon="103.4315328"><ele>416.01</ele><time>2026-03-11T18:07:10.000Z</time></trkpt>
        <trkpt lat="29.8086446" lon="103.4315468"><ele>415.27</ele><time>2026-03-11T18:07:14.000Z</time></trkpt>
        <trkpt lat="29.8085972" lon="103.4315668"><ele>414.65</ele><time>2026-03-11T18:07:18.000Z</time></trkpt>
        <trkpt lat="29.8085483" lon="103.4315854"><ele>415.12</ele><time>2026-03-11T18:07:22.000Z</time></trkpt>
        <trkpt lat="29.8085026" lon="103.4316023"><ele>415.35</ele><time>2026-03-11T18:07:26.000Z</time></trkpt>
        <trkpt lat="29.8084559" lon="103.4316164"><ele>415.74</ele><time>2026-03-11T18:07:30.000Z</time></trkpt>
        <trkpt lat="29.8084068" lon="103.4316346"><ele>416.23</ele><time>2026-03-11T18:07:34.000Z</time></trkpt>
        <trkpt lat="29.8083554" lon="103.4316569"><ele>416.52</ele><time>2026-03-11T18:07:38.000Z</time></trkpt>
        <trkpt lat="29.8083066" lon="103.4316878"><ele>416.57</ele><time>2026-03-11T18:07:44.000Z</time></trkpt>
        <trkpt lat="29.808262" lon="103.4317159"><ele>415.28</ele><time>2026-03-11T18:07:48.000Z</time></trkpt>
        <trkpt lat="29.8082189" lon="103.431746"><ele>415.06</ele><time>2026-03-11T18:07:52.000Z</time></trkpt>
        <trkpt lat="29.8081807" lon="103.4317812"><ele>415.33</ele><time>2026-03-11T18:07:56.000Z</time></trkpt>
        <trkpt lat="29.8081369" lon="103.4318242"><ele>415.44</ele><time>2026-03-11T18:08:01.000Z</time></trkpt>
        <trkpt lat="29.8080934" lon="103.4318556"><ele>416.08</ele><time>2026-03-11T18:08:05.000Z</time></trkpt>
        <trkpt lat="29.8080505" lon="103.4318875"><ele>415.84</ele><time>2026-03-11T18:08:09.000Z</time></trkpt>
        <trkpt lat="29.8080038" lon="103.4319113"><ele>415.98</ele><time>2026-03-11T18:08:13.000Z</time></trkpt>
        <trkpt lat="29.8079588" lon="103.4319372"><ele>416.13</ele><time>2026-03-11T18:08:17.000Z</time></trkpt>
        <trkpt lat="29.8079146" lon="103.4319674"><ele>416.35</ele><time>2026-03-11T18:08:21.000Z</time></trkpt>
        <trkpt lat="29.8078721" lon="103.432003"><ele>416.42</ele><time>2026-03-11T18:08:25.000Z</time></trkpt>
        <trkpt lat="29.8078433" lon="103.4320498"><ele>416.8</ele><time>2026-03-11T18:08:29.000Z</time></trkpt>
        <trkpt lat="29.8078067" lon="103.4320802"><ele>417.48</ele><time>2026-03-11T18:08:33.000Z</time></trkpt>
        <trkpt lat="29.807765" lon="103.4321088"><ele>418.1</ele><time>2026-03-11T18:08:37.000Z</time></trkpt>
        <trkpt lat="29.8077158" lon="103.4321515"><ele>418.83</ele><time>2026-03-11T18:08:43.000Z</time></trkpt>
        <trkpt lat="29.8076748" lon="103.4321887"><ele>419.73</ele><time>2026-03-11T18:08:47.000Z</time></trkpt>
        <trkpt lat="29.8076391" lon="103.4322244"><ele>419.98</ele><time>2026-03-11T18:08:51.000Z</time></trkpt>
        <trkpt lat="29.8076034" lon="103.4322619"><ele>420.38</ele><time>2026-03-11T18:08:55.000Z</time></trkpt>
        <trkpt lat="29.8075664" lon="103.4323018"><ele>420.4</ele><time>2026-03-11T18:08:59.000Z</time></trkpt>
        <trkpt lat="29.8075268" lon="103.4323422"><ele>420.77</ele><time>2026-03-11T18:09:03.000Z</time></trkpt>
        <trkpt lat="29.8074903" lon="103.4323851"><ele>420.85</ele><time>2026-03-11T18:09:07.000Z</time></trkpt>
        <trkpt lat="29.807457" lon="103.4324318"><ele>421.09</ele><time>2026-03-11T18:09:11.000Z</time></trkpt>
        <trkpt lat="29.8074164" lon="103.4324714"><ele>421.62</ele><time>2026-03-11T18:09:17.000Z</time></trkpt>
        <trkpt lat="29.8073755" lon="103.4325195"><ele>422.44</ele><time>2026-03-11T18:09:23.000Z</time></trkpt>
        <trkpt lat="29.8073251" lon="103.4325497"><ele>422.82</ele><time>2026-03-11T18:09:27.000Z</time></trkpt>
        <trkpt lat="29.8072777" lon="103.4325696"><ele>422.82</ele><time>2026-03-11T18:09:31.000Z</time></trkpt>
        <trkpt lat="29.8072347" lon="103.4325951"><ele>422.91</ele><time>2026-03-11T18:09:35.000Z</time></trkpt>
        <trkpt lat="29.80721" lon="103.4326388"><ele>422.35</ele><time>2026-03-11T18:09:39.000Z</time></trkpt>
        <trkpt lat="29.8072062" lon="103.4326933"><ele>422.19</ele><time>2026-03-11T18:09:43.000Z</time></trkpt>
        <trkpt lat="29.8072029" lon="103.4327547"><ele>421.94</ele><time>2026-03-11T18:09:47.000Z</time></trkpt>
        <trkpt lat="29.8071947" lon="103.4328183"><ele>421.34</ele><time>2026-03-11T18:09:51.000Z</time></trkpt>
        <trkpt lat="29.8071752" lon="103.4328896"><ele>421.63</ele><time>2026-03-11T18:09:57.000Z</time></trkpt>
        <trkpt lat="29.8071479" lon="103.432959"><ele>422.34</ele><time>2026-03-11T18:10:03.000Z</time></trkpt>
        <trkpt lat="29.8071228" lon="103.4330111"><ele>423.17</ele><time>2026-03-11T18:10:07.000Z</time></trkpt>
        <trkpt lat="29.8070865" lon="103.4330644"><ele>423.67</ele><time>2026-03-11T18:10:13.000Z</time></trkpt>
        <trkpt lat="29.8070559" lon="103.4331119"><ele>423.87</ele><time>2026-03-11T18:10:17.000Z</time></trkpt>
        <trkpt lat="29.8070256" lon="103.4331464"><ele>424.02</ele><time>2026-03-11T18:10:25.000Z</time></trkpt>
        <trkpt lat="29.8069839" lon="103.4331889"><ele>424.9</ele><time>2026-03-11T18:10:45.000Z</time></trkpt>
        <trkpt lat="29.8069412" lon="103.4332351"><ele>424.04</ele><time>2026-03-11T18:10:51.000Z</time></trkpt>
        <trkpt lat="29.8068969" lon="103.4332872"><ele>423.75</ele><time>2026-03-11T18:10:57.000Z</time></trkpt>
        <trkpt lat="29.8068656" lon="103.4333207"><ele>423.44</ele><time>2026-03-11T18:11:03.000Z</time></trkpt>
        <trkpt lat="29.8068143" lon="103.4333506"><ele>422.85</ele><time>2026-03-11T18:11:09.000Z</time></trkpt>
        <trkpt lat="29.8067611" lon="103.4333578"><ele>421.92</ele><time>2026-03-11T18:11:13.000Z</time></trkpt>
        <trkpt lat="29.8067129" lon="103.4333559"><ele>421.22</ele><time>2026-03-11T18:11:17.000Z</time></trkpt>
        <trkpt lat="29.8066558" lon="103.4333545"><ele>421.48</ele><time>2026-03-11T18:11:23.000Z</time></trkpt>
        <trkpt lat="29.8066069" lon="103.4333472"><ele>422.08</ele><time>2026-03-11T18:11:27.000Z</time></trkpt>
        <trkpt lat="29.806554" lon="103.4333473"><ele>422.21</ele><time>2026-03-11T18:11:33.000Z</time></trkpt>
        <trkpt lat="29.8065518" lon="103.4333554"><ele>422.5</ele><time>2026-03-11T18:11:39.000Z</time></trkpt>
        <trkpt lat="29.8065179" lon="103.4333375"><ele>420.58</ele><time>2026-03-11T18:11:53.000Z</time></trkpt>
        <trkpt lat="29.8064712" lon="103.4333061"><ele>419.8</ele><time>2026-03-11T18:11:57.000Z</time></trkpt>
        <trkpt lat="29.8064302" lon="103.4332715"><ele>419.3</ele><time>2026-03-11T18:12:01.000Z</time></trkpt>
        <trkpt lat="29.8063928" lon="103.4332507"><ele>418.96</ele><time>2026-03-11T18:12:07.000Z</time></trkpt>
        <trkpt lat="29.8063845" lon="103.4332054"><ele>419.31</ele><time>2026-03-11T18:12:13.000Z</time></trkpt>
        <trkpt lat="29.8063968" lon="103.4332318"><ele>419.48</ele><time>2026-03-11T18:12:25.000Z</time></trkpt>
        <trkpt lat="29.8063844" lon="103.4332129"><ele>419.87</ele><time>2026-03-11T18:12:31.000Z</time></trkpt>
        <trkpt lat="29.8063578" lon="103.4331668"><ele>420.49</ele><time>2026-03-11T18:12:35.000Z</time></trkpt>
        <trkpt lat="29.8063282" lon="103.4331175"><ele>420.86</ele><time>2026-03-11T18:12:39.000Z</time></trkpt>
        <trkpt lat="29.8063052" lon="103.4330611"><ele>420.67</ele><time>2026-03-11T18:12:43.000Z</time></trkpt>
        <trkpt lat="29.8062802" lon="103.4330009"><ele>421.06</ele><time>2026-03-11T18:12:47.000Z</time></trkpt>
        <trkpt lat="29.8062521" lon="103.4329492"><ele>421</ele><time>2026-03-11T18:12:51.000Z</time></trkpt>
        <trkpt lat="29.8062227" lon="103.4329027"><ele>421.36</ele><time>2026-03-11T18:12:55.000Z</time></trkpt>
        <trkpt lat="29.8062004" lon="103.4328524"><ele>422</ele><time>2026-03-11T18:12:59.000Z</time></trkpt>
        <trkpt lat="29.8061774" lon="103.4327966"><ele>421.67</ele><time>2026-03-11T18:13:03.000Z</time></trkpt>
        <trkpt lat="29.8061579" lon="103.4327388"><ele>421.1</ele><time>2026-03-11T18:13:07.000Z</time></trkpt>
        <trkpt lat="29.8061277" lon="103.4326908"><ele>421.29</ele><time>2026-03-11T18:13:11.000Z</time></trkpt>
        <trkpt lat="29.8061224" lon="103.4326371"><ele>421.85</ele><time>2026-03-11T18:13:15.000Z</time></trkpt>
        <trkpt lat="29.8061278" lon="103.4325845"><ele>422.44</ele><time>2026-03-11T18:13:23.000Z</time></trkpt>
        <trkpt lat="29.8060984" lon="103.4325236"><ele>421.77</ele><time>2026-03-11T18:13:41.000Z</time></trkpt>
        <trkpt lat="29.8060467" lon="103.4324988"><ele>420.86</ele><time>2026-03-11T18:13:47.000Z</time></trkpt>
        <trkpt lat="29.8059994" lon="103.4324728"><ele>421.21</ele><time>2026-03-11T18:13:57.000Z</time></trkpt>
        <trkpt lat="29.805949" lon="103.4324428"><ele>422.13</ele><time>2026-03-11T18:14:03.000Z</time></trkpt>
        <trkpt lat="29.8059256" lon="103.4324373"><ele>421.5</ele><time>2026-03-11T18:14:07.000Z</time></trkpt>
        <trkpt lat="29.8058898" lon="103.4324254"><ele>420.76</ele><time>2026-03-11T18:14:39.000Z</time></trkpt>
        <trkpt lat="29.8058386" lon="103.4324369"><ele>421.33</ele><time>2026-03-11T18:14:51.000Z</time></trkpt>
        <trkpt lat="29.8058567" lon="103.4324007"><ele>421.83</ele><time>2026-03-11T18:15:03.000Z</time></trkpt>
        <trkpt lat="29.8058752" lon="103.4323915"><ele>420.94</ele><time>2026-03-11T18:15:05.000Z</time></trkpt>
        <trkpt lat="29.8058908" lon="103.4324423"><ele>420.54</ele><time>2026-03-11T18:15:27.000Z</time></trkpt>
        <trkpt lat="29.8059155" lon="103.432511"><ele>420.13</ele><time>2026-03-11T18:15:33.000Z</time></trkpt>
        <trkpt lat="29.8058938" lon="103.4325749"><ele>420.31</ele><time>2026-03-11T18:15:39.000Z</time></trkpt>
        <trkpt lat="29.8058556" lon="103.4326229"><ele>420.35</ele><time>2026-03-11T18:15:45.000Z</time></trkpt>
        <trkpt lat="29.8058446" lon="103.4326741"><ele>421</ele><time>2026-03-11T18:15:59.000Z</time></trkpt>
        <trkpt lat="29.8058614" lon="103.4327207"><ele>421.84</ele><time>2026-03-11T18:16:05.000Z</time></trkpt>
        <trkpt lat="29.8058808" lon="103.4327698"><ele>421.3</ele><time>2026-03-11T18:16:13.000Z</time></trkpt>
        <trkpt lat="29.8059147" lon="103.4328112"><ele>420.96</ele><time>2026-03-11T18:16:21.000Z</time></trkpt>
        <trkpt lat="29.8059126" lon="103.4328595"><ele>421.49</ele><time>2026-03-11T18:16:33.000Z</time></trkpt>
        <trkpt lat="29.8059126" lon="103.4329126"><ele>423.41</ele><time>2026-03-11T18:16:51.000Z</time></trkpt>
        <trkpt lat="29.8059306" lon="103.4329718"><ele>425.06</ele><time>2026-03-11T18:16:57.000Z</time></trkpt>
        <trkpt lat="29.8059538" lon="103.433021"><ele>425.79</ele><time>2026-03-11T18:17:01.000Z</time></trkpt>
        <trkpt lat="29.8059907" lon="103.433069"><ele>425.7</ele><time>2026-03-11T18:17:05.000Z</time></trkpt>
        <trkpt lat="29.8060146" lon="103.433125"><ele>425.4</ele><time>2026-03-11T18:17:09.000Z</time></trkpt>
        <trkpt lat="29.8060351" lon="103.4331892"><ele>425.44</ele><time>2026-03-11T18:17:15.000Z</time></trkpt>
        <trkpt lat="29.806057" lon="103.4332444"><ele>425.55</ele><time>2026-03-11T18:17:19.000Z</time></trkpt>
        <trkpt lat="29.8060807" lon="103.4332941"><ele>425.28</ele><time>2026-03-11T18:17:23.000Z</time></trkpt>
        <trkpt lat="29.8061079" lon="103.4333413"><ele>424.36</ele><time>2026-03-11T18:17:27.000Z</time></trkpt>
        <trkpt lat="29.8061307" lon="103.4333991"><ele>423.2</ele><time>2026-03-11T18:17:31.000Z</time></trkpt>
        <trkpt lat="29.8061592" lon="103.4334493"><ele>422.16</ele><time>2026-03-11T18:17:35.000Z</time></trkpt>
        <trkpt lat="29.8061736" lon="103.4335032"><ele>421.14</ele><time>2026-03-11T18:17:39.000Z</time></trkpt>
        <trkpt lat="29.8061849" lon="103.433556"><ele>422.89</ele><time>2026-03-11T18:17:43.000Z</time></trkpt>
        <trkpt lat="29.8061794" lon="103.433618"><ele>425.71</ele><time>2026-03-11T18:17:51.000Z</time></trkpt>
        <trkpt lat="29.8061594" lon="103.4336705"><ele>427.8</ele><time>2026-03-11T18:18:03.000Z</time></trkpt>
        <trkpt lat="29.8061445" lon="103.4337239"><ele>427.48</ele><time>2026-03-11T18:18:15.000Z</time></trkpt>
        <trkpt lat="29.8061115" lon="103.4337823"><ele>428.84</ele><time>2026-03-11T18:18:23.000Z</time></trkpt>
        <trkpt lat="29.8060769" lon="103.4338007"><ele>430.51</ele><time>2026-03-11T18:18:29.000Z</time></trkpt>
        <trkpt lat="29.8060443" lon="103.4338311"><ele>432.63</ele><time>2026-03-11T18:18:35.000Z</time></trkpt>
        <trkpt lat="29.8060155" lon="103.433881"><ele>434.33</ele><time>2026-03-11T18:18:49.000Z</time></trkpt>
        <trkpt lat="29.8059679" lon="103.433904"><ele>435.61</ele><time>2026-03-11T18:19:10.000Z</time></trkpt>
        <trkpt lat="29.8059147" lon="103.4339184"><ele>437.78</ele><time>2026-03-11T18:19:18.000Z</time></trkpt>
        <trkpt lat="29.8059001" lon="103.4339481"><ele>440.16</ele><time>2026-03-11T18:19:24.000Z</time></trkpt>
        <trkpt lat="29.8058661" lon="103.4339881"><ele>442.34</ele><time>2026-03-11T18:19:36.000Z</time></trkpt>
        <trkpt lat="29.8058599" lon="103.4340459"><ele>443.06</ele><time>2026-03-11T18:19:44.000Z</time></trkpt>
        <trkpt lat="29.8058295" lon="103.4340888"><ele>444.04</ele><time>2026-03-11T18:20:27.000Z</time></trkpt>
        <trkpt lat="29.80579" lon="103.4341294"><ele>445.77</ele><time>2026-03-11T18:20:41.000Z</time></trkpt>
        <trkpt lat="29.805817" lon="103.4341526"><ele>447.19</ele><time>2026-03-11T18:20:51.000Z</time></trkpt>
        <trkpt lat="29.8058534" lon="103.4341858"><ele>449.55</ele><time>2026-03-11T18:21:15.000Z</time></trkpt>
        <trkpt lat="29.8059037" lon="103.4341749"><ele>451.33</ele><time>2026-03-11T18:21:21.000Z</time></trkpt>
        <trkpt lat="29.8058811" lon="103.4341472"><ele>452.99</ele><time>2026-03-11T18:21:49.000Z</time></trkpt>
        <trkpt lat="29.8058355" lon="103.4341469"><ele>453.97</ele><time>2026-03-11T18:21:55.000Z</time></trkpt>
        <trkpt lat="29.8057918" lon="103.4341764"><ele>454.97</ele><time>2026-03-11T18:22:03.000Z</time></trkpt>
        <trkpt lat="29.8057406" lon="103.4341983"><ele>456.97</ele><time>2026-03-11T18:23:03.000Z</time></trkpt>
        <trkpt lat="29.8056934" lon="103.4341899"><ele>460.39</ele><time>2026-03-11T18:23:09.000Z</time></trkpt>
        <trkpt lat="29.8056524" lon="103.4341608"><ele>463.12</ele><time>2026-03-11T18:23:29.000Z</time></trkpt>
        <trkpt lat="29.8056357" lon="103.4341612"><ele>467.43</ele><time>2026-03-11T18:23:33.000Z</time></trkpt>
        <trkpt lat="29.8057014" lon="103.4341312"><ele>471.59</ele><time>2026-03-11T18:24:53.000Z</time></trkpt>
        <trkpt lat="29.8057597" lon="103.4341562"><ele>474.63</ele><time>2026-03-11T18:24:59.000Z</time></trkpt>
        <trkpt lat="29.8057619" lon="103.4342088"><ele>476.67</ele><time>2026-03-11T18:25:17.000Z</time></trkpt>
        <trkpt lat="29.8057221" lon="103.4342073"><ele>477.83</ele><time>2026-03-11T18:25:47.000Z</time></trkpt>
        <trkpt lat="29.8057079" lon="103.4341997"><ele>479.8</ele><time>2026-03-11T18:25:49.000Z</time></trkpt>
        <trkpt lat="29.8057079" lon="103.4341997"><ele>479.8</ele><time>2026-03-11T18:26:25.000Z</time></trkpt>
        <trkpt lat="29.8057079" lon="103.4341997"><ele>479.8</ele><time>2026-03-11T18:26:36.000Z</time></trkpt>
        <trkpt lat="29.8057079" lon="103.4341997"><ele>479.8</ele><time>2026-03-11T18:26:57.000Z</time></trkpt>
        <trkpt lat="29.8057079" lon="103.4341997"><ele>479.8</ele><time>2026-03-11T18:27:16.000Z</time></trkpt>
        <trkpt lat="29.8057079" lon="103.4341997"><ele>479.8</ele><time>2026-03-11T18:27:33.000Z</time></trkpt>
        <trkpt lat="29.8057079" lon="103.4341997"><ele>479.8</ele><time>2026-03-11T18:27:42.000Z</time></trkpt>
        <trkpt lat="29.8057079" lon="103.4341997"><ele>479.8</ele><time>2026-03-11T18:27:51.000Z</time></trkpt>
        <trkpt lat="29.8060947" lon="103.434394"><ele>480.91</ele><time>2026-03-11T18:28:14.000Z</time></trkpt>
        <trkpt lat="29.8060947" lon="103.434394"><ele>480.91</ele><time>2026-03-11T18:29:02.000Z</time></trkpt>
        <trkpt lat="29.8057103" lon="103.4343917"><ele>483.53</ele><time>2026-03-11T18:29:11.000Z</time></trkpt>
        <trkpt lat="29.8056741" lon="103.434348"><ele>486.84</ele><time>2026-03-11T18:29:21.000Z</time></trkpt>
        <trkpt lat="29.805671" lon="103.4342889"><ele>487.95</ele><time>2026-03-11T18:29:27.000Z</time></trkpt>
        <trkpt lat="29.8057237" lon="103.4342368"><ele>487.68</ele><time>2026-03-11T18:30:01.000Z</time></trkpt>
        <trkpt lat="29.8057846" lon="103.4341762"><ele>484.03</ele><time>2026-03-11T18:30:05.000Z</time></trkpt>
        <trkpt lat="29.8058376" lon="103.4341086"><ele>480.87</ele><time>2026-03-11T18:30:09.000Z</time></trkpt>
        <trkpt lat="29.8058564" lon="103.4340716"><ele>476.99</ele><time>2026-03-11T18:30:11.000Z</time></trkpt>
        <trkpt lat="29.8058564" lon="103.4340716"><ele>476.99</ele><time>2026-03-11T18:30:43.000Z</time></trkpt>
        <trkpt lat="29.805821" lon="103.4340763"><ele>474.54</ele><time>2026-03-11T18:30:48.000Z</time></trkpt>
        <trkpt lat="29.805821" lon="103.4340763"><ele>474.54</ele><time>2026-03-11T18:30:59.000Z</time></trkpt>
        <trkpt lat="29.8057722" lon="103.4340973"><ele>472.62</ele><time>2026-03-11T18:31:07.000Z</time></trkpt>
        <trkpt lat="29.8057084" lon="103.4341101"><ele>470.67</ele><time>2026-03-11T18:31:17.000Z</time></trkpt>
        <trkpt lat="29.8056429" lon="103.4341076"><ele>470.15</ele><time>2026-03-11T18:31:31.000Z</time></trkpt>
        <trkpt lat="29.8055836" lon="103.4341104"><ele>468.44</ele><time>2026-03-11T18:31:37.000Z</time></trkpt>
        <trkpt lat="29.8055211" lon="103.4341262"><ele>467.09</ele><time>2026-03-11T18:31:47.000Z</time></trkpt>
        <trkpt lat="29.8054744" lon="103.4341642"><ele>465.76</ele><time>2026-03-11T18:31:55.000Z</time></trkpt>
        <trkpt lat="29.8055058" lon="103.4341931"><ele>463.54</ele><time>2026-03-11T18:32:01.000Z</time></trkpt>
        <trkpt lat="29.8055741" lon="103.4342058"><ele>462.25</ele><time>2026-03-11T18:32:07.000Z</time></trkpt>
        <trkpt lat="29.8056323" lon="103.4342328"><ele>462.64</ele><time>2026-03-11T18:32:13.000Z</time></trkpt>
        <trkpt lat="29.8056816" lon="103.4342729"><ele>463.54</ele><time>2026-03-11T18:32:23.000Z</time></trkpt>
        <trkpt lat="29.8057276" lon="103.4342593"><ele>467.51</ele><time>2026-03-11T18:32:41.000Z</time></trkpt>
        <trkpt lat="29.8057188" lon="103.4341944"><ele>477.11</ele><time>2026-03-11T18:32:51.000Z</time></trkpt>
        <trkpt lat="29.8056905" lon="103.4341669"><ele>480.99</ele><time>2026-03-11T18:32:57.000Z</time></trkpt>
        <trkpt lat="29.8056215" lon="103.4341454"><ele>482.12</ele><time>2026-03-11T18:33:05.000Z</time></trkpt>
        <trkpt lat="29.8055821" lon="103.4340895"><ele>481.27</ele><time>2026-03-11T18:33:11.000Z</time></trkpt>
        <trkpt lat="29.8055309" lon="103.4340452"><ele>479.65</ele><time>2026-03-11T18:33:17.000Z</time></trkpt>
        <trkpt lat="29.8054897" lon="103.43401"><ele>478.22</ele><time>2026-03-11T18:33:25.000Z</time></trkpt>
        <trkpt lat="29.8054564" lon="103.4340362"><ele>477.08</ele><time>2026-03-11T18:33:49.000Z</time></trkpt>
        <trkpt lat="29.8054085" lon="103.4340399"><ele>478.16</ele><time>2026-03-11T18:33:59.000Z</time></trkpt>
        <trkpt lat="29.805346" lon="103.4340452"><ele>480.18</ele><time>2026-03-11T18:34:05.000Z</time></trkpt>
        <trkpt lat="29.8052961" lon="103.4340698"><ele>482.27</ele><time>2026-03-11T18:34:11.000Z</time></trkpt>
        <trkpt lat="29.8052443" lon="103.4340991"><ele>484.64</ele><time>2026-03-11T18:34:17.000Z</time></trkpt>
        <trkpt lat="29.8051977" lon="103.4341329"><ele>486.02</ele><time>2026-03-11T18:34:23.000Z</time></trkpt>
        <trkpt lat="29.8051534" lon="103.4341519"><ele>486.39</ele><time>2026-03-11T18:34:29.000Z</time></trkpt>
        <trkpt lat="29.805122" lon="103.4342041"><ele>487.16</ele><time>2026-03-11T18:34:37.000Z</time></trkpt>
        <trkpt lat="29.8051012" lon="103.4342554"><ele>487.67</ele><time>2026-03-11T18:34:43.000Z</time></trkpt>
        <trkpt lat="29.8050577" lon="103.4343054"><ele>488.82</ele><time>2026-03-11T18:34:59.000Z</time></trkpt>
        <trkpt lat="29.805026" lon="103.4343629"><ele>490.42</ele><time>2026-03-11T18:35:11.000Z</time></trkpt>
        <trkpt lat="29.8049856" lon="103.4343895"><ele>491.68</ele><time>2026-03-11T18:35:33.000Z</time></trkpt>
        <trkpt lat="29.8049456" lon="103.4344189"><ele>493.38</ele><time>2026-03-11T18:35:43.000Z</time></trkpt>
        <trkpt lat="29.8049098" lon="103.4344592"><ele>494.75</ele><time>2026-03-11T18:35:49.000Z</time></trkpt>
        <trkpt lat="29.8048768" lon="103.4344973"><ele>495.96</ele><time>2026-03-11T18:35:53.000Z</time></trkpt>
        <trkpt lat="29.8048775" lon="103.4345493"><ele>496.77</ele><time>2026-03-11T18:36:01.000Z</time></trkpt>
        <trkpt lat="29.8048623" lon="103.4346074"><ele>498.4</ele><time>2026-03-11T18:36:09.000Z</time></trkpt>
        <trkpt lat="29.8048327" lon="103.434659"><ele>500.18</ele><time>2026-03-11T18:36:17.000Z</time></trkpt>
        <trkpt lat="29.8047955" lon="103.434705"><ele>501.95</ele><time>2026-03-11T18:36:25.000Z</time></trkpt>
        <trkpt lat="29.8047639" lon="103.4347549"><ele>503.39</ele><time>2026-03-11T18:36:33.000Z</time></trkpt>
        <trkpt lat="29.8047205" lon="103.4347923"><ele>504.49</ele><time>2026-03-11T18:36:41.000Z</time></trkpt>
        <trkpt lat="29.8046786" lon="103.4348265"><ele>506.44</ele><time>2026-03-11T18:36:53.000Z</time></trkpt>
        <trkpt lat="29.8046888" lon="103.4348677"><ele>507.53</ele><time>2026-03-11T18:37:01.000Z</time></trkpt>
        <trkpt lat="29.8047165" lon="103.4349256"><ele>507.98</ele><time>2026-03-11T18:37:09.000Z</time></trkpt>
        <trkpt lat="29.8047126" lon="103.4349862"><ele>508.27</ele><time>2026-03-11T18:37:17.000Z</time></trkpt>
        <trkpt lat="29.8046919" lon="103.4350358"><ele>508.52</ele><time>2026-03-11T18:37:23.000Z</time></trkpt>
        <trkpt lat="29.8046727" lon="103.4350935"><ele>508.44</ele><time>2026-03-11T18:37:29.000Z</time></trkpt>
        <trkpt lat="29.8046587" lon="103.4351473"><ele>508.24</ele><time>2026-03-11T18:37:35.000Z</time></trkpt>
        <trkpt lat="29.8046377" lon="103.4351951"><ele>508.62</ele><time>2026-03-11T18:37:43.000Z</time></trkpt>
        <trkpt lat="29.8046222" lon="103.4352454"><ele>507.91</ele><time>2026-03-11T18:37:53.000Z</time></trkpt>
        <trkpt lat="29.8046179" lon="103.435274"><ele>507.33</ele><time>2026-03-11T18:37:57.000Z</time></trkpt>
        <trkpt lat="29.804655" lon="103.4352988"><ele>507.48</ele><time>2026-03-11T18:38:05.000Z</time></trkpt>
        <trkpt lat="29.8047" lon="103.4353227"><ele>508.34</ele><time>2026-03-11T18:38:11.000Z</time></trkpt>
        <trkpt lat="29.8047294" lon="103.4353775"><ele>509.91</ele><time>2026-03-11T18:38:19.000Z</time></trkpt>
        <trkpt lat="29.8047196" lon="103.4354333"><ele>510.08</ele><time>2026-03-11T18:38:25.000Z</time></trkpt>
        <trkpt lat="29.8046772" lon="103.4354566"><ele>510.2</ele><time>2026-03-11T18:38:31.000Z</time></trkpt>
        <trkpt lat="29.8046227" lon="103.4354788"><ele>510.51</ele><time>2026-03-11T18:38:39.000Z</time></trkpt>
        <trkpt lat="29.8046037" lon="103.4354843"><ele>511.21</ele><time>2026-03-11T18:38:41.000Z</time></trkpt>
        <trkpt lat="29.8046037" lon="103.4354843"><ele>511.21</ele><time>2026-03-11T18:38:57.000Z</time></trkpt>
        <trkpt lat="29.8046281" lon="103.4355224"><ele>511.62</ele><time>2026-03-11T18:39:02.000Z</time></trkpt>
        <trkpt lat="29.8046281" lon="103.4355224"><ele>511.62</ele><time>2026-03-11T18:39:05.000Z</time></trkpt>
        <trkpt lat="29.8046047" lon="103.4355228"><ele>512.32</ele><time>2026-03-11T18:39:11.000Z</time></trkpt>
        <trkpt lat="29.8046047" lon="103.4355228"><ele>512.32</ele><time>2026-03-11T18:39:25.000Z</time></trkpt>
        <trkpt lat="29.8045486" lon="103.4355527"><ele>513.12</ele><time>2026-03-11T18:39:44.000Z</time></trkpt>
        <trkpt lat="29.8045486" lon="103.4355527"><ele>513.12</ele><time>2026-03-11T18:40:33.000Z</time></trkpt>
        <trkpt lat="29.8045071" lon="103.4355811"><ele>513.71</ele><time>2026-03-11T18:40:39.000Z</time></trkpt>
        <trkpt lat="29.8044595" lon="103.4356141"><ele>514.75</ele><time>2026-03-11T18:40:49.000Z</time></trkpt>
        <trkpt lat="29.8044276" lon="103.4356641"><ele>515.21</ele><time>2026-03-11T18:40:55.000Z</time></trkpt>
        <trkpt lat="29.8043754" lon="103.4357148"><ele>516.13</ele><time>2026-03-11T18:41:07.000Z</time></trkpt>
        <trkpt lat="29.8043614" lon="103.4357275"><ele>516.45</ele><time>2026-03-11T18:41:09.000Z</time></trkpt>
        <trkpt lat="29.8043238" lon="103.4357459"><ele>516.62</ele><time>2026-03-11T18:41:21.000Z</time></trkpt>
        <trkpt lat="29.8042781" lon="103.4357676"><ele>518.72</ele><time>2026-03-11T18:41:29.000Z</time></trkpt>
        <trkpt lat="29.8042389" lon="103.4357998"><ele>520.69</ele><time>2026-03-11T18:41:39.000Z</time></trkpt>
        <trkpt lat="29.8042165" lon="103.4358493"><ele>522.57</ele><time>2026-03-11T18:41:47.000Z</time></trkpt>
        <trkpt lat="29.8041915" lon="103.4358948"><ele>523.53</ele><time>2026-03-11T18:41:53.000Z</time></trkpt>
        <trkpt lat="29.8041568" lon="103.4359444"><ele>524.48</ele><time>2026-03-11T18:42:03.000Z</time></trkpt>
        <trkpt lat="29.8041522" lon="103.4360052"><ele>525.54</ele><time>2026-03-11T18:42:11.000Z</time></trkpt>
        <trkpt lat="29.804143" lon="103.436067"><ele>526.15</ele><time>2026-03-11T18:42:17.000Z</time></trkpt>
        <trkpt lat="29.8041544" lon="103.4360704"><ele>528.29</ele><time>2026-03-11T18:42:19.000Z</time></trkpt>
        <trkpt lat="29.8041825" lon="103.4361036"><ele>528.56</ele><time>2026-03-11T18:42:31.000Z</time></trkpt>
        <trkpt lat="29.8041896" lon="103.4361517"><ele>527.71</ele><time>2026-03-11T18:42:37.000Z</time></trkpt>
        <trkpt lat="29.8041579" lon="103.4361803"><ele>526.73</ele><time>2026-03-11T18:42:43.000Z</time></trkpt>
        <trkpt lat="29.8041069" lon="103.4362079"><ele>525.51</ele><time>2026-03-11T18:42:51.000Z</time></trkpt>
        <trkpt lat="29.8040886" lon="103.4362154"><ele>525.09</ele><time>2026-03-11T18:42:55.000Z</time></trkpt>
        <trkpt lat="29.804049" lon="103.4362263"><ele>524.75</ele><time>2026-03-11T18:43:01.000Z</time></trkpt>
        <trkpt lat="29.804002" lon="103.4362251"><ele>524.32</ele><time>2026-03-11T18:43:05.000Z</time></trkpt>
        <trkpt lat="29.8039493" lon="103.4362162"><ele>523.88</ele><time>2026-03-11T18:43:09.000Z</time></trkpt>
        <trkpt lat="29.8038911" lon="103.436203"><ele>523.84</ele><time>2026-03-11T18:43:15.000Z</time></trkpt>
        <trkpt lat="29.8038484" lon="103.4362374"><ele>524.01</ele><time>2026-03-11T18:43:21.000Z</time></trkpt>
        <trkpt lat="29.8038448" lon="103.4362998"><ele>524.68</ele><time>2026-03-11T18:43:29.000Z</time></trkpt>
        <trkpt lat="29.8038278" lon="103.4363589"><ele>525.14</ele><time>2026-03-11T18:43:35.000Z</time></trkpt>
        <trkpt lat="29.8037964" lon="103.4364175"><ele>525.14</ele><time>2026-03-11T18:43:41.000Z</time></trkpt>
        <trkpt lat="29.8037779" lon="103.4364321"><ele>523.87</ele><time>2026-03-11T18:43:43.000Z</time></trkpt>
        <trkpt lat="29.8037461" lon="103.4364059"><ele>523.26</ele><time>2026-03-11T18:44:07.000Z</time></trkpt>
        <trkpt lat="29.8037284" lon="103.4363901"><ele>522.5</ele><time>2026-03-11T18:44:09.000Z</time></trkpt>
        <trkpt lat="29.8036891" lon="103.4363868"><ele>522.46</ele><time>2026-03-11T18:44:15.000Z</time></trkpt>
        <trkpt lat="29.8036444" lon="103.4364109"><ele>523.41</ele><time>2026-03-11T18:44:33.000Z</time></trkpt>
        <trkpt lat="29.8036444" lon="103.4364109"><ele>523.41</ele><time>2026-03-11T18:45:15.000Z</time></trkpt>
        <trkpt lat="29.8035988" lon="103.4364593"><ele>523.24</ele><time>2026-03-11T18:45:18.000Z</time></trkpt>
        <trkpt lat="29.8035988" lon="103.4364593"><ele>523.24</ele><time>2026-03-11T18:45:23.000Z</time></trkpt>
        <trkpt lat="29.8036082" lon="103.4365124"><ele>523.53</ele><time>2026-03-11T18:45:51.000Z</time></trkpt>
        <trkpt lat="29.8035976" lon="103.4365736"><ele>524.15</ele><time>2026-03-11T18:46:05.000Z</time></trkpt>
        <trkpt lat="29.8035817" lon="103.4366298"><ele>525.19</ele><time>2026-03-11T18:46:11.000Z</time></trkpt>
        <trkpt lat="29.8035825" lon="103.4366885"><ele>525.8</ele><time>2026-03-11T18:46:21.000Z</time></trkpt>
        <trkpt lat="29.8035767" lon="103.4367517"><ele>526.06</ele><time>2026-03-11T18:46:27.000Z</time></trkpt>
        <trkpt lat="29.8035257" lon="103.4368024"><ele>527.02</ele><time>2026-03-11T18:46:31.000Z</time></trkpt>
        <trkpt lat="29.8034923" lon="103.4368565"><ele>527.23</ele><time>2026-03-11T18:46:37.000Z</time></trkpt>
        <trkpt lat="29.8035137" lon="103.4368694"><ele>528.56</ele><time>2026-03-11T18:46:47.000Z</time></trkpt>
        <trkpt lat="29.8034827" lon="103.4368734"><ele>529.46</ele><time>2026-03-11T18:47:05.000Z</time></trkpt>
        <trkpt lat="29.803431" lon="103.4368665"><ele>530</ele><time>2026-03-11T18:47:23.000Z</time></trkpt>
        <trkpt lat="29.8033767" lon="103.4368607"><ele>529.79</ele><time>2026-03-11T18:47:31.000Z</time></trkpt>
        <trkpt lat="29.8033248" lon="103.4368891"><ele>528.59</ele><time>2026-03-11T18:47:37.000Z</time></trkpt>
        <trkpt lat="29.8032977" lon="103.4369205"><ele>528.16</ele><time>2026-03-11T18:47:41.000Z</time></trkpt>
        <trkpt lat="29.8032578" lon="103.4369403"><ele>527.66</ele><time>2026-03-11T18:47:47.000Z</time></trkpt>
        <trkpt lat="29.8032061" lon="103.4369523"><ele>527.95</ele><time>2026-03-11T18:47:53.000Z</time></trkpt>
        <trkpt lat="29.8031463" lon="103.4369619"><ele>528.41</ele><time>2026-03-11T18:47:59.000Z</time></trkpt>
        <trkpt lat="29.8030879" lon="103.436982"><ele>529.02</ele><time>2026-03-11T18:48:05.000Z</time></trkpt>
        <trkpt lat="29.8030323" lon="103.4370184"><ele>529.79</ele><time>2026-03-11T18:48:11.000Z</time></trkpt>
        <trkpt lat="29.8029751" lon="103.4370292"><ele>530.92</ele><time>2026-03-11T18:48:17.000Z</time></trkpt>
        <trkpt lat="29.802928" lon="103.4370172"><ele>531.95</ele><time>2026-03-11T18:48:25.000Z</time></trkpt>
        <trkpt lat="29.8029113" lon="103.436964"><ele>532.99</ele><time>2026-03-11T18:48:35.000Z</time></trkpt>
        <trkpt lat="29.8028875" lon="103.4368939"><ele>534.03</ele><time>2026-03-11T18:48:41.000Z</time></trkpt>
        <trkpt lat="29.802877" lon="103.4368219"><ele>535.91</ele><time>2026-03-11T18:48:47.000Z</time></trkpt>
        <trkpt lat="29.8028456" lon="103.4367821"><ele>537.79</ele><time>2026-03-11T18:48:57.000Z</time></trkpt>
        <trkpt lat="29.8028585" lon="103.4367655"><ele>537.74</ele><time>2026-03-11T18:49:13.000Z</time></trkpt>
        <trkpt lat="29.802896" lon="103.4367277"><ele>538.33</ele><time>2026-03-11T18:49:31.000Z</time></trkpt>
        <trkpt lat="29.8029531" lon="103.4367145"><ele>538.81</ele><time>2026-03-11T18:49:49.000Z</time></trkpt>
        <trkpt lat="29.8029347" lon="103.4367447"><ele>539.87</ele><time>2026-03-11T18:50:33.000Z</time></trkpt>
        <trkpt lat="29.8029509" lon="103.4367849"><ele>539.96</ele><time>2026-03-11T18:50:41.000Z</time></trkpt>
        <trkpt lat="29.8029953" lon="103.4367706"><ele>539.42</ele><time>2026-03-11T18:50:47.000Z</time></trkpt>
        <trkpt lat="29.8030451" lon="103.4367411"><ele>539.27</ele><time>2026-03-11T18:50:55.000Z</time></trkpt>
        <trkpt lat="29.8030979" lon="103.4367181"><ele>538.56</ele><time>2026-03-11T18:51:15.000Z</time></trkpt>
        <trkpt lat="29.8030791" lon="103.436731"><ele>538.66</ele><time>2026-03-11T18:51:41.000Z</time></trkpt>
        <trkpt lat="29.8030791" lon="103.436731"><ele>538.66</ele><time>2026-03-11T18:53:29.000Z</time></trkpt>
        <trkpt lat="29.8030791" lon="103.436731"><ele>538.66</ele><time>2026-03-11T18:53:38.000Z</time></trkpt>
        <trkpt lat="29.8030791" lon="103.436731"><ele>538.66</ele><time>2026-03-11T18:54:33.000Z</time></trkpt>
        <trkpt lat="29.8030374" lon="103.4367888"><ele>538.62</ele><time>2026-03-11T18:54:40.000Z</time></trkpt>
        <trkpt lat="29.8030374" lon="103.4367888"><ele>538.62</ele><time>2026-03-11T18:55:07.000Z</time></trkpt>
        <trkpt lat="29.8030374" lon="103.4367888"><ele>538.62</ele><time>2026-03-11T18:55:35.000Z</time></trkpt>
        <trkpt lat="29.8030752" lon="103.436756"><ele>541.44</ele><time>2026-03-11T18:56:02.000Z</time></trkpt>
        <trkpt lat="29.8030752" lon="103.436756"><ele>541.44</ele><time>2026-03-11T18:56:09.000Z</time></trkpt>
        <trkpt lat="29.8030752" lon="103.436756"><ele>541.44</ele><time>2026-03-11T18:56:19.000Z</time></trkpt>
        <trkpt lat="29.8030752" lon="103.436756"><ele>541.44</ele><time>2026-03-11T18:56:40.000Z</time></trkpt>
        <trkpt lat="29.8030752" lon="103.436756"><ele>541.44</ele><time>2026-03-11T18:56:53.000Z</time></trkpt>
        <trkpt lat="29.8030752" lon="103.436756"><ele>541.44</ele><time>2026-03-11T18:57:04.000Z</time></trkpt>
        <trkpt lat="29.8030752" lon="103.436756"><ele>541.44</ele><time>2026-03-11T18:57:13.000Z</time></trkpt>
        <trkpt lat="29.8030752" lon="103.436756"><ele>541.44</ele><time>2026-03-11T18:57:22.000Z</time></trkpt>
        <trkpt lat="29.8030752" lon="103.436756"><ele>541.44</ele><time>2026-03-11T18:57:39.000Z</time></trkpt>
        <trkpt lat="29.8031159" lon="103.4367327"><ele>540.93</ele><time>2026-03-11T18:57:42.000Z</time></trkpt>
        <trkpt lat="29.8031159" lon="103.4367327"><ele>540.93</ele><time>2026-03-11T19:09:40.000Z</time></trkpt>
        <trkpt lat="29.8030649" lon="103.4367271"><ele>539.04</ele><time>2026-03-11T19:11:22.000Z</time></trkpt>
        <trkpt lat="29.8030189" lon="103.4367149"><ele>538.96</ele><time>2026-03-11T19:11:30.000Z</time></trkpt>
        <trkpt lat="29.8030039" lon="103.4367191"><ele>538.91</ele><time>2026-03-11T19:11:34.000Z</time></trkpt>
        <trkpt lat="29.8030039" lon="103.4367191"><ele>538.91</ele><time>2026-03-11T19:11:45.000Z</time></trkpt>
        <trkpt lat="29.8030113" lon="103.4367835"><ele>538.93</ele><time>2026-03-11T19:11:56.000Z</time></trkpt>
        <trkpt lat="29.8030113" lon="103.4367835"><ele>538.93</ele><time>2026-03-11T19:11:59.000Z</time></trkpt>
        <trkpt lat="29.8030113" lon="103.4367835"><ele>538.93</ele><time>2026-03-11T19:12:07.000Z</time></trkpt>
        <trkpt lat="29.8030088" lon="103.4367194"><ele>543.05</ele><time>2026-03-11T19:12:20.000Z</time></trkpt>
        <trkpt lat="29.8030088" lon="103.4367194"><ele>543.05</ele><time>2026-03-11T19:12:25.000Z</time></trkpt>
        <trkpt lat="29.8030088" lon="103.4367194"><ele>543.05</ele><time>2026-03-11T19:12:29.000Z</time></trkpt>
        <trkpt lat="29.8029821" lon="103.4367441"><ele>545.4</ele><time>2026-03-11T19:12:34.000Z</time></trkpt>
        <trkpt lat="29.8029821" lon="103.4367441"><ele>545.4</ele><time>2026-03-11T19:12:39.000Z</time></trkpt>
        <trkpt lat="29.8029821" lon="103.4367441"><ele>545.4</ele><time>2026-03-11T19:12:49.000Z</time></trkpt>
        <trkpt lat="29.803007" lon="103.4367757"><ele>539.65</ele><time>2026-03-11T19:12:50.000Z</time></trkpt>
        <trkpt lat="29.803007" lon="103.4367757"><ele>539.65</ele><time>2026-03-11T19:12:58.000Z</time></trkpt>
        <trkpt lat="29.8029766" lon="103.4367975"><ele>536.96</ele><time>2026-03-11T19:13:29.000Z</time></trkpt>
        <trkpt lat="29.8029244" lon="103.4368038"><ele>537.22</ele><time>2026-03-11T19:13:33.000Z</time></trkpt>
        <trkpt lat="29.8029244" lon="103.4368038"><ele>537.22</ele><time>2026-03-11T19:14:29.000Z</time></trkpt>
        <trkpt lat="29.8028412" lon="103.4368305"><ele>537.74</ele><time>2026-03-11T19:15:02.000Z</time></trkpt>
        <trkpt lat="29.8028412" lon="103.4368305"><ele>537.74</ele><time>2026-03-11T19:15:05.000Z</time></trkpt>
        <trkpt lat="29.8028031" lon="103.4367911"><ele>538.83</ele><time>2026-03-11T19:15:11.000Z</time></trkpt>
        <trkpt lat="29.802777" lon="103.4367474"><ele>541.89</ele><time>2026-03-11T19:15:19.000Z</time></trkpt>
        <trkpt lat="29.8027377" lon="103.4366976"><ele>542.68</ele><time>2026-03-11T19:15:29.000Z</time></trkpt>
        <trkpt lat="29.8026886" lon="103.4366725"><ele>542.39</ele><time>2026-03-11T19:15:37.000Z</time></trkpt>
        <trkpt lat="29.8026452" lon="103.436647"><ele>542.72</ele><time>2026-03-11T19:15:43.000Z</time></trkpt>
        <trkpt lat="29.802599" lon="103.4366254"><ele>542.87</ele><time>2026-03-11T19:15:49.000Z</time></trkpt>
        <trkpt lat="29.8025469" lon="103.4366049"><ele>543.64</ele><time>2026-03-11T19:15:55.000Z</time></trkpt>
        <trkpt lat="29.8024894" lon="103.4366118"><ele>544.56</ele><time>2026-03-11T19:16:01.000Z</time></trkpt>
        <trkpt lat="29.8024386" lon="103.4366485"><ele>545.46</ele><time>2026-03-11T19:16:07.000Z</time></trkpt>
        <trkpt lat="29.8024127" lon="103.4367098"><ele>546.22</ele><time>2026-03-11T19:16:13.000Z</time></trkpt>
        <trkpt lat="29.8024034" lon="103.4367816"><ele>546.32</ele><time>2026-03-11T19:16:19.000Z</time></trkpt>
        <trkpt lat="29.8024084" lon="103.436853"><ele>547.05</ele><time>2026-03-11T19:16:25.000Z</time></trkpt>
        <trkpt lat="29.802414" lon="103.4369198"><ele>548.06</ele><time>2026-03-11T19:16:31.000Z</time></trkpt>
        <trkpt lat="29.802418" lon="103.4369855"><ele>548.95</ele><time>2026-03-11T19:16:37.000Z</time></trkpt>
        <trkpt lat="29.8023985" lon="103.4370486"><ele>549.58</ele><time>2026-03-11T19:16:43.000Z</time></trkpt>
        <trkpt lat="29.8023621" lon="103.437108"><ele>550.37</ele><time>2026-03-11T19:16:49.000Z</time></trkpt>
        <trkpt lat="29.8023203" lon="103.4371451"><ele>551.47</ele><time>2026-03-11T19:16:53.000Z</time></trkpt>
        <trkpt lat="29.8022684" lon="103.4371802"><ele>552.37</ele><time>2026-03-11T19:16:59.000Z</time></trkpt>
        <trkpt lat="29.8022225" lon="103.4372256"><ele>553.16</ele><time>2026-03-11T19:17:05.000Z</time></trkpt>
        <trkpt lat="29.8021683" lon="103.4372643"><ele>553.96</ele><time>2026-03-11T19:17:11.000Z</time></trkpt>
        <trkpt lat="29.8021119" lon="103.4373019"><ele>554.28</ele><time>2026-03-11T19:17:17.000Z</time></trkpt>
        <trkpt lat="29.8020488" lon="103.4373275"><ele>554.93</ele><time>2026-03-11T19:17:23.000Z</time></trkpt>
        <trkpt lat="29.801985" lon="103.43734"><ele>554.95</ele><time>2026-03-11T19:17:29.000Z</time></trkpt>
        <trkpt lat="29.8019203" lon="103.4373275"><ele>555.06</ele><time>2026-03-11T19:17:35.000Z</time></trkpt>
        <trkpt lat="29.8018638" lon="103.4373082"><ele>555.32</ele><time>2026-03-11T19:17:41.000Z</time></trkpt>
        <trkpt lat="29.8018045" lon="103.4372939"><ele>555.54</ele><time>2026-03-11T19:17:47.000Z</time></trkpt>
        <trkpt lat="29.8017515" lon="103.4373058"><ele>555.72</ele><time>2026-03-11T19:17:53.000Z</time></trkpt>
        <trkpt lat="29.8016998" lon="103.4373324"><ele>556.67</ele><time>2026-03-11T19:17:59.000Z</time></trkpt>
        <trkpt lat="29.8016462" lon="103.4373616"><ele>556.9</ele><time>2026-03-11T19:18:05.000Z</time></trkpt>
        <trkpt lat="29.8015917" lon="103.437382"><ele>557.66</ele><time>2026-03-11T19:18:11.000Z</time></trkpt>
        <trkpt lat="29.8015434" lon="103.4374006"><ele>558.87</ele><time>2026-03-11T19:18:17.000Z</time></trkpt>
        <trkpt lat="29.8014969" lon="103.4374241"><ele>559.68</ele><time>2026-03-11T19:18:23.000Z</time></trkpt>
        <trkpt lat="29.8014436" lon="103.437449"><ele>560.29</ele><time>2026-03-11T19:18:29.000Z</time></trkpt>
        <trkpt lat="29.801389" lon="103.4374856"><ele>561.36</ele><time>2026-03-11T19:18:35.000Z</time></trkpt>
        <trkpt lat="29.8013473" lon="103.4375405"><ele>561.9</ele><time>2026-03-11T19:18:41.000Z</time></trkpt>
        <trkpt lat="29.8013076" lon="103.4376012"><ele>562.74</ele><time>2026-03-11T19:18:47.000Z</time></trkpt>
        <trkpt lat="29.801283" lon="103.4376584"><ele>563.71</ele><time>2026-03-11T19:18:53.000Z</time></trkpt>
        <trkpt lat="29.8012516" lon="103.4377106"><ele>564.81</ele><time>2026-03-11T19:18:59.000Z</time></trkpt>
        <trkpt lat="29.801215" lon="103.4377573"><ele>565.34</ele><time>2026-03-11T19:19:05.000Z</time></trkpt>
        <trkpt lat="29.8011763" lon="103.4377996"><ele>565.91</ele><time>2026-03-11T19:19:15.000Z</time></trkpt>
        <trkpt lat="29.8011455" lon="103.4378511"><ele>566.83</ele><time>2026-03-11T19:19:21.000Z</time></trkpt>
        <trkpt lat="29.801119" lon="103.4379128"><ele>567.44</ele><time>2026-03-11T19:19:27.000Z</time></trkpt>
        <trkpt lat="29.8010844" lon="103.4379694"><ele>567.79</ele><time>2026-03-11T19:19:37.000Z</time></trkpt>
        <trkpt lat="29.8010513" lon="103.4380216"><ele>568.17</ele><time>2026-03-11T19:19:43.000Z</time></trkpt>
        <trkpt lat="29.8010278" lon="103.4380849"><ele>568.19</ele><time>2026-03-11T19:19:49.000Z</time></trkpt>
        <trkpt lat="29.8010277" lon="103.4381407"><ele>568.91</ele><time>2026-03-11T19:19:53.000Z</time></trkpt>
        <trkpt lat="29.8010436" lon="103.4381949"><ele>568.93</ele><time>2026-03-11T19:20:03.000Z</time></trkpt>
        <trkpt lat="29.801061" lon="103.4382619"><ele>569.87</ele><time>2026-03-11T19:20:11.000Z</time></trkpt>
        <trkpt lat="29.8010782" lon="103.4383321"><ele>570.62</ele><time>2026-03-11T19:20:17.000Z</time></trkpt>
        <trkpt lat="29.8011177" lon="103.4383768"><ele>570.52</ele><time>2026-03-11T19:20:23.000Z</time></trkpt>
        <trkpt lat="29.8011776" lon="103.4384078"><ele>569.93</ele><time>2026-03-11T19:20:31.000Z</time></trkpt>
        <trkpt lat="29.8012429" lon="103.438432"><ele>569.52</ele><time>2026-03-11T19:20:37.000Z</time></trkpt>
        <trkpt lat="29.8012938" lon="103.4384566"><ele>569.78</ele><time>2026-03-11T19:20:41.000Z</time></trkpt>
        <trkpt lat="29.8013361" lon="103.4384807"><ele>570.15</ele><time>2026-03-11T19:20:45.000Z</time></trkpt>
        <trkpt lat="29.8013734" lon="103.4385078"><ele>570.52</ele><time>2026-03-11T19:20:49.000Z</time></trkpt>
        <trkpt lat="29.8014039" lon="103.4385472"><ele>570.9</ele><time>2026-03-11T19:20:53.000Z</time></trkpt>
        <trkpt lat="29.8014219" lon="103.4386059"><ele>571.22</ele><time>2026-03-11T19:20:57.000Z</time></trkpt>
        <trkpt lat="29.801425" lon="103.4386682"><ele>571.6</ele><time>2026-03-11T19:21:01.000Z</time></trkpt>
        <trkpt lat="29.8014153" lon="103.4387286"><ele>571.67</ele><time>2026-03-11T19:21:05.000Z</time></trkpt>
        <trkpt lat="29.8014185" lon="103.4387885"><ele>572.12</ele><time>2026-03-11T19:21:09.000Z</time></trkpt>
        <trkpt lat="29.8014176" lon="103.4388439"><ele>571.93</ele><time>2026-03-11T19:21:13.000Z</time></trkpt>
        <trkpt lat="29.8014094" lon="103.4388978"><ele>572.21</ele><time>2026-03-11T19:21:17.000Z</time></trkpt>
        <trkpt lat="29.8014072" lon="103.4389539"><ele>572.26</ele><time>2026-03-11T19:21:21.000Z</time></trkpt>
        <trkpt lat="29.8014024" lon="103.4390087"><ele>572.45</ele><time>2026-03-11T19:21:25.000Z</time></trkpt>
        <trkpt lat="29.8013715" lon="103.4390456"><ele>571.39</ele><time>2026-03-11T19:21:29.000Z</time></trkpt>
        <trkpt lat="29.8013255" lon="103.4390666"><ele>570.69</ele><time>2026-03-11T19:21:33.000Z</time></trkpt>
        <trkpt lat="29.8012843" lon="103.4390953"><ele>570.25</ele><time>2026-03-11T19:21:41.000Z</time></trkpt>
        <trkpt lat="29.8012444" lon="103.4391451"><ele>570.37</ele><time>2026-03-11T19:21:49.000Z</time></trkpt>
        <trkpt lat="29.801194" lon="103.439185"><ele>572.13</ele><time>2026-03-11T19:21:55.000Z</time></trkpt>
        <trkpt lat="29.8011443" lon="103.4392301"><ele>573.7</ele><time>2026-03-11T19:22:01.000Z</time></trkpt>
        <trkpt lat="29.8011203" lon="103.4392553"><ele>575.94</ele><time>2026-03-11T19:22:05.000Z</time></trkpt>
        <trkpt lat="29.8011006" lon="103.4393044"><ele>576.65</ele><time>2026-03-11T19:22:19.000Z</time></trkpt>
        <trkpt lat="29.8010659" lon="103.4393494"><ele>576.99</ele><time>2026-03-11T19:22:25.000Z</time></trkpt>
        <trkpt lat="29.8010212" lon="103.4393934"><ele>576.54</ele><time>2026-03-11T19:22:31.000Z</time></trkpt>
        <trkpt lat="29.8009808" lon="103.4394405"><ele>577.7</ele><time>2026-03-11T19:22:37.000Z</time></trkpt>
        <trkpt lat="29.8009846" lon="103.439501"><ele>579.76</ele><time>2026-03-11T19:22:43.000Z</time></trkpt>
        <trkpt lat="29.8009626" lon="103.43956"><ele>582.11</ele><time>2026-03-11T19:22:49.000Z</time></trkpt>
        <trkpt lat="29.8009492" lon="103.439619"><ele>582.52</ele><time>2026-03-11T19:22:53.000Z</time></trkpt>
        <trkpt lat="29.80095" lon="103.4396831"><ele>582.84</ele><time>2026-03-11T19:22:59.000Z</time></trkpt>
        <trkpt lat="29.800938" lon="103.4397443"><ele>582.16</ele><time>2026-03-11T19:23:05.000Z</time></trkpt>
        <trkpt lat="29.8009168" lon="103.4397934"><ele>580.86</ele><time>2026-03-11T19:23:09.000Z</time></trkpt>
        <trkpt lat="29.8008841" lon="103.4398319"><ele>580.35</ele><time>2026-03-11T19:23:13.000Z</time></trkpt>
        <trkpt lat="29.8008481" lon="103.4398674"><ele>580.19</ele><time>2026-03-11T19:23:17.000Z</time></trkpt>
        <trkpt lat="29.800812" lon="103.4399034"><ele>580.49</ele><time>2026-03-11T19:23:21.000Z</time></trkpt>
        <trkpt lat="29.8007768" lon="103.4399395"><ele>580.99</ele><time>2026-03-11T19:23:25.000Z</time></trkpt>
        <trkpt lat="29.8007441" lon="103.4399765"><ele>582.05</ele><time>2026-03-11T19:23:29.000Z</time></trkpt>
        <trkpt lat="29.8007441" lon="103.4399765"><ele>582.05</ele><time>2026-03-11T19:24:07.000Z</time></trkpt>
        <trkpt lat="29.8006779" lon="103.4400054"><ele>581.91</ele><time>2026-03-11T19:24:08.000Z</time></trkpt>
        <trkpt lat="29.8006779" lon="103.4400054"><ele>581.91</ele><time>2026-03-11T19:24:27.000Z</time></trkpt>
        <trkpt lat="29.8006467" lon="103.4400314"><ele>581.74</ele><time>2026-03-11T19:24:31.000Z</time></trkpt>
        <trkpt lat="29.8006197" lon="103.4400736"><ele>581.62</ele><time>2026-03-11T19:24:47.000Z</time></trkpt>
        <trkpt lat="29.8006159" lon="103.440083"><ele>583.4</ele><time>2026-03-11T19:24:49.000Z</time></trkpt>
        <trkpt lat="29.8006278" lon="103.4400443"><ele>584.36</ele><time>2026-03-11T19:24:57.000Z</time></trkpt>
        <trkpt lat="29.8005932" lon="103.4400462"><ele>584.85</ele><time>2026-03-11T19:25:01.000Z</time></trkpt>
        <trkpt lat="29.8005466" lon="103.4400775"><ele>585.72</ele><time>2026-03-11T19:25:07.000Z</time></trkpt>
        <trkpt lat="29.8005009" lon="103.4401085"><ele>586.76</ele><time>2026-03-11T19:25:11.000Z</time></trkpt>
        <trkpt lat="29.8004686" lon="103.4401566"><ele>586.96</ele><time>2026-03-11T19:25:15.000Z</time></trkpt>
        <trkpt lat="29.8004497" lon="103.4402159"><ele>587.36</ele><time>2026-03-11T19:25:19.000Z</time></trkpt>
        <trkpt lat="29.8004342" lon="103.4402718"><ele>587.83</ele><time>2026-03-11T19:25:23.000Z</time></trkpt>
        <trkpt lat="29.8004255" lon="103.4403125"><ele>588.5</ele><time>2026-03-11T19:25:29.000Z</time></trkpt>
        <trkpt lat="29.8004006" lon="103.440349"><ele>588.13</ele><time>2026-03-11T19:26:03.000Z</time></trkpt>
        <trkpt lat="29.8003694" lon="103.4403202"><ele>588.65</ele><time>2026-03-11T19:26:09.000Z</time></trkpt>
        <trkpt lat="29.8003484" lon="103.4402561"><ele>588.52</ele><time>2026-03-11T19:26:15.000Z</time></trkpt>
        <trkpt lat="29.8003377" lon="103.4401891"><ele>588.16</ele><time>2026-03-11T19:26:19.000Z</time></trkpt>
        <trkpt lat="29.8002981" lon="103.4401612"><ele>588.36</ele><time>2026-03-11T19:26:23.000Z</time></trkpt>
        <trkpt lat="29.8002478" lon="103.4401287"><ele>588.43</ele><time>2026-03-11T19:26:29.000Z</time></trkpt>
        <trkpt lat="29.800191" lon="103.4401196"><ele>589.96</ele><time>2026-03-11T19:26:35.000Z</time></trkpt>
        <trkpt lat="29.8001327" lon="103.4401483"><ele>589.64</ele><time>2026-03-11T19:26:47.000Z</time></trkpt>
        <trkpt lat="29.8000789" lon="103.4401731"><ele>589.33</ele><time>2026-03-11T19:26:51.000Z</time></trkpt>
        <trkpt lat="29.8000304" lon="103.4401973"><ele>589.75</ele><time>2026-03-11T19:26:55.000Z</time></trkpt>
        <trkpt lat="29.7999703" lon="103.4402175"><ele>589.49</ele><time>2026-03-11T19:27:01.000Z</time></trkpt>
        <trkpt lat="29.7999157" lon="103.4402344"><ele>589.29</ele><time>2026-03-11T19:27:05.000Z</time></trkpt>
        <trkpt lat="29.7998684" lon="103.4402578"><ele>589.25</ele><time>2026-03-11T19:27:09.000Z</time></trkpt>
        <trkpt lat="29.799827" lon="103.4402855"><ele>588.89</ele><time>2026-03-11T19:27:13.000Z</time></trkpt>
        <trkpt lat="29.7997922" lon="103.4403213"><ele>588.64</ele><time>2026-03-11T19:27:17.000Z</time></trkpt>
        <trkpt lat="29.7997533" lon="103.4403704"><ele>588.8</ele><time>2026-03-11T19:27:23.000Z</time></trkpt>
        <trkpt lat="29.7996981" lon="103.4403874"><ele>587.69</ele><time>2026-03-11T19:27:29.000Z</time></trkpt>
        <trkpt lat="29.7996432" lon="103.4404005"><ele>586.85</ele><time>2026-03-11T19:27:33.000Z</time></trkpt>
        <trkpt lat="29.7995921" lon="103.4404174"><ele>586.78</ele><time>2026-03-11T19:27:37.000Z</time></trkpt>
        <trkpt lat="29.799549" lon="103.4404455"><ele>587.07</ele><time>2026-03-11T19:27:41.000Z</time></trkpt>
        <trkpt lat="29.7995084" lon="103.4404891"><ele>587.32</ele><time>2026-03-11T19:27:45.000Z</time></trkpt>
        <trkpt lat="29.7994838" lon="103.4405513"><ele>588.51</ele><time>2026-03-11T19:27:49.000Z</time></trkpt>
        <trkpt lat="29.7994656" lon="103.4406121"><ele>588.82</ele><time>2026-03-11T19:27:53.000Z</time></trkpt>
        <trkpt lat="29.799438" lon="103.4406644"><ele>588.26</ele><time>2026-03-11T19:27:57.000Z</time></trkpt>
        <trkpt lat="29.7994094" lon="103.4407133"><ele>587.98</ele><time>2026-03-11T19:28:01.000Z</time></trkpt>
        <trkpt lat="29.7993747" lon="103.4407707"><ele>587.74</ele><time>2026-03-11T19:28:05.000Z</time></trkpt>
        <trkpt lat="29.7993354" lon="103.4408366"><ele>587.64</ele><time>2026-03-11T19:28:09.000Z</time></trkpt>
        <trkpt lat="29.7993126" lon="103.4408909"><ele>587.35</ele><time>2026-03-11T19:28:11.000Z</time></trkpt>
        <trkpt lat="29.7992844" lon="103.4409646"><ele>587.39</ele><time>2026-03-11T19:28:15.000Z</time></trkpt>
        <trkpt lat="29.7992388" lon="103.4409901"><ele>586.38</ele><time>2026-03-11T19:28:19.000Z</time></trkpt>
        <trkpt lat="29.7991832" lon="103.44098"><ele>584.98</ele><time>2026-03-11T19:28:23.000Z</time></trkpt>
        <trkpt lat="29.7991315" lon="103.4409543"><ele>584.24</ele><time>2026-03-11T19:28:27.000Z</time></trkpt>
        <trkpt lat="29.7990729" lon="103.4409246"><ele>582.71</ele><time>2026-03-11T19:28:31.000Z</time></trkpt>
        <trkpt lat="29.7990056" lon="103.4409036"><ele>581.33</ele><time>2026-03-11T19:28:35.000Z</time></trkpt>
        <trkpt lat="29.7989302" lon="103.4409214"><ele>581.32</ele><time>2026-03-11T19:28:39.000Z</time></trkpt>
        <trkpt lat="29.7988849" lon="103.440958"><ele>580.51</ele><time>2026-03-11T19:28:43.000Z</time></trkpt>
        <trkpt lat="29.7988437" lon="103.4410127"><ele>580.66</ele><time>2026-03-11T19:28:47.000Z</time></trkpt>
        <trkpt lat="29.7988107" lon="103.4410787"><ele>580.22</ele><time>2026-03-11T19:28:51.000Z</time></trkpt>
        <trkpt lat="29.7987979" lon="103.4411413"><ele>578.32</ele><time>2026-03-11T19:28:55.000Z</time></trkpt>
        <trkpt lat="29.7987635" lon="103.441183"><ele>575.39</ele><time>2026-03-11T19:28:59.000Z</time></trkpt>
        <trkpt lat="29.7986971" lon="103.4412083"><ele>573.39</ele><time>2026-03-11T19:29:03.000Z</time></trkpt>
        <trkpt lat="29.7986175" lon="103.4411953"><ele>571.71</ele><time>2026-03-11T19:29:07.000Z</time></trkpt>
        <trkpt lat="29.7985982" lon="103.4411802"><ele>570.3</ele><time>2026-03-11T19:29:09.000Z</time></trkpt>
        <trkpt lat="29.7986012" lon="103.4411301"><ele>569.46</ele><time>2026-03-11T19:29:15.000Z</time></trkpt>
        <trkpt lat="29.7986209" lon="103.4410692"><ele>568.71</ele><time>2026-03-11T19:29:19.000Z</time></trkpt>
        <trkpt lat="29.798628" lon="103.440994"><ele>567.36</ele><time>2026-03-11T19:29:23.000Z</time></trkpt>
        <trkpt lat="29.79865" lon="103.4409374"><ele>565.8</ele><time>2026-03-11T19:29:27.000Z</time></trkpt>
        <trkpt lat="29.7986688" lon="103.4408797"><ele>565.25</ele><time>2026-03-11T19:29:31.000Z</time></trkpt>
        <trkpt lat="29.7986911" lon="103.440829"><ele>564.82</ele><time>2026-03-11T19:29:35.000Z</time></trkpt>
        <trkpt lat="29.7987396" lon="103.4407869"><ele>563.96</ele><time>2026-03-11T19:29:41.000Z</time></trkpt>
        <trkpt lat="29.7987886" lon="103.4407626"><ele>563.62</ele><time>2026-03-11T19:29:45.000Z</time></trkpt>
        <trkpt lat="29.7988468" lon="103.4407395"><ele>562.38</ele><time>2026-03-11T19:29:49.000Z</time></trkpt>
        <trkpt lat="29.7988999" lon="103.4407147"><ele>560.86</ele><time>2026-03-11T19:29:53.000Z</time></trkpt>
        <trkpt lat="29.7989535" lon="103.4406896"><ele>560.49</ele><time>2026-03-11T19:29:57.000Z</time></trkpt>
        <trkpt lat="29.7990063" lon="103.4406642"><ele>560.26</ele><time>2026-03-11T19:30:01.000Z</time></trkpt>
        <trkpt lat="29.7990579" lon="103.4406311"><ele>560.47</ele><time>2026-03-11T19:30:05.000Z</time></trkpt>
        <trkpt lat="29.7991072" lon="103.4405895"><ele>560.38</ele><time>2026-03-11T19:30:09.000Z</time></trkpt>
        <trkpt lat="29.7991445" lon="103.4405326"><ele>559.91</ele><time>2026-03-11T19:30:13.000Z</time></trkpt>
        <trkpt lat="29.7991726" lon="103.4404706"><ele>558.88</ele><time>2026-03-11T19:30:17.000Z</time></trkpt>
        <trkpt lat="29.7992077" lon="103.4404129"><ele>558.04</ele><time>2026-03-11T19:30:21.000Z</time></trkpt>
        <trkpt lat="29.7992436" lon="103.4403625"><ele>557.35</ele><time>2026-03-11T19:30:25.000Z</time></trkpt>
        <trkpt lat="29.7992481" lon="103.4403046"><ele>556.88</ele><time>2026-03-11T19:30:29.000Z</time></trkpt>
        <trkpt lat="29.7992538" lon="103.4402285"><ele>557.15</ele><time>2026-03-11T19:30:33.000Z</time></trkpt>
        <trkpt lat="29.7992655" lon="103.44014"><ele>557.91</ele><time>2026-03-11T19:30:38.000Z</time></trkpt>
        <trkpt lat="29.7992739" lon="103.4400612"><ele>557.96</ele><time>2026-03-11T19:30:42.000Z</time></trkpt>
        <trkpt lat="29.7992727" lon="103.4399952"><ele>557.29</ele><time>2026-03-11T19:30:46.000Z</time></trkpt>
        <trkpt lat="29.7992514" lon="103.4399398"><ele>556.47</ele><time>2026-03-11T19:30:50.000Z</time></trkpt>
        <trkpt lat="29.7992025" lon="103.4399044"><ele>556.36</ele><time>2026-03-11T19:30:58.000Z</time></trkpt>
        <trkpt lat="29.7991574" lon="103.4398623"><ele>554.77</ele><time>2026-03-11T19:31:02.000Z</time></trkpt>
        <trkpt lat="29.7991063" lon="103.4398168"><ele>554.21</ele><time>2026-03-11T19:31:06.000Z</time></trkpt>
        <trkpt lat="29.7990653" lon="103.4397468"><ele>553.7</ele><time>2026-03-11T19:31:10.000Z</time></trkpt>
        <trkpt lat="29.7990583" lon="103.4396808"><ele>553.49</ele><time>2026-03-11T19:31:14.000Z</time></trkpt>
        <trkpt lat="29.7990467" lon="103.4396148"><ele>553.7</ele><time>2026-03-11T19:31:18.000Z</time></trkpt>
        <trkpt lat="29.7990208" lon="103.4395602"><ele>553.85</ele><time>2026-03-11T19:31:24.000Z</time></trkpt>
        <trkpt lat="29.7989872" lon="103.4395205"><ele>552.23</ele><time>2026-03-11T19:31:28.000Z</time></trkpt>
        <trkpt lat="29.798938" lon="103.4394834"><ele>550.71</ele><time>2026-03-11T19:31:34.000Z</time></trkpt>
        <trkpt lat="29.7988887" lon="103.4394478"><ele>547.7</ele><time>2026-03-11T19:31:38.000Z</time></trkpt>
        <trkpt lat="29.7988635" lon="103.4393902"><ele>545.75</ele><time>2026-03-11T19:31:42.000Z</time></trkpt>
        <trkpt lat="29.7988892" lon="103.4393352"><ele>543.93</ele><time>2026-03-11T19:31:46.000Z</time></trkpt>
        <trkpt lat="29.7989376" lon="103.439329"><ele>543.22</ele><time>2026-03-11T19:31:50.000Z</time></trkpt>
        <trkpt lat="29.7990041" lon="103.4393431"><ele>541.45</ele><time>2026-03-11T19:31:54.000Z</time></trkpt>
        <trkpt lat="29.799074" lon="103.4393656"><ele>538.87</ele><time>2026-03-11T19:31:58.000Z</time></trkpt>
        <trkpt lat="29.7991254" lon="103.4394002"><ele>536.8</ele><time>2026-03-11T19:32:02.000Z</time></trkpt>
        <trkpt lat="29.7991329" lon="103.4394482"><ele>535.98</ele><time>2026-03-11T19:32:06.000Z</time></trkpt>
        <trkpt lat="29.7991537" lon="103.439496"><ele>535.9</ele><time>2026-03-11T19:32:20.000Z</time></trkpt>
        <trkpt lat="29.7991855" lon="103.4395459"><ele>535.91</ele><time>2026-03-11T19:32:26.000Z</time></trkpt>
        <trkpt lat="29.7992262" lon="103.4396028"><ele>534.87</ele><time>2026-03-11T19:32:32.000Z</time></trkpt>
        <trkpt lat="29.799248" lon="103.4396681"><ele>533.56</ele><time>2026-03-11T19:32:36.000Z</time></trkpt>
        <trkpt lat="29.7992943" lon="103.4397143"><ele>533.43</ele><time>2026-03-11T19:32:40.000Z</time></trkpt>
        <trkpt lat="29.7993452" lon="103.4397077"><ele>534.53</ele><time>2026-03-11T19:32:44.000Z</time></trkpt>
        <trkpt lat="29.7993836" lon="103.4396522"><ele>534.79</ele><time>2026-03-11T19:32:48.000Z</time></trkpt>
        <trkpt lat="29.7993833" lon="103.4395839"><ele>532.48</ele><time>2026-03-11T19:32:52.000Z</time></trkpt>
        <trkpt lat="29.7993698" lon="103.4395173"><ele>529.2</ele><time>2026-03-11T19:32:56.000Z</time></trkpt>
        <trkpt lat="29.7993436" lon="103.4394578"><ele>526.21</ele><time>2026-03-11T19:33:00.000Z</time></trkpt>
        <trkpt lat="29.799316" lon="103.4393937"><ele>523.76</ele><time>2026-03-11T19:33:04.000Z</time></trkpt>
        <trkpt lat="29.7992935" lon="103.4393301"><ele>521.46</ele><time>2026-03-11T19:33:08.000Z</time></trkpt>
        <trkpt lat="29.7992755" lon="103.4393524"><ele>521.03</ele><time>2026-03-11T19:33:12.000Z</time></trkpt>
        <trkpt lat="29.7992315" lon="103.439333"><ele>519.11</ele><time>2026-03-11T19:33:16.000Z</time></trkpt>
        <trkpt lat="29.7991941" lon="103.4392818"><ele>519.77</ele><time>2026-03-11T19:33:20.000Z</time></trkpt>
        <trkpt lat="29.7991534" lon="103.4392234"><ele>520.7</ele><time>2026-03-11T19:33:24.000Z</time></trkpt>
        <trkpt lat="29.7991052" lon="103.4391781"><ele>521.15</ele><time>2026-03-11T19:33:28.000Z</time></trkpt>
        <trkpt lat="29.7990435" lon="103.4391509"><ele>521.67</ele><time>2026-03-11T19:33:32.000Z</time></trkpt>
        <trkpt lat="29.798979" lon="103.4391351"><ele>522.4</ele><time>2026-03-11T19:33:36.000Z</time></trkpt>
        <trkpt lat="29.7989178" lon="103.4391263"><ele>523.33</ele><time>2026-03-11T19:33:40.000Z</time></trkpt>
        <trkpt lat="29.7988629" lon="103.4391125"><ele>523.8</ele><time>2026-03-11T19:33:44.000Z</time></trkpt>
        <trkpt lat="29.7988153" lon="103.4390847"><ele>524.16</ele><time>2026-03-11T19:33:48.000Z</time></trkpt>
        <trkpt lat="29.7987718" lon="103.4390523"><ele>523.85</ele><time>2026-03-11T19:33:52.000Z</time></trkpt>
        <trkpt lat="29.7987221" lon="103.4390232"><ele>523.39</ele><time>2026-03-11T19:33:56.000Z</time></trkpt>
        <trkpt lat="29.798667" lon="103.4389818"><ele>523.85</ele><time>2026-03-11T19:34:02.000Z</time></trkpt>
        <trkpt lat="29.7986167" lon="103.438929"><ele>523.54</ele><time>2026-03-11T19:34:08.000Z</time></trkpt>
        <trkpt lat="29.7985679" lon="103.4388727"><ele>523.4</ele><time>2026-03-11T19:34:14.000Z</time></trkpt>
        <trkpt lat="29.7985155" lon="103.4388258"><ele>522.9</ele><time>2026-03-11T19:34:20.000Z</time></trkpt>
        <trkpt lat="29.7984744" lon="103.4387896"><ele>523.28</ele><time>2026-03-11T19:34:24.000Z</time></trkpt>
        <trkpt lat="29.7984349" lon="103.4387498"><ele>523.19</ele><time>2026-03-11T19:34:28.000Z</time></trkpt>
        <trkpt lat="29.798391" lon="103.4386987"><ele>522.83</ele><time>2026-03-11T19:34:34.000Z</time></trkpt>
        <trkpt lat="29.798368" lon="103.4386464"><ele>521.17</ele><time>2026-03-11T19:34:38.000Z</time></trkpt>
        <trkpt lat="29.7984005" lon="103.438674"><ele>520.61</ele><time>2026-03-11T19:34:42.000Z</time></trkpt>
        <trkpt lat="29.7983775" lon="103.4386861"><ele>516.87</ele><time>2026-03-11T19:34:48.000Z</time></trkpt>
        <trkpt lat="29.7983336" lon="103.4386777"><ele>515.09</ele><time>2026-03-11T19:34:52.000Z</time></trkpt>
        <trkpt lat="29.7982822" lon="103.438662"><ele>514.14</ele><time>2026-03-11T19:34:56.000Z</time></trkpt>
        <trkpt lat="29.7982339" lon="103.4386453"><ele>512.75</ele><time>2026-03-11T19:35:00.000Z</time></trkpt>
        <trkpt lat="29.7981743" lon="103.4386279"><ele>511.51</ele><time>2026-03-11T19:35:06.000Z</time></trkpt>
        <trkpt lat="29.7981104" lon="103.4386245"><ele>509.68</ele><time>2026-03-11T19:35:12.000Z</time></trkpt>
        <trkpt lat="29.7980563" lon="103.438611"><ele>506.12</ele><time>2026-03-11T19:35:18.000Z</time></trkpt>
        <trkpt lat="29.7979967" lon="103.4386042"><ele>503.03</ele><time>2026-03-11T19:35:24.000Z</time></trkpt>
        <trkpt lat="29.7979328" lon="103.4386022"><ele>499.9</ele><time>2026-03-11T19:35:30.000Z</time></trkpt>
        <trkpt lat="29.7978733" lon="103.4386008"><ele>497.18</ele><time>2026-03-11T19:35:36.000Z</time></trkpt>
        <trkpt lat="29.7978116" lon="103.4385959"><ele>494.79</ele><time>2026-03-11T19:35:42.000Z</time></trkpt>
        <trkpt lat="29.7977469" lon="103.4385935"><ele>492.6</ele><time>2026-03-11T19:35:48.000Z</time></trkpt>
        <trkpt lat="29.79768" lon="103.4385986"><ele>490.35</ele><time>2026-03-11T19:35:54.000Z</time></trkpt>
        <trkpt lat="29.7976314" lon="103.4386167"><ele>489.15</ele><time>2026-03-11T19:35:58.000Z</time></trkpt>
        <trkpt lat="29.7975874" lon="103.4386431"><ele>488.6</ele><time>2026-03-11T19:36:02.000Z</time></trkpt>
        <trkpt lat="29.7975361" lon="103.4386574"><ele>487.95</ele><time>2026-03-11T19:36:08.000Z</time></trkpt>
        <trkpt lat="29.7974819" lon="103.4386892"><ele>488.6</ele><time>2026-03-11T19:36:14.000Z</time></trkpt>
        <trkpt lat="29.7974536" lon="103.4387087"><ele>488.13</ele><time>2026-03-11T19:36:18.000Z</time></trkpt>
        <trkpt lat="29.7974184" lon="103.4386965"><ele>488.3</ele><time>2026-03-11T19:36:24.000Z</time></trkpt>
        <trkpt lat="29.7974009" lon="103.4386458"><ele>488.44</ele><time>2026-03-11T19:36:30.000Z</time></trkpt>
        <trkpt lat="29.7973958" lon="103.4385875"><ele>489.35</ele><time>2026-03-11T19:36:38.000Z</time></trkpt>
        <trkpt lat="29.7973752" lon="103.4385348"><ele>489.87</ele><time>2026-03-11T19:36:42.000Z</time></trkpt>
        <trkpt lat="29.7973639" lon="103.4385036"><ele>489.78</ele><time>2026-03-11T19:36:48.000Z</time></trkpt>
        <trkpt lat="29.7973639" lon="103.4385036"><ele>489.78</ele><time>2026-03-11T19:37:03.000Z</time></trkpt>
        <trkpt lat="29.7973515" lon="103.4384591"><ele>490.15</ele><time>2026-03-11T19:37:04.000Z</time></trkpt>
        <trkpt lat="29.7973515" lon="103.4384591"><ele>490.15</ele><time>2026-03-11T19:37:12.000Z</time></trkpt>
        <trkpt lat="29.7973374" lon="103.4384343"><ele>490.78</ele><time>2026-03-11T19:37:18.000Z</time></trkpt>
        <trkpt lat="29.7972973" lon="103.4384649"><ele>490.77</ele><time>2026-03-11T19:37:32.000Z</time></trkpt>
        <trkpt lat="29.7972512" lon="103.4384942"><ele>490.84</ele><time>2026-03-11T19:37:42.000Z</time></trkpt>
        <trkpt lat="29.7971956" lon="103.4385029"><ele>490.22</ele><time>2026-03-11T19:37:48.000Z</time></trkpt>
        <trkpt lat="29.7971415" lon="103.4385113"><ele>490.17</ele><time>2026-03-11T19:37:54.000Z</time></trkpt>
        <trkpt lat="29.7971415" lon="103.4385113"><ele>490.17</ele><time>2026-03-11T19:38:11.000Z</time></trkpt>
        <trkpt lat="29.7970936" lon="103.4385361"><ele>490.01</ele><time>2026-03-11T19:38:14.000Z</time></trkpt>
        <trkpt lat="29.7970936" lon="103.4385361"><ele>490.01</ele><time>2026-03-11T19:38:22.000Z</time></trkpt>
        <trkpt lat="29.7970449" lon="103.4385621"><ele>489.5</ele><time>2026-03-11T19:38:28.000Z</time></trkpt>
        <trkpt lat="29.7969986" lon="103.438595"><ele>489.35</ele><time>2026-03-11T19:38:34.000Z</time></trkpt>
        <trkpt lat="29.7969506" lon="103.4386192"><ele>489.98</ele><time>2026-03-11T19:38:40.000Z</time></trkpt>
        <trkpt lat="29.7968984" lon="103.4386235"><ele>489.98</ele><time>2026-03-11T19:38:46.000Z</time></trkpt>
        <trkpt lat="29.7968516" lon="103.438601"><ele>489.54</ele><time>2026-03-11T19:38:54.000Z</time></trkpt>
        <trkpt lat="29.7968048" lon="103.438591"><ele>489.01</ele><time>2026-03-11T19:39:00.000Z</time></trkpt>
        <trkpt lat="29.7967573" lon="103.4385904"><ele>489.64</ele><time>2026-03-11T19:39:08.000Z</time></trkpt>
        <trkpt lat="29.7967205" lon="103.4386227"><ele>489.86</ele><time>2026-03-11T19:39:16.000Z</time></trkpt>
        <trkpt lat="29.7966763" lon="103.4386364"><ele>491.81</ele><time>2026-03-11T19:39:26.000Z</time></trkpt>
        <trkpt lat="29.7966194" lon="103.43863"><ele>493.99</ele><time>2026-03-11T19:39:40.000Z</time></trkpt>
        <trkpt lat="29.7965602" lon="103.4386222"><ele>495.05</ele><time>2026-03-11T19:39:48.000Z</time></trkpt>
        <trkpt lat="29.7965213" lon="103.4386498"><ele>496.49</ele><time>2026-03-11T19:39:52.000Z</time></trkpt>
        <trkpt lat="29.7964791" lon="103.438657"><ele>497.52</ele><time>2026-03-11T19:39:58.000Z</time></trkpt>
        <trkpt lat="29.7964367" lon="103.4386226"><ele>498</ele><time>2026-03-11T19:40:04.000Z</time></trkpt>
        <trkpt lat="29.79639" lon="103.4386005"><ele>498.65</ele><time>2026-03-11T19:40:08.000Z</time></trkpt>
        <trkpt lat="29.7963516" lon="103.4386186"><ele>498.96</ele><time>2026-03-11T19:40:28.000Z</time></trkpt>
        <trkpt lat="29.7963208" lon="103.4386595"><ele>499.53</ele><time>2026-03-11T19:40:46.000Z</time></trkpt>
        <trkpt lat="29.7962704" lon="103.4386809"><ele>499.68</ele><time>2026-03-11T19:40:54.000Z</time></trkpt>
        <trkpt lat="29.7962184" lon="103.4386939"><ele>499.3</ele><time>2026-03-11T19:40:58.000Z</time></trkpt>
        <trkpt lat="29.796164" lon="103.4387143"><ele>499.19</ele><time>2026-03-11T19:41:14.000Z</time></trkpt>
        <trkpt lat="29.7961086" lon="103.438733"><ele>496.89</ele><time>2026-03-11T19:41:20.000Z</time></trkpt>
        <trkpt lat="29.7960577" lon="103.4387349"><ele>494.63</ele><time>2026-03-11T19:41:24.000Z</time></trkpt>
        <trkpt lat="29.7959886" lon="103.4387363"><ele>493.37</ele><time>2026-03-11T19:41:30.000Z</time></trkpt>
        <trkpt lat="29.7959234" lon="103.4387004"><ele>492.91</ele><time>2026-03-11T19:41:34.000Z</time></trkpt>
        <trkpt lat="29.7958676" lon="103.4386854"><ele>492.28</ele><time>2026-03-11T19:41:38.000Z</time></trkpt>
        <trkpt lat="29.7958195" lon="103.4386661"><ele>491.59</ele><time>2026-03-11T19:41:42.000Z</time></trkpt>
        <trkpt lat="29.7957743" lon="103.4386635"><ele>491.28</ele><time>2026-03-11T19:41:46.000Z</time></trkpt>
        <trkpt lat="29.795719" lon="103.4386512"><ele>490.77</ele><time>2026-03-11T19:41:52.000Z</time></trkpt>
        <trkpt lat="29.7956709" lon="103.4386582"><ele>491.38</ele><time>2026-03-11T19:41:56.000Z</time></trkpt>
        <trkpt lat="29.7956375" lon="103.4386509"><ele>493.11</ele><time>2026-03-11T19:42:02.000Z</time></trkpt>
        <trkpt lat="29.795597" lon="103.4386588"><ele>493.1</ele><time>2026-03-11T19:42:34.000Z</time></trkpt>
        <trkpt lat="29.7955635" lon="103.4386275"><ele>495.94</ele><time>2026-03-11T19:42:50.000Z</time></trkpt>
        <trkpt lat="29.7955222" lon="103.4385966"><ele>497.68</ele><time>2026-03-11T19:42:54.000Z</time></trkpt>
        <trkpt lat="29.7954828" lon="103.438621"><ele>498.66</ele><time>2026-03-11T19:43:02.000Z</time></trkpt>
        <trkpt lat="29.7954379" lon="103.4386396"><ele>500.26</ele><time>2026-03-11T19:43:12.000Z</time></trkpt>
        <trkpt lat="29.7953965" lon="103.4386795"><ele>501.02</ele><time>2026-03-11T19:43:20.000Z</time></trkpt>
        <trkpt lat="29.7953888" lon="103.4387043"><ele>502.48</ele><time>2026-03-11T19:43:26.000Z</time></trkpt>
        <trkpt lat="29.7953888" lon="103.4387043"><ele>502.48</ele><time>2026-03-11T19:43:53.000Z</time></trkpt>
        <trkpt lat="29.7953589" lon="103.4387307"><ele>503.67</ele><time>2026-03-11T19:44:00.000Z</time></trkpt>
        <trkpt lat="29.7953589" lon="103.4387307"><ele>503.67</ele><time>2026-03-11T19:44:03.000Z</time></trkpt>
        <trkpt lat="29.7953109" lon="103.4387471"><ele>502.65</ele><time>2026-03-11T19:44:25.000Z</time></trkpt>
        <trkpt lat="29.7952666" lon="103.4387704"><ele>501.68</ele><time>2026-03-11T19:44:37.000Z</time></trkpt>
        <trkpt lat="29.7952666" lon="103.4387704"><ele>501.68</ele><time>2026-03-11T19:45:01.000Z</time></trkpt>
        <trkpt lat="29.7952666" lon="103.4387704"><ele>501.68</ele><time>2026-03-11T19:45:04.000Z</time></trkpt>
        <trkpt lat="29.7952666" lon="103.4387704"><ele>501.68</ele><time>2026-03-11T19:47:49.000Z</time></trkpt>
        <trkpt lat="29.7952307" lon="103.4388112"><ele>501.61</ele><time>2026-03-11T19:48:28.000Z</time></trkpt>
        <trkpt lat="29.7952307" lon="103.4388112"><ele>501.61</ele><time>2026-03-11T19:49:09.000Z</time></trkpt>
        <trkpt lat="29.7951776" lon="103.4388223"><ele>501.19</ele><time>2026-03-11T19:49:25.000Z</time></trkpt>
        <trkpt lat="29.7951377" lon="103.4388678"><ele>500</ele><time>2026-03-11T19:49:35.000Z</time></trkpt>
        <trkpt lat="29.7951039" lon="103.4389092"><ele>498.69</ele><time>2026-03-11T19:49:53.000Z</time></trkpt>
        <trkpt lat="29.7951039" lon="103.4389092"><ele>498.69</ele><time>2026-03-11T19:50:49.000Z</time></trkpt>
        <trkpt lat="29.7950467" lon="103.4389284"><ele>497.7</ele><time>2026-03-11T19:50:52.000Z</time></trkpt>
        <trkpt lat="29.7950467" lon="103.4389284"><ele>497.7</ele><time>2026-03-11T19:51:10.000Z</time></trkpt>
        <trkpt lat="29.7949931" lon="103.4389174"><ele>501.12</ele><time>2026-03-11T19:51:22.000Z</time></trkpt>
        <trkpt lat="29.794998" lon="103.4389577"><ele>503.64</ele><time>2026-03-11T19:51:38.000Z</time></trkpt>
        <trkpt lat="29.7949779" lon="103.4390019"><ele>504.31</ele><time>2026-03-11T19:51:48.000Z</time></trkpt>
        <trkpt lat="29.7949779" lon="103.4390019"><ele>504.31</ele><time>2026-03-11T19:51:48.000Z</time></trkpt>
        <trkpt lat="29.794656" lon="103.4392894"><ele>520.01</ele><time>2026-03-11T19:54:35.000Z</time></trkpt>
        <trkpt lat="29.794656" lon="103.4392894"><ele>520.01</ele><time>2026-03-11T19:54:36.000Z</time></trkpt>
        <trkpt lat="29.7945998" lon="103.4392788"><ele>520.01</ele><time>2026-03-11T19:54:38.000Z</time></trkpt>
        <trkpt lat="29.7946195" lon="103.4393154"><ele>522.51</ele><time>2026-03-11T19:54:42.000Z</time></trkpt>
        <trkpt lat="29.7946618" lon="103.4393169"><ele>514.27</ele><time>2026-03-11T19:54:48.000Z</time></trkpt>
        <trkpt lat="29.7946328" lon="103.4393277"><ele>501.8</ele><time>2026-03-11T19:55:12.000Z</time></trkpt>
        <trkpt lat="29.794588" lon="103.4393578"><ele>500.29</ele><time>2026-03-11T19:55:16.000Z</time></trkpt>
        <trkpt lat="29.7945792" lon="103.4393279"><ele>500.95</ele><time>2026-03-11T19:55:33.000Z</time></trkpt>
        <trkpt lat="29.7945792" lon="103.4393279"><ele>500.95</ele><time>2026-03-11T19:55:34.000Z</time></trkpt>
        <trkpt lat="29.7945829" lon="103.4393677"><ele>497.69</ele><time>2026-03-11T19:55:37.000Z</time></trkpt>
        <trkpt lat="29.7945829" lon="103.4393677"><ele>497.69</ele><time>2026-03-11T19:55:44.000Z</time></trkpt>
        <trkpt lat="29.7945556" lon="103.4393588"><ele>486.69</ele><time>2026-03-11T19:55:50.000Z</time></trkpt>
        <trkpt lat="29.7945077" lon="103.439349"><ele>484.63</ele><time>2026-03-11T19:56:13.000Z</time></trkpt>
        <trkpt lat="29.7944639" lon="103.4393203"><ele>489.14</ele><time>2026-03-11T19:56:23.000Z</time></trkpt>
        <trkpt lat="29.7944639" lon="103.4393203"><ele>489.14</ele><time>2026-03-11T19:56:44.000Z</time></trkpt>
        <trkpt lat="29.7945074" lon="103.4394455"><ele>493.79</ele><time>2026-03-11T19:56:45.000Z</time></trkpt>
        <trkpt lat="29.7945074" lon="103.4394455"><ele>493.79</ele><time>2026-03-11T19:56:51.000Z</time></trkpt>
        <trkpt lat="29.7945187" lon="103.4394472"><ele>503.69</ele><time>2026-03-11T19:56:56.000Z</time></trkpt>
        <trkpt lat="29.7944787" lon="103.43942"><ele>505.46</ele><time>2026-03-11T19:57:02.000Z</time></trkpt>
        <trkpt lat="29.7944787" lon="103.43942"><ele>505.46</ele><time>2026-03-11T19:57:14.000Z</time></trkpt>
        <trkpt lat="29.7944358" lon="103.4393406"><ele>507.37</ele><time>2026-03-11T19:57:17.000Z</time></trkpt>
        <trkpt lat="29.7944358" lon="103.4393406"><ele>507.37</ele><time>2026-03-11T19:57:22.000Z</time></trkpt>
        <trkpt lat="29.7943831" lon="103.4393343"><ele>507.78</ele><time>2026-03-11T19:57:41.000Z</time></trkpt>
        <trkpt lat="29.7943246" lon="103.4393463"><ele>505.4</ele><time>2026-03-11T19:57:49.000Z</time></trkpt>
        <trkpt lat="29.7942713" lon="103.4393558"><ele>505.33</ele><time>2026-03-11T19:58:13.000Z</time></trkpt>
        <trkpt lat="29.7942175" lon="103.439372"><ele>503.7</ele><time>2026-03-11T19:58:19.000Z</time></trkpt>
        <trkpt lat="29.7941545" lon="103.4393764"><ele>502.59</ele><time>2026-03-11T19:58:25.000Z</time></trkpt>
        <trkpt lat="29.794098" lon="103.4393801"><ele>502.08</ele><time>2026-03-11T19:58:32.000Z</time></trkpt>
        <trkpt lat="29.7940459" lon="103.4393854"><ele>502.85</ele><time>2026-03-11T19:58:40.000Z</time></trkpt>
        <trkpt lat="29.7939961" lon="103.4393945"><ele>503.49</ele><time>2026-03-11T19:58:56.000Z</time></trkpt>
        <trkpt lat="29.7939458" lon="103.4394075"><ele>505.42</ele><time>2026-03-11T19:59:06.000Z</time></trkpt>
        <trkpt lat="29.7938981" lon="103.4394172"><ele>508.37</ele><time>2026-03-11T19:59:16.000Z</time></trkpt>
        <trkpt lat="29.7938448" lon="103.4394103"><ele>507.61</ele><time>2026-03-11T19:59:22.000Z</time></trkpt>
        <trkpt lat="29.7938076" lon="103.4394348"><ele>507.68</ele><time>2026-03-11T19:59:26.000Z</time></trkpt>
        <trkpt lat="29.7937586" lon="103.4394525"><ele>508.24</ele><time>2026-03-11T19:59:34.000Z</time></trkpt>
        <trkpt lat="29.7937093" lon="103.4394593"><ele>509.15</ele><time>2026-03-11T19:59:40.000Z</time></trkpt>
        <trkpt lat="29.7936619" lon="103.4394919"><ele>510.04</ele><time>2026-03-11T19:59:46.000Z</time></trkpt>
        <trkpt lat="29.7936018" lon="103.4395145"><ele>510.32</ele><time>2026-03-11T19:59:52.000Z</time></trkpt>
        <trkpt lat="29.7935345" lon="103.4395219"><ele>508.56</ele><time>2026-03-11T19:59:58.000Z</time></trkpt>
        <trkpt lat="29.7934797" lon="103.4395207"><ele>508.05</ele><time>2026-03-11T20:00:02.000Z</time></trkpt>
        <trkpt lat="29.7934341" lon="103.4395375"><ele>508.41</ele><time>2026-03-11T20:00:06.000Z</time></trkpt>
        <trkpt lat="29.7933889" lon="103.4395674"><ele>507.89</ele><time>2026-03-11T20:00:14.000Z</time></trkpt>
        <trkpt lat="29.7933379" lon="103.4395967"><ele>506.92</ele><time>2026-03-11T20:00:22.000Z</time></trkpt>
        <trkpt lat="29.7933109" lon="103.4396517"><ele>505.86</ele><time>2026-03-11T20:00:28.000Z</time></trkpt>
        <trkpt lat="29.7932806" lon="103.439701"><ele>503.55</ele><time>2026-03-11T20:00:36.000Z</time></trkpt>
        <trkpt lat="29.7932291" lon="103.4397125"><ele>502.86</ele><time>2026-03-11T20:00:40.000Z</time></trkpt>
        <trkpt lat="29.7931776" lon="103.4397087"><ele>502.38</ele><time>2026-03-11T20:00:46.000Z</time></trkpt>
        <trkpt lat="29.7931314" lon="103.4397347"><ele>500.85</ele><time>2026-03-11T20:00:52.000Z</time></trkpt>
        <trkpt lat="29.7930892" lon="103.4397658"><ele>500.34</ele><time>2026-03-11T20:00:58.000Z</time></trkpt>
        <trkpt lat="29.7930537" lon="103.4398125"><ele>499.09</ele><time>2026-03-11T20:01:04.000Z</time></trkpt>
        <trkpt lat="29.7930154" lon="103.4398561"><ele>498.82</ele><time>2026-03-11T20:01:10.000Z</time></trkpt>
        <trkpt lat="29.7929901" lon="103.439918"><ele>498.97</ele><time>2026-03-11T20:01:16.000Z</time></trkpt>
        <trkpt lat="29.7929517" lon="103.4399693"><ele>498.56</ele><time>2026-03-11T20:01:22.000Z</time></trkpt>
        <trkpt lat="29.7929208" lon="103.4400302"><ele>499.38</ele><time>2026-03-11T20:01:28.000Z</time></trkpt>
        <trkpt lat="29.7928741" lon="103.4400395"><ele>501.25</ele><time>2026-03-11T20:01:36.000Z</time></trkpt>
        <trkpt lat="29.7928342" lon="103.4400626"><ele>502.04</ele><time>2026-03-11T20:01:50.000Z</time></trkpt>
        <trkpt lat="29.7927922" lon="103.440092"><ele>502.13</ele><time>2026-03-11T20:02:04.000Z</time></trkpt>
        <trkpt lat="29.7927624" lon="103.4401406"><ele>502.42</ele><time>2026-03-11T20:02:16.000Z</time></trkpt>
        <trkpt lat="29.7927481" lon="103.4401999"><ele>502.89</ele><time>2026-03-11T20:02:26.000Z</time></trkpt>
        <trkpt lat="29.792741" lon="103.4402606"><ele>504.56</ele><time>2026-03-11T20:02:34.000Z</time></trkpt>
        <trkpt lat="29.7927167" lon="103.4403149"><ele>505.07</ele><time>2026-03-11T20:02:40.000Z</time></trkpt>
        <trkpt lat="29.7926688" lon="103.4403388"><ele>505.77</ele><time>2026-03-11T20:02:46.000Z</time></trkpt>
        <trkpt lat="29.7926372" lon="103.4403789"><ele>507.24</ele><time>2026-03-11T20:02:52.000Z</time></trkpt>
        <trkpt lat="29.7925972" lon="103.4403589"><ele>508.21</ele><time>2026-03-11T20:02:58.000Z</time></trkpt>
        <trkpt lat="29.7925572" lon="103.4403853"><ele>508.37</ele><time>2026-03-11T20:03:06.000Z</time></trkpt>
        <trkpt lat="29.7925183" lon="103.4404229"><ele>507.86</ele><time>2026-03-11T20:03:12.000Z</time></trkpt>
        <trkpt lat="29.792499" lon="103.4404726"><ele>507.09</ele><time>2026-03-11T20:03:18.000Z</time></trkpt>
        <trkpt lat="29.7924599" lon="103.4404985"><ele>506.6</ele><time>2026-03-11T20:03:26.000Z</time></trkpt>
        <trkpt lat="29.7924293" lon="103.4405413"><ele>504.97</ele><time>2026-03-11T20:03:30.000Z</time></trkpt>
        <trkpt lat="29.7924209" lon="103.440596"><ele>505.34</ele><time>2026-03-11T20:03:42.000Z</time></trkpt>
        <trkpt lat="29.7923947" lon="103.440649"><ele>504.86</ele><time>2026-03-11T20:03:54.000Z</time></trkpt>
        <trkpt lat="29.7923638" lon="103.4407023"><ele>504.62</ele><time>2026-03-11T20:04:02.000Z</time></trkpt>
        <trkpt lat="29.7923234" lon="103.4407351"><ele>504.11</ele><time>2026-03-11T20:04:10.000Z</time></trkpt>
        <trkpt lat="29.7922985" lon="103.4407773"><ele>505.15</ele><time>2026-03-11T20:04:30.000Z</time></trkpt>
        <trkpt lat="29.7922623" lon="103.4408189"><ele>504.62</ele><time>2026-03-11T20:04:52.000Z</time></trkpt>
        <trkpt lat="29.7922423" lon="103.4408341"><ele>505.3</ele><time>2026-03-11T20:04:56.000Z</time></trkpt>
        <trkpt lat="29.7922302" lon="103.4408758"><ele>506.71</ele><time>2026-03-11T20:05:06.000Z</time></trkpt>
        <trkpt lat="29.7922366" lon="103.4409417"><ele>507.63</ele><time>2026-03-11T20:05:22.000Z</time></trkpt>
        <trkpt lat="29.7922276" lon="103.4410025"><ele>509.98</ele><time>2026-03-11T20:05:32.000Z</time></trkpt>
        <trkpt lat="29.7921884" lon="103.4409891"><ele>511.69</ele><time>2026-03-11T20:05:38.000Z</time></trkpt>
        <trkpt lat="29.7921575" lon="103.441017"><ele>512.55</ele><time>2026-03-11T20:05:46.000Z</time></trkpt>
        <trkpt lat="29.7921538" lon="103.4410713"><ele>512.59</ele><time>2026-03-11T20:05:58.000Z</time></trkpt>
        <trkpt lat="29.7921463" lon="103.4411303"><ele>514.45</ele><time>2026-03-11T20:06:04.000Z</time></trkpt>
        <trkpt lat="29.7921285" lon="103.4411846"><ele>515.81</ele><time>2026-03-11T20:06:14.000Z</time></trkpt>
        <trkpt lat="29.7921368" lon="103.4412459"><ele>516.25</ele><time>2026-03-11T20:06:20.000Z</time></trkpt>
        <trkpt lat="29.7921486" lon="103.4413076"><ele>516.26</ele><time>2026-03-11T20:06:24.000Z</time></trkpt>
        <trkpt lat="29.7921473" lon="103.4413626"><ele>516.58</ele><time>2026-03-11T20:06:30.000Z</time></trkpt>
        <trkpt lat="29.7921247" lon="103.4414107"><ele>515.05</ele><time>2026-03-11T20:06:38.000Z</time></trkpt>
        <trkpt lat="29.792109" lon="103.4414657"><ele>514.93</ele><time>2026-03-11T20:06:46.000Z</time></trkpt>
        <trkpt lat="29.792097" lon="103.4415189"><ele>515.07</ele><time>2026-03-11T20:06:56.000Z</time></trkpt>
        <trkpt lat="29.79206" lon="103.441539"><ele>515.74</ele><time>2026-03-11T20:07:00.000Z</time></trkpt>
        <trkpt lat="29.7920606" lon="103.4415527"><ele>517.3</ele><time>2026-03-11T20:07:06.000Z</time></trkpt>
        <trkpt lat="29.7920474" lon="103.4415992"><ele>516.8</ele><time>2026-03-11T20:07:20.000Z</time></trkpt>
        <trkpt lat="29.7920419" lon="103.44166"><ele>518.88</ele><time>2026-03-11T20:07:26.000Z</time></trkpt>
        <trkpt lat="29.7920162" lon="103.441714"><ele>520.43</ele><time>2026-03-11T20:07:32.000Z</time></trkpt>
        <trkpt lat="29.7919643" lon="103.4417441"><ele>522.8</ele><time>2026-03-11T20:07:52.000Z</time></trkpt>
        <trkpt lat="29.7919161" lon="103.4417773"><ele>523.47</ele><time>2026-03-11T20:08:00.000Z</time></trkpt>
        <trkpt lat="29.7918643" lon="103.4417848"><ele>522.09</ele><time>2026-03-11T20:08:08.000Z</time></trkpt>
        <trkpt lat="29.7918219" lon="103.4418071"><ele>522.59</ele><time>2026-03-11T20:08:22.000Z</time></trkpt>
        <trkpt lat="29.7917726" lon="103.4418214"><ele>522.99</ele><time>2026-03-11T20:08:30.000Z</time></trkpt>
        <trkpt lat="29.7917216" lon="103.4418329"><ele>522.89</ele><time>2026-03-11T20:08:34.000Z</time></trkpt>
        <trkpt lat="29.7916734" lon="103.4418621"><ele>522.71</ele><time>2026-03-11T20:08:40.000Z</time></trkpt>
        <trkpt lat="29.7916256" lon="103.4418703"><ele>523.53</ele><time>2026-03-11T20:08:46.000Z</time></trkpt>
        <trkpt lat="29.7915795" lon="103.4418708"><ele>525.7</ele><time>2026-03-11T20:08:54.000Z</time></trkpt>
        <trkpt lat="29.7915348" lon="103.4418593"><ele>528.45</ele><time>2026-03-11T20:09:00.000Z</time></trkpt>
        <trkpt lat="29.7914884" lon="103.4418448"><ele>530.62</ele><time>2026-03-11T20:09:04.000Z</time></trkpt>
        <trkpt lat="29.7914373" lon="103.4418362"><ele>531.71</ele><time>2026-03-11T20:09:10.000Z</time></trkpt>
        <trkpt lat="29.7913924" lon="103.4418081"><ele>532.18</ele><time>2026-03-11T20:09:20.000Z</time></trkpt>
        <trkpt lat="29.7913575" lon="103.4417694"><ele>532.15</ele><time>2026-03-11T20:09:28.000Z</time></trkpt>
        <trkpt lat="29.7913428" lon="103.4417979"><ele>530.56</ele><time>2026-03-11T20:09:42.000Z</time></trkpt>
        <trkpt lat="29.7913053" lon="103.4418295"><ele>529.21</ele><time>2026-03-11T20:09:52.000Z</time></trkpt>
        <trkpt lat="29.7912605" lon="103.4418666"><ele>526.49</ele><time>2026-03-11T20:09:56.000Z</time></trkpt>
        <trkpt lat="29.7912226" lon="103.4418986"><ele>524.66</ele><time>2026-03-11T20:10:04.000Z</time></trkpt>
        <trkpt lat="29.7911787" lon="103.4419268"><ele>522.91</ele><time>2026-03-11T20:10:12.000Z</time></trkpt>
        <trkpt lat="29.7911712" lon="103.4419176"><ele>521.41</ele><time>2026-03-11T20:10:14.000Z</time></trkpt>
        <trkpt lat="29.7911342" lon="103.4419016"><ele>521.53</ele><time>2026-03-11T20:10:30.000Z</time></trkpt>
        <trkpt lat="29.7911258" lon="103.4418875"><ele>521.77</ele><time>2026-03-11T20:10:32.000Z</time></trkpt>
        <trkpt lat="29.791089" lon="103.4419022"><ele>521.97</ele><time>2026-03-11T20:10:42.000Z</time></trkpt>
        <trkpt lat="29.7910743" lon="103.4419521"><ele>522.34</ele><time>2026-03-11T20:10:46.000Z</time></trkpt>
        <trkpt lat="29.7910576" lon="103.442014"><ele>522.51</ele><time>2026-03-11T20:10:52.000Z</time></trkpt>
        <trkpt lat="29.7910605" lon="103.4420264"><ele>523.68</ele><time>2026-03-11T20:10:56.000Z</time></trkpt>
        <trkpt lat="29.791042" lon="103.4419948"><ele>525.09</ele><time>2026-03-11T20:11:16.000Z</time></trkpt>
        <trkpt lat="29.7910489" lon="103.4420162"><ele>527.12</ele><time>2026-03-11T20:11:24.000Z</time></trkpt>
        <trkpt lat="29.7910776" lon="103.442068"><ele>528.68</ele><time>2026-03-11T20:11:28.000Z</time></trkpt>
        <trkpt lat="29.7910695" lon="103.4421335"><ele>529.26</ele><time>2026-03-11T20:11:32.000Z</time></trkpt>
        <trkpt lat="29.7910347" lon="103.4421719"><ele>529.94</ele><time>2026-03-11T20:11:48.000Z</time></trkpt>
        <trkpt lat="29.7909861" lon="103.4421619"><ele>531.04</ele><time>2026-03-11T20:11:54.000Z</time></trkpt>
        <trkpt lat="29.7909272" lon="103.442114"><ele>532.11</ele><time>2026-03-11T20:11:58.000Z</time></trkpt>
        <trkpt lat="29.7908708" lon="103.4420804"><ele>532.37</ele><time>2026-03-11T20:12:04.000Z</time></trkpt>
        <trkpt lat="29.7908195" lon="103.4420613"><ele>532.02</ele><time>2026-03-11T20:12:12.000Z</time></trkpt>
        <trkpt lat="29.7907733" lon="103.4420427"><ele>532.7</ele><time>2026-03-11T20:12:18.000Z</time></trkpt>
        <trkpt lat="29.7907193" lon="103.4420269"><ele>532.81</ele><time>2026-03-11T20:12:26.000Z</time></trkpt>
        <trkpt lat="29.7907037" lon="103.4420951"><ele>533.82</ele><time>2026-03-11T20:12:30.000Z</time></trkpt>
        <trkpt lat="29.7907307" lon="103.4421572"><ele>534.38</ele><time>2026-03-11T20:12:34.000Z</time></trkpt>
        <trkpt lat="29.7907099" lon="103.4421678"><ele>535.01</ele><time>2026-03-11T20:12:46.000Z</time></trkpt>
        <trkpt lat="29.7906722" lon="103.442188"><ele>538.87</ele><time>2026-03-11T20:12:54.000Z</time></trkpt>
        <trkpt lat="29.790613" lon="103.4421878"><ele>542.64</ele><time>2026-03-11T20:13:02.000Z</time></trkpt>
        <trkpt lat="29.7905586" lon="103.4421696"><ele>543.13</ele><time>2026-03-11T20:13:06.000Z</time></trkpt>
        <trkpt lat="29.7905087" lon="103.4421572"><ele>542.36</ele><time>2026-03-11T20:13:10.000Z</time></trkpt>
        <trkpt lat="29.7904823" lon="103.4421097"><ele>542.34</ele><time>2026-03-11T20:13:14.000Z</time></trkpt>
        <trkpt lat="29.7904508" lon="103.4420702"><ele>541.44</ele><time>2026-03-11T20:13:18.000Z</time></trkpt>
        <trkpt lat="29.7904117" lon="103.4420861"><ele>541.51</ele><time>2026-03-11T20:13:22.000Z</time></trkpt>
        <trkpt lat="29.7903718" lon="103.4421251"><ele>541.65</ele><time>2026-03-11T20:13:28.000Z</time></trkpt>
        <trkpt lat="29.7903328" lon="103.4421725"><ele>541.16</ele><time>2026-03-11T20:13:34.000Z</time></trkpt>
        <trkpt lat="29.7902984" lon="103.4422238"><ele>541.37</ele><time>2026-03-11T20:13:40.000Z</time></trkpt>
        <trkpt lat="29.7902756" lon="103.4422779"><ele>540.6</ele><time>2026-03-11T20:13:46.000Z</time></trkpt>
        <trkpt lat="29.7902655" lon="103.4423319"><ele>538.94</ele><time>2026-03-11T20:13:50.000Z</time></trkpt>
        <trkpt lat="29.790261" lon="103.442389"><ele>538.05</ele><time>2026-03-11T20:13:58.000Z</time></trkpt>
        <trkpt lat="29.7902324" lon="103.4424374"><ele>536.64</ele><time>2026-03-11T20:14:04.000Z</time></trkpt>
        <trkpt lat="29.7901923" lon="103.4424793"><ele>535.69</ele><time>2026-03-11T20:14:10.000Z</time></trkpt>
        <trkpt lat="29.7901487" lon="103.4425045"><ele>535.02</ele><time>2026-03-11T20:14:20.000Z</time></trkpt>
        <trkpt lat="29.7901083" lon="103.4425499"><ele>533.39</ele><time>2026-03-11T20:14:30.000Z</time></trkpt>
        <trkpt lat="29.790072" lon="103.4426009"><ele>531.53</ele><time>2026-03-11T20:14:34.000Z</time></trkpt>
        <trkpt lat="29.7900396" lon="103.4426443"><ele>531.57</ele><time>2026-03-11T20:14:38.000Z</time></trkpt>
        <trkpt lat="29.7900036" lon="103.4426874"><ele>531.43</ele><time>2026-03-11T20:14:46.000Z</time></trkpt>
        <trkpt lat="29.7899628" lon="103.4427385"><ele>529.87</ele><time>2026-03-11T20:14:52.000Z</time></trkpt>
        <trkpt lat="29.78991" lon="103.4427729"><ele>528.45</ele><time>2026-03-11T20:14:58.000Z</time></trkpt>
        <trkpt lat="29.7898593" lon="103.4427521"><ele>528.04</ele><time>2026-03-11T20:15:14.000Z</time></trkpt>
        <trkpt lat="29.7898593" lon="103.4427521"><ele>528.04</ele><time>2026-03-11T20:15:36.000Z</time></trkpt>
        <trkpt lat="29.7897639" lon="103.4425435"><ele>526.92</ele><time>2026-03-11T20:15:41.000Z</time></trkpt>
        <trkpt lat="29.7897639" lon="103.4425435"><ele>526.92</ele><time>2026-03-11T20:15:45.000Z</time></trkpt>
        <trkpt lat="29.7897639" lon="103.4425435"><ele>526.92</ele><time>2026-03-11T20:15:50.000Z</time></trkpt>
        <trkpt lat="29.7897879" lon="103.4426756"><ele>537.81</ele><time>2026-03-11T20:16:23.000Z</time></trkpt>
        <trkpt lat="29.7897879" lon="103.4426756"><ele>537.81</ele><time>2026-03-11T20:16:26.000Z</time></trkpt>
        <trkpt lat="29.7898116" lon="103.4427783"><ele>543.89</ele><time>2026-03-11T20:16:28.000Z</time></trkpt>
        <trkpt lat="29.7898116" lon="103.4427783"><ele>543.89</ele><time>2026-03-11T20:17:00.000Z</time></trkpt>
        <trkpt lat="29.7898116" lon="103.4427783"><ele>543.89</ele><time>2026-03-11T20:17:05.000Z</time></trkpt>
        <trkpt lat="29.7898116" lon="103.4427783"><ele>543.89</ele><time>2026-03-11T20:17:26.000Z</time></trkpt>
        <trkpt lat="29.7898164" lon="103.4427578"><ele>538.94</ele><time>2026-03-11T20:17:57.000Z</time></trkpt>
        <trkpt lat="29.7898164" lon="103.4427578"><ele>538.94</ele><time>2026-03-11T20:18:36.000Z</time></trkpt>
        <trkpt lat="29.7898164" lon="103.4427578"><ele>538.94</ele><time>2026-03-11T20:18:42.000Z</time></trkpt>
        <trkpt lat="29.7898164" lon="103.4427578"><ele>538.94</ele><time>2026-03-11T20:19:15.000Z</time></trkpt>
        <trkpt lat="29.7898164" lon="103.4427578"><ele>538.94</ele><time>2026-03-11T20:19:44.000Z</time></trkpt>
        <trkpt lat="29.7898164" lon="103.4427578"><ele>538.94</ele><time>2026-03-11T20:20:03.000Z</time></trkpt>
        <trkpt lat="29.7898164" lon="103.4427578"><ele>538.94</ele><time>2026-03-11T20:20:20.000Z</time></trkpt>
        <trkpt lat="29.7898164" lon="103.4427578"><ele>538.94</ele><time>2026-03-11T20:21:15.000Z</time></trkpt>
        <trkpt lat="29.7898164" lon="103.4427578"><ele>538.94</ele><time>2026-03-11T20:21:42.000Z</time></trkpt>
        <trkpt lat="29.7898164" lon="103.4427578"><ele>538.94</ele><time>2026-03-11T20:21:51.000Z</time></trkpt>
        <trkpt lat="29.7898164" lon="103.4427578"><ele>538.94</ele><time>2026-03-11T20:22:26.000Z</time></trkpt>
        <trkpt lat="29.7899111" lon="103.4427907"><ele>541.37</ele><time>2026-03-11T20:24:09.000Z</time></trkpt>
        <trkpt lat="29.7899111" lon="103.4427907"><ele>541.37</ele><time>2026-03-11T20:24:13.000Z</time></trkpt>
        <trkpt lat="29.789867" lon="103.4427801"><ele>543.5</ele><time>2026-03-11T20:24:18.000Z</time></trkpt>
        <trkpt lat="29.789867" lon="103.4427801"><ele>543.5</ele><time>2026-03-11T20:24:26.000Z</time></trkpt>
        <trkpt lat="29.789829" lon="103.4427518"><ele>542.81</ele><time>2026-03-11T20:25:45.000Z</time></trkpt>
        <trkpt lat="29.789829" lon="103.4427518"><ele>542.81</ele><time>2026-03-11T20:25:52.000Z</time></trkpt>
        <trkpt lat="29.789829" lon="103.4427518"><ele>542.81</ele><time>2026-03-11T20:26:02.000Z</time></trkpt>
        <trkpt lat="29.789829" lon="103.4427518"><ele>542.81</ele><time>2026-03-11T20:26:17.000Z</time></trkpt>
        <trkpt lat="29.789829" lon="103.4427518"><ele>542.81</ele><time>2026-03-11T20:27:40.000Z</time></trkpt>
        <trkpt lat="29.789829" lon="103.4427518"><ele>542.81</ele><time>2026-03-11T20:28:01.000Z</time></trkpt>
        <trkpt lat="29.789829" lon="103.4427518"><ele>542.81</ele><time>2026-03-11T20:28:12.000Z</time></trkpt>
        <trkpt lat="29.789829" lon="103.4427518"><ele>542.81</ele><time>2026-03-11T20:28:41.000Z</time></trkpt>
        <trkpt lat="29.789829" lon="103.4427518"><ele>542.81</ele><time>2026-03-11T20:28:52.000Z</time></trkpt>
        <trkpt lat="29.7897953" lon="103.4427917"><ele>542.92</ele><time>2026-03-11T20:29:07.000Z</time></trkpt>
        <trkpt lat="29.7897953" lon="103.4427917"><ele>542.92</ele><time>2026-03-11T20:29:30.000Z</time></trkpt>
        <trkpt lat="29.7898072" lon="103.4427405"><ele>543.22</ele><time>2026-03-11T20:29:46.000Z</time></trkpt>
        <trkpt lat="29.7898072" lon="103.4427405"><ele>543.22</ele><time>2026-03-11T20:29:56.000Z</time></trkpt>
        <trkpt lat="29.7898072" lon="103.4427405"><ele>543.22</ele><time>2026-03-11T20:30:19.000Z</time></trkpt>
        <trkpt lat="29.7898072" lon="103.4427405"><ele>543.22</ele><time>2026-03-11T20:30:44.000Z</time></trkpt>
        <trkpt lat="29.789833" lon="103.4427832"><ele>544.72</ele><time>2026-03-11T20:30:51.000Z</time></trkpt>
        <trkpt lat="29.789833" lon="103.4427832"><ele>544.72</ele><time>2026-03-11T20:30:59.000Z</time></trkpt>
        <trkpt lat="29.789833" lon="103.4427832"><ele>544.72</ele><time>2026-03-11T20:31:00.000Z</time></trkpt>
        <trkpt lat="29.789833" lon="103.4427832"><ele>544.72</ele><time>2026-03-11T20:31:09.000Z</time></trkpt>
        <trkpt lat="29.789833" lon="103.4427832"><ele>544.72</ele><time>2026-03-11T20:31:38.000Z</time></trkpt>
        <trkpt lat="29.7898028" lon="103.4427176"><ele>545.96</ele><time>2026-03-11T20:31:49.000Z</time></trkpt>
        <trkpt lat="29.7898028" lon="103.4427176"><ele>545.96</ele><time>2026-03-11T20:31:53.000Z</time></trkpt>
        <trkpt lat="29.7897531" lon="103.4427085"><ele>542.06</ele><time>2026-03-11T20:32:03.000Z</time></trkpt>
        <trkpt lat="29.7897102" lon="103.4427329"><ele>542.03</ele><time>2026-03-11T20:32:07.000Z</time></trkpt>
        <trkpt lat="29.7896619" lon="103.4427677"><ele>542.67</ele><time>2026-03-11T20:32:13.000Z</time></trkpt>
        <trkpt lat="29.7896186" lon="103.4428087"><ele>543.48</ele><time>2026-03-11T20:32:21.000Z</time></trkpt>
        <trkpt lat="29.7895924" lon="103.4428716"><ele>543.59</ele><time>2026-03-11T20:32:31.000Z</time></trkpt>
        <trkpt lat="29.7895609" lon="103.4429317"><ele>544.51</ele><time>2026-03-11T20:32:37.000Z</time></trkpt>
        <trkpt lat="29.7895199" lon="103.4429757"><ele>545.53</ele><time>2026-03-11T20:32:59.000Z</time></trkpt>
        <trkpt lat="29.7894898" lon="103.442953"><ele>546.47</ele><time>2026-03-11T20:33:09.000Z</time></trkpt>
        <trkpt lat="29.7894524" lon="103.4429693"><ele>547.14</ele><time>2026-03-11T20:33:13.000Z</time></trkpt>
        <trkpt lat="29.7893945" lon="103.4429802"><ele>547.68</ele><time>2026-03-11T20:33:19.000Z</time></trkpt>
        <trkpt lat="29.7893359" lon="103.4429737"><ele>548.54</ele><time>2026-03-11T20:33:27.000Z</time></trkpt>
        <trkpt lat="29.789301" lon="103.4430085"><ele>547.26</ele><time>2026-03-11T20:33:31.000Z</time></trkpt>
        <trkpt lat="29.7892826" lon="103.4430657"><ele>547.11</ele><time>2026-03-11T20:33:35.000Z</time></trkpt>
        <trkpt lat="29.7892409" lon="103.4431025"><ele>546.76</ele><time>2026-03-11T20:33:41.000Z</time></trkpt>
        <trkpt lat="29.7891907" lon="103.4431356"><ele>547.37</ele><time>2026-03-11T20:33:47.000Z</time></trkpt>
        <trkpt lat="29.789139" lon="103.4431326"><ele>547.57</ele><time>2026-03-11T20:33:53.000Z</time></trkpt>
        <trkpt lat="29.7890918" lon="103.4431021"><ele>547.39</ele><time>2026-03-11T20:33:59.000Z</time></trkpt>
        <trkpt lat="29.7890426" lon="103.4430958"><ele>548.06</ele><time>2026-03-11T20:34:09.000Z</time></trkpt>
        <trkpt lat="29.7889885" lon="103.4431041"><ele>548.18</ele><time>2026-03-11T20:34:13.000Z</time></trkpt>
        <trkpt lat="29.7889384" lon="103.4431083"><ele>549.35</ele><time>2026-03-11T20:34:19.000Z</time></trkpt>
        <trkpt lat="29.7888909" lon="103.4431215"><ele>550.72</ele><time>2026-03-11T20:34:27.000Z</time></trkpt>
        <trkpt lat="29.7888443" lon="103.4430945"><ele>551.6</ele><time>2026-03-11T20:34:43.000Z</time></trkpt>
        <trkpt lat="29.788802" lon="103.4430635"><ele>551.82</ele><time>2026-03-11T20:34:53.000Z</time></trkpt>
        <trkpt lat="29.7887613" lon="103.4430834"><ele>554.22</ele><time>2026-03-11T20:35:01.000Z</time></trkpt>
        <trkpt lat="29.7887159" lon="103.4431015"><ele>557.87</ele><time>2026-03-11T20:35:07.000Z</time></trkpt>
        <trkpt lat="29.7886664" lon="103.4430938"><ele>560.96</ele><time>2026-03-11T20:35:17.000Z</time></trkpt>
        <trkpt lat="29.7886203" lon="103.4431304"><ele>561.53</ele><time>2026-03-11T20:35:35.000Z</time></trkpt>
        <trkpt lat="29.7885846" lon="103.4431789"><ele>560.24</ele><time>2026-03-11T20:35:39.000Z</time></trkpt>
        <trkpt lat="29.788546" lon="103.4432158"><ele>560.33</ele><time>2026-03-11T20:35:45.000Z</time></trkpt>
        <trkpt lat="29.7884809" lon="103.4432232"><ele>560.41</ele><time>2026-03-11T20:35:51.000Z</time></trkpt>
        <trkpt lat="29.7884201" lon="103.443229"><ele>560.65</ele><time>2026-03-11T20:35:57.000Z</time></trkpt>
        <trkpt lat="29.7883589" lon="103.4432387"><ele>561.05</ele><time>2026-03-11T20:36:05.000Z</time></trkpt>
        <trkpt lat="29.7883072" lon="103.4432547"><ele>563.46</ele><time>2026-03-11T20:36:11.000Z</time></trkpt>
        <trkpt lat="29.7882862" lon="103.4432639"><ele>564.97</ele><time>2026-03-11T20:36:13.000Z</time></trkpt>
        <trkpt lat="29.7882925" lon="103.4432258"><ele>566.23</ele><time>2026-03-11T20:36:17.000Z</time></trkpt>
        <trkpt lat="29.7882683" lon="103.4431882"><ele>566.96</ele><time>2026-03-11T20:36:23.000Z</time></trkpt>
        <trkpt lat="29.7882302" lon="103.4431576"><ele>568.18</ele><time>2026-03-11T20:36:29.000Z</time></trkpt>
        <trkpt lat="29.7881906" lon="103.4431236"><ele>569.08</ele><time>2026-03-11T20:36:41.000Z</time></trkpt>
        <trkpt lat="29.7881517" lon="103.4430891"><ele>571.21</ele><time>2026-03-11T20:36:55.000Z</time></trkpt>
        <trkpt lat="29.7881035" lon="103.4430782"><ele>573.49</ele><time>2026-03-11T20:37:11.000Z</time></trkpt>
        <trkpt lat="29.7880813" lon="103.4430346"><ele>575.05</ele><time>2026-03-11T20:37:39.000Z</time></trkpt>
        <trkpt lat="29.7880416" lon="103.4430098"><ele>574.15</ele><time>2026-03-11T20:38:15.000Z</time></trkpt>
        <trkpt lat="29.7879985" lon="103.4429898"><ele>574.95</ele><time>2026-03-11T20:38:43.000Z</time></trkpt>
        <trkpt lat="29.7879556" lon="103.4429663"><ele>576.63</ele><time>2026-03-11T20:38:51.000Z</time></trkpt>
        <trkpt lat="29.7878955" lon="103.4429489"><ele>577.64</ele><time>2026-03-11T20:38:57.000Z</time></trkpt>
        <trkpt lat="29.787853" lon="103.4429155"><ele>578.92</ele><time>2026-03-11T20:39:01.000Z</time></trkpt>
        <trkpt lat="29.7878132" lon="103.4428692"><ele>579.74</ele><time>2026-03-11T20:39:08.000Z</time></trkpt>
        <trkpt lat="29.7878014" lon="103.4428112"><ele>579.74</ele><time>2026-03-11T20:39:16.000Z</time></trkpt>
        <trkpt lat="29.7877551" lon="103.442799"><ele>577.72</ele><time>2026-03-11T20:39:22.000Z</time></trkpt>
        <trkpt lat="29.7877049" lon="103.4428104"><ele>577.49</ele><time>2026-03-11T20:39:26.000Z</time></trkpt>
        <trkpt lat="29.7876501" lon="103.4428174"><ele>577.66</ele><time>2026-03-11T20:39:30.000Z</time></trkpt>
        <trkpt lat="29.7875993" lon="103.4428254"><ele>578.43</ele><time>2026-03-11T20:39:36.000Z</time></trkpt>
        <trkpt lat="29.7875439" lon="103.4427968"><ele>580.43</ele><time>2026-03-11T20:39:43.000Z</time></trkpt>
        <trkpt lat="29.7875018" lon="103.4427585"><ele>581.57</ele><time>2026-03-11T20:39:49.000Z</time></trkpt>
        <trkpt lat="29.7874626" lon="103.4427182"><ele>582.33</ele><time>2026-03-11T20:39:57.000Z</time></trkpt>
        <trkpt lat="29.7874201" lon="103.4426894"><ele>583.94</ele><time>2026-03-11T20:40:07.000Z</time></trkpt>
        <trkpt lat="29.7873672" lon="103.4426777"><ele>586.26</ele><time>2026-03-11T20:40:15.000Z</time></trkpt>
        <trkpt lat="29.7873145" lon="103.4426953"><ele>588.1</ele><time>2026-03-11T20:40:23.000Z</time></trkpt>
        <trkpt lat="29.7872689" lon="103.4427185"><ele>589.75</ele><time>2026-03-11T20:40:35.000Z</time></trkpt>
        <trkpt lat="29.7872579" lon="103.4427295"><ele>591.19</ele><time>2026-03-11T20:40:37.000Z</time></trkpt>
        <trkpt lat="29.7872263" lon="103.4427183"><ele>591.69</ele><time>2026-03-11T20:40:49.000Z</time></trkpt>
        <trkpt lat="29.7871818" lon="103.442699"><ele>591.3</ele><time>2026-03-11T20:41:09.000Z</time></trkpt>
        <trkpt lat="29.7871422" lon="103.4426613"><ele>589.94</ele><time>2026-03-11T20:41:15.000Z</time></trkpt>
        <trkpt lat="29.787092" lon="103.4426859"><ele>588.79</ele><time>2026-03-11T20:41:21.000Z</time></trkpt>
        <trkpt lat="29.7870613" lon="103.4427313"><ele>589.94</ele><time>2026-03-11T20:41:55.000Z</time></trkpt>
        <trkpt lat="29.7870781" lon="103.4427817"><ele>589.42</ele><time>2026-03-11T20:42:11.000Z</time></trkpt>
        <trkpt lat="29.7870738" lon="103.4428416"><ele>589.72</ele><time>2026-03-11T20:42:27.000Z</time></trkpt>
        <trkpt lat="29.7870628" lon="103.4428973"><ele>589.49</ele><time>2026-03-11T20:42:39.000Z</time></trkpt>
        <trkpt lat="29.7870326" lon="103.4429507"><ele>589.66</ele><time>2026-03-11T20:43:05.000Z</time></trkpt>
        <trkpt lat="29.7870166" lon="103.4429476"><ele>590.01</ele><time>2026-03-11T20:43:09.000Z</time></trkpt>
        <trkpt lat="29.7870091" lon="103.4429893"><ele>590.63</ele><time>2026-03-11T20:43:31.000Z</time></trkpt>
        <trkpt lat="29.7870018" lon="103.4430249"><ele>591.27</ele><time>2026-03-11T20:43:37.000Z</time></trkpt>
        <trkpt lat="29.7869627" lon="103.4430275"><ele>591.23</ele><time>2026-03-11T20:43:45.000Z</time></trkpt>
        <trkpt lat="29.7869113" lon="103.4430114"><ele>592.78</ele><time>2026-03-11T20:43:57.000Z</time></trkpt>
        <trkpt lat="29.7868674" lon="103.4430274"><ele>595.95</ele><time>2026-03-11T20:44:09.000Z</time></trkpt>
        <trkpt lat="29.7868606" lon="103.4430764"><ele>598.18</ele><time>2026-03-11T20:44:17.000Z</time></trkpt>
        <trkpt lat="29.7868636" lon="103.4431401"><ele>600.63</ele><time>2026-03-11T20:44:25.000Z</time></trkpt>
        <trkpt lat="29.786847" lon="103.4431996"><ele>603.31</ele><time>2026-03-11T20:45:05.000Z</time></trkpt>
        <trkpt lat="29.78685" lon="103.4432609"><ele>604.76</ele><time>2026-03-11T20:45:09.000Z</time></trkpt>
        <trkpt lat="29.7868519" lon="103.4433183"><ele>605.43</ele><time>2026-03-11T20:45:13.000Z</time></trkpt>
        <trkpt lat="29.7868337" lon="103.4433655"><ele>606.5</ele><time>2026-03-11T20:45:17.000Z</time></trkpt>
        <trkpt lat="29.7868023" lon="103.44342"><ele>607.08</ele><time>2026-03-11T20:45:23.000Z</time></trkpt>
        <trkpt lat="29.7867667" lon="103.4434662"><ele>609.42</ele><time>2026-03-11T20:45:29.000Z</time></trkpt>
        <trkpt lat="29.7867401" lon="103.4435243"><ele>611.6</ele><time>2026-03-11T20:45:37.000Z</time></trkpt>
        <trkpt lat="29.7866936" lon="103.4435318"><ele>613.7</ele><time>2026-03-11T20:45:43.000Z</time></trkpt>
        <trkpt lat="29.786648" lon="103.443563"><ele>616.95</ele><time>2026-03-11T20:45:53.000Z</time></trkpt>
        <trkpt lat="29.7865963" lon="103.4435662"><ele>619.1</ele><time>2026-03-11T20:46:01.000Z</time></trkpt>
        <trkpt lat="29.7865592" lon="103.443601"><ele>621.74</ele><time>2026-03-11T20:46:09.000Z</time></trkpt>
        <trkpt lat="29.7865759" lon="103.4436385"><ele>623.35</ele><time>2026-03-11T20:46:23.000Z</time></trkpt>
        <trkpt lat="29.7866208" lon="103.4436586"><ele>623.79</ele><time>2026-03-11T20:46:29.000Z</time></trkpt>
        <trkpt lat="29.786603" lon="103.443692"><ele>623.19</ele><time>2026-03-11T20:46:39.000Z</time></trkpt>
        <trkpt lat="29.7865618" lon="103.443713"><ele>623.69</ele><time>2026-03-11T20:46:47.000Z</time></trkpt>
        <trkpt lat="29.7865083" lon="103.4437176"><ele>624.57</ele><time>2026-03-11T20:46:53.000Z</time></trkpt>
        <trkpt lat="29.786457" lon="103.4437311"><ele>626.14</ele><time>2026-03-11T20:46:59.000Z</time></trkpt>
        <trkpt lat="29.7864032" lon="103.4437531"><ele>627.32</ele><time>2026-03-11T20:47:09.000Z</time></trkpt>
        <trkpt lat="29.7863609" lon="103.4437881"><ele>627.85</ele><time>2026-03-11T20:47:17.000Z</time></trkpt>
        <trkpt lat="29.7863176" lon="103.4438054"><ele>628.5</ele><time>2026-03-11T20:47:23.000Z</time></trkpt>
        <trkpt lat="29.7862626" lon="103.4438192"><ele>629.85</ele><time>2026-03-11T20:47:31.000Z</time></trkpt>
        <trkpt lat="29.7862107" lon="103.4438159"><ele>630.73</ele><time>2026-03-11T20:47:37.000Z</time></trkpt>
        <trkpt lat="29.7861566" lon="103.4438023"><ele>631.53</ele><time>2026-03-11T20:47:45.000Z</time></trkpt>
        <trkpt lat="29.7861081" lon="103.4438052"><ele>632.46</ele><time>2026-03-11T20:47:59.000Z</time></trkpt>
        <trkpt lat="29.7860628" lon="103.4438009"><ele>632.8</ele><time>2026-03-11T20:48:05.000Z</time></trkpt>
        <trkpt lat="29.7860342" lon="103.4437553"><ele>633.17</ele><time>2026-03-11T20:48:11.000Z</time></trkpt>
        <trkpt lat="29.785998" lon="103.443713"><ele>633.45</ele><time>2026-03-11T20:48:17.000Z</time></trkpt>
        <trkpt lat="29.7859476" lon="103.4437061"><ele>634.43</ele><time>2026-03-11T20:48:25.000Z</time></trkpt>
        <trkpt lat="29.7858982" lon="103.4437249"><ele>636.66</ele><time>2026-03-11T20:48:35.000Z</time></trkpt>
        <trkpt lat="29.7858574" lon="103.4437055"><ele>637.84</ele><time>2026-03-11T20:48:45.000Z</time></trkpt>
        <trkpt lat="29.7858538" lon="103.4437446"><ele>639.35</ele><time>2026-03-11T20:48:59.000Z</time></trkpt>
        <trkpt lat="29.7858192" lon="103.4437615"><ele>639.45</ele><time>2026-03-11T20:49:15.000Z</time></trkpt>
        <trkpt lat="29.7857897" lon="103.4437258"><ele>640.31</ele><time>2026-03-11T20:49:31.000Z</time></trkpt>
        <trkpt lat="29.7857486" lon="103.4437104"><ele>640.78</ele><time>2026-03-11T20:49:41.000Z</time></trkpt>
        <trkpt lat="29.7857027" lon="103.4437207"><ele>642.04</ele><time>2026-03-11T20:49:47.000Z</time></trkpt>
        <trkpt lat="29.7856555" lon="103.4437489"><ele>643.24</ele><time>2026-03-11T20:49:55.000Z</time></trkpt>
        <trkpt lat="29.7856135" lon="103.4437805"><ele>644.48</ele><time>2026-03-11T20:50:03.000Z</time></trkpt>
        <trkpt lat="29.7855642" lon="103.4437856"><ele>646.44</ele><time>2026-03-11T20:50:13.000Z</time></trkpt>
        <trkpt lat="29.7855139" lon="103.4438026"><ele>648.49</ele><time>2026-03-11T20:50:27.000Z</time></trkpt>
        <trkpt lat="29.7854623" lon="103.4438103"><ele>650.64</ele><time>2026-03-11T20:50:41.000Z</time></trkpt>
        <trkpt lat="29.7854312" lon="103.4438527"><ele>653.46</ele><time>2026-03-11T20:50:47.000Z</time></trkpt>
        <trkpt lat="29.785426" lon="103.4439154"><ele>654.95</ele><time>2026-03-11T20:50:53.000Z</time></trkpt>
        <trkpt lat="29.7854198" lon="103.4439804"><ele>655.73</ele><time>2026-03-11T20:50:59.000Z</time></trkpt>
        <trkpt lat="29.7853956" lon="103.4440373"><ele>656.34</ele><time>2026-03-11T20:51:05.000Z</time></trkpt>
        <trkpt lat="29.7853471" lon="103.444067"><ele>657.01</ele><time>2026-03-11T20:51:13.000Z</time></trkpt>
        <trkpt lat="29.7852985" lon="103.4440839"><ele>658.38</ele><time>2026-03-11T20:51:39.000Z</time></trkpt>
        <trkpt lat="29.7852938" lon="103.4441251"><ele>658.44</ele><time>2026-03-11T20:51:47.000Z</time></trkpt>
        <trkpt lat="29.7852731" lon="103.4441644"><ele>659.14</ele><time>2026-03-11T20:52:03.000Z</time></trkpt>
        <trkpt lat="29.7852362" lon="103.4441956"><ele>661.08</ele><time>2026-03-11T20:52:27.000Z</time></trkpt>
        <trkpt lat="29.7851974" lon="103.4442388"><ele>662.61</ele><time>2026-03-11T20:52:33.000Z</time></trkpt>
        <trkpt lat="29.7851618" lon="103.4442857"><ele>663.69</ele><time>2026-03-11T20:52:39.000Z</time></trkpt>
        <trkpt lat="29.7851254" lon="103.4443348"><ele>664.88</ele><time>2026-03-11T20:52:57.000Z</time></trkpt>
        <trkpt lat="29.7850785" lon="103.4443423"><ele>666.17</ele><time>2026-03-11T20:53:11.000Z</time></trkpt>
        <trkpt lat="29.7850475" lon="103.4443032"><ele>666.96</ele><time>2026-03-11T20:53:25.000Z</time></trkpt>
        <trkpt lat="29.7850171" lon="103.4442525"><ele>667.94</ele><time>2026-03-11T20:53:39.000Z</time></trkpt>
        <trkpt lat="29.7850171" lon="103.4442525"><ele>667.94</ele><time>2026-03-11T20:54:06.000Z</time></trkpt>
        <trkpt lat="29.7849928" lon="103.4441937"><ele>669.18</ele><time>2026-03-11T20:54:09.000Z</time></trkpt>
        <trkpt lat="29.7849928" lon="103.4441937"><ele>669.18</ele><time>2026-03-11T20:54:09.000Z</time></trkpt>
        <trkpt lat="29.7849673" lon="103.4441383"><ele>670.84</ele><time>2026-03-11T20:54:15.000Z</time></trkpt>
        <trkpt lat="29.7849477" lon="103.4440797"><ele>671.48</ele><time>2026-03-11T20:54:21.000Z</time></trkpt>
        <trkpt lat="29.7849492" lon="103.4440197"><ele>671.82</ele><time>2026-03-11T20:54:27.000Z</time></trkpt>
        <trkpt lat="29.7849518" lon="103.4439629"><ele>672.38</ele><time>2026-03-11T20:54:39.000Z</time></trkpt>
        <trkpt lat="29.7849273" lon="103.4439105"><ele>672.2</ele><time>2026-03-11T20:54:47.000Z</time></trkpt>
        <trkpt lat="29.7849007" lon="103.4438647"><ele>672.85</ele><time>2026-03-11T20:54:53.000Z</time></trkpt>
        <trkpt lat="29.7849025" lon="103.443813"><ele>673.37</ele><time>2026-03-11T20:54:59.000Z</time></trkpt>
        <trkpt lat="29.7848799" lon="103.4437612"><ele>673.56</ele><time>2026-03-11T20:55:09.000Z</time></trkpt>
        <trkpt lat="29.7848391" lon="103.4437521"><ele>673.53</ele><time>2026-03-11T20:55:13.000Z</time></trkpt>
        <trkpt lat="29.7847863" lon="103.4437638"><ele>673.61</ele><time>2026-03-11T20:55:17.000Z</time></trkpt>
        <trkpt lat="29.7847279" lon="103.4437561"><ele>673.95</ele><time>2026-03-11T20:55:23.000Z</time></trkpt>
        <trkpt lat="29.7846863" lon="103.4437235"><ele>674.93</ele><time>2026-03-11T20:55:29.000Z</time></trkpt>
        <trkpt lat="29.7846403" lon="103.4436886"><ele>676.13</ele><time>2026-03-11T20:55:37.000Z</time></trkpt>
        <trkpt lat="29.7845944" lon="103.4436736"><ele>677.33</ele><time>2026-03-11T20:55:43.000Z</time></trkpt>
        <trkpt lat="29.7845409" lon="103.4436738"><ele>678.51</ele><time>2026-03-11T20:55:51.000Z</time></trkpt>
        <trkpt lat="29.7844859" lon="103.4436818"><ele>679.51</ele><time>2026-03-11T20:56:03.000Z</time></trkpt>
        <trkpt lat="29.7844859" lon="103.4436818"><ele>679.51</ele><time>2026-03-11T20:56:18.000Z</time></trkpt>
        <trkpt lat="29.7844366" lon="103.4436888"><ele>680.92</ele><time>2026-03-11T20:56:23.000Z</time></trkpt>
        <trkpt lat="29.7844366" lon="103.4436888"><ele>680.92</ele><time>2026-03-11T20:56:26.000Z</time></trkpt>
        <trkpt lat="29.7843827" lon="103.443683"><ele>683.55</ele><time>2026-03-11T20:56:30.000Z</time></trkpt>
        <trkpt lat="29.7843353" lon="103.4437043"><ele>684.74</ele><time>2026-03-11T20:56:37.000Z</time></trkpt>
        <trkpt lat="29.7842828" lon="103.4437255"><ele>686.54</ele><time>2026-03-11T20:56:45.000Z</time></trkpt>
        <trkpt lat="29.7842255" lon="103.4437406"><ele>688.39</ele><time>2026-03-11T20:56:51.000Z</time></trkpt>
        <trkpt lat="29.7841786" lon="103.4437568"><ele>689.86</ele><time>2026-03-11T20:56:57.000Z</time></trkpt>
        <trkpt lat="29.7841315" lon="103.4437639"><ele>690.97</ele><time>2026-03-11T20:57:03.000Z</time></trkpt>
        <trkpt lat="29.7840812" lon="103.4437616"><ele>692.95</ele><time>2026-03-11T20:57:09.000Z</time></trkpt>
        <trkpt lat="29.7840351" lon="103.4437492"><ele>695.3</ele><time>2026-03-11T20:57:15.000Z</time></trkpt>
        <trkpt lat="29.7840379" lon="103.4436956"><ele>697.62</ele><time>2026-03-11T20:57:17.000Z</time></trkpt>
        <trkpt lat="29.7840519" lon="103.4436887"><ele>698.94</ele><time>2026-03-11T20:57:19.000Z</time></trkpt>
        <trkpt lat="29.7840241" lon="103.4436894"><ele>699.32</ele><time>2026-03-11T20:57:29.000Z</time></trkpt>
        <trkpt lat="29.7839792" lon="103.443682"><ele>700.33</ele><time>2026-03-11T20:57:33.000Z</time></trkpt>
        <trkpt lat="29.7839184" lon="103.4436566"><ele>701.78</ele><time>2026-03-11T20:57:39.000Z</time></trkpt>
        <trkpt lat="29.7838777" lon="103.4436099"><ele>703.1</ele><time>2026-03-11T20:57:45.000Z</time></trkpt>
        <trkpt lat="29.7838392" lon="103.4435567"><ele>702.96</ele><time>2026-03-11T20:57:51.000Z</time></trkpt>
        <trkpt lat="29.7838055" lon="103.4435135"><ele>703.01</ele><time>2026-03-11T20:57:55.000Z</time></trkpt>
        <trkpt lat="29.783769" lon="103.4434813"><ele>703.56</ele><time>2026-03-11T20:57:59.000Z</time></trkpt>
        <trkpt lat="29.7837131" lon="103.4434634"><ele>703.16</ele><time>2026-03-11T20:58:05.000Z</time></trkpt>
        <trkpt lat="29.7836645" lon="103.443495"><ele>703.1</ele><time>2026-03-11T20:58:11.000Z</time></trkpt>
        <trkpt lat="29.7836369" lon="103.4435495"><ele>702.45</ele><time>2026-03-11T20:58:17.000Z</time></trkpt>
        <trkpt lat="29.7835973" lon="103.4435937"><ele>702.31</ele><time>2026-03-11T20:58:23.000Z</time></trkpt>
        <trkpt lat="29.7835487" lon="103.4436277"><ele>702.82</ele><time>2026-03-11T20:58:29.000Z</time></trkpt>
        <trkpt lat="29.7835012" lon="103.4436458"><ele>703.03</ele><time>2026-03-11T20:58:33.000Z</time></trkpt>
        <trkpt lat="29.7834443" lon="103.4436555"><ele>704.37</ele><time>2026-03-11T20:58:39.000Z</time></trkpt>
        <trkpt lat="29.7834306" lon="103.4436549"><ele>705.86</ele><time>2026-03-11T20:58:43.000Z</time></trkpt>
        <trkpt lat="29.7833952" lon="103.4436642"><ele>706.52</ele><time>2026-03-11T20:58:55.000Z</time></trkpt>
        <trkpt lat="29.7833423" lon="103.4436464"><ele>707.37</ele><time>2026-03-11T20:59:01.000Z</time></trkpt>
        <trkpt lat="29.7833008" lon="103.443605"><ele>708.61</ele><time>2026-03-11T20:59:07.000Z</time></trkpt>
        <trkpt lat="29.783288" lon="103.4435468"><ele>710.01</ele><time>2026-03-11T20:59:13.000Z</time></trkpt>
        <trkpt lat="29.7832717" lon="103.4434776"><ele>711.08</ele><time>2026-03-11T20:59:19.000Z</time></trkpt>
        <trkpt lat="29.7832516" lon="103.4434074"><ele>711.89</ele><time>2026-03-11T20:59:25.000Z</time></trkpt>
        <trkpt lat="29.7832195" lon="103.4433495"><ele>712.53</ele><time>2026-03-11T20:59:31.000Z</time></trkpt>
        <trkpt lat="29.7831828" lon="103.4433122"><ele>713.41</ele><time>2026-03-11T20:59:35.000Z</time></trkpt>
        <trkpt lat="29.7831252" lon="103.4432882"><ele>714.39</ele><time>2026-03-11T20:59:41.000Z</time></trkpt>
        <trkpt lat="29.7830739" lon="103.443263"><ele>714.73</ele><time>2026-03-11T20:59:45.000Z</time></trkpt>
        <trkpt lat="29.7830268" lon="103.443227"><ele>715.73</ele><time>2026-03-11T20:59:49.000Z</time></trkpt>
        <trkpt lat="29.7829805" lon="103.4431769"><ele>716.88</ele><time>2026-03-11T20:59:55.000Z</time></trkpt>
        <trkpt lat="29.7829351" lon="103.4431795"><ele>717.5</ele><time>2026-03-11T21:00:05.000Z</time></trkpt>
        <trkpt lat="29.7828888" lon="103.4431771"><ele>718.16</ele><time>2026-03-11T21:00:27.000Z</time></trkpt>
        <trkpt lat="29.7828408" lon="103.443184"><ele>718.77</ele><time>2026-03-11T21:00:33.000Z</time></trkpt>
        <trkpt lat="29.7827976" lon="103.443162"><ele>719.11</ele><time>2026-03-11T21:00:51.000Z</time></trkpt>
        <trkpt lat="29.7827528" lon="103.4431397"><ele>718.18</ele><time>2026-03-11T21:01:05.000Z</time></trkpt>
        <trkpt lat="29.7827008" lon="103.4431356"><ele>717.58</ele><time>2026-03-11T21:01:13.000Z</time></trkpt>
        <trkpt lat="29.7826549" lon="103.4431547"><ele>716.84</ele><time>2026-03-11T21:01:19.000Z</time></trkpt>
        <trkpt lat="29.7826035" lon="103.443177"><ele>716.63</ele><time>2026-03-11T21:01:25.000Z</time></trkpt>
        <trkpt lat="29.7825408" lon="103.4431896"><ele>717</ele><time>2026-03-11T21:01:31.000Z</time></trkpt>
        <trkpt lat="29.7824824" lon="103.4432162"><ele>717.32</ele><time>2026-03-11T21:01:37.000Z</time></trkpt>
        <trkpt lat="29.7824679" lon="103.4432379"><ele>717.4</ele><time>2026-03-11T21:01:43.000Z</time></trkpt>
        <trkpt lat="29.7824679" lon="103.4432379"><ele>717.4</ele><time>2026-03-11T21:02:02.000Z</time></trkpt>
        <trkpt lat="29.7824679" lon="103.4432379"><ele>717.4</ele><time>2026-03-11T21:02:03.000Z</time></trkpt>
        <trkpt lat="29.7824679" lon="103.4432379"><ele>717.4</ele><time>2026-03-11T21:02:38.000Z</time></trkpt>
        <trkpt lat="29.7824193" lon="103.4432336"><ele>717.11</ele><time>2026-03-11T21:02:41.000Z</time></trkpt>
        <trkpt lat="29.7824193" lon="103.4432336"><ele>717.11</ele><time>2026-03-11T21:02:51.000Z</time></trkpt>
        <trkpt lat="29.7823627" lon="103.4432629"><ele>716.55</ele><time>2026-03-11T21:02:57.000Z</time></trkpt>
        <trkpt lat="29.7823083" lon="103.443285"><ele>716.38</ele><time>2026-03-11T21:03:03.000Z</time></trkpt>
        <trkpt lat="29.7822569" lon="103.4433106"><ele>715.72</ele><time>2026-03-11T21:03:09.000Z</time></trkpt>
        <trkpt lat="29.7822006" lon="103.4433107"><ele>715.53</ele><time>2026-03-11T21:03:15.000Z</time></trkpt>
        <trkpt lat="29.7821508" lon="103.4433023"><ele>716.18</ele><time>2026-03-11T21:03:19.000Z</time></trkpt>
        <trkpt lat="29.7821036" lon="103.4432897"><ele>716.68</ele><time>2026-03-11T21:03:23.000Z</time></trkpt>
        <trkpt lat="29.7820443" lon="103.4432915"><ele>717.54</ele><time>2026-03-11T21:03:29.000Z</time></trkpt>
        <trkpt lat="29.7819949" lon="103.4433029"><ele>718</ele><time>2026-03-11T21:03:33.000Z</time></trkpt>
        <trkpt lat="29.7819399" lon="103.4433171"><ele>718.72</ele><time>2026-03-11T21:03:39.000Z</time></trkpt>
        <trkpt lat="29.781882" lon="103.4433372"><ele>719.03</ele><time>2026-03-11T21:03:45.000Z</time></trkpt>
        <trkpt lat="29.7818316" lon="103.4433722"><ele>720.38</ele><time>2026-03-11T21:03:51.000Z</time></trkpt>
        <trkpt lat="29.7817768" lon="103.4433908"><ele>721.78</ele><time>2026-03-11T21:03:57.000Z</time></trkpt>
        <trkpt lat="29.7817216" lon="103.4434137"><ele>723.02</ele><time>2026-03-11T21:04:03.000Z</time></trkpt>
        <trkpt lat="29.781667" lon="103.4434446"><ele>724.05</ele><time>2026-03-11T21:04:09.000Z</time></trkpt>
        <trkpt lat="29.7816197" lon="103.4434582"><ele>725.01</ele><time>2026-03-11T21:04:15.000Z</time></trkpt>
        <trkpt lat="29.7815827" lon="103.4434912"><ele>725.5</ele><time>2026-03-11T21:04:25.000Z</time></trkpt>
        <trkpt lat="29.7815827" lon="103.4434912"><ele>725.5</ele><time>2026-03-11T21:04:58.000Z</time></trkpt>
        <trkpt lat="29.781544" lon="103.4435203"><ele>724.57</ele><time>2026-03-11T21:05:13.000Z</time></trkpt>
        <trkpt lat="29.781544" lon="103.4435203"><ele>724.57</ele><time>2026-03-11T21:05:14.000Z</time></trkpt>
        <trkpt lat="29.781544" lon="103.4435203"><ele>724.57</ele><time>2026-03-11T21:05:36.000Z</time></trkpt>
        <trkpt lat="29.7815141" lon="103.4435639"><ele>727.23</ele><time>2026-03-11T21:05:37.000Z</time></trkpt>
        <trkpt lat="29.7815141" lon="103.4435639"><ele>727.23</ele><time>2026-03-11T21:05:59.000Z</time></trkpt>
        <trkpt lat="29.781511" lon="103.4436191"><ele>728.77</ele><time>2026-03-11T21:06:05.000Z</time></trkpt>
        <trkpt lat="29.7815239" lon="103.44368"><ele>730.53</ele><time>2026-03-11T21:06:13.000Z</time></trkpt>
        <trkpt lat="29.7815278" lon="103.4437495"><ele>731.86</ele><time>2026-03-11T21:06:21.000Z</time></trkpt>
        <trkpt lat="29.7815296" lon="103.4438123"><ele>732.32</ele><time>2026-03-11T21:06:27.000Z</time></trkpt>
        <trkpt lat="29.7815175" lon="103.4438652"><ele>733.47</ele><time>2026-03-11T21:06:33.000Z</time></trkpt>
        <trkpt lat="29.7814757" lon="103.4439064"><ele>734.98</ele><time>2026-03-11T21:06:41.000Z</time></trkpt>
        <trkpt lat="29.7814161" lon="103.4439259"><ele>736.9</ele><time>2026-03-11T21:06:47.000Z</time></trkpt>
        <trkpt lat="29.781362" lon="103.4439413"><ele>738.81</ele><time>2026-03-11T21:06:53.000Z</time></trkpt>
        <trkpt lat="29.7813034" lon="103.4439488"><ele>740.36</ele><time>2026-03-11T21:07:01.000Z</time></trkpt>
        <trkpt lat="29.7812475" lon="103.4439395"><ele>740.78</ele><time>2026-03-11T21:07:13.000Z</time></trkpt>
        <trkpt lat="29.7811942" lon="103.4439247"><ele>740.93</ele><time>2026-03-11T21:07:19.000Z</time></trkpt>
        <trkpt lat="29.781143" lon="103.443907"><ele>740.94</ele><time>2026-03-11T21:07:25.000Z</time></trkpt>
        <trkpt lat="29.7810959" lon="103.4438952"><ele>740.8</ele><time>2026-03-11T21:07:37.000Z</time></trkpt>
        <trkpt lat="29.7810526" lon="103.4438718"><ele>740.82</ele><time>2026-03-11T21:07:41.000Z</time></trkpt>
        <trkpt lat="29.7810066" lon="103.4438531"><ele>740.72</ele><time>2026-03-11T21:07:45.000Z</time></trkpt>
        <trkpt lat="29.7809588" lon="103.4438519"><ele>740.83</ele><time>2026-03-11T21:07:49.000Z</time></trkpt>
        <trkpt lat="29.7809072" lon="103.4438664"><ele>740.55</ele><time>2026-03-11T21:07:55.000Z</time></trkpt>
        <trkpt lat="29.7808593" lon="103.4438991"><ele>740.72</ele><time>2026-03-11T21:08:01.000Z</time></trkpt>
        <trkpt lat="29.7808209" lon="103.4439399"><ele>740.91</ele><time>2026-03-11T21:08:07.000Z</time></trkpt>
        <trkpt lat="29.7808126" lon="103.4440041"><ele>741.18</ele><time>2026-03-11T21:08:13.000Z</time></trkpt>
        <trkpt lat="29.7808186" lon="103.4440763"><ele>741.22</ele><time>2026-03-11T21:08:19.000Z</time></trkpt>
        <trkpt lat="29.7808175" lon="103.4441534"><ele>741.06</ele><time>2026-03-11T21:08:25.000Z</time></trkpt>
        <trkpt lat="29.7808108" lon="103.4442308"><ele>740.84</ele><time>2026-03-11T21:08:31.000Z</time></trkpt>
        <trkpt lat="29.7807917" lon="103.4442849"><ele>740.78</ele><time>2026-03-11T21:08:35.000Z</time></trkpt>
        <trkpt lat="29.7807773" lon="103.444316"><ele>741.12</ele><time>2026-03-11T21:08:39.000Z</time></trkpt>
        <trkpt lat="29.7808168" lon="103.4443356"><ele>741.67</ele><time>2026-03-11T21:08:47.000Z</time></trkpt>
        <trkpt lat="29.7808349" lon="103.4443919"><ele>741.33</ele><time>2026-03-11T21:08:53.000Z</time></trkpt>
        <trkpt lat="29.7808125" lon="103.4444337"><ele>741.14</ele><time>2026-03-11T21:08:57.000Z</time></trkpt>
        <trkpt lat="29.7807764" lon="103.4444918"><ele>740.58</ele><time>2026-03-11T21:09:03.000Z</time></trkpt>
        <trkpt lat="29.7807542" lon="103.4445616"><ele>739.85</ele><time>2026-03-11T21:09:09.000Z</time></trkpt>
        <trkpt lat="29.7807074" lon="103.4446155"><ele>739.97</ele><time>2026-03-11T21:09:15.000Z</time></trkpt>
        <trkpt lat="29.7807355" lon="103.4446441"><ele>740.66</ele><time>2026-03-11T21:09:23.000Z</time></trkpt>
        <trkpt lat="29.7807928" lon="103.4446515"><ele>739.37</ele><time>2026-03-11T21:09:29.000Z</time></trkpt>
        <trkpt lat="29.7808518" lon="103.4446395"><ele>737.87</ele><time>2026-03-11T21:09:33.000Z</time></trkpt>
        <trkpt lat="29.7809147" lon="103.4446316"><ele>737.27</ele><time>2026-03-11T21:09:39.000Z</time></trkpt>
        <trkpt lat="29.7809408" lon="103.4446536"><ele>737.61</ele><time>2026-03-11T21:09:45.000Z</time></trkpt>
        <trkpt lat="29.7809338" lon="103.4446988"><ele>737.22</ele><time>2026-03-11T21:10:01.000Z</time></trkpt>
        <trkpt lat="29.7809475" lon="103.4447502"><ele>736.84</ele><time>2026-03-11T21:10:07.000Z</time></trkpt>
        <trkpt lat="29.7809225" lon="103.4448103"><ele>738.23</ele><time>2026-03-11T21:10:15.000Z</time></trkpt>
        <trkpt lat="29.7808748" lon="103.4448432"><ele>739.3</ele><time>2026-03-11T21:10:21.000Z</time></trkpt>
        <trkpt lat="29.780835" lon="103.4448814"><ele>738.98</ele><time>2026-03-11T21:10:31.000Z</time></trkpt>
        <trkpt lat="29.7807965" lon="103.4449217"><ele>739.64</ele><time>2026-03-11T21:10:39.000Z</time></trkpt>
        <trkpt lat="29.7807669" lon="103.444977"><ele>739.99</ele><time>2026-03-11T21:10:49.000Z</time></trkpt>
        <trkpt lat="29.7807441" lon="103.4450327"><ele>741.88</ele><time>2026-03-11T21:10:55.000Z</time></trkpt>
        <trkpt lat="29.7807159" lon="103.4450791"><ele>743.02</ele><time>2026-03-11T21:11:03.000Z</time></trkpt>
        <trkpt lat="29.7806867" lon="103.4451341"><ele>744.04</ele><time>2026-03-11T21:11:11.000Z</time></trkpt>
        <trkpt lat="29.7806935" lon="103.4451894"><ele>744.35</ele><time>2026-03-11T21:11:27.000Z</time></trkpt>
        <trkpt lat="29.7807334" lon="103.445234"><ele>744.64</ele><time>2026-03-11T21:11:33.000Z</time></trkpt>
        <trkpt lat="29.7807865" lon="103.4452758"><ele>744.25</ele><time>2026-03-11T21:11:39.000Z</time></trkpt>
        <trkpt lat="29.7807961" lon="103.4453311"><ele>743.67</ele><time>2026-03-11T21:11:47.000Z</time></trkpt>
        <trkpt lat="29.780779" lon="103.4453949"><ele>743.38</ele><time>2026-03-11T21:11:53.000Z</time></trkpt>
        <trkpt lat="29.7807416" lon="103.4454526"><ele>743.24</ele><time>2026-03-11T21:11:59.000Z</time></trkpt>
        <trkpt lat="29.7807157" lon="103.4455151"><ele>744.18</ele><time>2026-03-11T21:12:05.000Z</time></trkpt>
        <trkpt lat="29.7807065" lon="103.4455841"><ele>744.66</ele><time>2026-03-11T21:12:11.000Z</time></trkpt>
        <trkpt lat="29.7807019" lon="103.4456471"><ele>745.18</ele><time>2026-03-11T21:12:17.000Z</time></trkpt>
        <trkpt lat="29.7807032" lon="103.445706"><ele>746.47</ele><time>2026-03-11T21:12:29.000Z</time></trkpt>
        <trkpt lat="29.7807469" lon="103.4457411"><ele>746.43</ele><time>2026-03-11T21:12:35.000Z</time></trkpt>
        <trkpt lat="29.780769" lon="103.44575"><ele>746.58</ele><time>2026-03-11T21:12:37.000Z</time></trkpt>
        <trkpt lat="29.7808128" lon="103.4457618"><ele>746.51</ele><time>2026-03-11T21:12:47.000Z</time></trkpt>
        <trkpt lat="29.7808643" lon="103.4457945"><ele>747.63</ele><time>2026-03-11T21:12:57.000Z</time></trkpt>
        <trkpt lat="29.780906" lon="103.4458321"><ele>748.15</ele><time>2026-03-11T21:13:05.000Z</time></trkpt>
        <trkpt lat="29.7809556" lon="103.4458617"><ele>749.01</ele><time>2026-03-11T21:13:13.000Z</time></trkpt>
        <trkpt lat="29.7810065" lon="103.4458881"><ele>750.1</ele><time>2026-03-11T21:13:19.000Z</time></trkpt>
        <trkpt lat="29.7810556" lon="103.4459067"><ele>751.15</ele><time>2026-03-11T21:13:29.000Z</time></trkpt>
        <trkpt lat="29.7810947" lon="103.4459255"><ele>752.92</ele><time>2026-03-11T21:13:41.000Z</time></trkpt>
        <trkpt lat="29.7810947" lon="103.4459255"><ele>752.92</ele><time>2026-03-11T21:13:50.000Z</time></trkpt>
        <trkpt lat="29.7810707" lon="103.4459489"><ele>754.98</ele><time>2026-03-11T21:13:53.000Z</time></trkpt>
        <trkpt lat="29.7810707" lon="103.4459489"><ele>754.98</ele><time>2026-03-11T21:13:54.000Z</time></trkpt>
        <trkpt lat="29.7810707" lon="103.4459489"><ele>754.98</ele><time>2026-03-11T21:16:16.000Z</time></trkpt>
        <trkpt lat="29.7810795" lon="103.4459098"><ele>758.45</ele><time>2026-03-11T21:16:17.000Z</time></trkpt>
        <trkpt lat="29.7810795" lon="103.4459098"><ele>758.45</ele><time>2026-03-11T21:16:23.000Z</time></trkpt>
        <trkpt lat="29.7810795" lon="103.4459098"><ele>758.45</ele><time>2026-03-11T21:16:36.000Z</time></trkpt>
        <trkpt lat="29.7810795" lon="103.4459098"><ele>758.45</ele><time>2026-03-11T21:16:51.000Z</time></trkpt>
        <trkpt lat="29.7810795" lon="103.4459098"><ele>758.45</ele><time>2026-03-11T21:17:04.000Z</time></trkpt>
        <trkpt lat="29.7811294" lon="103.4459539"><ele>761.99</ele><time>2026-03-11T21:17:07.000Z</time></trkpt>
        <trkpt lat="29.7811294" lon="103.4459539"><ele>761.99</ele><time>2026-03-11T21:17:12.000Z</time></trkpt>
        <trkpt lat="29.7811642" lon="103.445965"><ele>762.21</ele><time>2026-03-11T21:17:16.000Z</time></trkpt>
        <trkpt lat="29.7812112" lon="103.4459842"><ele>764.15</ele><time>2026-03-11T21:17:20.000Z</time></trkpt>
        <trkpt lat="29.7812715" lon="103.446012"><ele>764.71</ele><time>2026-03-11T21:17:24.000Z</time></trkpt>
        <trkpt lat="29.7813279" lon="103.4460248"><ele>764.94</ele><time>2026-03-11T21:17:28.000Z</time></trkpt>
        <trkpt lat="29.7813931" lon="103.4460288"><ele>765.78</ele><time>2026-03-11T21:17:34.000Z</time></trkpt>
        <trkpt lat="29.7814359" lon="103.4460267"><ele>766.37</ele><time>2026-03-11T21:17:38.000Z</time></trkpt>
        <trkpt lat="29.7814779" lon="103.4460135"><ele>766.95</ele><time>2026-03-11T21:17:46.000Z</time></trkpt>
        <trkpt lat="29.781523" lon="103.4460109"><ele>767.64</ele><time>2026-03-11T21:17:52.000Z</time></trkpt>
        <trkpt lat="29.781523" lon="103.4460109"><ele>767.64</ele><time>2026-03-11T21:18:04.000Z</time></trkpt>
        <trkpt lat="29.7815639" lon="103.4460325"><ele>767.88</ele><time>2026-03-11T21:18:15.000Z</time></trkpt>
        <trkpt lat="29.7815639" lon="103.4460325"><ele>767.88</ele><time>2026-03-11T21:18:20.000Z</time></trkpt>
        <trkpt lat="29.7816166" lon="103.4460417"><ele>770.8</ele><time>2026-03-11T21:18:26.000Z</time></trkpt>
        <trkpt lat="29.7816752" lon="103.4460382"><ele>770.14</ele><time>2026-03-11T21:18:32.000Z</time></trkpt>
        <trkpt lat="29.781736" lon="103.4460391"><ele>770.86</ele><time>2026-03-11T21:18:38.000Z</time></trkpt>
        <trkpt lat="29.7817914" lon="103.4460432"><ele>771.69</ele><time>2026-03-11T21:18:44.000Z</time></trkpt>
        <trkpt lat="29.7818455" lon="103.446051"><ele>772.22</ele><time>2026-03-11T21:18:52.000Z</time></trkpt>
        <trkpt lat="29.7819036" lon="103.4460598"><ele>773.45</ele><time>2026-03-11T21:19:00.000Z</time></trkpt>
        <trkpt lat="29.7819555" lon="103.4460817"><ele>774.94</ele><time>2026-03-11T21:19:06.000Z</time></trkpt>
        <trkpt lat="29.7820099" lon="103.446119"><ele>775.88</ele><time>2026-03-11T21:19:12.000Z</time></trkpt>
        <trkpt lat="29.7820621" lon="103.4461687"><ele>776.28</ele><time>2026-03-11T21:19:18.000Z</time></trkpt>
        <trkpt lat="29.7821057" lon="103.4462257"><ele>776.42</ele><time>2026-03-11T21:19:24.000Z</time></trkpt>
        <trkpt lat="29.7821401" lon="103.4462904"><ele>777.35</ele><time>2026-03-11T21:19:30.000Z</time></trkpt>
        <trkpt lat="29.78218" lon="103.4463475"><ele>777.94</ele><time>2026-03-11T21:19:36.000Z</time></trkpt>
        <trkpt lat="29.7822287" lon="103.4463979"><ele>778.27</ele><time>2026-03-11T21:19:42.000Z</time></trkpt>
        <trkpt lat="29.7822748" lon="103.4464286"><ele>778.73</ele><time>2026-03-11T21:19:46.000Z</time></trkpt>
        <trkpt lat="29.7823092" lon="103.4464285"><ele>778.92</ele><time>2026-03-11T21:19:56.000Z</time></trkpt>
        <trkpt lat="29.7823569" lon="103.4464473"><ele>779.66</ele><time>2026-03-11T21:20:24.000Z</time></trkpt>
        <trkpt lat="29.7823984" lon="103.4464741"><ele>779.4</ele><time>2026-03-11T21:20:28.000Z</time></trkpt>
        <trkpt lat="29.782445" lon="103.446489"><ele>779.41</ele><time>2026-03-11T21:20:32.000Z</time></trkpt>
        <trkpt lat="29.7824995" lon="103.4464938"><ele>779.39</ele><time>2026-03-11T21:20:38.000Z</time></trkpt>
        <trkpt lat="29.7825143" lon="103.4464882"><ele>778.84</ele><time>2026-03-11T21:20:40.000Z</time></trkpt>
        <trkpt lat="29.7825143" lon="103.4464882"><ele>778.84</ele><time>2026-03-11T21:20:52.000Z</time></trkpt>
        <trkpt lat="29.7825481" lon="103.4465003"><ele>778.59</ele><time>2026-03-11T21:20:59.000Z</time></trkpt>
        <trkpt lat="29.7825481" lon="103.4465003"><ele>778.59</ele><time>2026-03-11T21:21:04.000Z</time></trkpt>
        <trkpt lat="29.7825884" lon="103.4465177"><ele>778.32</ele><time>2026-03-11T21:21:08.000Z</time></trkpt>
        <trkpt lat="29.7826328" lon="103.4465439"><ele>778.18</ele><time>2026-03-11T21:21:12.000Z</time></trkpt>
        <trkpt lat="29.7826763" lon="103.4465794"><ele>778.09</ele><time>2026-03-11T21:21:16.000Z</time></trkpt>
        <trkpt lat="29.7827259" lon="103.4466114"><ele>778.15</ele><time>2026-03-11T21:21:20.000Z</time></trkpt>
        <trkpt lat="29.7827806" lon="103.4466343"><ele>777.97</ele><time>2026-03-11T21:21:24.000Z</time></trkpt>
        <trkpt lat="29.7828309" lon="103.4466487"><ele>778.22</ele><time>2026-03-11T21:21:28.000Z</time></trkpt>
        <trkpt lat="29.7828743" lon="103.4466669"><ele>778.41</ele><time>2026-03-11T21:21:32.000Z</time></trkpt>
        <trkpt lat="29.78289" lon="103.4466819"><ele>778.51</ele><time>2026-03-11T21:21:36.000Z</time></trkpt>
        <trkpt lat="29.7829121" lon="103.446719"><ele>778.44</ele><time>2026-03-11T21:21:48.000Z</time></trkpt>
        <trkpt lat="29.7829501" lon="103.446756"><ele>779.1</ele><time>2026-03-11T21:21:54.000Z</time></trkpt>
        <trkpt lat="29.7829834" lon="103.4467954"><ele>779.07</ele><time>2026-03-11T21:22:00.000Z</time></trkpt>
        <trkpt lat="29.7829932" lon="103.4468621"><ele>779.76</ele><time>2026-03-11T21:22:08.000Z</time></trkpt>
        <trkpt lat="29.7829964" lon="103.4469336"><ele>779.98</ele><time>2026-03-11T21:22:14.000Z</time></trkpt>
        <trkpt lat="29.7829954" lon="103.4470107"><ele>779.87</ele><time>2026-03-11T21:22:20.000Z</time></trkpt>
        <trkpt lat="29.7829885" lon="103.4470822"><ele>779.84</ele><time>2026-03-11T21:22:26.000Z</time></trkpt>
        <trkpt lat="29.7829661" lon="103.447144"><ele>780.35</ele><time>2026-03-11T21:22:32.000Z</time></trkpt>
        <trkpt lat="29.7829347" lon="103.4472052"><ele>781.27</ele><time>2026-03-11T21:22:40.000Z</time></trkpt>
        <trkpt lat="29.7828958" lon="103.4472596"><ele>783.18</ele><time>2026-03-11T21:22:46.000Z</time></trkpt>
        <trkpt lat="29.7828424" lon="103.4472946"><ele>785.35</ele><time>2026-03-11T21:22:52.000Z</time></trkpt>
        <trkpt lat="29.7827938" lon="103.4473145"><ele>787.18</ele><time>2026-03-11T21:22:56.000Z</time></trkpt>
        <trkpt lat="29.7827453" lon="103.4473158"><ele>788.27</ele><time>2026-03-11T21:23:00.000Z</time></trkpt>
        <trkpt lat="29.7827006" lon="103.4472748"><ele>789.42</ele><time>2026-03-11T21:23:06.000Z</time></trkpt>
        <trkpt lat="29.7826543" lon="103.4472566"><ele>790.78</ele><time>2026-03-11T21:23:12.000Z</time></trkpt>
        <trkpt lat="29.782627" lon="103.4472153"><ele>792.29</ele><time>2026-03-11T21:23:22.000Z</time></trkpt>
        <trkpt lat="29.7825937" lon="103.4471765"><ele>793.5</ele><time>2026-03-11T21:23:28.000Z</time></trkpt>
        <trkpt lat="29.7825653" lon="103.4472095"><ele>794.21</ele><time>2026-03-11T21:23:36.000Z</time></trkpt>
        <trkpt lat="29.7825346" lon="103.4472605"><ele>795.38</ele><time>2026-03-11T21:23:42.000Z</time></trkpt>
        <trkpt lat="29.7824945" lon="103.4472981"><ele>796.54</ele><time>2026-03-11T21:23:50.000Z</time></trkpt>
        <trkpt lat="29.7824548" lon="103.4472885"><ele>798.61</ele><time>2026-03-11T21:23:58.000Z</time></trkpt>
        <trkpt lat="29.7824034" lon="103.4472794"><ele>801.87</ele><time>2026-03-11T21:24:06.000Z</time></trkpt>
        <trkpt lat="29.7823562" lon="103.4473065"><ele>804.04</ele><time>2026-03-11T21:24:14.000Z</time></trkpt>
        <trkpt lat="29.7823009" lon="103.4473154"><ele>805.38</ele><time>2026-03-11T21:24:22.000Z</time></trkpt>
        <trkpt lat="29.7822654" lon="103.4472861"><ele>808.03</ele><time>2026-03-11T21:24:28.000Z</time></trkpt>
        <trkpt lat="29.7822521" lon="103.4472329"><ele>810.32</ele><time>2026-03-11T21:24:36.000Z</time></trkpt>
        <trkpt lat="29.782212" lon="103.4471909"><ele>811.08</ele><time>2026-03-11T21:24:46.000Z</time></trkpt>
        <trkpt lat="29.7821637" lon="103.4471511"><ele>812.07</ele><time>2026-03-11T21:24:54.000Z</time></trkpt>
        <trkpt lat="29.7821086" lon="103.4471377"><ele>813.13</ele><time>2026-03-11T21:25:00.000Z</time></trkpt>
        <trkpt lat="29.7820501" lon="103.447138"><ele>813.86</ele><time>2026-03-11T21:25:08.000Z</time></trkpt>
        <trkpt lat="29.7819987" lon="103.4471488"><ele>814.16</ele><time>2026-03-11T21:25:12.000Z</time></trkpt>
        <trkpt lat="29.7819458" lon="103.4471694"><ele>814.69</ele><time>2026-03-11T21:25:18.000Z</time></trkpt>
        <trkpt lat="29.7819071" lon="103.4472148"><ele>814.86</ele><time>2026-03-11T21:25:24.000Z</time></trkpt>
        <trkpt lat="29.7818771" lon="103.4472639"><ele>813.84</ele><time>2026-03-11T21:25:30.000Z</time></trkpt>
        <trkpt lat="29.7818317" lon="103.4472828"><ele>812.62</ele><time>2026-03-11T21:25:38.000Z</time></trkpt>
        <trkpt lat="29.7818208" lon="103.4473334"><ele>811.28</ele><time>2026-03-11T21:25:54.000Z</time></trkpt>
        <trkpt lat="29.7818425" lon="103.4473983"><ele>809.11</ele><time>2026-03-11T21:26:00.000Z</time></trkpt>
        <trkpt lat="29.7818746" lon="103.4474532"><ele>808.23</ele><time>2026-03-11T21:26:04.000Z</time></trkpt>
        <trkpt lat="29.7819151" lon="103.4475018"><ele>808.49</ele><time>2026-03-11T21:26:10.000Z</time></trkpt>
        <trkpt lat="29.7819262" lon="103.4475052"><ele>808.06</ele><time>2026-03-11T21:26:12.000Z</time></trkpt>
        <trkpt lat="29.7819206" lon="103.4475432"><ele>807.72</ele><time>2026-03-11T21:26:24.000Z</time></trkpt>
        <trkpt lat="29.7819155" lon="103.4476073"><ele>810.22</ele><time>2026-03-11T21:26:30.000Z</time></trkpt>
        <trkpt lat="29.7819058" lon="103.4476663"><ele>813.33</ele><time>2026-03-11T21:26:34.000Z</time></trkpt>
        <trkpt lat="29.7818802" lon="103.4477293"><ele>816.25</ele><time>2026-03-11T21:26:40.000Z</time></trkpt>
        <trkpt lat="29.7818652" lon="103.4477869"><ele>817.86</ele><time>2026-03-11T21:26:44.000Z</time></trkpt>
        <trkpt lat="29.7818696" lon="103.4478547"><ele>819.5</ele><time>2026-03-11T21:26:58.000Z</time></trkpt>
        <trkpt lat="29.7818913" lon="103.447923"><ele>816.47</ele><time>2026-03-11T21:27:04.000Z</time></trkpt>
        <trkpt lat="29.7819037" lon="103.4479795"><ele>814.99</ele><time>2026-03-11T21:27:08.000Z</time></trkpt>
        <trkpt lat="29.7818901" lon="103.4480462"><ele>814.57</ele><time>2026-03-11T21:27:14.000Z</time></trkpt>
        <trkpt lat="29.7818506" lon="103.4481057"><ele>815.37</ele><time>2026-03-11T21:27:20.000Z</time></trkpt>
        <trkpt lat="29.7818145" lon="103.4481548"><ele>816.17</ele><time>2026-03-11T21:27:24.000Z</time></trkpt>
        <trkpt lat="29.7817872" lon="103.4482055"><ele>816.91</ele><time>2026-03-11T21:27:28.000Z</time></trkpt>
        <trkpt lat="29.7817721" lon="103.4482586"><ele>817.8</ele><time>2026-03-11T21:27:32.000Z</time></trkpt>
        <trkpt lat="29.781765" lon="103.448311"><ele>817.98</ele><time>2026-03-11T21:27:36.000Z</time></trkpt>
        <trkpt lat="29.7817613" lon="103.4483628"><ele>817.8</ele><time>2026-03-11T21:27:40.000Z</time></trkpt>
        <trkpt lat="29.781747" lon="103.4484287"><ele>817.6</ele><time>2026-03-11T21:27:46.000Z</time></trkpt>
        <trkpt lat="29.7817389" lon="103.4484539"><ele>818.09</ele><time>2026-03-11T21:27:48.000Z</time></trkpt>
        <trkpt lat="29.7817247" lon="103.4484976"><ele>818.47</ele><time>2026-03-11T21:27:54.000Z</time></trkpt>
        <trkpt lat="29.7817196" lon="103.4485632"><ele>819.17</ele><time>2026-03-11T21:28:00.000Z</time></trkpt>
        <trkpt lat="29.7817331" lon="103.4486267"><ele>819.83</ele><time>2026-03-11T21:28:06.000Z</time></trkpt>
        <trkpt lat="29.7817653" lon="103.4486854"><ele>820.27</ele><time>2026-03-11T21:28:12.000Z</time></trkpt>
        <trkpt lat="29.7818015" lon="103.4487418"><ele>820.72</ele><time>2026-03-11T21:28:18.000Z</time></trkpt>
        <trkpt lat="29.7818387" lon="103.4488008"><ele>821.05</ele><time>2026-03-11T21:28:24.000Z</time></trkpt>
        <trkpt lat="29.781872" lon="103.4488661"><ele>821.46</ele><time>2026-03-11T21:28:30.000Z</time></trkpt>
        <trkpt lat="29.7818911" lon="103.4489211"><ele>820.94</ele><time>2026-03-11T21:28:34.000Z</time></trkpt>
        <trkpt lat="29.7818859" lon="103.4489924"><ele>820.91</ele><time>2026-03-11T21:28:40.000Z</time></trkpt>
        <trkpt lat="29.7818718" lon="103.44905"><ele>821.57</ele><time>2026-03-11T21:28:44.000Z</time></trkpt>
        <trkpt lat="29.781838" lon="103.4490898"><ele>822.77</ele><time>2026-03-11T21:28:48.000Z</time></trkpt>
        <trkpt lat="29.7817858" lon="103.4491173"><ele>823.99</ele><time>2026-03-11T21:28:52.000Z</time></trkpt>
        <trkpt lat="29.781735" lon="103.4491423"><ele>824.37</ele><time>2026-03-11T21:28:56.000Z</time></trkpt>
        <trkpt lat="29.781668" lon="103.4491449"><ele>824.97</ele><time>2026-03-11T21:29:02.000Z</time></trkpt>
        <trkpt lat="29.7816142" lon="103.449158"><ele>824.34</ele><time>2026-03-11T21:29:06.000Z</time></trkpt>
        <trkpt lat="29.7815676" lon="103.4491686"><ele>824.62</ele><time>2026-03-11T21:29:10.000Z</time></trkpt>
        <trkpt lat="29.7815185" lon="103.4491923"><ele>825.14</ele><time>2026-03-11T21:29:16.000Z</time></trkpt>
        <trkpt lat="29.7814683" lon="103.4492351"><ele>826.04</ele><time>2026-03-11T21:29:22.000Z</time></trkpt>
        <trkpt lat="29.78142" lon="103.4492811"><ele>827.52</ele><time>2026-03-11T21:29:28.000Z</time></trkpt>
        <trkpt lat="29.7813819" lon="103.449319"><ele>829.21</ele><time>2026-03-11T21:29:32.000Z</time></trkpt>
        <trkpt lat="29.7813369" lon="103.4493639"><ele>830.34</ele><time>2026-03-11T21:29:38.000Z</time></trkpt>
        <trkpt lat="29.7812929" lon="103.4493949"><ele>830.96</ele><time>2026-03-11T21:29:42.000Z</time></trkpt>
        <trkpt lat="29.7812455" lon="103.4494292"><ele>831.33</ele><time>2026-03-11T21:29:46.000Z</time></trkpt>
        <trkpt lat="29.7811901" lon="103.4494557"><ele>831.93</ele><time>2026-03-11T21:29:50.000Z</time></trkpt>
        <trkpt lat="29.7811373" lon="103.4494791"><ele>832.64</ele><time>2026-03-11T21:29:54.000Z</time></trkpt>
        <trkpt lat="29.7810844" lon="103.4495018"><ele>832.75</ele><time>2026-03-11T21:29:58.000Z</time></trkpt>
        <trkpt lat="29.7810328" lon="103.449523"><ele>832.51</ele><time>2026-03-11T21:30:02.000Z</time></trkpt>
        <trkpt lat="29.780992" lon="103.4495547"><ele>831.93</ele><time>2026-03-11T21:30:06.000Z</time></trkpt>
        <trkpt lat="29.7809843" lon="103.4496209"><ele>830.99</ele><time>2026-03-11T21:30:12.000Z</time></trkpt>
        <trkpt lat="29.7810029" lon="103.4496957"><ele>829.62</ele><time>2026-03-11T21:30:18.000Z</time></trkpt>
        <trkpt lat="29.7810504" lon="103.449753"><ele>828.06</ele><time>2026-03-11T21:30:24.000Z</time></trkpt>
        <trkpt lat="29.7811018" lon="103.4497763"><ele>826.62</ele><time>2026-03-11T21:30:28.000Z</time></trkpt>
        <trkpt lat="29.7811645" lon="103.4497857"><ele>825.9</ele><time>2026-03-11T21:30:34.000Z</time></trkpt>
        <trkpt lat="29.7812316" lon="103.4497948"><ele>825.39</ele><time>2026-03-11T21:30:40.000Z</time></trkpt>
        <trkpt lat="29.7812869" lon="103.4497983"><ele>825.92</ele><time>2026-03-11T21:30:44.000Z</time></trkpt>
        <trkpt lat="29.7813366" lon="103.4497963"><ele>825.99</ele><time>2026-03-11T21:30:48.000Z</time></trkpt>
        <trkpt lat="29.7813816" lon="103.4497828"><ele>825.42</ele><time>2026-03-11T21:30:52.000Z</time></trkpt>
        <trkpt lat="29.7814383" lon="103.4497643"><ele>825.01</ele><time>2026-03-11T21:30:58.000Z</time></trkpt>
        <trkpt lat="29.7814954" lon="103.4497411"><ele>824.22</ele><time>2026-03-11T21:31:04.000Z</time></trkpt>
        <trkpt lat="29.7815558" lon="103.4497196"><ele>823.45</ele><time>2026-03-11T21:31:10.000Z</time></trkpt>
        <trkpt lat="29.7816081" lon="103.4497166"><ele>822.67</ele><time>2026-03-11T21:31:16.000Z</time></trkpt>
        <trkpt lat="29.7816658" lon="103.4496959"><ele>821.35</ele><time>2026-03-11T21:31:22.000Z</time></trkpt>
        <trkpt lat="29.7817255" lon="103.4496774"><ele>820.13</ele><time>2026-03-11T21:31:26.000Z</time></trkpt>
        <trkpt lat="29.7817872" lon="103.4496698"><ele>820.95</ele><time>2026-03-11T21:31:30.000Z</time></trkpt>
        <trkpt lat="29.7818501" lon="103.4496747"><ele>822.37</ele><time>2026-03-11T21:31:34.000Z</time></trkpt>
        <trkpt lat="29.7818974" lon="103.4497065"><ele>824.37</ele><time>2026-03-11T21:31:38.000Z</time></trkpt>
        <trkpt lat="29.7819451" lon="103.449732"><ele>827.08</ele><time>2026-03-11T21:31:42.000Z</time></trkpt>
        <trkpt lat="29.7819624" lon="103.4497836"><ele>829.81</ele><time>2026-03-11T21:31:48.000Z</time></trkpt>
        <trkpt lat="29.7819565" lon="103.449856"><ele>832.37</ele><time>2026-03-11T21:31:54.000Z</time></trkpt>
        <trkpt lat="29.7819399" lon="103.4499211"><ele>834.24</ele><time>2026-03-11T21:32:00.000Z</time></trkpt>
        <trkpt lat="29.781905" lon="103.4499676"><ele>836.52</ele><time>2026-03-11T21:32:04.000Z</time></trkpt>
        <trkpt lat="29.7818597" lon="103.4500004"><ele>837.97</ele><time>2026-03-11T21:32:08.000Z</time></trkpt>
        <trkpt lat="29.7818138" lon="103.4500269"><ele>838.64</ele><time>2026-03-11T21:32:12.000Z</time></trkpt>
        <trkpt lat="29.7817739" lon="103.4500572"><ele>839.13</ele><time>2026-03-11T21:32:16.000Z</time></trkpt>
        <trkpt lat="29.7817396" lon="103.4500943"><ele>838.78</ele><time>2026-03-11T21:32:20.000Z</time></trkpt>
        <trkpt lat="29.7816994" lon="103.4501466"><ele>838.68</ele><time>2026-03-11T21:32:32.000Z</time></trkpt>
        <trkpt lat="29.7816651" lon="103.4501903"><ele>838.07</ele><time>2026-03-11T21:32:36.000Z</time></trkpt>
        <trkpt lat="29.7816278" lon="103.4502372"><ele>838.16</ele><time>2026-03-11T21:32:42.000Z</time></trkpt>
        <trkpt lat="29.7816064" lon="103.4502923"><ele>839.21</ele><time>2026-03-11T21:32:56.000Z</time></trkpt>
        <trkpt lat="29.7815726" lon="103.450331"><ele>839.77</ele><time>2026-03-11T21:33:02.000Z</time></trkpt>
        <trkpt lat="29.7815244" lon="103.4503622"><ele>840.2</ele><time>2026-03-11T21:33:08.000Z</time></trkpt>
        <trkpt lat="29.7814755" lon="103.4503817"><ele>840.39</ele><time>2026-03-11T21:33:12.000Z</time></trkpt>
        <trkpt lat="29.7814162" lon="103.4504072"><ele>840.38</ele><time>2026-03-11T21:33:16.000Z</time></trkpt>
        <trkpt lat="29.7813625" lon="103.4504306"><ele>841.23</ele><time>2026-03-11T21:33:20.000Z</time></trkpt>
        <trkpt lat="29.7813067" lon="103.450444"><ele>841.75</ele><time>2026-03-11T21:33:24.000Z</time></trkpt>
        <trkpt lat="29.7812648" lon="103.4504684"><ele>842.08</ele><time>2026-03-11T21:33:28.000Z</time></trkpt>
        <trkpt lat="29.7812287" lon="103.4505063"><ele>842.29</ele><time>2026-03-11T21:33:32.000Z</time></trkpt>
        <trkpt lat="29.7812041" lon="103.4505543"><ele>841.97</ele><time>2026-03-11T21:33:36.000Z</time></trkpt>
        <trkpt lat="29.7811756" lon="103.4505991"><ele>842.08</ele><time>2026-03-11T21:33:40.000Z</time></trkpt>
        <trkpt lat="29.7811526" lon="103.450646"><ele>843.11</ele><time>2026-03-11T21:33:44.000Z</time></trkpt>
        <trkpt lat="29.7811248" lon="103.4506877"><ele>843.95</ele><time>2026-03-11T21:33:48.000Z</time></trkpt>
        <trkpt lat="29.7810866" lon="103.4507362"><ele>844.52</ele><time>2026-03-11T21:33:54.000Z</time></trkpt>
        <trkpt lat="29.7810407" lon="103.4507855"><ele>843.81</ele><time>2026-03-11T21:34:00.000Z</time></trkpt>
        <trkpt lat="29.7810062" lon="103.4508283"><ele>843.84</ele><time>2026-03-11T21:34:04.000Z</time></trkpt>
        <trkpt lat="29.7809689" lon="103.4508869"><ele>844.06</ele><time>2026-03-11T21:34:10.000Z</time></trkpt>
        <trkpt lat="29.7809398" lon="103.4509399"><ele>845.11</ele><time>2026-03-11T21:34:14.000Z</time></trkpt>
        <trkpt lat="29.7809165" lon="103.4509944"><ele>846.12</ele><time>2026-03-11T21:34:18.000Z</time></trkpt>
        <trkpt lat="29.7809019" lon="103.45105"><ele>846.71</ele><time>2026-03-11T21:34:22.000Z</time></trkpt>
        <trkpt lat="29.7809052" lon="103.4511082"><ele>846.8</ele><time>2026-03-11T21:34:26.000Z</time></trkpt>
        <trkpt lat="29.7809215" lon="103.451173"><ele>846.9</ele><time>2026-03-11T21:34:32.000Z</time></trkpt>
        <trkpt lat="29.7809538" lon="103.4512277"><ele>847.16</ele><time>2026-03-11T21:34:38.000Z</time></trkpt>
        <trkpt lat="29.7810021" lon="103.4512365"><ele>845.47</ele><time>2026-03-11T21:34:42.000Z</time></trkpt>
        <trkpt lat="29.7810542" lon="103.4512291"><ele>843.6</ele><time>2026-03-11T21:34:46.000Z</time></trkpt>
        <trkpt lat="29.7811069" lon="103.4512176"><ele>842.76</ele><time>2026-03-11T21:34:52.000Z</time></trkpt>
        <trkpt lat="29.7811664" lon="103.4511985"><ele>843.34</ele><time>2026-03-11T21:34:58.000Z</time></trkpt>
        <trkpt lat="29.7812208" lon="103.451205"><ele>843.86</ele><time>2026-03-11T21:35:04.000Z</time></trkpt>
        <trkpt lat="29.7812782" lon="103.4512236"><ele>843.77</ele><time>2026-03-11T21:35:09.000Z</time></trkpt>
        <trkpt lat="29.7813226" lon="103.4512637"><ele>844.2</ele><time>2026-03-11T21:35:14.000Z</time></trkpt>
        <trkpt lat="29.7813437" lon="103.4513261"><ele>845.01</ele><time>2026-03-11T21:35:20.000Z</time></trkpt>
        <trkpt lat="29.7813257" lon="103.451417"><ele>846.27</ele><time>2026-03-11T21:35:27.000Z</time></trkpt>
        <trkpt lat="29.7812974" lon="103.4514813"><ele>846.81</ele><time>2026-03-11T21:35:31.000Z</time></trkpt>
        <trkpt lat="29.7812571" lon="103.4515461"><ele>847.25</ele><time>2026-03-11T21:35:37.000Z</time></trkpt>
        <trkpt lat="29.7812305" lon="103.4515729"><ele>847.96</ele><time>2026-03-11T21:35:45.000Z</time></trkpt>
        <trkpt lat="29.7812305" lon="103.4515729"><ele>847.96</ele><time>2026-03-11T21:35:56.000Z</time></trkpt>
        <trkpt lat="29.7812467" lon="103.4516266"><ele>846.12</ele><time>2026-03-11T21:35:59.000Z</time></trkpt>
        <trkpt lat="29.7812467" lon="103.4516266"><ele>846.12</ele><time>2026-03-11T21:36:02.000Z</time></trkpt>
        <trkpt lat="29.7812815" lon="103.4516779"><ele>847.22</ele><time>2026-03-11T21:36:04.000Z</time></trkpt>
        <trkpt lat="29.7812766" lon="103.4516547"><ele>850.41</ele><time>2026-03-11T21:36:42.000Z</time></trkpt>
        <trkpt lat="29.7812766" lon="103.4516547"><ele>850.41</ele><time>2026-03-11T21:36:46.000Z</time></trkpt>
        <trkpt lat="29.7812544" lon="103.4516829"><ele>852.9</ele><time>2026-03-11T21:36:57.000Z</time></trkpt>
        <trkpt lat="29.7812544" lon="103.4516829"><ele>852.9</ele><time>2026-03-11T21:37:10.000Z</time></trkpt>
        <trkpt lat="29.7812082" lon="103.4517237"><ele>855.05</ele><time>2026-03-11T21:37:14.000Z</time></trkpt>
        <trkpt lat="29.7811511" lon="103.4517517"><ele>856.5</ele><time>2026-03-11T21:37:26.000Z</time></trkpt>
        <trkpt lat="29.7811035" lon="103.4517827"><ele>856.62</ele><time>2026-03-11T21:37:30.000Z</time></trkpt>
        <trkpt lat="29.7810494" lon="103.4517959"><ele>857.16</ele><time>2026-03-11T21:37:48.000Z</time></trkpt>
        <trkpt lat="29.780992" lon="103.4518294"><ele>856.24</ele><time>2026-03-11T21:37:54.000Z</time></trkpt>
        <trkpt lat="29.7809524" lon="103.4518911"><ele>855.44</ele><time>2026-03-11T21:38:00.000Z</time></trkpt>
        <trkpt lat="29.7809469" lon="103.4519524"><ele>856.52</ele><time>2026-03-11T21:38:10.000Z</time></trkpt>
        <trkpt lat="29.780908" lon="103.4519866"><ele>857.5</ele><time>2026-03-11T21:38:20.000Z</time></trkpt>
        <trkpt lat="29.7808653" lon="103.4520101"><ele>859.04</ele><time>2026-03-11T21:38:24.000Z</time></trkpt>
        <trkpt lat="29.7808334" lon="103.4520453"><ele>860.59</ele><time>2026-03-11T21:38:28.000Z</time></trkpt>
        <trkpt lat="29.780798" lon="103.4520979"><ele>861.67</ele><time>2026-03-11T21:38:34.000Z</time></trkpt>
        <trkpt lat="29.7807656" lon="103.4521472"><ele>862.71</ele><time>2026-03-11T21:38:40.000Z</time></trkpt>
        <trkpt lat="29.780758" lon="103.4522008"><ele>863.28</ele><time>2026-03-11T21:38:46.000Z</time></trkpt>
        <trkpt lat="29.7807723" lon="103.4521986"><ele>861.86</ele><time>2026-03-11T21:38:50.000Z</time></trkpt>
        <trkpt lat="29.7807308" lon="103.4521756"><ele>860.63</ele><time>2026-03-11T21:38:58.000Z</time></trkpt>
        <trkpt lat="29.7807127" lon="103.4521587"><ele>861.08</ele><time>2026-03-11T21:39:00.000Z</time></trkpt>
        <trkpt lat="29.7806702" lon="103.4521779"><ele>861.34</ele><time>2026-03-11T21:39:14.000Z</time></trkpt>
        <trkpt lat="29.7806585" lon="103.4521829"><ele>861.93</ele><time>2026-03-11T21:39:17.000Z</time></trkpt>
        <trkpt lat="29.7806296" lon="103.4522201"><ele>861.65</ele><time>2026-03-11T21:39:31.000Z</time></trkpt>
        <trkpt lat="29.7805984" lon="103.4522681"><ele>861.71</ele><time>2026-03-11T21:39:37.000Z</time></trkpt>
        <trkpt lat="29.7805534" lon="103.452314"><ele>863.6</ele><time>2026-03-11T21:39:43.000Z</time></trkpt>
        <trkpt lat="29.7805138" lon="103.4523586"><ele>865.19</ele><time>2026-03-11T21:39:49.000Z</time></trkpt>
        <trkpt lat="29.78047" lon="103.4524048"><ele>866.47</ele><time>2026-03-11T21:39:55.000Z</time></trkpt>
        <trkpt lat="29.7804294" lon="103.4524374"><ele>868.01</ele><time>2026-03-11T21:39:59.000Z</time></trkpt>
        <trkpt lat="29.7803875" lon="103.4524647"><ele>869.05</ele><time>2026-03-11T21:40:05.000Z</time></trkpt>
        <trkpt lat="29.780345" lon="103.4524872"><ele>869.72</ele><time>2026-03-11T21:40:25.000Z</time></trkpt>
        <trkpt lat="29.7802913" lon="103.4525108"><ele>869.65</ele><time>2026-03-11T21:40:31.000Z</time></trkpt>
        <trkpt lat="29.7802347" lon="103.4525318"><ele>869.71</ele><time>2026-03-11T21:40:37.000Z</time></trkpt>
        <trkpt lat="29.7801739" lon="103.4525403"><ele>870.67</ele><time>2026-03-11T21:40:45.000Z</time></trkpt>
        <trkpt lat="29.7801198" lon="103.4525294"><ele>872.22</ele><time>2026-03-11T21:40:53.000Z</time></trkpt>
        <trkpt lat="29.7800717" lon="103.4525106"><ele>874</ele><time>2026-03-11T21:41:15.000Z</time></trkpt>
        <trkpt lat="29.7800189" lon="103.4524848"><ele>874.98</ele><time>2026-03-11T21:41:23.000Z</time></trkpt>
        <trkpt lat="29.7799633" lon="103.4524928"><ele>876.3</ele><time>2026-03-11T21:41:29.000Z</time></trkpt>
        <trkpt lat="29.7799348" lon="103.452514"><ele>878.34</ele><time>2026-03-11T21:41:37.000Z</time></trkpt>
        <trkpt lat="29.7798893" lon="103.4525133"><ele>880.5</ele><time>2026-03-11T21:41:55.000Z</time></trkpt>
        <trkpt lat="29.7798407" lon="103.4525317"><ele>882.18</ele><time>2026-03-11T21:42:01.000Z</time></trkpt>
        <trkpt lat="29.7797855" lon="103.4525613"><ele>883.62</ele><time>2026-03-11T21:42:09.000Z</time></trkpt>
        <trkpt lat="29.7797253" lon="103.4525854"><ele>885.56</ele><time>2026-03-11T21:42:15.000Z</time></trkpt>
        <trkpt lat="29.7796619" lon="103.4525953"><ele>887.26</ele><time>2026-03-11T21:42:21.000Z</time></trkpt>
        <trkpt lat="29.7796037" lon="103.452589"><ele>888.44</ele><time>2026-03-11T21:42:27.000Z</time></trkpt>
        <trkpt lat="29.7795497" lon="103.4525643"><ele>889.36</ele><time>2026-03-11T21:42:35.000Z</time></trkpt>
        <trkpt lat="29.7795048" lon="103.4525163"><ele>890.05</ele><time>2026-03-11T21:42:41.000Z</time></trkpt>
        <trkpt lat="29.7794565" lon="103.4524933"><ele>890.7</ele><time>2026-03-11T21:42:47.000Z</time></trkpt>
        <trkpt lat="29.7794011" lon="103.4525116"><ele>890.97</ele><time>2026-03-11T21:42:53.000Z</time></trkpt>
        <trkpt lat="29.7793464" lon="103.4525123"><ele>890.57</ele><time>2026-03-11T21:42:59.000Z</time></trkpt>
        <trkpt lat="29.779299" lon="103.4525053"><ele>890.68</ele><time>2026-03-11T21:43:05.000Z</time></trkpt>
        <trkpt lat="29.7792464" lon="103.4524913"><ele>891.26</ele><time>2026-03-11T21:43:11.000Z</time></trkpt>
        <trkpt lat="29.7791982" lon="103.4524728"><ele>892.26</ele><time>2026-03-11T21:43:17.000Z</time></trkpt>
        <trkpt lat="29.779167" lon="103.4524263"><ele>893.85</ele><time>2026-03-11T21:43:23.000Z</time></trkpt>
        <trkpt lat="29.7791321" lon="103.452391"><ele>895.77</ele><time>2026-03-11T21:43:31.000Z</time></trkpt>
        <trkpt lat="29.7790825" lon="103.4523555"><ele>895.47</ele><time>2026-03-11T21:43:37.000Z</time></trkpt>
        <trkpt lat="29.7790409" lon="103.4523156"><ele>895.19</ele><time>2026-03-11T21:43:41.000Z</time></trkpt>
        <trkpt lat="29.7790142" lon="103.4522575"><ele>895.66</ele><time>2026-03-11T21:43:47.000Z</time></trkpt>
        <trkpt lat="29.7789974" lon="103.4521917"><ele>896.17</ele><time>2026-03-11T21:43:57.000Z</time></trkpt>
        <trkpt lat="29.7789918" lon="103.4521305"><ele>897.13</ele><time>2026-03-11T21:44:03.000Z</time></trkpt>
        <trkpt lat="29.7789954" lon="103.4520607"><ele>897.63</ele><time>2026-03-11T21:44:09.000Z</time></trkpt>
        <trkpt lat="29.779002" lon="103.4519876"><ele>897.43</ele><time>2026-03-11T21:44:15.000Z</time></trkpt>
        <trkpt lat="29.7790081" lon="103.4519263"><ele>896.83</ele><time>2026-03-11T21:44:19.000Z</time></trkpt>
        <trkpt lat="29.7789974" lon="103.4518721"><ele>897.06</ele><time>2026-03-11T21:44:25.000Z</time></trkpt>
        <trkpt lat="29.7789755" lon="103.4518209"><ele>897.63</ele><time>2026-03-11T21:44:31.000Z</time></trkpt>
        <trkpt lat="29.7789382" lon="103.4517858"><ele>898.24</ele><time>2026-03-11T21:44:39.000Z</time></trkpt>
        <trkpt lat="29.7788921" lon="103.4517652"><ele>899.18</ele><time>2026-03-11T21:44:45.000Z</time></trkpt>
        <trkpt lat="29.7788395" lon="103.4517449"><ele>900.29</ele><time>2026-03-11T21:44:51.000Z</time></trkpt>
        <trkpt lat="29.7788012" lon="103.4516904"><ele>901.07</ele><time>2026-03-11T21:45:07.000Z</time></trkpt>
        <trkpt lat="29.7787778" lon="103.4516355"><ele>899.88</ele><time>2026-03-11T21:45:11.000Z</time></trkpt>
        <trkpt lat="29.7787672" lon="103.4515806"><ele>898.63</ele><time>2026-03-11T21:45:15.000Z</time></trkpt>
        <trkpt lat="29.778757" lon="103.4515189"><ele>897.81</ele><time>2026-03-11T21:45:21.000Z</time></trkpt>
        <trkpt lat="29.7787418" lon="103.4514576"><ele>896.9</ele><time>2026-03-11T21:45:27.000Z</time></trkpt>
        <trkpt lat="29.7786975" lon="103.4514208"><ele>896.24</ele><time>2026-03-11T21:45:33.000Z</time></trkpt>
        <trkpt lat="29.778643" lon="103.4513792"><ele>896.06</ele><time>2026-03-11T21:45:39.000Z</time></trkpt>
        <trkpt lat="29.7786194" lon="103.4513672"><ele>896.42</ele><time>2026-03-11T21:45:41.000Z</time></trkpt>
        <trkpt lat="29.7785823" lon="103.4513592"><ele>896.63</ele><time>2026-03-11T21:45:53.000Z</time></trkpt>
        <trkpt lat="29.7785377" lon="103.4513246"><ele>897.42</ele><time>2026-03-11T21:45:59.000Z</time></trkpt>
        <trkpt lat="29.7785039" lon="103.4512831"><ele>897.95</ele><time>2026-03-11T21:46:03.000Z</time></trkpt>
        <trkpt lat="29.7784828" lon="103.4512251"><ele>898.06</ele><time>2026-03-11T21:46:09.000Z</time></trkpt>
        <trkpt lat="29.7784743" lon="103.4511637"><ele>898.24</ele><time>2026-03-11T21:46:15.000Z</time></trkpt>
        <trkpt lat="29.7784628" lon="103.4510947"><ele>897.57</ele><time>2026-03-11T21:46:33.000Z</time></trkpt>
        <trkpt lat="29.778432" lon="103.4510404"><ele>897.36</ele><time>2026-03-11T21:46:39.000Z</time></trkpt>
        <trkpt lat="29.7783847" lon="103.451014"><ele>897.49</ele><time>2026-03-11T21:46:59.000Z</time></trkpt>
        <trkpt lat="29.7783326" lon="103.451002"><ele>898.28</ele><time>2026-03-11T21:47:05.000Z</time></trkpt>
        <trkpt lat="29.7782718" lon="103.4510121"><ele>899.51</ele><time>2026-03-11T21:47:11.000Z</time></trkpt>
        <trkpt lat="29.7782189" lon="103.4510385"><ele>900.47</ele><time>2026-03-11T21:47:17.000Z</time></trkpt>
        <trkpt lat="29.7781701" lon="103.4510334"><ele>901.25</ele><time>2026-03-11T21:47:23.000Z</time></trkpt>
        <trkpt lat="29.7781158" lon="103.4510044"><ele>901.64</ele><time>2026-03-11T21:47:29.000Z</time></trkpt>
        <trkpt lat="29.7780553" lon="103.4509797"><ele>901.6</ele><time>2026-03-11T21:47:35.000Z</time></trkpt>
        <trkpt lat="29.7780012" lon="103.4509595"><ele>901.52</ele><time>2026-03-11T21:47:39.000Z</time></trkpt>
        <trkpt lat="29.7779413" lon="103.4509392"><ele>902.44</ele><time>2026-03-11T21:47:45.000Z</time></trkpt>
        <trkpt lat="29.777896" lon="103.450914"><ele>903.25</ele><time>2026-03-11T21:47:49.000Z</time></trkpt>
        <trkpt lat="29.77785" lon="103.450876"><ele>904.18</ele><time>2026-03-11T21:47:55.000Z</time></trkpt>
        <trkpt lat="29.777835" lon="103.4508553"><ele>905.46</ele><time>2026-03-11T21:47:57.000Z</time></trkpt>
        <trkpt lat="29.7778016" lon="103.4508245"><ele>906.28</ele><time>2026-03-11T21:48:05.000Z</time></trkpt>
        <trkpt lat="29.7777543" lon="103.4507938"><ele>908.23</ele><time>2026-03-11T21:48:11.000Z</time></trkpt>
        <trkpt lat="29.7777124" lon="103.4507449"><ele>910.96</ele><time>2026-03-11T21:48:17.000Z</time></trkpt>
        <trkpt lat="29.777665" lon="103.4507002"><ele>912.05</ele><time>2026-03-11T21:48:23.000Z</time></trkpt>
        <trkpt lat="29.777616" lon="103.4506518"><ele>912.55</ele><time>2026-03-11T21:48:29.000Z</time></trkpt>
        <trkpt lat="29.7775658" lon="103.4506151"><ele>912.88</ele><time>2026-03-11T21:48:35.000Z</time></trkpt>
        <trkpt lat="29.7775274" lon="103.4505742"><ele>912.69</ele><time>2026-03-11T21:48:41.000Z</time></trkpt>
        <trkpt lat="29.7774909" lon="103.4505376"><ele>911.33</ele><time>2026-03-11T21:48:47.000Z</time></trkpt>
        <trkpt lat="29.7774486" lon="103.4505358"><ele>911.38</ele><time>2026-03-11T21:48:53.000Z</time></trkpt>
        <trkpt lat="29.7773993" lon="103.4505347"><ele>912.36</ele><time>2026-03-11T21:49:01.000Z</time></trkpt>
        <trkpt lat="29.7773433" lon="103.4505381"><ele>913.33</ele><time>2026-03-11T21:49:09.000Z</time></trkpt>
        <trkpt lat="29.7773034" lon="103.4505822"><ele>912.59</ele><time>2026-03-11T21:49:19.000Z</time></trkpt>
        <trkpt lat="29.7773228" lon="103.4506249"><ele>914.57</ele><time>2026-03-11T21:49:29.000Z</time></trkpt>
        <trkpt lat="29.7772981" lon="103.4506337"><ele>917.99</ele><time>2026-03-11T21:49:49.000Z</time></trkpt>
        <trkpt lat="29.7772414" lon="103.4506266"><ele>918.95</ele><time>2026-03-11T21:49:55.000Z</time></trkpt>
        <trkpt lat="29.777189" lon="103.4505992"><ele>921.18</ele><time>2026-03-11T21:50:01.000Z</time></trkpt>
        <trkpt lat="29.7771359" lon="103.4505594"><ele>922.09</ele><time>2026-03-11T21:50:09.000Z</time></trkpt>
        <trkpt lat="29.7770839" lon="103.4505437"><ele>922.57</ele><time>2026-03-11T21:50:13.000Z</time></trkpt>
        <trkpt lat="29.7770361" lon="103.4505216"><ele>923.76</ele><time>2026-03-11T21:50:19.000Z</time></trkpt>
        <trkpt lat="29.7770057" lon="103.4504815"><ele>925.25</ele><time>2026-03-11T21:50:27.000Z</time></trkpt>
        <trkpt lat="29.7769893" lon="103.4504287"><ele>926.18</ele><time>2026-03-11T21:50:33.000Z</time></trkpt>
        <trkpt lat="29.7769745" lon="103.4503676"><ele>927.26</ele><time>2026-03-11T21:50:41.000Z</time></trkpt>
        <trkpt lat="29.7769514" lon="103.4503158"><ele>927.14</ele><time>2026-03-11T21:50:47.000Z</time></trkpt>
        <trkpt lat="29.7769435" lon="103.4502635"><ele>928.42</ele><time>2026-03-11T21:50:53.000Z</time></trkpt>
        <trkpt lat="29.7769238" lon="103.4502126"><ele>928.52</ele><time>2026-03-11T21:50:59.000Z</time></trkpt>
        <trkpt lat="29.7768909" lon="103.4501664"><ele>928.41</ele><time>2026-03-11T21:51:05.000Z</time></trkpt>
        <trkpt lat="29.7768622" lon="103.4501186"><ele>929.96</ele><time>2026-03-11T21:51:13.000Z</time></trkpt>
        <trkpt lat="29.7768392" lon="103.4500722"><ele>931.49</ele><time>2026-03-11T21:51:19.000Z</time></trkpt>
        <trkpt lat="29.7768047" lon="103.4500199"><ele>932.42</ele><time>2026-03-11T21:51:27.000Z</time></trkpt>
        <trkpt lat="29.7767689" lon="103.4499775"><ele>932.46</ele><time>2026-03-11T21:51:35.000Z</time></trkpt>
        <trkpt lat="29.7767253" lon="103.4499489"><ele>932.85</ele><time>2026-03-11T21:51:43.000Z</time></trkpt>
        <trkpt lat="29.7766797" lon="103.4499318"><ele>934.21</ele><time>2026-03-11T21:51:49.000Z</time></trkpt>
        <trkpt lat="29.7766466" lon="103.4498942"><ele>936.14</ele><time>2026-03-11T21:51:55.000Z</time></trkpt>
        <trkpt lat="29.7766196" lon="103.4498357"><ele>937.33</ele><time>2026-03-11T21:52:01.000Z</time></trkpt>
        <trkpt lat="29.7765988" lon="103.4497772"><ele>938.29</ele><time>2026-03-11T21:52:07.000Z</time></trkpt>
        <trkpt lat="29.7765632" lon="103.4497328"><ele>940.06</ele><time>2026-03-11T21:52:13.000Z</time></trkpt>
        <trkpt lat="29.7765116" lon="103.4497149"><ele>942.06</ele><time>2026-03-11T21:52:19.000Z</time></trkpt>
        <trkpt lat="29.7764529" lon="103.4497184"><ele>943.48</ele><time>2026-03-11T21:52:25.000Z</time></trkpt>
        <trkpt lat="29.7764018" lon="103.4497434"><ele>944.44</ele><time>2026-03-11T21:52:31.000Z</time></trkpt>
        <trkpt lat="29.7763553" lon="103.449779"><ele>945.48</ele><time>2026-03-11T21:52:39.000Z</time></trkpt>
        <trkpt lat="29.7763105" lon="103.4497832"><ele>945.61</ele><time>2026-03-11T21:52:45.000Z</time></trkpt>
        <trkpt lat="29.7762569" lon="103.4497698"><ele>946.46</ele><time>2026-03-11T21:52:51.000Z</time></trkpt>
        <trkpt lat="29.7762042" lon="103.4497739"><ele>947.69</ele><time>2026-03-11T21:52:59.000Z</time></trkpt>
        <trkpt lat="29.7761561" lon="103.4497694"><ele>948.99</ele><time>2026-03-11T21:53:03.000Z</time></trkpt>
        <trkpt lat="29.7761078" lon="103.4497484"><ele>950.15</ele><time>2026-03-11T21:53:07.000Z</time></trkpt>
        <trkpt lat="29.7760633" lon="103.4497198"><ele>950.82</ele><time>2026-03-11T21:53:11.000Z</time></trkpt>
        <trkpt lat="29.7760258" lon="103.4496786"><ele>951.3</ele><time>2026-03-11T21:53:15.000Z</time></trkpt>
        <trkpt lat="29.7759846" lon="103.4496396"><ele>951.53</ele><time>2026-03-11T21:53:19.000Z</time></trkpt>
        <trkpt lat="29.7759363" lon="103.4496077"><ele>952.28</ele><time>2026-03-11T21:53:23.000Z</time></trkpt>
        <trkpt lat="29.7758836" lon="103.4495912"><ele>952.55</ele><time>2026-03-11T21:53:27.000Z</time></trkpt>
        <trkpt lat="29.7758274" lon="103.4495824"><ele>952.42</ele><time>2026-03-11T21:53:31.000Z</time></trkpt>
        <trkpt lat="29.7757852" lon="103.449551"><ele>952.43</ele><time>2026-03-11T21:53:35.000Z</time></trkpt>
        <trkpt lat="29.7757533" lon="103.449511"><ele>952.03</ele><time>2026-03-11T21:53:39.000Z</time></trkpt>
        <trkpt lat="29.775727" lon="103.4494491"><ele>952.34</ele><time>2026-03-11T21:53:45.000Z</time></trkpt>
        <trkpt lat="29.775707" lon="103.4493836"><ele>952.42</ele><time>2026-03-11T21:53:51.000Z</time></trkpt>
        <trkpt lat="29.7756991" lon="103.4493195"><ele>952.62</ele><time>2026-03-11T21:53:57.000Z</time></trkpt>
        <trkpt lat="29.7756859" lon="103.4492546"><ele>952.87</ele><time>2026-03-11T21:54:03.000Z</time></trkpt>
        <trkpt lat="29.7756587" lon="103.44919"><ele>952.75</ele><time>2026-03-11T21:54:09.000Z</time></trkpt>
        <trkpt lat="29.7756139" lon="103.4491314"><ele>952.97</ele><time>2026-03-11T21:54:15.000Z</time></trkpt>
        <trkpt lat="29.7755725" lon="103.4490853"><ele>953.55</ele><time>2026-03-11T21:54:19.000Z</time></trkpt>
        <trkpt lat="29.7755335" lon="103.4490448"><ele>954.44</ele><time>2026-03-11T21:54:23.000Z</time></trkpt>
        <trkpt lat="29.7754891" lon="103.4490084"><ele>955.37</ele><time>2026-03-11T21:54:27.000Z</time></trkpt>
        <trkpt lat="29.7754501" lon="103.44897"><ele>955.6</ele><time>2026-03-11T21:54:31.000Z</time></trkpt>
        <trkpt lat="29.7754342" lon="103.4489485"><ele>954.26</ele><time>2026-03-11T21:54:33.000Z</time></trkpt>
        <trkpt lat="29.7753945" lon="103.4489669"><ele>953.43</ele><time>2026-03-11T21:54:43.000Z</time></trkpt>
        <trkpt lat="29.7753446" lon="103.4489957"><ele>953.53</ele><time>2026-03-11T21:54:49.000Z</time></trkpt>
        <trkpt lat="29.7752909" lon="103.4490038"><ele>953.59</ele><time>2026-03-11T21:54:57.000Z</time></trkpt>
        <trkpt lat="29.7752416" lon="103.4490229"><ele>952.85</ele><time>2026-03-11T21:55:07.000Z</time></trkpt>
        <trkpt lat="29.7751997" lon="103.4490542"><ele>953.14</ele><time>2026-03-11T21:55:13.000Z</time></trkpt>
        <trkpt lat="29.7751534" lon="103.4490926"><ele>954.85</ele><time>2026-03-11T21:55:19.000Z</time></trkpt>
        <trkpt lat="29.7751576" lon="103.4491106"><ele>956.4</ele><time>2026-03-11T21:55:21.000Z</time></trkpt>
        <trkpt lat="29.7751966" lon="103.4491356"><ele>958.21</ele><time>2026-03-11T21:55:27.000Z</time></trkpt>
        <trkpt lat="29.7752505" lon="103.4491557"><ele>958.8</ele><time>2026-03-11T21:55:35.000Z</time></trkpt>
        <trkpt lat="29.7752861" lon="103.4491972"><ele>959.13</ele><time>2026-03-11T21:55:43.000Z</time></trkpt>
        <trkpt lat="29.7752921" lon="103.4492525"><ele>959.62</ele><time>2026-03-11T21:55:51.000Z</time></trkpt>
        <trkpt lat="29.7753188" lon="103.4492972"><ele>960.65</ele><time>2026-03-11T21:56:07.000Z</time></trkpt>
        <trkpt lat="29.7752893" lon="103.4493182"><ele>962.99</ele><time>2026-03-11T21:56:21.000Z</time></trkpt>
        <trkpt lat="29.7752372" lon="103.4493033"><ele>965.59</ele><time>2026-03-11T21:56:27.000Z</time></trkpt>
        <trkpt lat="29.7751886" lon="103.4493127"><ele>967.54</ele><time>2026-03-11T21:56:41.000Z</time></trkpt>
        <trkpt lat="29.7751389" lon="103.4493115"><ele>969.28</ele><time>2026-03-11T21:56:49.000Z</time></trkpt>
        <trkpt lat="29.7751032" lon="103.4493533"><ele>970.81</ele><time>2026-03-11T21:57:03.000Z</time></trkpt>
        <trkpt lat="29.7750603" lon="103.4493636"><ele>973.23</ele><time>2026-03-11T21:57:09.000Z</time></trkpt>
        <trkpt lat="29.7750028" lon="103.4493691"><ele>975.22</ele><time>2026-03-11T21:57:15.000Z</time></trkpt>
        <trkpt lat="29.7749412" lon="103.449383"><ele>976.41</ele><time>2026-03-11T21:57:21.000Z</time></trkpt>
        <trkpt lat="29.7748852" lon="103.4493954"><ele>977.35</ele><time>2026-03-11T21:57:27.000Z</time></trkpt>
        <trkpt lat="29.7748348" lon="103.4494043"><ele>978.05</ele><time>2026-03-11T21:57:31.000Z</time></trkpt>
        <trkpt lat="29.7747756" lon="103.4494103"><ele>978.69</ele><time>2026-03-11T21:57:37.000Z</time></trkpt>
        <trkpt lat="29.7747137" lon="103.449422"><ele>978.97</ele><time>2026-03-11T21:57:43.000Z</time></trkpt>
        <trkpt lat="29.7746588" lon="103.4494508"><ele>978.72</ele><time>2026-03-11T21:57:47.000Z</time></trkpt>
        <trkpt lat="29.7746517" lon="103.4495006"><ele>979.1</ele><time>2026-03-11T21:57:51.000Z</time></trkpt>
        <trkpt lat="29.7746549" lon="103.4495466"><ele>977.11</ele><time>2026-03-11T21:57:59.000Z</time></trkpt>
        <trkpt lat="29.7746272" lon="103.4495413"><ele>979.79</ele><time>2026-03-11T21:58:13.000Z</time></trkpt>
        <trkpt lat="29.7745773" lon="103.4495311"><ele>980.36</ele><time>2026-03-11T21:58:21.000Z</time></trkpt>
        <trkpt lat="29.7745285" lon="103.4494972"><ele>980.84</ele><time>2026-03-11T21:58:31.000Z</time></trkpt>
        <trkpt lat="29.7744912" lon="103.4494468"><ele>981.34</ele><time>2026-03-11T21:58:39.000Z</time></trkpt>
        <trkpt lat="29.7744507" lon="103.4493933"><ele>981.56</ele><time>2026-03-11T21:59:01.000Z</time></trkpt>
        <trkpt lat="29.7744112" lon="103.4493436"><ele>982.36</ele><time>2026-03-11T21:59:11.000Z</time></trkpt>
        <trkpt lat="29.7743706" lon="103.4493108"><ele>983.8</ele><time>2026-03-11T21:59:19.000Z</time></trkpt>
        <trkpt lat="29.7743184" lon="103.4493105"><ele>984.44</ele><time>2026-03-11T21:59:25.000Z</time></trkpt>
        <trkpt lat="29.774266" lon="103.4493175"><ele>985.42</ele><time>2026-03-11T21:59:29.000Z</time></trkpt>
        <trkpt lat="29.7742029" lon="103.4493239"><ele>986.37</ele><time>2026-03-11T21:59:35.000Z</time></trkpt>
        <trkpt lat="29.7741411" lon="103.4493192"><ele>987.33</ele><time>2026-03-11T21:59:41.000Z</time></trkpt>
        <trkpt lat="29.7740871" lon="103.4492991"><ele>988.69</ele><time>2026-03-11T21:59:49.000Z</time></trkpt>
        <trkpt lat="29.7740361" lon="103.4492824"><ele>990.28</ele><time>2026-03-11T21:59:55.000Z</time></trkpt>
        <trkpt lat="29.7739906" lon="103.4492989"><ele>991.87</ele><time>2026-03-11T22:00:03.000Z</time></trkpt>
        <trkpt lat="29.773969" lon="103.4492635"><ele>994.08</ele><time>2026-03-11T22:00:15.000Z</time></trkpt>
        <trkpt lat="29.7739757" lon="103.4492041"><ele>994.14</ele><time>2026-03-11T22:00:21.000Z</time></trkpt>
        <trkpt lat="29.7739764" lon="103.4491338"><ele>993.62</ele><time>2026-03-11T22:00:27.000Z</time></trkpt>
        <trkpt lat="29.7739799" lon="103.449066"><ele>994.73</ele><time>2026-03-11T22:00:35.000Z</time></trkpt>
        <trkpt lat="29.7739512" lon="103.4490147"><ele>995.34</ele><time>2026-03-11T22:00:45.000Z</time></trkpt>
        <trkpt lat="29.7739106" lon="103.4489793"><ele>996.99</ele><time>2026-03-11T22:00:51.000Z</time></trkpt>
        <trkpt lat="29.7738664" lon="103.4489562"><ele>998.36</ele><time>2026-03-11T22:00:57.000Z</time></trkpt>
        <trkpt lat="29.7738308" lon="103.4489205"><ele>998.99</ele><time>2026-03-11T22:01:03.000Z</time></trkpt>
        <trkpt lat="29.7737852" lon="103.4488928"><ele>999.44</ele><time>2026-03-11T22:01:09.000Z</time></trkpt>
        <trkpt lat="29.7737369" lon="103.4488602"><ele>1000.09</ele><time>2026-03-11T22:01:17.000Z</time></trkpt>
        <trkpt lat="29.7736984" lon="103.4488259"><ele>1001.38</ele><time>2026-03-11T22:01:21.000Z</time></trkpt>
        <trkpt lat="29.7736777" lon="103.4488178"><ele>1002.25</ele><time>2026-03-11T22:01:25.000Z</time></trkpt>
        <trkpt lat="29.7736383" lon="103.4488226"><ele>1002.74</ele><time>2026-03-11T22:01:31.000Z</time></trkpt>
        <trkpt lat="29.7735938" lon="103.4488461"><ele>1002.3</ele><time>2026-03-11T22:01:39.000Z</time></trkpt>
        <trkpt lat="29.7735843" lon="103.4488748"><ele>1000.22</ele><time>2026-03-11T22:01:43.000Z</time></trkpt>
        <trkpt lat="29.7735635" lon="103.44892"><ele>998.1</ele><time>2026-03-11T22:01:55.000Z</time></trkpt>
        <trkpt lat="29.773512" lon="103.4489031"><ele>996.92</ele><time>2026-03-11T22:02:01.000Z</time></trkpt>
        <trkpt lat="29.7734816" lon="103.4488665"><ele>996.75</ele><time>2026-03-11T22:02:05.000Z</time></trkpt>
        <trkpt lat="29.7734517" lon="103.4488164"><ele>997.32</ele><time>2026-03-11T22:02:19.000Z</time></trkpt>
        <trkpt lat="29.773419" lon="103.44877"><ele>997.44</ele><time>2026-03-11T22:02:29.000Z</time></trkpt>
        <trkpt lat="29.7733703" lon="103.4487454"><ele>997.08</ele><time>2026-03-11T22:02:37.000Z</time></trkpt>
        <trkpt lat="29.7733248" lon="103.4487178"><ele>996.69</ele><time>2026-03-11T22:02:43.000Z</time></trkpt>
        <trkpt lat="29.7732838" lon="103.4486745"><ele>996.64</ele><time>2026-03-11T22:02:51.000Z</time></trkpt>
        <trkpt lat="29.7732712" lon="103.4486232"><ele>995.21</ele><time>2026-03-11T22:02:55.000Z</time></trkpt>
        <trkpt lat="29.7732401" lon="103.448587"><ele>994.24</ele><time>2026-03-11T22:02:59.000Z</time></trkpt>
        <trkpt lat="29.773203" lon="103.4485397"><ele>993.75</ele><time>2026-03-11T22:03:05.000Z</time></trkpt>
        <trkpt lat="29.7731589" lon="103.4485052"><ele>992.3</ele><time>2026-03-11T22:03:17.000Z</time></trkpt>
        <trkpt lat="29.7731338" lon="103.4484572"><ele>990.83</ele><time>2026-03-11T22:03:21.000Z</time></trkpt>
        <trkpt lat="29.7730831" lon="103.4484349"><ele>990.41</ele><time>2026-03-11T22:03:27.000Z</time></trkpt>
        <trkpt lat="29.7730527" lon="103.4484665"><ele>989.21</ele><time>2026-03-11T22:03:31.000Z</time></trkpt>
        <trkpt lat="29.773009" lon="103.4484584"><ele>987.83</ele><time>2026-03-11T22:03:35.000Z</time></trkpt>
        <trkpt lat="29.7729676" lon="103.4484292"><ele>987.08</ele><time>2026-03-11T22:03:43.000Z</time></trkpt>
        <trkpt lat="29.7729329" lon="103.4483833"><ele>985.53</ele><time>2026-03-11T22:03:49.000Z</time></trkpt>
        <trkpt lat="29.7728882" lon="103.4483543"><ele>983.1</ele><time>2026-03-11T22:03:53.000Z</time></trkpt>
        <trkpt lat="29.7728572" lon="103.4483121"><ele>981.84</ele><time>2026-03-11T22:03:59.000Z</time></trkpt>
        <trkpt lat="29.7728159" lon="103.4482934"><ele>981.3</ele><time>2026-03-11T22:04:05.000Z</time></trkpt>
        <trkpt lat="29.7727635" lon="103.4482915"><ele>979.76</ele><time>2026-03-11T22:04:19.000Z</time></trkpt>
        <trkpt lat="29.772712" lon="103.4482785"><ele>978.47</ele><time>2026-03-11T22:04:23.000Z</time></trkpt>
        <trkpt lat="29.7726578" lon="103.4482655"><ele>976.61</ele><time>2026-03-11T22:04:29.000Z</time></trkpt>
        <trkpt lat="29.7725945" lon="103.4482575"><ele>974.62</ele><time>2026-03-11T22:04:35.000Z</time></trkpt>
        <trkpt lat="29.7725565" lon="103.4482129"><ele>972.99</ele><time>2026-03-11T22:04:39.000Z</time></trkpt>
        <trkpt lat="29.7725177" lon="103.448162"><ele>971.28</ele><time>2026-03-11T22:04:45.000Z</time></trkpt>
        <trkpt lat="29.7724726" lon="103.4481539"><ele>969.73</ele><time>2026-03-11T22:05:29.000Z</time></trkpt>
        <trkpt lat="29.7724726" lon="103.4481539"><ele>969.73</ele><time>2026-03-11T22:05:58.000Z</time></trkpt>
        <trkpt lat="29.7724205" lon="103.4481926"><ele>964.82</ele><time>2026-03-11T22:06:03.000Z</time></trkpt>
        <trkpt lat="29.7724205" lon="103.4481926"><ele>964.82</ele><time>2026-03-11T22:06:06.000Z</time></trkpt>
        <trkpt lat="29.7724205" lon="103.4481926"><ele>964.82</ele><time>2026-03-11T22:06:30.000Z</time></trkpt>
        <trkpt lat="29.7724205" lon="103.4481926"><ele>964.82</ele><time>2026-03-11T22:07:03.000Z</time></trkpt>
        <trkpt lat="29.7724205" lon="103.4481926"><ele>964.82</ele><time>2026-03-11T22:08:12.000Z</time></trkpt>
        <trkpt lat="29.772373" lon="103.4481196"><ele>960.43</ele><time>2026-03-11T22:08:21.000Z</time></trkpt>
        <trkpt lat="29.772373" lon="103.4481196"><ele>960.43</ele><time>2026-03-11T22:08:24.000Z</time></trkpt>
        <trkpt lat="29.7723417" lon="103.4481572"><ele>959.33</ele><time>2026-03-11T22:08:36.000Z</time></trkpt>
        <trkpt lat="29.7722988" lon="103.4481651"><ele>959.39</ele><time>2026-03-11T22:08:42.000Z</time></trkpt>
        <trkpt lat="29.7722432" lon="103.4481493"><ele>959.07</ele><time>2026-03-11T22:08:48.000Z</time></trkpt>
        <trkpt lat="29.7721819" lon="103.4481239"><ele>958.92</ele><time>2026-03-11T22:08:54.000Z</time></trkpt>
        <trkpt lat="29.7721269" lon="103.4481067"><ele>958.63</ele><time>2026-03-11T22:09:02.000Z</time></trkpt>
        <trkpt lat="29.7720758" lon="103.4480811"><ele>957.95</ele><time>2026-03-11T22:09:10.000Z</time></trkpt>
        <trkpt lat="29.7720299" lon="103.4480503"><ele>956.63</ele><time>2026-03-11T22:09:14.000Z</time></trkpt>
        <trkpt lat="29.7719884" lon="103.4480134"><ele>955.36</ele><time>2026-03-11T22:09:20.000Z</time></trkpt>
        <trkpt lat="29.7719364" lon="103.4479835"><ele>955.21</ele><time>2026-03-11T22:09:26.000Z</time></trkpt>
        <trkpt lat="29.7718873" lon="103.4479636"><ele>954.3</ele><time>2026-03-11T22:09:30.000Z</time></trkpt>
        <trkpt lat="29.7718401" lon="103.4479439"><ele>953.53</ele><time>2026-03-11T22:09:36.000Z</time></trkpt>
        <trkpt lat="29.7717993" lon="103.4479178"><ele>953.1</ele><time>2026-03-11T22:09:42.000Z</time></trkpt>
        <trkpt lat="29.7717667" lon="103.4478767"><ele>953.45</ele><time>2026-03-11T22:09:48.000Z</time></trkpt>
        <trkpt lat="29.7717307" lon="103.4478306"><ele>953.6</ele><time>2026-03-11T22:09:58.000Z</time></trkpt>
        <trkpt lat="29.7716911" lon="103.447783"><ele>954.46</ele><time>2026-03-11T22:10:04.000Z</time></trkpt>
        <trkpt lat="29.7716556" lon="103.4477398"><ele>955.94</ele><time>2026-03-11T22:10:10.000Z</time></trkpt>
        <trkpt lat="29.7716301" lon="103.4476872"><ele>957.23</ele><time>2026-03-11T22:10:16.000Z</time></trkpt>
        <trkpt lat="29.771611" lon="103.4476315"><ele>958.18</ele><time>2026-03-11T22:10:22.000Z</time></trkpt>
        <trkpt lat="29.7716067" lon="103.4475704"><ele>957.9</ele><time>2026-03-11T22:10:28.000Z</time></trkpt>
        <trkpt lat="29.7716059" lon="103.4475136"><ele>958.49</ele><time>2026-03-11T22:10:34.000Z</time></trkpt>
        <trkpt lat="29.7715834" lon="103.4474554"><ele>958.09</ele><time>2026-03-11T22:10:40.000Z</time></trkpt>
        <trkpt lat="29.7715525" lon="103.4473955"><ele>958.38</ele><time>2026-03-11T22:10:46.000Z</time></trkpt>
        <trkpt lat="29.7715209" lon="103.4473318"><ele>959.34</ele><time>2026-03-11T22:10:52.000Z</time></trkpt>
        <trkpt lat="29.7714868" lon="103.4472767"><ele>959.8</ele><time>2026-03-11T22:10:58.000Z</time></trkpt>
        <trkpt lat="29.7714576" lon="103.4472131"><ele>959.85</ele><time>2026-03-11T22:11:04.000Z</time></trkpt>
        <trkpt lat="29.7714307" lon="103.4471518"><ele>961.07</ele><time>2026-03-11T22:11:10.000Z</time></trkpt>
        <trkpt lat="29.7714035" lon="103.4470919"><ele>962.49</ele><time>2026-03-11T22:11:16.000Z</time></trkpt>
        <trkpt lat="29.7713749" lon="103.4470392"><ele>963.3</ele><time>2026-03-11T22:11:22.000Z</time></trkpt>
        <trkpt lat="29.7713363" lon="103.4469875"><ele>963.65</ele><time>2026-03-11T22:11:28.000Z</time></trkpt>
        <trkpt lat="29.7712904" lon="103.4469534"><ele>963.27</ele><time>2026-03-11T22:11:34.000Z</time></trkpt>
        <trkpt lat="29.7712793" lon="103.4469664"><ele>962.47</ele><time>2026-03-11T22:11:38.000Z</time></trkpt>
        <trkpt lat="29.7712768" lon="103.4470202"><ele>961.3</ele><time>2026-03-11T22:11:52.000Z</time></trkpt>
        <trkpt lat="29.7712596" lon="103.4470839"><ele>960.29</ele><time>2026-03-11T22:12:15.000Z</time></trkpt>
        <trkpt lat="29.7712377" lon="103.4471415"><ele>959.96</ele><time>2026-03-11T22:12:21.000Z</time></trkpt>
        <trkpt lat="29.7712062" lon="103.4471933"><ele>960.27</ele><time>2026-03-11T22:12:29.000Z</time></trkpt>
        <trkpt lat="29.7711518" lon="103.4472215"><ele>963.71</ele><time>2026-03-11T22:12:35.000Z</time></trkpt>
        <trkpt lat="29.7710904" lon="103.4472206"><ele>965.93</ele><time>2026-03-11T22:12:42.000Z</time></trkpt>
        <trkpt lat="29.7710421" lon="103.4472444"><ele>968.8</ele><time>2026-03-11T22:12:58.000Z</time></trkpt>
        <trkpt lat="29.7710314" lon="103.4472915"><ele>971.81</ele><time>2026-03-11T22:13:14.000Z</time></trkpt>
        <trkpt lat="29.7710466" lon="103.4473489"><ele>973.98</ele><time>2026-03-11T22:13:30.000Z</time></trkpt>
        <trkpt lat="29.7710188" lon="103.4473952"><ele>975.1</ele><time>2026-03-11T22:13:44.000Z</time></trkpt>
        <trkpt lat="29.7709678" lon="103.4474079"><ele>976.25</ele><time>2026-03-11T22:13:50.000Z</time></trkpt>
        <trkpt lat="29.7709149" lon="103.4474139"><ele>976.68</ele><time>2026-03-11T22:13:56.000Z</time></trkpt>
        <trkpt lat="29.7708627" lon="103.4474083"><ele>977.78</ele><time>2026-03-11T22:14:04.000Z</time></trkpt>
        <trkpt lat="29.7708143" lon="103.447399"><ele>979.65</ele><time>2026-03-11T22:14:10.000Z</time></trkpt>
        <trkpt lat="29.7707686" lon="103.4473827"><ele>980.5</ele><time>2026-03-11T22:14:20.000Z</time></trkpt>
        <trkpt lat="29.770723" lon="103.4473593"><ele>980.5</ele><time>2026-03-11T22:14:28.000Z</time></trkpt>
        <trkpt lat="29.7706727" lon="103.4473259"><ele>980.18</ele><time>2026-03-11T22:14:38.000Z</time></trkpt>
        <trkpt lat="29.7706172" lon="103.447312"><ele>979.42</ele><time>2026-03-11T22:14:46.000Z</time></trkpt>
        <trkpt lat="29.7705614" lon="103.4473057"><ele>980.6</ele><time>2026-03-11T22:14:52.000Z</time></trkpt>
        <trkpt lat="29.7705069" lon="103.447306"><ele>981.78</ele><time>2026-03-11T22:14:58.000Z</time></trkpt>
        <trkpt lat="29.7704545" lon="103.4473259"><ele>983.03</ele><time>2026-03-11T22:15:02.000Z</time></trkpt>
        <trkpt lat="29.7704128" lon="103.4473638"><ele>983.51</ele><time>2026-03-11T22:15:10.000Z</time></trkpt>
        <trkpt lat="29.770364" lon="103.4474013"><ele>983.56</ele><time>2026-03-11T22:15:16.000Z</time></trkpt>
        <trkpt lat="29.7703173" lon="103.4474011"><ele>983.91</ele><time>2026-03-11T22:15:24.000Z</time></trkpt>
        <trkpt lat="29.7702616" lon="103.4473609"><ele>984.57</ele><time>2026-03-11T22:15:30.000Z</time></trkpt>
        <trkpt lat="29.7702138" lon="103.4473193"><ele>985.58</ele><time>2026-03-11T22:15:34.000Z</time></trkpt>
        <trkpt lat="29.7701757" lon="103.4472804"><ele>987.13</ele><time>2026-03-11T22:15:38.000Z</time></trkpt>
        <trkpt lat="29.7701297" lon="103.4472557"><ele>988.16</ele><time>2026-03-11T22:15:44.000Z</time></trkpt>
        <trkpt lat="29.7700925" lon="103.4472178"><ele>990.04</ele><time>2026-03-11T22:15:50.000Z</time></trkpt>
        <trkpt lat="29.7700522" lon="103.4471802"><ele>991.41</ele><time>2026-03-11T22:15:56.000Z</time></trkpt>
        <trkpt lat="29.7700124" lon="103.4471408"><ele>992.11</ele><time>2026-03-11T22:16:02.000Z</time></trkpt>
        <trkpt lat="29.7699674" lon="103.4471218"><ele>992.47</ele><time>2026-03-11T22:16:08.000Z</time></trkpt>
        <trkpt lat="29.7699216" lon="103.4470999"><ele>993.65</ele><time>2026-03-11T22:16:14.000Z</time></trkpt>
        <trkpt lat="29.7698746" lon="103.447076"><ele>994.35</ele><time>2026-03-11T22:16:20.000Z</time></trkpt>
        <trkpt lat="29.7698371" lon="103.447039"><ele>995.23</ele><time>2026-03-11T22:16:26.000Z</time></trkpt>
        <trkpt lat="29.7697957" lon="103.4470099"><ele>995.98</ele><time>2026-03-11T22:16:32.000Z</time></trkpt>
        <trkpt lat="29.7697568" lon="103.4469723"><ele>996.84</ele><time>2026-03-11T22:16:38.000Z</time></trkpt>
        <trkpt lat="29.7697259" lon="103.446923"><ele>998.2</ele><time>2026-03-11T22:16:46.000Z</time></trkpt>
        <trkpt lat="29.7696884" lon="103.446872"><ele>998.65</ele><time>2026-03-11T22:16:52.000Z</time></trkpt>
        <trkpt lat="29.7696405" lon="103.4468424"><ele>999.5</ele><time>2026-03-11T22:17:04.000Z</time></trkpt>
        <trkpt lat="29.7696121" lon="103.4467965"><ele>1000.32</ele><time>2026-03-11T22:17:08.000Z</time></trkpt>
        <trkpt lat="29.769593" lon="103.4467334"><ele>1000.82</ele><time>2026-03-11T22:17:16.000Z</time></trkpt>
        <trkpt lat="29.7695624" lon="103.4466784"><ele>1001.47</ele><time>2026-03-11T22:17:20.000Z</time></trkpt>
        <trkpt lat="29.7695309" lon="103.4466335"><ele>1001.8</ele><time>2026-03-11T22:17:24.000Z</time></trkpt>
        <trkpt lat="29.7695079" lon="103.446587"><ele>1003.16</ele><time>2026-03-11T22:17:30.000Z</time></trkpt>
        <trkpt lat="29.7694688" lon="103.4465451"><ele>1003.87</ele><time>2026-03-11T22:17:36.000Z</time></trkpt>
        <trkpt lat="29.7694261" lon="103.4465052"><ele>1005.38</ele><time>2026-03-11T22:17:42.000Z</time></trkpt>
        <trkpt lat="29.7693707" lon="103.4464992"><ele>1005.83</ele><time>2026-03-11T22:17:48.000Z</time></trkpt>
        <trkpt lat="29.7693758" lon="103.4465253"><ele>1006.33</ele><time>2026-03-11T22:17:50.000Z</time></trkpt>
        <trkpt lat="29.7693671" lon="103.4464903"><ele>1006.53</ele><time>2026-03-11T22:17:58.000Z</time></trkpt>
        <trkpt lat="29.769336" lon="103.446442"><ele>1007.05</ele><time>2026-03-11T22:18:02.000Z</time></trkpt>
        <trkpt lat="29.7693047" lon="103.446391"><ele>1007.45</ele><time>2026-03-11T22:18:06.000Z</time></trkpt>
        <trkpt lat="29.769283" lon="103.4463378"><ele>1007.56</ele><time>2026-03-11T22:18:10.000Z</time></trkpt>
        <trkpt lat="29.769231" lon="103.4463046"><ele>1007.96</ele><time>2026-03-11T22:18:16.000Z</time></trkpt>
        <trkpt lat="29.7691935" lon="103.4462533"><ele>1008.77</ele><time>2026-03-11T22:18:22.000Z</time></trkpt>
        <trkpt lat="29.7691647" lon="103.4462061"><ele>1008.82</ele><time>2026-03-11T22:18:30.000Z</time></trkpt>
        <trkpt lat="29.7691466" lon="103.4461464"><ele>1010.04</ele><time>2026-03-11T22:18:40.000Z</time></trkpt>
        <trkpt lat="29.7691057" lon="103.4461035"><ele>1010.32</ele><time>2026-03-11T22:18:47.000Z</time></trkpt>
        <trkpt lat="29.7690582" lon="103.44609"><ele>1009.6</ele><time>2026-03-11T22:18:59.000Z</time></trkpt>
        <trkpt lat="29.7690103" lon="103.4460556"><ele>1009.54</ele><time>2026-03-11T22:19:09.000Z</time></trkpt>
        <trkpt lat="29.7689695" lon="103.4460248"><ele>1009.28</ele><time>2026-03-11T22:19:19.000Z</time></trkpt>
        <trkpt lat="29.7689278" lon="103.4459865"><ele>1010.44</ele><time>2026-03-11T22:19:29.000Z</time></trkpt>
        <trkpt lat="29.7689007" lon="103.4459343"><ele>1012.03</ele><time>2026-03-11T22:19:46.000Z</time></trkpt>
        <trkpt lat="29.7688693" lon="103.4458825"><ele>1011.83</ele><time>2026-03-11T22:19:50.000Z</time></trkpt>
        <trkpt lat="29.7688345" lon="103.4458366"><ele>1012.35</ele><time>2026-03-11T22:20:04.000Z</time></trkpt>
        <trkpt lat="29.7687953" lon="103.445792"><ele>1014.6</ele><time>2026-03-11T22:20:10.000Z</time></trkpt>
        <trkpt lat="29.7687493" lon="103.4457634"><ele>1016.25</ele><time>2026-03-11T22:20:17.000Z</time></trkpt>
        <trkpt lat="29.7687226" lon="103.4457166"><ele>1018.38</ele><time>2026-03-11T22:20:45.000Z</time></trkpt>
        <trkpt lat="29.7686851" lon="103.445668"><ele>1017.91</ele><time>2026-03-11T22:21:00.000Z</time></trkpt>
        <trkpt lat="29.7686548" lon="103.4456228"><ele>1017.8</ele><time>2026-03-11T22:21:04.000Z</time></trkpt>
        <trkpt lat="29.7686155" lon="103.4455744"><ele>1017.88</ele><time>2026-03-11T22:21:10.000Z</time></trkpt>
        <trkpt lat="29.7685758" lon="103.4455277"><ele>1018.85</ele><time>2026-03-11T22:21:16.000Z</time></trkpt>
        <trkpt lat="29.7685343" lon="103.4454882"><ele>1019.63</ele><time>2026-03-11T22:21:22.000Z</time></trkpt>
        <trkpt lat="29.7684916" lon="103.4454546"><ele>1020.24</ele><time>2026-03-11T22:21:30.000Z</time></trkpt>
        <trkpt lat="29.7684512" lon="103.4454211"><ele>1020.54</ele><time>2026-03-11T22:21:40.000Z</time></trkpt>
        <trkpt lat="29.7684227" lon="103.4453805"><ele>1021.79</ele><time>2026-03-11T22:21:46.000Z</time></trkpt>
        <trkpt lat="29.7683813" lon="103.4453473"><ele>1022.6</ele><time>2026-03-11T22:21:52.000Z</time></trkpt>
        <trkpt lat="29.7683416" lon="103.4453074"><ele>1024.04</ele><time>2026-03-11T22:21:59.000Z</time></trkpt>
        <trkpt lat="29.7683118" lon="103.4452605"><ele>1024.48</ele><time>2026-03-11T22:22:27.000Z</time></trkpt>
        <trkpt lat="29.768276" lon="103.445207"><ele>1025.61</ele><time>2026-03-11T22:22:33.000Z</time></trkpt>
        <trkpt lat="29.7682521" lon="103.4451566"><ele>1026.36</ele><time>2026-03-11T22:22:37.000Z</time></trkpt>
        <trkpt lat="29.7682251" lon="103.4451102"><ele>1025.9</ele><time>2026-03-11T22:22:43.000Z</time></trkpt>
        <trkpt lat="29.7681903" lon="103.4450668"><ele>1026.05</ele><time>2026-03-11T22:22:49.000Z</time></trkpt>
        <trkpt lat="29.7681507" lon="103.4450253"><ele>1026.72</ele><time>2026-03-11T22:22:55.000Z</time></trkpt>
        <trkpt lat="29.7681344" lon="103.4450078"><ele>1027.81</ele><time>2026-03-11T22:22:59.000Z</time></trkpt>
        <trkpt lat="29.7681077" lon="103.4449762"><ele>1029.01</ele><time>2026-03-11T22:23:17.000Z</time></trkpt>
        <trkpt lat="29.7680708" lon="103.4449371"><ele>1031.64</ele><time>2026-03-11T22:23:21.000Z</time></trkpt>
        <trkpt lat="29.7680442" lon="103.4448851"><ele>1033.75</ele><time>2026-03-11T22:23:25.000Z</time></trkpt>
        <trkpt lat="29.7680232" lon="103.4448207"><ele>1033.62</ele><time>2026-03-11T22:23:29.000Z</time></trkpt>
        <trkpt lat="29.7680184" lon="103.4447615"><ele>1032.88</ele><time>2026-03-11T22:23:33.000Z</time></trkpt>
        <trkpt lat="29.7680027" lon="103.4447037"><ele>1032.09</ele><time>2026-03-11T22:23:37.000Z</time></trkpt>
        <trkpt lat="29.767975" lon="103.4446547"><ele>1030.93</ele><time>2026-03-11T22:23:42.000Z</time></trkpt>
        <trkpt lat="29.7679396" lon="103.4446257"><ele>1030.96</ele><time>2026-03-11T22:23:48.000Z</time></trkpt>
        <trkpt lat="29.7678918" lon="103.444597"><ele>1031.98</ele><time>2026-03-11T22:23:55.000Z</time></trkpt>
        <trkpt lat="29.7678418" lon="103.4445678"><ele>1032.89</ele><time>2026-03-11T22:24:09.000Z</time></trkpt>
        <trkpt lat="29.7677944" lon="103.4445757"><ele>1033.89</ele><time>2026-03-11T22:24:15.000Z</time></trkpt>
        <trkpt lat="29.7677457" lon="103.4445869"><ele>1034.2</ele><time>2026-03-11T22:24:21.000Z</time></trkpt>
        <trkpt lat="29.7677242" lon="103.4446327"><ele>1034.61</ele><time>2026-03-11T22:24:29.000Z</time></trkpt>
        <trkpt lat="29.7676916" lon="103.4446226"><ele>1036.42</ele><time>2026-03-11T22:26:10.000Z</time></trkpt>
        <trkpt lat="29.7677406" lon="103.4445964"><ele>1035.35</ele><time>2026-03-11T22:26:33.000Z</time></trkpt>
        <trkpt lat="29.7677809" lon="103.4445645"><ele>1034.65</ele><time>2026-03-11T22:26:41.000Z</time></trkpt>
        <trkpt lat="29.7677874" lon="103.4445009"><ele>1034.35</ele><time>2026-03-11T22:26:47.000Z</time></trkpt>
        <trkpt lat="29.7677826" lon="103.4444278"><ele>1034.96</ele><time>2026-03-11T22:26:53.000Z</time></trkpt>
        <trkpt lat="29.7677474" lon="103.444367"><ele>1035.21</ele><time>2026-03-11T22:26:57.000Z</time></trkpt>
        <trkpt lat="29.7676899" lon="103.4443462"><ele>1035.64</ele><time>2026-03-11T22:27:01.000Z</time></trkpt>
        <trkpt lat="29.7676437" lon="103.4443158"><ele>1036.25</ele><time>2026-03-11T22:27:07.000Z</time></trkpt>
        <trkpt lat="29.767599" lon="103.4442828"><ele>1036.3</ele><time>2026-03-11T22:27:15.000Z</time></trkpt>
        <trkpt lat="29.767556" lon="103.4442433"><ele>1036.52</ele><time>2026-03-11T22:27:21.000Z</time></trkpt>
        <trkpt lat="29.7675021" lon="103.444205"><ele>1036.36</ele><time>2026-03-11T22:27:27.000Z</time></trkpt>
        <trkpt lat="29.7674476" lon="103.444162"><ele>1036.75</ele><time>2026-03-11T22:27:33.000Z</time></trkpt>
        <trkpt lat="29.7674075" lon="103.4441034"><ele>1037.77</ele><time>2026-03-11T22:27:39.000Z</time></trkpt>
        <trkpt lat="29.7673761" lon="103.4440482"><ele>1038.33</ele><time>2026-03-11T22:27:45.000Z</time></trkpt>
        <trkpt lat="29.7673378" lon="103.444006"><ele>1038.4</ele><time>2026-03-11T22:27:53.000Z</time></trkpt>
        <trkpt lat="29.7672894" lon="103.443971"><ele>1038.81</ele><time>2026-03-11T22:27:59.000Z</time></trkpt>
        <trkpt lat="29.7672453" lon="103.4439435"><ele>1039.13</ele><time>2026-03-11T22:28:03.000Z</time></trkpt>
        <trkpt lat="29.7671971" lon="103.4439115"><ele>1039.2</ele><time>2026-03-11T22:28:09.000Z</time></trkpt>
        <trkpt lat="29.7671708" lon="103.4438604"><ele>1039.6</ele><time>2026-03-11T22:28:15.000Z</time></trkpt>
        <trkpt lat="29.7671312" lon="103.4438272"><ele>1040.67</ele><time>2026-03-11T22:28:21.000Z</time></trkpt>
        <trkpt lat="29.7670819" lon="103.443793"><ele>1041.78</ele><time>2026-03-11T22:28:27.000Z</time></trkpt>
        <trkpt lat="29.767039" lon="103.4437631"><ele>1042.61</ele><time>2026-03-11T22:28:31.000Z</time></trkpt>
        <trkpt lat="29.7670023" lon="103.4437215"><ele>1044.11</ele><time>2026-03-11T22:28:37.000Z</time></trkpt>
        <trkpt lat="29.7669833" lon="103.4436649"><ele>1045.17</ele><time>2026-03-11T22:28:43.000Z</time></trkpt>
        <trkpt lat="29.7669623" lon="103.443604"><ele>1045.53</ele><time>2026-03-11T22:28:51.000Z</time></trkpt>
        <trkpt lat="29.7669277" lon="103.4435525"><ele>1046.45</ele><time>2026-03-11T22:28:57.000Z</time></trkpt>
        <trkpt lat="29.7668847" lon="103.4435297"><ele>1047.9</ele><time>2026-03-11T22:29:03.000Z</time></trkpt>
        <trkpt lat="29.7668337" lon="103.4435292"><ele>1048.77</ele><time>2026-03-11T22:29:11.000Z</time></trkpt>
        <trkpt lat="29.7667815" lon="103.443506"><ele>1050.74</ele><time>2026-03-11T22:29:17.000Z</time></trkpt>
        <trkpt lat="29.766724" lon="103.4434967"><ele>1051.6</ele><time>2026-03-11T22:29:25.000Z</time></trkpt>
        <trkpt lat="29.7666736" lon="103.4434694"><ele>1052.17</ele><time>2026-03-11T22:29:31.000Z</time></trkpt>
        <trkpt lat="29.7666367" lon="103.4434141"><ele>1053.16</ele><time>2026-03-11T22:29:37.000Z</time></trkpt>
        <trkpt lat="29.7666176" lon="103.4433532"><ele>1053.63</ele><time>2026-03-11T22:29:43.000Z</time></trkpt>
        <trkpt lat="29.7666022" lon="103.4432885"><ele>1054.54</ele><time>2026-03-11T22:29:49.000Z</time></trkpt>
        <trkpt lat="29.7665832" lon="103.443217"><ele>1055.19</ele><time>2026-03-11T22:29:55.000Z</time></trkpt>
        <trkpt lat="29.7665531" lon="103.4431679"><ele>1055.35</ele><time>2026-03-11T22:29:59.000Z</time></trkpt>
        <trkpt lat="29.7665209" lon="103.4431107"><ele>1055.93</ele><time>2026-03-11T22:30:05.000Z</time></trkpt>
        <trkpt lat="29.7664925" lon="103.4430627"><ele>1056.47</ele><time>2026-03-11T22:30:11.000Z</time></trkpt>
        <trkpt lat="29.7664555" lon="103.443027"><ele>1057.59</ele><time>2026-03-11T22:30:19.000Z</time></trkpt>
        <trkpt lat="29.7664193" lon="103.4429807"><ele>1058.83</ele><time>2026-03-11T22:30:25.000Z</time></trkpt>
        <trkpt lat="29.7663783" lon="103.4429369"><ele>1059.72</ele><time>2026-03-11T22:30:31.000Z</time></trkpt>
        <trkpt lat="29.7663292" lon="103.4428984"><ele>1061</ele><time>2026-03-11T22:30:37.000Z</time></trkpt>
        <trkpt lat="29.7662836" lon="103.4429276"><ele>1061.23</ele><time>2026-03-11T22:30:45.000Z</time></trkpt>
        <trkpt lat="29.7662369" lon="103.4429739"><ele>1061.77</ele><time>2026-03-11T22:30:51.000Z</time></trkpt>
        <trkpt lat="29.7662228" lon="103.4429363"><ele>1063.08</ele><time>2026-03-11T22:31:03.000Z</time></trkpt>
        <trkpt lat="29.7661897" lon="103.4428786"><ele>1064.34</ele><time>2026-03-11T22:31:11.000Z</time></trkpt>
        <trkpt lat="29.7661484" lon="103.4428706"><ele>1065.26</ele><time>2026-03-11T22:31:21.000Z</time></trkpt>
        <trkpt lat="29.7660991" lon="103.4428508"><ele>1065.56</ele><time>2026-03-11T22:31:33.000Z</time></trkpt>
        <trkpt lat="29.7660784" lon="103.4427997"><ele>1065.77</ele><time>2026-03-11T22:31:51.000Z</time></trkpt>
        <trkpt lat="29.766098" lon="103.4427383"><ele>1066.11</ele><time>2026-03-11T22:31:57.000Z</time></trkpt>
        <trkpt lat="29.7661262" lon="103.4426647"><ele>1065.17</ele><time>2026-03-11T22:32:03.000Z</time></trkpt>
        <trkpt lat="29.7661293" lon="103.4426045"><ele>1063.3</ele><time>2026-03-11T22:32:07.000Z</time></trkpt>
        <trkpt lat="29.7661005" lon="103.442548"><ele>1062.23</ele><time>2026-03-11T22:32:13.000Z</time></trkpt>
        <trkpt lat="29.7660469" lon="103.442498"><ele>1061.78</ele><time>2026-03-11T22:32:19.000Z</time></trkpt>
        <trkpt lat="29.766002" lon="103.4424483"><ele>1063.04</ele><time>2026-03-11T22:32:23.000Z</time></trkpt>
        <trkpt lat="29.7659763" lon="103.4423981"><ele>1063.64</ele><time>2026-03-11T22:32:27.000Z</time></trkpt>
        <trkpt lat="29.7659571" lon="103.4423439"><ele>1063.56</ele><time>2026-03-11T22:32:33.000Z</time></trkpt>
        <trkpt lat="29.7659229" lon="103.4422852"><ele>1063.86</ele><time>2026-03-11T22:32:39.000Z</time></trkpt>
        <trkpt lat="29.7658762" lon="103.4422588"><ele>1063.69</ele><time>2026-03-11T22:32:43.000Z</time></trkpt>
        <trkpt lat="29.7658257" lon="103.4422493"><ele>1062.23</ele><time>2026-03-11T22:32:47.000Z</time></trkpt>
        <trkpt lat="29.7657718" lon="103.4422478"><ele>1062.19</ele><time>2026-03-11T22:32:51.000Z</time></trkpt>
        <trkpt lat="29.7657186" lon="103.4422332"><ele>1062.82</ele><time>2026-03-11T22:32:55.000Z</time></trkpt>
        <trkpt lat="29.7656654" lon="103.442206"><ele>1063.62</ele><time>2026-03-11T22:32:59.000Z</time></trkpt>
        <trkpt lat="29.7656184" lon="103.4421598"><ele>1064.22</ele><time>2026-03-11T22:33:03.000Z</time></trkpt>
        <trkpt lat="29.7655774" lon="103.4421143"><ele>1064.55</ele><time>2026-03-11T22:33:07.000Z</time></trkpt>
        <trkpt lat="29.7655374" lon="103.4420579"><ele>1064.39</ele><time>2026-03-11T22:33:11.000Z</time></trkpt>
        <trkpt lat="29.7654983" lon="103.4420043"><ele>1065.17</ele><time>2026-03-11T22:33:15.000Z</time></trkpt>
        <trkpt lat="29.7654604" lon="103.4419598"><ele>1065.79</ele><time>2026-03-11T22:33:19.000Z</time></trkpt>
        <trkpt lat="29.7654287" lon="103.4418984"><ele>1067.27</ele><time>2026-03-11T22:33:25.000Z</time></trkpt>
        <trkpt lat="29.7654131" lon="103.441836"><ele>1068.27</ele><time>2026-03-11T22:33:29.000Z</time></trkpt>
        <trkpt lat="29.7653979" lon="103.4417766"><ele>1069.86</ele><time>2026-03-11T22:33:33.000Z</time></trkpt>
        <trkpt lat="29.7653732" lon="103.4417264"><ele>1071.16</ele><time>2026-03-11T22:33:37.000Z</time></trkpt>
        <trkpt lat="29.7653378" lon="103.4416737"><ele>1071.62</ele><time>2026-03-11T22:33:41.000Z</time></trkpt>
        <trkpt lat="29.7653031" lon="103.441621"><ele>1071.79</ele><time>2026-03-11T22:33:45.000Z</time></trkpt>
        <trkpt lat="29.7652702" lon="103.4415743"><ele>1072.35</ele><time>2026-03-11T22:33:49.000Z</time></trkpt>
        <trkpt lat="29.7652469" lon="103.4415246"><ele>1072.59</ele><time>2026-03-11T22:33:53.000Z</time></trkpt>
        <trkpt lat="29.7652253" lon="103.4414777"><ele>1073.1</ele><time>2026-03-11T22:33:57.000Z</time></trkpt>
        <trkpt lat="29.7652073" lon="103.441428"><ele>1073.35</ele><time>2026-03-11T22:34:01.000Z</time></trkpt>
        <trkpt lat="29.7651857" lon="103.4413825"><ele>1073.36</ele><time>2026-03-11T22:34:05.000Z</time></trkpt>
        <trkpt lat="29.7651656" lon="103.441335"><ele>1073.72</ele><time>2026-03-11T22:34:09.000Z</time></trkpt>
        <trkpt lat="29.7651313" lon="103.4412761"><ele>1074.22</ele><time>2026-03-11T22:34:15.000Z</time></trkpt>
        <trkpt lat="29.765104" lon="103.441225"><ele>1074.13</ele><time>2026-03-11T22:34:19.000Z</time></trkpt>
        <trkpt lat="29.7650736" lon="103.4411845"><ele>1073.79</ele><time>2026-03-11T22:34:23.000Z</time></trkpt>
        <trkpt lat="29.7650764" lon="103.4411587"><ele>1073.47</ele><time>2026-03-11T22:34:27.000Z</time></trkpt>
        <trkpt lat="29.7650708" lon="103.4411054"><ele>1072.19</ele><time>2026-03-11T22:34:33.000Z</time></trkpt>
        <trkpt lat="29.7650585" lon="103.441045"><ele>1071.31</ele><time>2026-03-11T22:34:38.000Z</time></trkpt>
        <trkpt lat="29.7650399" lon="103.44097"><ele>1071.76</ele><time>2026-03-11T22:34:44.000Z</time></trkpt>
        <trkpt lat="29.7650243" lon="103.4409108"><ele>1072.06</ele><time>2026-03-11T22:34:48.000Z</time></trkpt>
        <trkpt lat="29.7650044" lon="103.440847"><ele>1071.64</ele><time>2026-03-11T22:34:52.000Z</time></trkpt>
        <trkpt lat="29.7649888" lon="103.4407864"><ele>1071</ele><time>2026-03-11T22:34:56.000Z</time></trkpt>
        <trkpt lat="29.7649712" lon="103.4407243"><ele>1070.47</ele><time>2026-03-11T22:35:02.000Z</time></trkpt>
        <trkpt lat="29.7649574" lon="103.4406658"><ele>1070.5</ele><time>2026-03-11T22:35:09.000Z</time></trkpt>
        <trkpt lat="29.7649432" lon="103.440615"><ele>1070.13</ele><time>2026-03-11T22:35:13.000Z</time></trkpt>
        <trkpt lat="29.7649184" lon="103.4405561"><ele>1069.8</ele><time>2026-03-11T22:35:19.000Z</time></trkpt>
        <trkpt lat="29.764888" lon="103.4405069"><ele>1070.93</ele><time>2026-03-11T22:35:23.000Z</time></trkpt>
        <trkpt lat="29.7648712" lon="103.4404543"><ele>1071.95</ele><time>2026-03-11T22:35:27.000Z</time></trkpt>
        <trkpt lat="29.7648435" lon="103.4404043"><ele>1072.41</ele><time>2026-03-11T22:35:31.000Z</time></trkpt>
        <trkpt lat="29.7648116" lon="103.4403525"><ele>1072.68</ele><time>2026-03-11T22:35:35.000Z</time></trkpt>
        <trkpt lat="29.7647795" lon="103.4403019"><ele>1072.3</ele><time>2026-03-11T22:35:39.000Z</time></trkpt>
        <trkpt lat="29.7647472" lon="103.4402535"><ele>1071.54</ele><time>2026-03-11T22:35:43.000Z</time></trkpt>
        <trkpt lat="29.7647293" lon="103.4402038"><ele>1070.06</ele><time>2026-03-11T22:35:47.000Z</time></trkpt>
        <trkpt lat="29.7647165" lon="103.4401445"><ele>1068.69</ele><time>2026-03-11T22:35:51.000Z</time></trkpt>
        <trkpt lat="29.7647008" lon="103.4400847"><ele>1066.11</ele><time>2026-03-11T22:35:55.000Z</time></trkpt>
        <trkpt lat="29.764652" lon="103.4400388"><ele>1064.58</ele><time>2026-03-11T22:35:59.000Z</time></trkpt>
        <trkpt lat="29.7646257" lon="103.4399789"><ele>1062.91</ele><time>2026-03-11T22:36:03.000Z</time></trkpt>
        <trkpt lat="29.7646112" lon="103.4399224"><ele>1062.8</ele><time>2026-03-11T22:36:07.000Z</time></trkpt>
        <trkpt lat="29.7646128" lon="103.4398672"><ele>1063.13</ele><time>2026-03-11T22:36:11.000Z</time></trkpt>
        <trkpt lat="29.7646175" lon="103.4398108"><ele>1063.39</ele><time>2026-03-11T22:36:15.000Z</time></trkpt>
        <trkpt lat="29.7646062" lon="103.4397501"><ele>1063.59</ele><time>2026-03-11T22:36:19.000Z</time></trkpt>
        <trkpt lat="29.76458" lon="103.4397051"><ele>1063.58</ele><time>2026-03-11T22:36:25.000Z</time></trkpt>
        <trkpt lat="29.7645501" lon="103.4396356"><ele>1064.1</ele><time>2026-03-11T22:36:33.000Z</time></trkpt>
        <trkpt lat="29.7645256" lon="103.4396228"><ele>1063.34</ele><time>2026-03-11T22:36:37.000Z</time></trkpt>
        <trkpt lat="29.7645082" lon="103.4395839"><ele>1063.89</ele><time>2026-03-11T22:36:45.000Z</time></trkpt>
        <trkpt lat="29.7644909" lon="103.4395332"><ele>1064.04</ele><time>2026-03-11T22:36:49.000Z</time></trkpt>
        <trkpt lat="29.7644769" lon="103.4394692"><ele>1064.68</ele><time>2026-03-11T22:36:53.000Z</time></trkpt>
        <trkpt lat="29.7644743" lon="103.4393875"><ele>1065.14</ele><time>2026-03-11T22:36:57.000Z</time></trkpt>
        <trkpt lat="29.764465" lon="103.4393217"><ele>1065.56</ele><time>2026-03-11T22:37:01.000Z</time></trkpt>
        <trkpt lat="29.7644356" lon="103.4392611"><ele>1066.42</ele><time>2026-03-11T22:37:05.000Z</time></trkpt>
        <trkpt lat="29.7644037" lon="103.4391965"><ele>1067.52</ele><time>2026-03-11T22:37:11.000Z</time></trkpt>
        <trkpt lat="29.7643631" lon="103.4391366"><ele>1066.65</ele><time>2026-03-11T22:37:17.000Z</time></trkpt>
        <trkpt lat="29.7643331" lon="103.4390746"><ele>1066.63</ele><time>2026-03-11T22:37:21.000Z</time></trkpt>
        <trkpt lat="29.7643045" lon="103.4390247"><ele>1067.78</ele><time>2026-03-11T22:37:28.000Z</time></trkpt>
        <trkpt lat="29.7642846" lon="103.4389588"><ele>1067.41</ele><time>2026-03-11T22:37:33.000Z</time></trkpt>
        <trkpt lat="29.7642738" lon="103.4388978"><ele>1067.88</ele><time>2026-03-11T22:37:37.000Z</time></trkpt>
        <trkpt lat="29.7642694" lon="103.4388267"><ele>1067.53</ele><time>2026-03-11T22:37:43.000Z</time></trkpt>
        <trkpt lat="29.7642496" lon="103.43876"><ele>1066.92</ele><time>2026-03-11T22:37:49.000Z</time></trkpt>
        <trkpt lat="29.7642317" lon="103.4386959"><ele>1065.21</ele><time>2026-03-11T22:37:55.000Z</time></trkpt>
        <trkpt lat="29.7642007" lon="103.4386476"><ele>1063.65</ele><time>2026-03-11T22:38:03.000Z</time></trkpt>
        <trkpt lat="29.7641754" lon="103.4385888"><ele>1062.89</ele><time>2026-03-11T22:38:09.000Z</time></trkpt>
        <trkpt lat="29.764157" lon="103.4385296"><ele>1062.59</ele><time>2026-03-11T22:38:13.000Z</time></trkpt>
        <trkpt lat="29.7641406" lon="103.4384673"><ele>1062.66</ele><time>2026-03-11T22:38:19.000Z</time></trkpt>
        <trkpt lat="29.764111" lon="103.4384074"><ele>1063.37</ele><time>2026-03-11T22:38:25.000Z</time></trkpt>
        <trkpt lat="29.7640734" lon="103.4383541"><ele>1063.02</ele><time>2026-03-11T22:38:31.000Z</time></trkpt>
        <trkpt lat="29.7640384" lon="103.4383097"><ele>1063.01</ele><time>2026-03-11T22:38:35.000Z</time></trkpt>
        <trkpt lat="29.764023" lon="103.4382594"><ele>1062.89</ele><time>2026-03-11T22:38:43.000Z</time></trkpt>
        <trkpt lat="29.76403" lon="103.4382551"><ele>1064.26</ele><time>2026-03-11T22:38:47.000Z</time></trkpt>
        <trkpt lat="29.76403" lon="103.4382551"><ele>1064.26</ele><time>2026-03-11T22:39:48.000Z</time></trkpt>
        <trkpt lat="29.7640931" lon="103.4382874"><ele>1064.54</ele><time>2026-03-11T22:39:51.000Z</time></trkpt>
        <trkpt lat="29.7640931" lon="103.4382874"><ele>1064.54</ele><time>2026-03-11T22:39:57.000Z</time></trkpt>
        <trkpt lat="29.7641227" lon="103.4383366"><ele>1064.82</ele><time>2026-03-11T22:40:01.000Z</time></trkpt>
        <trkpt lat="29.764123" lon="103.4383901"><ele>1064.23</ele><time>2026-03-11T22:40:03.000Z</time></trkpt>
        <trkpt lat="29.7641348" lon="103.4384523"><ele>1062.98</ele><time>2026-03-11T22:40:07.000Z</time></trkpt>
        <trkpt lat="29.764166" lon="103.4385106"><ele>1061.88</ele><time>2026-03-11T22:40:11.000Z</time></trkpt>
        <trkpt lat="29.7641878" lon="103.4385382"><ele>1061.11</ele><time>2026-03-11T22:40:15.000Z</time></trkpt>
        <trkpt lat="29.7641793" lon="103.438581"><ele>1060.46</ele><time>2026-03-11T22:40:23.000Z</time></trkpt>
        <trkpt lat="29.764171" lon="103.4386315"><ele>1060.11</ele><time>2026-03-11T22:40:29.000Z</time></trkpt>
        <trkpt lat="29.7641975" lon="103.4386722"><ele>1059.28</ele><time>2026-03-11T22:40:33.000Z</time></trkpt>
        <trkpt lat="29.7642255" lon="103.4387216"><ele>1058.86</ele><time>2026-03-11T22:40:39.000Z</time></trkpt>
        <trkpt lat="29.7642549" lon="103.4387653"><ele>1059.43</ele><time>2026-03-11T22:40:43.000Z</time></trkpt>
        <trkpt lat="29.7642804" lon="103.4388314"><ele>1059.19</ele><time>2026-03-11T22:40:49.000Z</time></trkpt>
        <trkpt lat="29.7642937" lon="103.4388948"><ele>1059.67</ele><time>2026-03-11T22:40:53.000Z</time></trkpt>
        <trkpt lat="29.7643245" lon="103.4389463"><ele>1059.39</ele><time>2026-03-11T22:40:59.000Z</time></trkpt>
        <trkpt lat="29.7643582" lon="103.4390087"><ele>1060.18</ele><time>2026-03-11T22:41:05.000Z</time></trkpt>
        <trkpt lat="29.7643918" lon="103.4390713"><ele>1060.47</ele><time>2026-03-11T22:41:11.000Z</time></trkpt>
        <trkpt lat="29.7644132" lon="103.4391247"><ele>1060.79</ele><time>2026-03-11T22:41:15.000Z</time></trkpt>
        <trkpt lat="29.7644227" lon="103.4391772"><ele>1061.46</ele><time>2026-03-11T22:41:19.000Z</time></trkpt>
        <trkpt lat="29.7644167" lon="103.4392417"><ele>1062.18</ele><time>2026-03-11T22:41:25.000Z</time></trkpt>
        <trkpt lat="29.7644257" lon="103.4392949"><ele>1060.25</ele><time>2026-03-11T22:41:29.000Z</time></trkpt>
        <trkpt lat="29.7644739" lon="103.439295"><ele>1059.63</ele><time>2026-03-11T22:41:49.000Z</time></trkpt>
        <trkpt lat="29.7645252" lon="103.4392848"><ele>1060.49</ele><time>2026-03-11T22:41:53.000Z</time></trkpt>
        <trkpt lat="29.7645854" lon="103.4392674"><ele>1060.67</ele><time>2026-03-11T22:41:59.000Z</time></trkpt>
        <trkpt lat="29.7646496" lon="103.4392436"><ele>1058.58</ele><time>2026-03-11T22:42:03.000Z</time></trkpt>
        <trkpt lat="29.7647156" lon="103.4392205"><ele>1057.01</ele><time>2026-03-11T22:42:09.000Z</time></trkpt>
        <trkpt lat="29.7647888" lon="103.4391921"><ele>1056.69</ele><time>2026-03-11T22:42:15.000Z</time></trkpt>
        <trkpt lat="29.7648509" lon="103.4391829"><ele>1055.78</ele><time>2026-03-11T22:42:19.000Z</time></trkpt>
        <trkpt lat="29.7649229" lon="103.4391783"><ele>1054.63</ele><time>2026-03-11T22:42:25.000Z</time></trkpt>
        <trkpt lat="29.7649289" lon="103.4391814"><ele>1052.78</ele><time>2026-03-11T22:42:27.000Z</time></trkpt>
        <trkpt lat="29.7649705" lon="103.4391903"><ele>1051.34</ele><time>2026-03-11T22:42:35.000Z</time></trkpt>
        <trkpt lat="29.7650422" lon="103.4391749"><ele>1049.44</ele><time>2026-03-11T22:42:43.000Z</time></trkpt>
        <trkpt lat="29.7650991" lon="103.4391464"><ele>1046.51</ele><time>2026-03-11T22:42:47.000Z</time></trkpt>
        <trkpt lat="29.7651548" lon="103.4391324"><ele>1044.42</ele><time>2026-03-11T22:42:53.000Z</time></trkpt>
        <trkpt lat="29.7652083" lon="103.439103"><ele>1041.87</ele><time>2026-03-11T22:42:59.000Z</time></trkpt>
        <trkpt lat="29.765264" lon="103.4390906"><ele>1039.57</ele><time>2026-03-11T22:43:03.000Z</time></trkpt>
        <trkpt lat="29.7653128" lon="103.4390788"><ele>1038.46</ele><time>2026-03-11T22:43:09.000Z</time></trkpt>
        <trkpt lat="29.7653688" lon="103.439065"><ele>1035.2</ele><time>2026-03-11T22:43:15.000Z</time></trkpt>
        <trkpt lat="29.7654158" lon="103.439031"><ele>1032.59</ele><time>2026-03-11T22:43:21.000Z</time></trkpt>
        <trkpt lat="29.7654464" lon="103.4390125"><ele>1030.08</ele><time>2026-03-11T22:43:27.000Z</time></trkpt>
        <trkpt lat="29.7655131" lon="103.4389826"><ele>1027.74</ele><time>2026-03-11T22:43:37.000Z</time></trkpt>
        <trkpt lat="29.7655318" lon="103.4389826"><ele>1024.08</ele><time>2026-03-11T22:43:39.000Z</time></trkpt>
        <trkpt lat="29.7655318" lon="103.4389826"><ele>1024.08</ele><time>2026-03-11T22:44:10.000Z</time></trkpt>
        <trkpt lat="29.7654913" lon="103.4389856"><ele>1021.93</ele><time>2026-03-11T22:44:11.000Z</time></trkpt>
        <trkpt lat="29.7654913" lon="103.4389856"><ele>1021.93</ele><time>2026-03-11T22:44:18.000Z</time></trkpt>
        <trkpt lat="29.7655071" lon="103.4389723"><ele>1016.12</ele><time>2026-03-11T22:44:40.000Z</time></trkpt>
        <trkpt lat="29.7655426" lon="103.43894"><ele>1015.55</ele><time>2026-03-11T22:44:44.000Z</time></trkpt>
        <trkpt lat="29.7655871" lon="103.4388946"><ele>1016.06</ele><time>2026-03-11T22:44:48.000Z</time></trkpt>
        <trkpt lat="29.765643" lon="103.4388533"><ele>1017.07</ele><time>2026-03-11T22:44:54.000Z</time></trkpt>
        <trkpt lat="29.7657082" lon="103.4388141"><ele>1014.83</ele><time>2026-03-11T22:44:58.000Z</time></trkpt>
        <trkpt lat="29.7657787" lon="103.4387653"><ele>1013.11</ele><time>2026-03-11T22:45:02.000Z</time></trkpt>
        <trkpt lat="29.7658367" lon="103.4387295"><ele>1011.41</ele><time>2026-03-11T22:45:08.000Z</time></trkpt>
        <trkpt lat="29.7659002" lon="103.4387066"><ele>1008.45</ele><time>2026-03-11T22:45:12.000Z</time></trkpt>
        <trkpt lat="29.7659547" lon="103.438686"><ele>1006.52</ele><time>2026-03-11T22:45:16.000Z</time></trkpt>
        <trkpt lat="29.7660007" lon="103.4386602"><ele>1004.38</ele><time>2026-03-11T22:45:20.000Z</time></trkpt>
        <trkpt lat="29.766044" lon="103.4386402"><ele>1001.98</ele><time>2026-03-11T22:45:24.000Z</time></trkpt>
        <trkpt lat="29.7660882" lon="103.4386196"><ele>999.98</ele><time>2026-03-11T22:45:28.000Z</time></trkpt>
        <trkpt lat="29.7661285" lon="103.4385951"><ele>997.68</ele><time>2026-03-11T22:45:34.000Z</time></trkpt>
        <trkpt lat="29.7661829" lon="103.4385682"><ele>994.24</ele><time>2026-03-11T22:45:39.000Z</time></trkpt>
        <trkpt lat="29.7662391" lon="103.4385354"><ele>990.93</ele><time>2026-03-11T22:45:43.000Z</time></trkpt>
        <trkpt lat="29.7663076" lon="103.438514"><ele>988.67</ele><time>2026-03-11T22:45:49.000Z</time></trkpt>
        <trkpt lat="29.7663607" lon="103.4384921"><ele>986.04</ele><time>2026-03-11T22:45:51.000Z</time></trkpt>
        <trkpt lat="29.7664119" lon="103.4384748"><ele>984.1</ele><time>2026-03-11T22:45:55.000Z</time></trkpt>
        <trkpt lat="29.7664734" lon="103.4384529"><ele>981.76</ele><time>2026-03-11T22:45:59.000Z</time></trkpt>
        <trkpt lat="29.7665283" lon="103.4384352"><ele>979.47</ele><time>2026-03-11T22:46:04.000Z</time></trkpt>
        <trkpt lat="29.7665756" lon="103.4384307"><ele>977.77</ele><time>2026-03-11T22:46:08.000Z</time></trkpt>
        <trkpt lat="29.7666196" lon="103.4384212"><ele>976.34</ele><time>2026-03-11T22:46:12.000Z</time></trkpt>
        <trkpt lat="29.7666678" lon="103.4383978"><ele>976.25</ele><time>2026-03-11T22:46:20.000Z</time></trkpt>
        <trkpt lat="29.7667009" lon="103.4383814"><ele>975.7</ele><time>2026-03-11T22:46:26.000Z</time></trkpt>
        <trkpt lat="29.7667249" lon="103.438324"><ele>974.43</ele><time>2026-03-11T22:46:38.000Z</time></trkpt>
        <trkpt lat="29.7667477" lon="103.4383116"><ele>973.72</ele><time>2026-03-11T22:46:42.000Z</time></trkpt>
        <trkpt lat="29.7667841" lon="103.4382985"><ele>972.72</ele><time>2026-03-11T22:46:46.000Z</time></trkpt>
        <trkpt lat="29.7668368" lon="103.4382713"><ele>971.71</ele><time>2026-03-11T22:46:54.000Z</time></trkpt>
        <trkpt lat="29.7668944" lon="103.4382439"><ele>968.91</ele><time>2026-03-11T22:47:00.000Z</time></trkpt>
        <trkpt lat="29.766954" lon="103.4382204"><ele>966.25</ele><time>2026-03-11T22:47:06.000Z</time></trkpt>
        <trkpt lat="29.7670077" lon="103.4382061"><ele>962.59</ele><time>2026-03-11T22:47:12.000Z</time></trkpt>
        <trkpt lat="29.7670066" lon="103.4382037"><ele>959.74</ele><time>2026-03-11T22:47:16.000Z</time></trkpt>
        <trkpt lat="29.7670451" lon="103.4381835"><ele>957.85</ele><time>2026-03-11T22:47:26.000Z</time></trkpt>
        <trkpt lat="29.7671071" lon="103.438169"><ele>956.31</ele><time>2026-03-11T22:47:30.000Z</time></trkpt>
        <trkpt lat="29.7671687" lon="103.4381466"><ele>955.16</ele><time>2026-03-11T22:47:34.000Z</time></trkpt>
        <trkpt lat="29.7671753" lon="103.4381257"><ele>954.09</ele><time>2026-03-11T22:47:40.000Z</time></trkpt>
        <trkpt lat="29.7671676" lon="103.4380694"><ele>953.62</ele><time>2026-03-11T22:47:46.000Z</time></trkpt>
        <trkpt lat="29.7671689" lon="103.4380008"><ele>954.3</ele><time>2026-03-11T22:47:52.000Z</time></trkpt>
        <trkpt lat="29.7671668" lon="103.4379361"><ele>954.48</ele><time>2026-03-11T22:47:58.000Z</time></trkpt>
        <trkpt lat="29.7671386" lon="103.4378924"><ele>953.7</ele><time>2026-03-11T22:48:38.000Z</time></trkpt>
        <trkpt lat="29.7671527" lon="103.4378417"><ele>953.02</ele><time>2026-03-11T22:49:06.000Z</time></trkpt>
        <trkpt lat="29.7671889" lon="103.4377933"><ele>952.11</ele><time>2026-03-11T22:49:34.000Z</time></trkpt>
        <trkpt lat="29.7672298" lon="103.4377376"><ele>952.29</ele><time>2026-03-11T22:49:38.000Z</time></trkpt>
        <trkpt lat="29.767276" lon="103.4376929"><ele>953.04</ele><time>2026-03-11T22:49:42.000Z</time></trkpt>
        <trkpt lat="29.7673252" lon="103.4377005"><ele>952.36</ele><time>2026-03-11T22:49:48.000Z</time></trkpt>
        <trkpt lat="29.7673666" lon="103.4377356"><ele>949.7</ele><time>2026-03-11T22:49:52.000Z</time></trkpt>
        <trkpt lat="29.7674223" lon="103.4377657"><ele>947.16</ele><time>2026-03-11T22:49:56.000Z</time></trkpt>
        <trkpt lat="29.7674722" lon="103.4377885"><ele>945.79</ele><time>2026-03-11T22:50:00.000Z</time></trkpt>
        <trkpt lat="29.7675193" lon="103.4378024"><ele>945.45</ele><time>2026-03-11T22:50:28.000Z</time></trkpt>
        <trkpt lat="29.7675099" lon="103.437852"><ele>946.73</ele><time>2026-03-11T22:51:28.000Z</time></trkpt>
        <trkpt lat="29.7675094" lon="103.4378853"><ele>947.92</ele><time>2026-03-11T22:51:33.000Z</time></trkpt>
        <trkpt lat="29.7675094" lon="103.4378853"><ele>947.92</ele><time>2026-03-11T22:51:42.000Z</time></trkpt>
        <trkpt lat="29.7675094" lon="103.4378853"><ele>947.92</ele><time>2026-03-11T22:51:47.000Z</time></trkpt>
        <trkpt lat="29.7675094" lon="103.4378853"><ele>947.92</ele><time>2026-03-11T22:52:02.000Z</time></trkpt>
        <trkpt lat="29.7675247" lon="103.4379285"><ele>949.02</ele><time>2026-03-11T22:52:09.000Z</time></trkpt>
        <trkpt lat="29.7675247" lon="103.4379285"><ele>949.02</ele><time>2026-03-11T22:52:14.000Z</time></trkpt>
        <trkpt lat="29.7675247" lon="103.4379285"><ele>949.02</ele><time>2026-03-11T22:54:04.000Z</time></trkpt>
        <trkpt lat="29.7675276" lon="103.4378745"><ele>951.29</ele><time>2026-03-11T22:54:19.000Z</time></trkpt>
        <trkpt lat="29.7675276" lon="103.4378745"><ele>951.29</ele><time>2026-03-11T22:55:19.000Z</time></trkpt>
        <trkpt lat="29.7675434" lon="103.4378224"><ele>949.26</ele><time>2026-03-11T22:55:29.000Z</time></trkpt>
        <trkpt lat="29.7675849" lon="103.4378383"><ele>947.16</ele><time>2026-03-11T22:55:35.000Z</time></trkpt>
        <trkpt lat="29.7676305" lon="103.4378732"><ele>946.11</ele><time>2026-03-11T22:55:45.000Z</time></trkpt>
        <trkpt lat="29.7676819" lon="103.4379211"><ele>945.59</ele><time>2026-03-11T22:55:53.000Z</time></trkpt>
        <trkpt lat="29.7677016" lon="103.4379777"><ele>944.58</ele><time>2026-03-11T22:55:59.000Z</time></trkpt>
        <trkpt lat="29.7677269" lon="103.4380332"><ele>944.3</ele><time>2026-03-11T22:56:05.000Z</time></trkpt>
        <trkpt lat="29.7677506" lon="103.4380868"><ele>944.45</ele><time>2026-03-11T22:56:11.000Z</time></trkpt>
        <trkpt lat="29.767771" lon="103.4381555"><ele>944.96</ele><time>2026-03-11T22:56:17.000Z</time></trkpt>
        <trkpt lat="29.7677762" lon="103.4382285"><ele>945.74</ele><time>2026-03-11T22:56:21.000Z</time></trkpt>
        <trkpt lat="29.7677945" lon="103.438282"><ele>946.81</ele><time>2026-03-11T22:56:25.000Z</time></trkpt>
        <trkpt lat="29.767827" lon="103.4382624"><ele>948.3</ele><time>2026-03-11T22:56:31.000Z</time></trkpt>
        <trkpt lat="29.767888" lon="103.43824"><ele>948.34</ele><time>2026-03-11T22:56:37.000Z</time></trkpt>
        <trkpt lat="29.7679531" lon="103.4382238"><ele>948.22</ele><time>2026-03-11T22:56:43.000Z</time></trkpt>
        <trkpt lat="29.7680093" lon="103.4382153"><ele>948.35</ele><time>2026-03-11T22:56:49.000Z</time></trkpt>
        <trkpt lat="29.7680542" lon="103.4381759"><ele>947.33</ele><time>2026-03-11T22:56:55.000Z</time></trkpt>
        <trkpt lat="29.7680981" lon="103.4381369"><ele>946.02</ele><time>2026-03-11T22:57:01.000Z</time></trkpt>
        <trkpt lat="29.7681268" lon="103.4380734"><ele>945.68</ele><time>2026-03-11T22:57:07.000Z</time></trkpt>
        <trkpt lat="29.7681165" lon="103.4380835"><ele>945.93</ele><time>2026-03-11T22:57:09.000Z</time></trkpt>
        <trkpt lat="29.7681548" lon="103.4380779"><ele>942.08</ele><time>2026-03-11T22:57:17.000Z</time></trkpt>
        <trkpt lat="29.7681912" lon="103.4380442"><ele>939.83</ele><time>2026-03-11T22:57:23.000Z</time></trkpt>
        <trkpt lat="29.7682185" lon="103.4379981"><ele>938.98</ele><time>2026-03-11T22:57:37.000Z</time></trkpt>
        <trkpt lat="29.76827" lon="103.4379853"><ele>938.94</ele><time>2026-03-11T22:57:49.000Z</time></trkpt>
        <trkpt lat="29.768326" lon="103.4379852"><ele>936.03</ele><time>2026-03-11T22:57:55.000Z</time></trkpt>
        <trkpt lat="29.768381" lon="103.4379818"><ele>934.6</ele><time>2026-03-11T22:58:01.000Z</time></trkpt>
        <trkpt lat="29.7684306" lon="103.4379617"><ele>935.37</ele><time>2026-03-11T22:58:07.000Z</time></trkpt>
        <trkpt lat="29.7684779" lon="103.4379589"><ele>935.87</ele><time>2026-03-11T22:58:13.000Z</time></trkpt>
        <trkpt lat="29.7685245" lon="103.4379555"><ele>935.32</ele><time>2026-03-11T22:58:19.000Z</time></trkpt>
        <trkpt lat="29.7685747" lon="103.4379369"><ele>934.15</ele><time>2026-03-11T22:58:25.000Z</time></trkpt>
        <trkpt lat="29.7685657" lon="103.4379457"><ele>932.76</ele><time>2026-03-11T22:58:27.000Z</time></trkpt>
        <trkpt lat="29.7685938" lon="103.4379331"><ele>930.35</ele><time>2026-03-11T22:58:35.000Z</time></trkpt>
        <trkpt lat="29.768635" lon="103.4379094"><ele>930.39</ele><time>2026-03-11T22:58:41.000Z</time></trkpt>
        <trkpt lat="29.7686934" lon="103.4378993"><ele>930.94</ele><time>2026-03-11T22:58:47.000Z</time></trkpt>
        <trkpt lat="29.7687537" lon="103.4378746"><ele>930.53</ele><time>2026-03-11T22:58:53.000Z</time></trkpt>
        <trkpt lat="29.768807" lon="103.4378642"><ele>929.94</ele><time>2026-03-11T22:58:59.000Z</time></trkpt>
        <trkpt lat="29.768855" lon="103.4378682"><ele>928.59</ele><time>2026-03-11T22:59:03.000Z</time></trkpt>
        <trkpt lat="29.7688989" lon="103.4378378"><ele>926.52</ele><time>2026-03-11T22:59:07.000Z</time></trkpt>
        <trkpt lat="29.768943" lon="103.4378003"><ele>925.69</ele><time>2026-03-11T22:59:11.000Z</time></trkpt>
        <trkpt lat="29.7689921" lon="103.437772"><ele>924.49</ele><time>2026-03-11T22:59:17.000Z</time></trkpt>
        <trkpt lat="29.7690418" lon="103.4377504"><ele>923.06</ele><time>2026-03-11T22:59:23.000Z</time></trkpt>
        <trkpt lat="29.7690988" lon="103.4377337"><ele>922.68</ele><time>2026-03-11T22:59:29.000Z</time></trkpt>
        <trkpt lat="29.7691474" lon="103.4377255"><ele>921.18</ele><time>2026-03-11T22:59:33.000Z</time></trkpt>
        <trkpt lat="29.7691917" lon="103.4377396"><ele>920.49</ele><time>2026-03-11T22:59:39.000Z</time></trkpt>
        <trkpt lat="29.7692505" lon="103.4377423"><ele>918.3</ele><time>2026-03-11T22:59:45.000Z</time></trkpt>
        <trkpt lat="29.7693076" lon="103.4377563"><ele>916.99</ele><time>2026-03-11T22:59:53.000Z</time></trkpt>
        <trkpt lat="29.7693564" lon="103.4377842"><ele>915.27</ele><time>2026-03-11T22:59:57.000Z</time></trkpt>
        <trkpt lat="29.769412" lon="103.4378079"><ele>914.04</ele><time>2026-03-11T23:00:03.000Z</time></trkpt>
        <trkpt lat="29.7694571" lon="103.4377953"><ele>912.14</ele><time>2026-03-11T23:00:09.000Z</time></trkpt>
        <trkpt lat="29.7694986" lon="103.4377734"><ele>910.2</ele><time>2026-03-11T23:00:19.000Z</time></trkpt>
        <trkpt lat="29.7695428" lon="103.4377729"><ele>909.1</ele><time>2026-03-11T23:00:23.000Z</time></trkpt>
        <trkpt lat="29.7695949" lon="103.4377616"><ele>907.55</ele><time>2026-03-11T23:00:29.000Z</time></trkpt>
        <trkpt lat="29.7696441" lon="103.4377617"><ele>906.16</ele><time>2026-03-11T23:00:33.000Z</time></trkpt>
        <trkpt lat="29.7696947" lon="103.4377668"><ele>905.86</ele><time>2026-03-11T23:00:37.000Z</time></trkpt>
        <trkpt lat="29.769744" lon="103.4377473"><ele>905.36</ele><time>2026-03-11T23:00:45.000Z</time></trkpt>
        <trkpt lat="29.7698054" lon="103.4377511"><ele>902.83</ele><time>2026-03-11T23:00:51.000Z</time></trkpt>
        <trkpt lat="29.7698518" lon="103.4377733"><ele>901.1</ele><time>2026-03-11T23:00:57.000Z</time></trkpt>
        <trkpt lat="29.769896" lon="103.4377859"><ele>899.44</ele><time>2026-03-11T23:01:01.000Z</time></trkpt>
        <trkpt lat="29.7699397" lon="103.4377737"><ele>898.46</ele><time>2026-03-11T23:01:06.000Z</time></trkpt>
        <trkpt lat="29.7699884" lon="103.4377863"><ele>897.71</ele><time>2026-03-11T23:01:11.000Z</time></trkpt>
        <trkpt lat="29.770035" lon="103.4377907"><ele>897.2</ele><time>2026-03-11T23:01:15.000Z</time></trkpt>
        <trkpt lat="29.7700825" lon="103.4377932"><ele>896.73</ele><time>2026-03-11T23:01:19.000Z</time></trkpt>
        <trkpt lat="29.77014" lon="103.4378062"><ele>896.51</ele><time>2026-03-11T23:01:25.000Z</time></trkpt>
        <trkpt lat="29.7701821" lon="103.4378467"><ele>896.27</ele><time>2026-03-11T23:01:29.000Z</time></trkpt>
        <trkpt lat="29.7702187" lon="103.4378938"><ele>896.16</ele><time>2026-03-11T23:01:33.000Z</time></trkpt>
        <trkpt lat="29.7702621" lon="103.4379229"><ele>896.11</ele><time>2026-03-11T23:01:37.000Z</time></trkpt>
        <trkpt lat="29.7703033" lon="103.4379539"><ele>896</ele><time>2026-03-11T23:01:41.000Z</time></trkpt>
        <trkpt lat="29.7703405" lon="103.4379877"><ele>896.01</ele><time>2026-03-11T23:01:45.000Z</time></trkpt>
        <trkpt lat="29.7703848" lon="103.4379915"><ele>896.32</ele><time>2026-03-11T23:01:51.000Z</time></trkpt>
        <trkpt lat="29.7704338" lon="103.4380179"><ele>896.68</ele><time>2026-03-11T23:01:57.000Z</time></trkpt>
        <trkpt lat="29.7705038" lon="103.4380464"><ele>896.41</ele><time>2026-03-11T23:02:03.000Z</time></trkpt>
        <trkpt lat="29.7705277" lon="103.4380084"><ele>895.94</ele><time>2026-03-11T23:02:05.000Z</time></trkpt>
        <trkpt lat="29.7704913" lon="103.4379463"><ele>895.88</ele><time>2026-03-11T23:02:09.000Z</time></trkpt>
        <trkpt lat="29.7704575" lon="103.4378817"><ele>896.1</ele><time>2026-03-11T23:02:13.000Z</time></trkpt>
        <trkpt lat="29.77041" lon="103.4378582"><ele>896.9</ele><time>2026-03-11T23:02:17.000Z</time></trkpt>
        <trkpt lat="29.7703871" lon="103.4378585"><ele>897.13</ele><time>2026-03-11T23:02:19.000Z</time></trkpt>
        <trkpt lat="29.7703461" lon="103.4378544"><ele>897.03</ele><time>2026-03-11T23:02:25.000Z</time></trkpt>
        <trkpt lat="29.7702998" lon="103.4378341"><ele>897.66</ele><time>2026-03-11T23:02:29.000Z</time></trkpt>
        <trkpt lat="29.7702751" lon="103.4377884"><ele>897.79</ele><time>2026-03-11T23:02:33.000Z</time></trkpt>
        <trkpt lat="29.7702972" lon="103.4377401"><ele>898.12</ele><time>2026-03-11T23:02:37.000Z</time></trkpt>
        <trkpt lat="29.7703379" lon="103.4377023"><ele>898.02</ele><time>2026-03-11T23:02:41.000Z</time></trkpt>
        <trkpt lat="29.770373" lon="103.4376594"><ele>898.08</ele><time>2026-03-11T23:02:45.000Z</time></trkpt>
        <trkpt lat="29.7703614" lon="103.4376105"><ele>898.33</ele><time>2026-03-11T23:02:51.000Z</time></trkpt>
        <trkpt lat="29.7703416" lon="103.4375568"><ele>902.1</ele><time>2026-03-11T23:02:59.000Z</time></trkpt>
        <trkpt lat="29.7703469" lon="103.4374957"><ele>906.8</ele><time>2026-03-11T23:03:09.000Z</time></trkpt>
        <trkpt lat="29.7703306" lon="103.4374295"><ele>907.25</ele><time>2026-03-11T23:03:19.000Z</time></trkpt>
        <trkpt lat="29.7702943" lon="103.4373728"><ele>907.66</ele><time>2026-03-11T23:03:25.000Z</time></trkpt>
        <trkpt lat="29.7702508" lon="103.4373297"><ele>906.58</ele><time>2026-03-11T23:03:29.000Z</time></trkpt>
        <trkpt lat="29.7702131" lon="103.4372923"><ele>905.67</ele><time>2026-03-11T23:03:33.000Z</time></trkpt>
        <trkpt lat="29.7701871" lon="103.4372493"><ele>904.11</ele><time>2026-03-11T23:03:37.000Z</time></trkpt>
        <trkpt lat="29.770163" lon="103.4372033"><ele>903.18</ele><time>2026-03-11T23:03:41.000Z</time></trkpt>
        <trkpt lat="29.7701409" lon="103.4371575"><ele>901.96</ele><time>2026-03-11T23:03:45.000Z</time></trkpt>
        <trkpt lat="29.7701231" lon="103.4371058"><ele>900.43</ele><time>2026-03-11T23:03:49.000Z</time></trkpt>
        <trkpt lat="29.7701166" lon="103.4370514"><ele>898.46</ele><time>2026-03-11T23:03:59.000Z</time></trkpt>
        <trkpt lat="29.7700628" lon="103.437024"><ele>897.57</ele><time>2026-03-11T23:04:04.000Z</time></trkpt>
        <trkpt lat="29.7700077" lon="103.437018"><ele>897.03</ele><time>2026-03-11T23:04:08.000Z</time></trkpt>
        <trkpt lat="29.7699597" lon="103.4370358"><ele>896.75</ele><time>2026-03-11T23:04:12.000Z</time></trkpt>
        <trkpt lat="29.769898" lon="103.4370411"><ele>896.84</ele><time>2026-03-11T23:04:18.000Z</time></trkpt>
        <trkpt lat="29.7698418" lon="103.4370384"><ele>896.82</ele><time>2026-03-11T23:04:24.000Z</time></trkpt>
        <trkpt lat="29.7697862" lon="103.43702"><ele>897.2</ele><time>2026-03-11T23:04:30.000Z</time></trkpt>
        <trkpt lat="29.7697347" lon="103.4369874"><ele>898.14</ele><time>2026-03-11T23:04:36.000Z</time></trkpt>
        <trkpt lat="29.7696925" lon="103.4369478"><ele>899.08</ele><time>2026-03-11T23:04:40.000Z</time></trkpt>
        <trkpt lat="29.7696899" lon="103.4368876"><ele>899.49</ele><time>2026-03-11T23:04:49.000Z</time></trkpt>
        <trkpt lat="29.7696601" lon="103.4368348"><ele>900.6</ele><time>2026-03-11T23:04:53.000Z</time></trkpt>
        <trkpt lat="29.7696108" lon="103.4367837"><ele>901.16</ele><time>2026-03-11T23:04:57.000Z</time></trkpt>
        <trkpt lat="29.7695668" lon="103.4367379"><ele>899.82</ele><time>2026-03-11T23:05:01.000Z</time></trkpt>
        <trkpt lat="29.7695698" lon="103.4367747"><ele>899.05</ele><time>2026-03-11T23:05:05.000Z</time></trkpt>
        <trkpt lat="29.7695386" lon="103.4367557"><ele>900.18</ele><time>2026-03-11T23:05:11.000Z</time></trkpt>
        <trkpt lat="29.7695241" lon="103.4367044"><ele>901.64</ele><time>2026-03-11T23:05:17.000Z</time></trkpt>
        <trkpt lat="29.7695498" lon="103.436642"><ele>904.07</ele><time>2026-03-11T23:05:23.000Z</time></trkpt>
        <trkpt lat="29.7695957" lon="103.4365891"><ele>906.05</ele><time>2026-03-11T23:05:29.000Z</time></trkpt>
        <trkpt lat="29.7696301" lon="103.4365218"><ele>907.2</ele><time>2026-03-11T23:05:39.000Z</time></trkpt>
        <trkpt lat="29.76966" lon="103.4364518"><ele>907.51</ele><time>2026-03-11T23:05:43.000Z</time></trkpt>
        <trkpt lat="29.7696822" lon="103.436376"><ele>907</ele><time>2026-03-11T23:05:48.000Z</time></trkpt>
        <trkpt lat="29.7696971" lon="103.4362912"><ele>906.62</ele><time>2026-03-11T23:05:51.000Z</time></trkpt>
        <trkpt lat="29.7697125" lon="103.4362233"><ele>906.19</ele><time>2026-03-11T23:05:55.000Z</time></trkpt>
        <trkpt lat="29.7697348" lon="103.436171"><ele>906.07</ele><time>2026-03-11T23:06:01.000Z</time></trkpt>
        <trkpt lat="29.7697033" lon="103.436161"><ele>906.34</ele><time>2026-03-11T23:06:05.000Z</time></trkpt>
        <trkpt lat="29.7697175" lon="103.4361393"><ele>905.96</ele><time>2026-03-11T23:06:15.000Z</time></trkpt>
        <trkpt lat="29.769759" lon="103.4361627"><ele>906.65</ele><time>2026-03-11T23:06:37.000Z</time></trkpt>
        <trkpt lat="29.7698157" lon="103.4361774"><ele>909.72</ele><time>2026-03-11T23:07:05.000Z</time></trkpt>
        <trkpt lat="29.7698398" lon="103.4361339"><ele>913.25</ele><time>2026-03-11T23:07:17.000Z</time></trkpt>
        <trkpt lat="29.7698784" lon="103.4361143"><ele>914.55</ele><time>2026-03-11T23:07:29.000Z</time></trkpt>
        <trkpt lat="29.7699149" lon="103.4360729"><ele>916.86</ele><time>2026-03-11T23:07:41.000Z</time></trkpt>
        <trkpt lat="29.7699149" lon="103.4360729"><ele>916.86</ele><time>2026-03-11T23:08:02.000Z</time></trkpt>
        <trkpt lat="29.7699491" lon="103.4360208"><ele>917.71</ele><time>2026-03-11T23:08:07.000Z</time></trkpt>
        <trkpt lat="29.7699491" lon="103.4360208"><ele>917.71</ele><time>2026-03-11T23:08:10.000Z</time></trkpt>
        <trkpt lat="29.7699685" lon="103.4359511"><ele>919.26</ele><time>2026-03-11T23:08:12.000Z</time></trkpt>
        <trkpt lat="29.770004" lon="103.4359179"><ele>915.04</ele><time>2026-03-11T23:08:22.000Z</time></trkpt>
        <trkpt lat="29.7700468" lon="103.4359406"><ele>917.15</ele><time>2026-03-11T23:08:30.000Z</time></trkpt>
        <trkpt lat="29.7700468" lon="103.4359406"><ele>917.15</ele><time>2026-03-11T23:08:58.000Z</time></trkpt>
        <trkpt lat="29.7700963" lon="103.4359584"><ele>920.2</ele><time>2026-03-11T23:08:59.000Z</time></trkpt>
        <trkpt lat="29.7700963" lon="103.4359584"><ele>920.2</ele><time>2026-03-11T23:09:05.000Z</time></trkpt>
        <trkpt lat="29.7700778" lon="103.4359343"><ele>926.03</ele><time>2026-03-11T23:09:25.000Z</time></trkpt>
        <trkpt lat="29.7700314" lon="103.4359038"><ele>930.04</ele><time>2026-03-11T23:09:39.000Z</time></trkpt>
        <trkpt lat="29.770054" lon="103.4358922"><ele>930.76</ele><time>2026-03-11T23:10:07.000Z</time></trkpt>
        <trkpt lat="29.7700924" lon="103.4358495"><ele>933.2</ele><time>2026-03-11T23:10:27.000Z</time></trkpt>
        <trkpt lat="29.77007" lon="103.4358092"><ele>936.55</ele><time>2026-03-11T23:10:39.000Z</time></trkpt>
        <trkpt lat="29.77007" lon="103.4358092"><ele>936.55</ele><time>2026-03-11T23:12:18.000Z</time></trkpt>
        <trkpt lat="29.7701183" lon="103.4357566"><ele>936.86</ele><time>2026-03-11T23:12:29.000Z</time></trkpt>
        <trkpt lat="29.7701183" lon="103.4357566"><ele>936.86</ele><time>2026-03-11T23:12:31.000Z</time></trkpt>
        <trkpt lat="29.7700986" lon="103.43583"><ele>939.4</ele><time>2026-03-11T23:12:34.000Z</time></trkpt>
        <trkpt lat="29.7700986" lon="103.43583"><ele>939.4</ele><time>2026-03-11T23:12:56.000Z</time></trkpt>
        <trkpt lat="29.7700986" lon="103.43583"><ele>939.4</ele><time>2026-03-11T23:13:23.000Z</time></trkpt>
        <trkpt lat="29.7700986" lon="103.43583"><ele>939.4</ele><time>2026-03-11T23:13:40.000Z</time></trkpt>
        <trkpt lat="29.7700986" lon="103.43583"><ele>939.4</ele><time>2026-03-11T23:13:53.000Z</time></trkpt>
        <trkpt lat="29.7700986" lon="103.43583"><ele>939.4</ele><time>2026-03-11T23:14:24.000Z</time></trkpt>
        <trkpt lat="29.7700986" lon="103.43583"><ele>939.4</ele><time>2026-03-11T23:14:37.000Z</time></trkpt>
        <trkpt lat="29.7700986" lon="103.43583"><ele>939.4</ele><time>2026-03-11T23:14:48.000Z</time></trkpt>
        <trkpt lat="29.7700986" lon="103.43583"><ele>939.4</ele><time>2026-03-11T23:16:11.000Z</time></trkpt>
        <trkpt lat="29.7700986" lon="103.43583"><ele>939.4</ele><time>2026-03-11T23:16:24.000Z</time></trkpt>
        <trkpt lat="29.7700838" lon="103.4357786"><ele>942.37</ele><time>2026-03-11T23:16:35.000Z</time></trkpt>
        <trkpt lat="29.7700838" lon="103.4357786"><ele>942.37</ele><time>2026-03-11T23:16:42.000Z</time></trkpt>
        <trkpt lat="29.7701338" lon="103.435768"><ele>941.17</ele><time>2026-03-11T23:17:02.000Z</time></trkpt>
        <trkpt lat="29.7701631" lon="103.4357191"><ele>942.93</ele><time>2026-03-11T23:17:12.000Z</time></trkpt>
        <trkpt lat="29.7702013" lon="103.4356906"><ele>944.84</ele><time>2026-03-11T23:17:34.000Z</time></trkpt>
        <trkpt lat="29.7702488" lon="103.4356645"><ele>948.4</ele><time>2026-03-11T23:17:46.000Z</time></trkpt>
        <trkpt lat="29.7702866" lon="103.4356276"><ele>951.03</ele><time>2026-03-11T23:18:06.000Z</time></trkpt>
        <trkpt lat="29.7702862" lon="103.4355604"><ele>954.85</ele><time>2026-03-11T23:18:14.000Z</time></trkpt>
        <trkpt lat="29.7702697" lon="103.4355308"><ele>957.59</ele><time>2026-03-11T23:18:20.000Z</time></trkpt>
        <trkpt lat="29.7702229" lon="103.4355282"><ele>958.45</ele><time>2026-03-11T23:18:59.000Z</time></trkpt>
        <trkpt lat="29.7701757" lon="103.4355124"><ele>960.82</ele><time>2026-03-11T23:19:09.000Z</time></trkpt>
        <trkpt lat="29.7701313" lon="103.4354866"><ele>964.11</ele><time>2026-03-11T23:19:25.000Z</time></trkpt>
        <trkpt lat="29.7700856" lon="103.435448"><ele>967.27</ele><time>2026-03-11T23:19:41.000Z</time></trkpt>
        <trkpt lat="29.7700629" lon="103.4353931"><ele>970.28</ele><time>2026-03-11T23:19:55.000Z</time></trkpt>
        <trkpt lat="29.7700316" lon="103.4353419"><ele>973.18</ele><time>2026-03-11T23:20:03.000Z</time></trkpt>
        <trkpt lat="29.7700054" lon="103.4352945"><ele>975.72</ele><time>2026-03-11T23:20:11.000Z</time></trkpt>
        <trkpt lat="29.7699652" lon="103.4352547"><ele>978.11</ele><time>2026-03-11T23:20:37.000Z</time></trkpt>
        <trkpt lat="29.7699527" lon="103.4351934"><ele>978.95</ele><time>2026-03-11T23:20:45.000Z</time></trkpt>
        <trkpt lat="29.769986" lon="103.4351365"><ele>980.84</ele><time>2026-03-11T23:20:51.000Z</time></trkpt>
        <trkpt lat="29.7700368" lon="103.4351214"><ele>983.6</ele><time>2026-03-11T23:20:57.000Z</time></trkpt>
        <trkpt lat="29.7700495" lon="103.4350671"><ele>984.48</ele><time>2026-03-11T23:21:03.000Z</time></trkpt>
        <trkpt lat="29.7700417" lon="103.435023"><ele>984.89</ele><time>2026-03-11T23:21:07.000Z</time></trkpt>
        <trkpt lat="29.7700347" lon="103.4349644"><ele>985.43</ele><time>2026-03-11T23:21:21.000Z</time></trkpt>
        <trkpt lat="29.7700274" lon="103.4349057"><ele>985.06</ele><time>2026-03-11T23:21:27.000Z</time></trkpt>
        <trkpt lat="29.7700142" lon="103.4348468"><ele>985.1</ele><time>2026-03-11T23:21:33.000Z</time></trkpt>
        <trkpt lat="29.7699747" lon="103.43481"><ele>984.86</ele><time>2026-03-11T23:21:39.000Z</time></trkpt>
        <trkpt lat="29.7699336" lon="103.4347684"><ele>984.73</ele><time>2026-03-11T23:21:45.000Z</time></trkpt>
        <trkpt lat="29.7699143" lon="103.4347139"><ele>984.99</ele><time>2026-03-11T23:21:51.000Z</time></trkpt>
        <trkpt lat="29.7698754" lon="103.4346835"><ele>985.13</ele><time>2026-03-11T23:21:57.000Z</time></trkpt>
        <trkpt lat="29.7698361" lon="103.4346422"><ele>985.37</ele><time>2026-03-11T23:22:03.000Z</time></trkpt>
        <trkpt lat="29.7698155" lon="103.4345823"><ele>985.59</ele><time>2026-03-11T23:22:09.000Z</time></trkpt>
        <trkpt lat="29.7698525" lon="103.4345396"><ele>987.14</ele><time>2026-03-11T23:22:15.000Z</time></trkpt>
        <trkpt lat="29.7699034" lon="103.4345267"><ele>988.12</ele><time>2026-03-11T23:22:21.000Z</time></trkpt>
        <trkpt lat="29.7699577" lon="103.434517"><ele>988.37</ele><time>2026-03-11T23:22:27.000Z</time></trkpt>
        <trkpt lat="29.770004" lon="103.4344924"><ele>988.67</ele><time>2026-03-11T23:23:15.000Z</time></trkpt>
        <trkpt lat="29.7700488" lon="103.434461"><ele>988.62</ele><time>2026-03-11T23:23:19.000Z</time></trkpt>
        <trkpt lat="29.7700959" lon="103.4344334"><ele>988.55</ele><time>2026-03-11T23:23:25.000Z</time></trkpt>
        <trkpt lat="29.7701182" lon="103.434377"><ele>988.61</ele><time>2026-03-11T23:23:33.000Z</time></trkpt>
        <trkpt lat="29.7701034" lon="103.4343167"><ele>989.29</ele><time>2026-03-11T23:23:41.000Z</time></trkpt>
        <trkpt lat="29.7700947" lon="103.4342574"><ele>989.32</ele><time>2026-03-11T23:23:49.000Z</time></trkpt>
        <trkpt lat="29.770072" lon="103.434206"><ele>989.55</ele><time>2026-03-11T23:23:57.000Z</time></trkpt>
        <trkpt lat="29.770056" lon="103.4341544"><ele>991.38</ele><time>2026-03-11T23:24:07.000Z</time></trkpt>
        <trkpt lat="29.7700199" lon="103.4341235"><ele>994.26</ele><time>2026-03-11T23:24:11.000Z</time></trkpt>
        <trkpt lat="29.7699783" lon="103.4340973"><ele>997.74</ele><time>2026-03-11T23:24:17.000Z</time></trkpt>
        <trkpt lat="29.7699392" lon="103.4340688"><ele>999.22</ele><time>2026-03-11T23:24:23.000Z</time></trkpt>
        <trkpt lat="29.7699116" lon="103.434022"><ele>999.48</ele><time>2026-03-11T23:24:29.000Z</time></trkpt>
        <trkpt lat="29.7699066" lon="103.4339687"><ele>1000.2</ele><time>2026-03-11T23:24:35.000Z</time></trkpt>
        <trkpt lat="29.7699397" lon="103.4339189"><ele>1001.72</ele><time>2026-03-11T23:24:43.000Z</time></trkpt>
        <trkpt lat="29.7699469" lon="103.4338668"><ele>1002.84</ele><time>2026-03-11T23:24:51.000Z</time></trkpt>
        <trkpt lat="29.7699583" lon="103.4338142"><ele>1003.38</ele><time>2026-03-11T23:25:13.000Z</time></trkpt>
        <trkpt lat="29.7700086" lon="103.4337864"><ele>1005.07</ele><time>2026-03-11T23:25:19.000Z</time></trkpt>
        <trkpt lat="29.7700693" lon="103.4337938"><ele>1005.91</ele><time>2026-03-11T23:25:23.000Z</time></trkpt>
        <trkpt lat="29.7701271" lon="103.4338237"><ele>1006.32</ele><time>2026-03-11T23:25:29.000Z</time></trkpt>
        <trkpt lat="29.7701871" lon="103.4338502"><ele>1005.7</ele><time>2026-03-11T23:25:35.000Z</time></trkpt>
        <trkpt lat="29.7702332" lon="103.4338777"><ele>1004.61</ele><time>2026-03-11T23:25:39.000Z</time></trkpt>
        <trkpt lat="29.7702733" lon="103.4339102"><ele>1003.38</ele><time>2026-03-11T23:25:43.000Z</time></trkpt>
        <trkpt lat="29.7703125" lon="103.4339434"><ele>1002.32</ele><time>2026-03-11T23:25:47.000Z</time></trkpt>
        <trkpt lat="29.7703505" lon="103.4339805"><ele>1001.86</ele><time>2026-03-11T23:25:51.000Z</time></trkpt>
        <trkpt lat="29.7703883" lon="103.4340117"><ele>1001.57</ele><time>2026-03-11T23:25:55.000Z</time></trkpt>
        <trkpt lat="29.7704421" lon="103.4340414"><ele>1000.97</ele><time>2026-03-11T23:26:01.000Z</time></trkpt>
        <trkpt lat="29.770498" lon="103.4340753"><ele>1000.74</ele><time>2026-03-11T23:26:07.000Z</time></trkpt>
        <trkpt lat="29.7705573" lon="103.4341033"><ele>1000.7</ele><time>2026-03-11T23:26:13.000Z</time></trkpt>
        <trkpt lat="29.7705978" lon="103.4341183"><ele>1000.89</ele><time>2026-03-11T23:26:19.000Z</time></trkpt>
        <trkpt lat="29.7706424" lon="103.4341415"><ele>1001.28</ele><time>2026-03-11T23:26:31.000Z</time></trkpt>
        <trkpt lat="29.7706895" lon="103.4341712"><ele>1001.54</ele><time>2026-03-11T23:26:45.000Z</time></trkpt>
        <trkpt lat="29.7707306" lon="103.4342022"><ele>1001.91</ele><time>2026-03-11T23:26:51.000Z</time></trkpt>
        <trkpt lat="29.7707705" lon="103.4342497"><ele>1002.06</ele><time>2026-03-11T23:26:57.000Z</time></trkpt>
        <trkpt lat="29.770816" lon="103.4342913"><ele>1001.88</ele><time>2026-03-11T23:27:03.000Z</time></trkpt>
        <trkpt lat="29.7708588" lon="103.4343415"><ele>1001.6</ele><time>2026-03-11T23:27:09.000Z</time></trkpt>
        <trkpt lat="29.7709073" lon="103.4343902"><ele>1001.46</ele><time>2026-03-11T23:27:15.000Z</time></trkpt>
        <trkpt lat="29.7709458" lon="103.4344305"><ele>1001.27</ele><time>2026-03-11T23:27:19.000Z</time></trkpt>
        <trkpt lat="29.770988" lon="103.4344538"><ele>1001</ele><time>2026-03-11T23:27:23.000Z</time></trkpt>
        <trkpt lat="29.7710442" lon="103.4344714"><ele>1000.88</ele><time>2026-03-11T23:27:29.000Z</time></trkpt>
        <trkpt lat="29.7710939" lon="103.4344831"><ele>1000.55</ele><time>2026-03-11T23:27:33.000Z</time></trkpt>
        <trkpt lat="29.7711398" lon="103.4344931"><ele>1000.07</ele><time>2026-03-11T23:27:37.000Z</time></trkpt>
        <trkpt lat="29.7711861" lon="103.4344965"><ele>999.51</ele><time>2026-03-11T23:27:41.000Z</time></trkpt>
        <trkpt lat="29.7712322" lon="103.4344986"><ele>999.1</ele><time>2026-03-11T23:27:45.000Z</time></trkpt>
        <trkpt lat="29.7712785" lon="103.4344973"><ele>998.73</ele><time>2026-03-11T23:27:49.000Z</time></trkpt>
        <trkpt lat="29.7713267" lon="103.4344826"><ele>998.06</ele><time>2026-03-11T23:27:53.000Z</time></trkpt>
        <trkpt lat="29.7713809" lon="103.4344486"><ele>997.34</ele><time>2026-03-11T23:27:59.000Z</time></trkpt>
        <trkpt lat="29.7714263" lon="103.4344185"><ele>996.5</ele><time>2026-03-11T23:28:03.000Z</time></trkpt>
        <trkpt lat="29.7714668" lon="103.4343796"><ele>995.48</ele><time>2026-03-11T23:28:09.000Z</time></trkpt>
        <trkpt lat="29.7715215" lon="103.4343658"><ele>994.23</ele><time>2026-03-11T23:28:15.000Z</time></trkpt>
        <trkpt lat="29.7715801" lon="103.4343641"><ele>992.44</ele><time>2026-03-11T23:28:21.000Z</time></trkpt>
        <trkpt lat="29.7716372" lon="103.4343805"><ele>990.38</ele><time>2026-03-11T23:28:27.000Z</time></trkpt>
        <trkpt lat="29.7716838" lon="103.4344074"><ele>988.84</ele><time>2026-03-11T23:28:33.000Z</time></trkpt>
        <trkpt lat="29.7717406" lon="103.4344185"><ele>987.59</ele><time>2026-03-11T23:28:39.000Z</time></trkpt>
        <trkpt lat="29.7718023" lon="103.4344195"><ele>985.45</ele><time>2026-03-11T23:28:45.000Z</time></trkpt>
        <trkpt lat="29.7718688" lon="103.4344236"><ele>983.73</ele><time>2026-03-11T23:28:51.000Z</time></trkpt>
        <trkpt lat="29.771921" lon="103.4344132"><ele>983.42</ele><time>2026-03-11T23:28:55.000Z</time></trkpt>
        <trkpt lat="29.7719658" lon="103.4343988"><ele>982.69</ele><time>2026-03-11T23:29:01.000Z</time></trkpt>
        <trkpt lat="29.7720136" lon="103.4343721"><ele>981.7</ele><time>2026-03-11T23:29:21.000Z</time></trkpt>
        <trkpt lat="29.772066" lon="103.4343332"><ele>981.01</ele><time>2026-03-11T23:29:27.000Z</time></trkpt>
        <trkpt lat="29.7721098" lon="103.4342914"><ele>980.35</ele><time>2026-03-11T23:29:31.000Z</time></trkpt>
        <trkpt lat="29.772162" lon="103.4342564"><ele>979.48</ele><time>2026-03-11T23:29:37.000Z</time></trkpt>
        <trkpt lat="29.7722094" lon="103.434225"><ele>978.86</ele><time>2026-03-11T23:29:43.000Z</time></trkpt>
        <trkpt lat="29.7722518" lon="103.4341877"><ele>978.37</ele><time>2026-03-11T23:29:49.000Z</time></trkpt>
        <trkpt lat="29.7723045" lon="103.4341768"><ele>977.34</ele><time>2026-03-11T23:29:57.000Z</time></trkpt>
        <trkpt lat="29.7723671" lon="103.4341645"><ele>976.23</ele><time>2026-03-11T23:30:03.000Z</time></trkpt>
        <trkpt lat="29.7724161" lon="103.4341497"><ele>975.63</ele><time>2026-03-11T23:30:07.000Z</time></trkpt>
        <trkpt lat="29.7724489" lon="103.4341159"><ele>974.79</ele><time>2026-03-11T23:30:13.000Z</time></trkpt>
        <trkpt lat="29.7724767" lon="103.4340658"><ele>974.1</ele><time>2026-03-11T23:30:21.000Z</time></trkpt>
        <trkpt lat="29.772507" lon="103.4340232"><ele>973.03</ele><time>2026-03-11T23:30:27.000Z</time></trkpt>
        <trkpt lat="29.7725493" lon="103.4339867"><ele>971.9</ele><time>2026-03-11T23:30:33.000Z</time></trkpt>
        <trkpt lat="29.7725948" lon="103.4339385"><ele>970.85</ele><time>2026-03-11T23:30:39.000Z</time></trkpt>
        <trkpt lat="29.7726319" lon="103.4338964"><ele>969.42</ele><time>2026-03-11T23:30:43.000Z</time></trkpt>
        <trkpt lat="29.7726821" lon="103.4338661"><ele>968.18</ele><time>2026-03-11T23:30:49.000Z</time></trkpt>
        <trkpt lat="29.772734" lon="103.4338305"><ele>967.12</ele><time>2026-03-11T23:30:55.000Z</time></trkpt>
        <trkpt lat="29.7727843" lon="103.4337954"><ele>966.02</ele><time>2026-03-11T23:31:01.000Z</time></trkpt>
        <trkpt lat="29.7728373" lon="103.4337608"><ele>964.11</ele><time>2026-03-11T23:31:09.000Z</time></trkpt>
        <trkpt lat="29.772894" lon="103.4337292"><ele>961.85</ele><time>2026-03-11T23:31:15.000Z</time></trkpt>
        <trkpt lat="29.7729382" lon="103.4336857"><ele>959.65</ele><time>2026-03-11T23:31:21.000Z</time></trkpt>
        <trkpt lat="29.7729838" lon="103.4336432"><ele>957.49</ele><time>2026-03-11T23:31:27.000Z</time></trkpt>
        <trkpt lat="29.7730313" lon="103.4336391"><ele>955.45</ele><time>2026-03-11T23:31:31.000Z</time></trkpt>
        <trkpt lat="29.7730766" lon="103.4336612"><ele>954.25</ele><time>2026-03-11T23:31:35.000Z</time></trkpt>
        <trkpt lat="29.7731169" lon="103.4336927"><ele>953.27</ele><time>2026-03-11T23:31:39.000Z</time></trkpt>
        <trkpt lat="29.7731643" lon="103.433738"><ele>952.77</ele><time>2026-03-11T23:31:45.000Z</time></trkpt>
        <trkpt lat="29.7732193" lon="103.4337562"><ele>953.19</ele><time>2026-03-11T23:31:51.000Z</time></trkpt>
        <trkpt lat="29.7732762" lon="103.433772"><ele>953.92</ele><time>2026-03-11T23:31:57.000Z</time></trkpt>
        <trkpt lat="29.7733276" lon="103.4337965"><ele>954.83</ele><time>2026-03-11T23:32:03.000Z</time></trkpt>
        <trkpt lat="29.7733887" lon="103.4338119"><ele>953.85</ele><time>2026-03-11T23:32:09.000Z</time></trkpt>
        <trkpt lat="29.7734465" lon="103.4338133"><ele>951.04</ele><time>2026-03-11T23:32:15.000Z</time></trkpt>
        <trkpt lat="29.7734987" lon="103.4337982"><ele>948.81</ele><time>2026-03-11T23:32:23.000Z</time></trkpt>
        <trkpt lat="29.7735463" lon="103.4338035"><ele>946.71</ele><time>2026-03-11T23:32:29.000Z</time></trkpt>
        <trkpt lat="29.7736052" lon="103.4338317"><ele>945.55</ele><time>2026-03-11T23:32:35.000Z</time></trkpt>
        <trkpt lat="29.7736527" lon="103.4338598"><ele>945.01</ele><time>2026-03-11T23:32:39.000Z</time></trkpt>
        <trkpt lat="29.773711" lon="103.433865"><ele>944.69</ele><time>2026-03-11T23:32:45.000Z</time></trkpt>
        <trkpt lat="29.77376" lon="103.4338539"><ele>944.11</ele><time>2026-03-11T23:32:49.000Z</time></trkpt>
        <trkpt lat="29.7738053" lon="103.433837"><ele>943.49</ele><time>2026-03-11T23:32:53.000Z</time></trkpt>
        <trkpt lat="29.7738506" lon="103.4338208"><ele>942.82</ele><time>2026-03-11T23:32:57.000Z</time></trkpt>
        <trkpt lat="29.7739018" lon="103.4338034"><ele>941.61</ele><time>2026-03-11T23:33:01.000Z</time></trkpt>
        <trkpt lat="29.7739466" lon="103.4337791"><ele>940.38</ele><time>2026-03-11T23:33:05.000Z</time></trkpt>
        <trkpt lat="29.7740013" lon="103.4337465"><ele>939.54</ele><time>2026-03-11T23:33:11.000Z</time></trkpt>
        <trkpt lat="29.7740127" lon="103.433737"><ele>939.18</ele><time>2026-03-11T23:33:13.000Z</time></trkpt>
        <trkpt lat="29.7740127" lon="103.433737"><ele>939.18</ele><time>2026-03-11T23:33:22.000Z</time></trkpt>
        <trkpt lat="29.7740388" lon="103.4337117"><ele>938.73</ele><time>2026-03-11T23:33:31.000Z</time></trkpt>
        <trkpt lat="29.7740388" lon="103.4337117"><ele>938.73</ele><time>2026-03-11T23:33:34.000Z</time></trkpt>
        <trkpt lat="29.7740845" lon="103.4336799"><ele>939.89</ele><time>2026-03-11T23:33:38.000Z</time></trkpt>
        <trkpt lat="29.7741404" lon="103.4336523"><ele>941.28</ele><time>2026-03-11T23:33:44.000Z</time></trkpt>
        <trkpt lat="29.774196" lon="103.4336233"><ele>939.86</ele><time>2026-03-11T23:33:50.000Z</time></trkpt>
        <trkpt lat="29.7742557" lon="103.4335957"><ele>938.4</ele><time>2026-03-11T23:33:56.000Z</time></trkpt>
        <trkpt lat="29.7743066" lon="103.4335779"><ele>937.1</ele><time>2026-03-11T23:34:00.000Z</time></trkpt>
        <trkpt lat="29.7743552" lon="103.4335616"><ele>935.94</ele><time>2026-03-11T23:34:04.000Z</time></trkpt>
        <trkpt lat="29.7744027" lon="103.4335346"><ele>934.57</ele><time>2026-03-11T23:34:08.000Z</time></trkpt>
        <trkpt lat="29.774462" lon="103.4334914"><ele>932.33</ele><time>2026-03-11T23:34:12.000Z</time></trkpt>
        <trkpt lat="29.7745324" lon="103.4334359"><ele>928.6</ele><time>2026-03-11T23:34:16.000Z</time></trkpt>
        <trkpt lat="29.7746162" lon="103.4333893"><ele>927.28</ele><time>2026-03-11T23:34:20.000Z</time></trkpt>
        <trkpt lat="29.7746737" lon="103.4333584"><ele>926.49</ele><time>2026-03-11T23:34:22.000Z</time></trkpt>
        <trkpt lat="29.7747229" lon="103.4333295"><ele>925.12</ele><time>2026-03-11T23:34:24.000Z</time></trkpt>
        <trkpt lat="29.7747668" lon="103.433298"><ele>923.96</ele><time>2026-03-11T23:34:26.000Z</time></trkpt>
        <trkpt lat="29.774805" lon="103.4332673"><ele>922.03</ele><time>2026-03-11T23:34:28.000Z</time></trkpt>
        <trkpt lat="29.7748483" lon="103.4332348"><ele>920.66</ele><time>2026-03-11T23:34:30.000Z</time></trkpt>
        <trkpt lat="29.7748941" lon="103.4331972"><ele>919.14</ele><time>2026-03-11T23:34:32.000Z</time></trkpt>
        <trkpt lat="29.7749409" lon="103.4331538"><ele>918.58</ele><time>2026-03-11T23:34:34.000Z</time></trkpt>
        <trkpt lat="29.7749802" lon="103.433115"><ele>917.91</ele><time>2026-03-11T23:34:36.000Z</time></trkpt>
        <trkpt lat="29.7750031" lon="103.4330951"><ele>916.54</ele><time>2026-03-11T23:34:38.000Z</time></trkpt>
        <trkpt lat="29.7750559" lon="103.4330749"><ele>916.23</ele><time>2026-03-11T23:34:48.000Z</time></trkpt>
        <trkpt lat="29.7750817" lon="103.4330702"><ele>917.02</ele><time>2026-03-11T23:34:50.000Z</time></trkpt>
        <trkpt lat="29.7751313" lon="103.4330524"><ele>917</ele><time>2026-03-11T23:35:14.000Z</time></trkpt>
        <trkpt lat="29.7751854" lon="103.4330438"><ele>916.35</ele><time>2026-03-11T23:35:20.000Z</time></trkpt>
        <trkpt lat="29.7752452" lon="103.4330372"><ele>915.75</ele><time>2026-03-11T23:35:26.000Z</time></trkpt>
        <trkpt lat="29.7752956" lon="103.4330316"><ele>914.67</ele><time>2026-03-11T23:35:30.000Z</time></trkpt>
        <trkpt lat="29.7753533" lon="103.4330391"><ele>913.97</ele><time>2026-03-11T23:35:36.000Z</time></trkpt>
        <trkpt lat="29.7754134" lon="103.4330401"><ele>913.2</ele><time>2026-03-11T23:35:42.000Z</time></trkpt>
        <trkpt lat="29.7754624" lon="103.4330343"><ele>912.45</ele><time>2026-03-11T23:35:46.000Z</time></trkpt>
        <trkpt lat="29.775508" lon="103.4330264"><ele>911.52</ele><time>2026-03-11T23:35:50.000Z</time></trkpt>
        <trkpt lat="29.7755533" lon="103.4330163"><ele>910.49</ele><time>2026-03-11T23:35:54.000Z</time></trkpt>
        <trkpt lat="29.7756001" lon="103.4330043"><ele>909.39</ele><time>2026-03-11T23:35:58.000Z</time></trkpt>
        <trkpt lat="29.7756547" lon="103.4329957"><ele>908.37</ele><time>2026-03-11T23:36:02.000Z</time></trkpt>
        <trkpt lat="29.7757243" lon="103.4329947"><ele>907.23</ele><time>2026-03-11T23:36:06.000Z</time></trkpt>
        <trkpt lat="29.775807" lon="103.4329852"><ele>905.35</ele><time>2026-03-11T23:36:10.000Z</time></trkpt>
        <trkpt lat="29.7758849" lon="103.4329696"><ele>903.16</ele><time>2026-03-11T23:36:14.000Z</time></trkpt>
        <trkpt lat="29.7759582" lon="103.4329563"><ele>900.29</ele><time>2026-03-11T23:36:18.000Z</time></trkpt>
        <trkpt lat="29.7760253" lon="103.4329483"><ele>898.64</ele><time>2026-03-11T23:36:22.000Z</time></trkpt>
        <trkpt lat="29.7760888" lon="103.4329514"><ele>898.48</ele><time>2026-03-11T23:36:26.000Z</time></trkpt>
        <trkpt lat="29.7761454" lon="103.4329563"><ele>898.32</ele><time>2026-03-11T23:36:30.000Z</time></trkpt>
        <trkpt lat="29.7761942" lon="103.4329539"><ele>898.04</ele><time>2026-03-11T23:36:34.000Z</time></trkpt>
        <trkpt lat="29.7762413" lon="103.4329536"><ele>897.92</ele><time>2026-03-11T23:36:38.000Z</time></trkpt>
        <trkpt lat="29.7762953" lon="103.4329553"><ele>897.55</ele><time>2026-03-11T23:36:42.000Z</time></trkpt>
        <trkpt lat="29.7763549" lon="103.4329621"><ele>897.13</ele><time>2026-03-11T23:36:46.000Z</time></trkpt>
        <trkpt lat="29.7764102" lon="103.4329636"><ele>896.35</ele><time>2026-03-11T23:36:50.000Z</time></trkpt>
        <trkpt lat="29.7764631" lon="103.4329609"><ele>895.63</ele><time>2026-03-11T23:36:54.000Z</time></trkpt>
        <trkpt lat="29.7765165" lon="103.4329424"><ele>894.76</ele><time>2026-03-11T23:36:58.000Z</time></trkpt>
        <trkpt lat="29.7765638" lon="103.4329049"><ele>893.92</ele><time>2026-03-11T23:37:02.000Z</time></trkpt>
        <trkpt lat="29.7766057" lon="103.4328639"><ele>893.32</ele><time>2026-03-11T23:37:06.000Z</time></trkpt>
        <trkpt lat="29.7766461" lon="103.432828"><ele>892.67</ele><time>2026-03-11T23:37:10.000Z</time></trkpt>
        <trkpt lat="29.7766888" lon="103.432794"><ele>892.16</ele><time>2026-03-11T23:37:14.000Z</time></trkpt>
        <trkpt lat="29.7767387" lon="103.4327651"><ele>891.8</ele><time>2026-03-11T23:37:18.000Z</time></trkpt>
        <trkpt lat="29.7767993" lon="103.4327534"><ele>890.78</ele><time>2026-03-11T23:37:22.000Z</time></trkpt>
        <trkpt lat="29.7768618" lon="103.4327419"><ele>890.55</ele><time>2026-03-11T23:37:26.000Z</time></trkpt>
        <trkpt lat="29.7769186" lon="103.4327205"><ele>890.11</ele><time>2026-03-11T23:37:30.000Z</time></trkpt>
        <trkpt lat="29.7769681" lon="103.4326939"><ele>889.47</ele><time>2026-03-11T23:37:34.000Z</time></trkpt>
        <trkpt lat="29.7770284" lon="103.4326731"><ele>888.44</ele><time>2026-03-11T23:37:40.000Z</time></trkpt>
        <trkpt lat="29.7770542" lon="103.4326781"><ele>887.7</ele><time>2026-03-11T23:37:46.000Z</time></trkpt>
        <trkpt lat="29.7771054" lon="103.4326632"><ele>887.57</ele><time>2026-03-11T23:37:58.000Z</time></trkpt>
        <trkpt lat="29.777158" lon="103.4326506"><ele>886.65</ele><time>2026-03-11T23:38:02.000Z</time></trkpt>
        <trkpt lat="29.7772179" lon="103.4326376"><ele>885.58</ele><time>2026-03-11T23:38:06.000Z</time></trkpt>
        <trkpt lat="29.7772792" lon="103.4326188"><ele>884.89</ele><time>2026-03-11T23:38:10.000Z</time></trkpt>
        <trkpt lat="29.7773362" lon="103.4325896"><ele>883.85</ele><time>2026-03-11T23:38:18.000Z</time></trkpt>
        <trkpt lat="29.7773869" lon="103.4325643"><ele>882.87</ele><time>2026-03-11T23:38:22.000Z</time></trkpt>
        <trkpt lat="29.7774369" lon="103.432552"><ele>882.25</ele><time>2026-03-11T23:38:26.000Z</time></trkpt>
        <trkpt lat="29.7774862" lon="103.4325514"><ele>881.56</ele><time>2026-03-11T23:38:30.000Z</time></trkpt>
        <trkpt lat="29.7775454" lon="103.4325448"><ele>881.24</ele><time>2026-03-11T23:38:34.000Z</time></trkpt>
        <trkpt lat="29.7776163" lon="103.4325271"><ele>880.14</ele><time>2026-03-11T23:38:38.000Z</time></trkpt>
        <trkpt lat="29.7776844" lon="103.4325"><ele>878.83</ele><time>2026-03-11T23:38:42.000Z</time></trkpt>
        <trkpt lat="29.7777415" lon="103.4324678"><ele>877.36</ele><time>2026-03-11T23:38:46.000Z</time></trkpt>
        <trkpt lat="29.7777895" lon="103.432444"><ele>875.76</ele><time>2026-03-11T23:38:50.000Z</time></trkpt>
        <trkpt lat="29.7778346" lon="103.4324273"><ele>874.98</ele><time>2026-03-11T23:38:54.000Z</time></trkpt>
        <trkpt lat="29.7778783" lon="103.4324016"><ele>874.33</ele><time>2026-03-11T23:38:58.000Z</time></trkpt>
        <trkpt lat="29.7779234" lon="103.4323727"><ele>873.29</ele><time>2026-03-11T23:39:02.000Z</time></trkpt>
        <trkpt lat="29.7779602" lon="103.4323681"><ele>872.29</ele><time>2026-03-11T23:39:08.000Z</time></trkpt>
        <trkpt lat="29.7780045" lon="103.4323657"><ele>872.09</ele><time>2026-03-11T23:39:20.000Z</time></trkpt>
        <trkpt lat="29.7780587" lon="103.4323521"><ele>872.25</ele><time>2026-03-11T23:39:26.000Z</time></trkpt>
        <trkpt lat="29.7781218" lon="103.4323484"><ele>871.63</ele><time>2026-03-11T23:39:32.000Z</time></trkpt>
        <trkpt lat="29.7781904" lon="103.4323472"><ele>870.65</ele><time>2026-03-11T23:39:38.000Z</time></trkpt>
        <trkpt lat="29.7782458" lon="103.4323466"><ele>870.11</ele><time>2026-03-11T23:39:42.000Z</time></trkpt>
        <trkpt lat="29.7782985" lon="103.4323467"><ele>869.44</ele><time>2026-03-11T23:39:46.000Z</time></trkpt>
        <trkpt lat="29.7783513" lon="103.4323503"><ele>868.63</ele><time>2026-03-11T23:39:50.000Z</time></trkpt>
        <trkpt lat="29.7784055" lon="103.4323539"><ele>867.79</ele><time>2026-03-11T23:39:54.000Z</time></trkpt>
        <trkpt lat="29.7784586" lon="103.4323482"><ele>866.92</ele><time>2026-03-11T23:39:58.000Z</time></trkpt>
        <trkpt lat="29.778513" lon="103.4323382"><ele>866.34</ele><time>2026-03-11T23:40:02.000Z</time></trkpt>
        <trkpt lat="29.7785655" lon="103.4323206"><ele>865.58</ele><time>2026-03-11T23:40:06.000Z</time></trkpt>
        <trkpt lat="29.7786155" lon="103.4322972"><ele>864.36</ele><time>2026-03-11T23:40:10.000Z</time></trkpt>
        <trkpt lat="29.778666" lon="103.4322907"><ele>863.7</ele><time>2026-03-11T23:40:14.000Z</time></trkpt>
        <trkpt lat="29.7787123" lon="103.432282"><ele>862.29</ele><time>2026-03-11T23:40:18.000Z</time></trkpt>
        <trkpt lat="29.7787582" lon="103.4322743"><ele>860.72</ele><time>2026-03-11T23:40:22.000Z</time></trkpt>
        <trkpt lat="29.7788204" lon="103.4322613"><ele>859.34</ele><time>2026-03-11T23:40:28.000Z</time></trkpt>
        <trkpt lat="29.7788726" lon="103.4322587"><ele>857.62</ele><time>2026-03-11T23:40:32.000Z</time></trkpt>
        <trkpt lat="29.7789217" lon="103.4322458"><ele>856.32</ele><time>2026-03-11T23:40:36.000Z</time></trkpt>
        <trkpt lat="29.7789658" lon="103.4322267"><ele>855.26</ele><time>2026-03-11T23:40:40.000Z</time></trkpt>
        <trkpt lat="29.7790059" lon="103.432199"><ele>854.28</ele><time>2026-03-11T23:40:44.000Z</time></trkpt>
        <trkpt lat="29.7790459" lon="103.4321713"><ele>853.33</ele><time>2026-03-11T23:40:48.000Z</time></trkpt>
        <trkpt lat="29.7790838" lon="103.4321407"><ele>852.64</ele><time>2026-03-11T23:40:52.000Z</time></trkpt>
        <trkpt lat="29.7791133" lon="103.4320963"><ele>851.65</ele><time>2026-03-11T23:40:56.000Z</time></trkpt>
        <trkpt lat="29.7791454" lon="103.4321169"><ele>850.93</ele><time>2026-03-11T23:41:02.000Z</time></trkpt>
        <trkpt lat="29.7791272" lon="103.4321719"><ele>850.39</ele><time>2026-03-11T23:41:06.000Z</time></trkpt>
        <trkpt lat="29.779086" lon="103.4322287"><ele>850.69</ele><time>2026-03-11T23:41:10.000Z</time></trkpt>
        <trkpt lat="29.7790558" lon="103.4322827"><ele>851.39</ele><time>2026-03-11T23:41:14.000Z</time></trkpt>
        <trkpt lat="29.7790575" lon="103.4323065"><ele>852.71</ele><time>2026-03-11T23:41:16.000Z</time></trkpt>
        <trkpt lat="29.7790359" lon="103.4323502"><ele>853.35</ele><time>2026-03-11T23:41:24.000Z</time></trkpt>
        <trkpt lat="29.7790357" lon="103.4324023"><ele>854.15</ele><time>2026-03-11T23:41:28.000Z</time></trkpt>
        <trkpt lat="29.779064" lon="103.4324421"><ele>854.47</ele><time>2026-03-11T23:41:32.000Z</time></trkpt>
        <trkpt lat="29.7791158" lon="103.432475"><ele>854.09</ele><time>2026-03-11T23:41:38.000Z</time></trkpt>
        <trkpt lat="29.7791753" lon="103.43251"><ele>853.32</ele><time>2026-03-11T23:41:44.000Z</time></trkpt>
        <trkpt lat="29.7792231" lon="103.4325646"><ele>852.61</ele><time>2026-03-11T23:41:50.000Z</time></trkpt>
        <trkpt lat="29.7792322" lon="103.4326296"><ele>851.96</ele><time>2026-03-11T23:41:56.000Z</time></trkpt>
        <trkpt lat="29.7792014" lon="103.4326857"><ele>851.13</ele><time>2026-03-11T23:42:02.000Z</time></trkpt>
        <trkpt lat="29.7791553" lon="103.4327435"><ele>849.59</ele><time>2026-03-11T23:42:08.000Z</time></trkpt>
        <trkpt lat="29.779124" lon="103.4327934"><ele>848.02</ele><time>2026-03-11T23:42:12.000Z</time></trkpt>
        <trkpt lat="29.7791082" lon="103.4328454"><ele>846.89</ele><time>2026-03-11T23:42:16.000Z</time></trkpt>
        <trkpt lat="29.7791192" lon="103.4329003"><ele>846.09</ele><time>2026-03-11T23:42:20.000Z</time></trkpt>
        <trkpt lat="29.7791664" lon="103.4329352"><ele>845.99</ele><time>2026-03-11T23:42:26.000Z</time></trkpt>
        <trkpt lat="29.7792291" lon="103.4329442"><ele>846.4</ele><time>2026-03-11T23:42:32.000Z</time></trkpt>
        <trkpt lat="29.7792991" lon="103.4329486"><ele>846.53</ele><time>2026-03-11T23:42:38.000Z</time></trkpt>
        <trkpt lat="29.7793604" lon="103.4329642"><ele>846.34</ele><time>2026-03-11T23:42:44.000Z</time></trkpt>
        <trkpt lat="29.7794046" lon="103.4329954"><ele>846.06</ele><time>2026-03-11T23:42:48.000Z</time></trkpt>
        <trkpt lat="29.7794409" lon="103.4330356"><ele>845.73</ele><time>2026-03-11T23:42:52.000Z</time></trkpt>
        <trkpt lat="29.7794649" lon="103.4330859"><ele>845.76</ele><time>2026-03-11T23:42:56.000Z</time></trkpt>
        <trkpt lat="29.7794813" lon="103.4331396"><ele>845.54</ele><time>2026-03-11T23:43:00.000Z</time></trkpt>
        <trkpt lat="29.7794866" lon="103.4331943"><ele>845.28</ele><time>2026-03-11T23:43:04.000Z</time></trkpt>
        <trkpt lat="29.7794764" lon="103.4332475"><ele>845.04</ele><time>2026-03-11T23:43:08.000Z</time></trkpt>
        <trkpt lat="29.7794599" lon="103.4333034"><ele>844.98</ele><time>2026-03-11T23:43:12.000Z</time></trkpt>
        <trkpt lat="29.779437" lon="103.433357"><ele>845.03</ele><time>2026-03-11T23:43:16.000Z</time></trkpt>
        <trkpt lat="29.7794084" lon="103.4334208"><ele>845.8</ele><time>2026-03-11T23:43:22.000Z</time></trkpt>
        <trkpt lat="29.7794074" lon="103.4334864"><ele>845.53</ele><time>2026-03-11T23:43:26.000Z</time></trkpt>
        <trkpt lat="29.7794323" lon="103.43355"><ele>845.59</ele><time>2026-03-11T23:43:30.000Z</time></trkpt>
        <trkpt lat="29.7794818" lon="103.4335948"><ele>845.78</ele><time>2026-03-11T23:43:34.000Z</time></trkpt>
        <trkpt lat="29.7795382" lon="103.433599"><ele>846.61</ele><time>2026-03-11T23:43:38.000Z</time></trkpt>
        <trkpt lat="29.7795255" lon="103.4335609"><ele>847.4</ele><time>2026-03-11T23:43:42.000Z</time></trkpt>
        <trkpt lat="29.7795553" lon="103.4335509"><ele>849.58</ele><time>2026-03-11T23:43:46.000Z</time></trkpt>
        <trkpt lat="29.7795968" lon="103.4335237"><ele>852.05</ele><time>2026-03-11T23:43:50.000Z</time></trkpt>
        <trkpt lat="29.7796468" lon="103.4335269"><ele>852.8</ele><time>2026-03-11T23:43:54.000Z</time></trkpt>
        <trkpt lat="29.7796554" lon="103.4335396"><ele>852.54</ele><time>2026-03-11T23:43:56.000Z</time></trkpt>
        <trkpt lat="29.7796914" lon="103.4335147"><ele>852.25</ele><time>2026-03-11T23:44:02.000Z</time></trkpt>
        <trkpt lat="29.7797295" lon="103.4334589"><ele>851.13</ele><time>2026-03-11T23:44:08.000Z</time></trkpt>
        <trkpt lat="29.7797704" lon="103.4334024"><ele>849.53</ele><time>2026-03-11T23:44:14.000Z</time></trkpt>
        <trkpt lat="29.779821" lon="103.4333637"><ele>849.29</ele><time>2026-03-11T23:44:20.000Z</time></trkpt>
        <trkpt lat="29.7798513" lon="103.4333124"><ele>849.71</ele><time>2026-03-11T23:44:26.000Z</time></trkpt>
        <trkpt lat="29.7798914" lon="103.4333101"><ele>846.81</ele><time>2026-03-11T23:44:30.000Z</time></trkpt>
        <trkpt lat="29.7799343" lon="103.433335"><ele>846.37</ele><time>2026-03-11T23:44:34.000Z</time></trkpt>
        <trkpt lat="29.7799733" lon="103.4333696"><ele>846.05</ele><time>2026-03-11T23:44:38.000Z</time></trkpt>
        <trkpt lat="29.780011" lon="103.4334111"><ele>845.29</ele><time>2026-03-11T23:44:42.000Z</time></trkpt>
        <trkpt lat="29.7800514" lon="103.4334462"><ele>844.1</ele><time>2026-03-11T23:44:46.000Z</time></trkpt>
        <trkpt lat="29.7800948" lon="103.4334716"><ele>843.19</ele><time>2026-03-11T23:44:50.000Z</time></trkpt>
        <trkpt lat="29.7801408" lon="103.4334835"><ele>843.54</ele><time>2026-03-11T23:44:54.000Z</time></trkpt>
        <trkpt lat="29.7801904" lon="103.4334695"><ele>844.38</ele><time>2026-03-11T23:44:58.000Z</time></trkpt>
        <trkpt lat="29.7802472" lon="103.4334715"><ele>844.31</ele><time>2026-03-11T23:45:02.000Z</time></trkpt>
        <trkpt lat="29.7803034" lon="103.4334849"><ele>845.04</ele><time>2026-03-11T23:45:06.000Z</time></trkpt>
        <trkpt lat="29.780362" lon="103.4335022"><ele>842.74</ele><time>2026-03-11T23:45:12.000Z</time></trkpt>
        <trkpt lat="29.7804174" lon="103.4335044"><ele>840.22</ele><time>2026-03-11T23:45:18.000Z</time></trkpt>
        <trkpt lat="29.7804759" lon="103.4334938"><ele>838.57</ele><time>2026-03-11T23:45:24.000Z</time></trkpt>
        <trkpt lat="29.780525" lon="103.433486"><ele>836.32</ele><time>2026-03-11T23:45:28.000Z</time></trkpt>
        <trkpt lat="29.7805464" lon="103.4334801"><ele>835.85</ele><time>2026-03-11T23:45:32.000Z</time></trkpt>
        <trkpt lat="29.7805972" lon="103.4334761"><ele>835.6</ele><time>2026-03-11T23:45:44.000Z</time></trkpt>
        <trkpt lat="29.7806501" lon="103.4334858"><ele>837.56</ele><time>2026-03-11T23:45:48.000Z</time></trkpt>
        <trkpt lat="29.7807056" lon="103.43352"><ele>838.7</ele><time>2026-03-11T23:45:54.000Z</time></trkpt>
        <trkpt lat="29.7807515" lon="103.4335532"><ele>840.05</ele><time>2026-03-11T23:45:58.000Z</time></trkpt>
        <trkpt lat="29.7807947" lon="103.4335762"><ele>843.04</ele><time>2026-03-11T23:46:02.000Z</time></trkpt>
        <trkpt lat="29.7808408" lon="103.4335995"><ele>845.51</ele><time>2026-03-11T23:46:06.000Z</time></trkpt>
        <trkpt lat="29.780885" lon="103.4336226"><ele>848.93</ele><time>2026-03-11T23:46:10.000Z</time></trkpt>
        <trkpt lat="29.780934" lon="103.4336637"><ele>850.76</ele><time>2026-03-11T23:46:16.000Z</time></trkpt>
        <trkpt lat="29.7809828" lon="103.4336791"><ele>852.22</ele><time>2026-03-11T23:46:20.000Z</time></trkpt>
        <trkpt lat="29.7810335" lon="103.4336711"><ele>853.01</ele><time>2026-03-11T23:46:24.000Z</time></trkpt>
        <trkpt lat="29.781085" lon="103.4336604"><ele>853.97</ele><time>2026-03-11T23:46:28.000Z</time></trkpt>
        <trkpt lat="29.7811365" lon="103.4336355"><ele>854.4</ele><time>2026-03-11T23:46:32.000Z</time></trkpt>
        <trkpt lat="29.7811895" lon="103.4336412"><ele>854.53</ele><time>2026-03-11T23:46:38.000Z</time></trkpt>
        <trkpt lat="29.781237" lon="103.4336469"><ele>855.33</ele><time>2026-03-11T23:46:42.000Z</time></trkpt>
        <trkpt lat="29.781294" lon="103.4336517"><ele>855.25</ele><time>2026-03-11T23:46:48.000Z</time></trkpt>
        <trkpt lat="29.7813549" lon="103.4336402"><ele>855.39</ele><time>2026-03-11T23:46:54.000Z</time></trkpt>
        <trkpt lat="29.7814125" lon="103.4336033"><ele>855.7</ele><time>2026-03-11T23:47:00.000Z</time></trkpt>
        <trkpt lat="29.7814584" lon="103.4335658"><ele>854.67</ele><time>2026-03-11T23:47:04.000Z</time></trkpt>
        <trkpt lat="29.7815008" lon="103.4335342"><ele>855.56</ele><time>2026-03-11T23:47:10.000Z</time></trkpt>
        <trkpt lat="29.7815431" lon="103.4334924"><ele>857.64</ele><time>2026-03-11T23:47:16.000Z</time></trkpt>
        <trkpt lat="29.7816012" lon="103.4334895"><ele>858.72</ele><time>2026-03-11T23:47:22.000Z</time></trkpt>
        <trkpt lat="29.781658" lon="103.4334709"><ele>860.2</ele><time>2026-03-11T23:47:32.000Z</time></trkpt>
        <trkpt lat="29.7817168" lon="103.4334665"><ele>860.61</ele><time>2026-03-11T23:47:38.000Z</time></trkpt>
        <trkpt lat="29.7817791" lon="103.4334631"><ele>860.39</ele><time>2026-03-11T23:47:44.000Z</time></trkpt>
        <trkpt lat="29.7818404" lon="103.4334454"><ele>858.65</ele><time>2026-03-11T23:47:50.000Z</time></trkpt>
        <trkpt lat="29.7818934" lon="103.4334237"><ele>857.04</ele><time>2026-03-11T23:47:54.000Z</time></trkpt>
        <trkpt lat="29.7819542" lon="103.433411"><ele>856.7</ele><time>2026-03-11T23:48:00.000Z</time></trkpt>
        <trkpt lat="29.7820006" lon="103.433389"><ele>856.35</ele><time>2026-03-11T23:48:04.000Z</time></trkpt>
        <trkpt lat="29.7820543" lon="103.4333679"><ele>855.02</ele><time>2026-03-11T23:48:10.000Z</time></trkpt>
        <trkpt lat="29.7821093" lon="103.4333294"><ele>853.28</ele><time>2026-03-11T23:48:16.000Z</time></trkpt>
        <trkpt lat="29.7821655" lon="103.4332891"><ele>851.84</ele><time>2026-03-11T23:48:22.000Z</time></trkpt>
        <trkpt lat="29.7822188" lon="103.4332742"><ele>850.62</ele><time>2026-03-11T23:48:26.000Z</time></trkpt>
        <trkpt lat="29.7822691" lon="103.433249"><ele>849.02</ele><time>2026-03-11T23:48:30.000Z</time></trkpt>
        <trkpt lat="29.7823006" lon="103.4332027"><ele>846.64</ele><time>2026-03-11T23:48:34.000Z</time></trkpt>
        <trkpt lat="29.7823457" lon="103.4331677"><ele>845.14</ele><time>2026-03-11T23:48:38.000Z</time></trkpt>
        <trkpt lat="29.7823988" lon="103.4331475"><ele>842.81</ele><time>2026-03-11T23:48:42.000Z</time></trkpt>
        <trkpt lat="29.7824512" lon="103.4331274"><ele>840.52</ele><time>2026-03-11T23:48:46.000Z</time></trkpt>
        <trkpt lat="29.7824345" lon="103.4331385"><ele>838.34</ele><time>2026-03-11T23:48:52.000Z</time></trkpt>
        <trkpt lat="29.7824269" lon="103.4330938"><ele>831.61</ele><time>2026-03-11T23:49:00.000Z</time></trkpt>
        <trkpt lat="29.7824776" lon="103.4330572"><ele>827.27</ele><time>2026-03-11T23:49:04.000Z</time></trkpt>
        <trkpt lat="29.7825469" lon="103.4330081"><ele>825.26</ele><time>2026-03-11T23:49:08.000Z</time></trkpt>
        <trkpt lat="29.7826015" lon="103.4329684"><ele>825.07</ele><time>2026-03-11T23:49:12.000Z</time></trkpt>
        <trkpt lat="29.7826528" lon="103.4329326"><ele>826.01</ele><time>2026-03-11T23:49:16.000Z</time></trkpt>
        <trkpt lat="29.782698" lon="103.4328929"><ele>827.3</ele><time>2026-03-11T23:49:20.000Z</time></trkpt>
        <trkpt lat="29.7827477" lon="103.4328682"><ele>828.16</ele><time>2026-03-11T23:49:24.000Z</time></trkpt>
        <trkpt lat="29.7827971" lon="103.4328583"><ele>828.91</ele><time>2026-03-11T23:49:28.000Z</time></trkpt>
        <trkpt lat="29.7828449" lon="103.4328571"><ele>829.61</ele><time>2026-03-11T23:49:32.000Z</time></trkpt>
        <trkpt lat="29.782889" lon="103.432875"><ele>829.67</ele><time>2026-03-11T23:49:36.000Z</time></trkpt>
        <trkpt lat="29.7829334" lon="103.4328979"><ele>829.19</ele><time>2026-03-11T23:49:40.000Z</time></trkpt>
        <trkpt lat="29.7829813" lon="103.4329262"><ele>827.81</ele><time>2026-03-11T23:49:44.000Z</time></trkpt>
        <trkpt lat="29.7830354" lon="103.432946"><ele>826.8</ele><time>2026-03-11T23:49:48.000Z</time></trkpt>
        <trkpt lat="29.7830887" lon="103.4329575"><ele>826.34</ele><time>2026-03-11T23:49:52.000Z</time></trkpt>
        <trkpt lat="29.783139" lon="103.4329541"><ele>825.83</ele><time>2026-03-11T23:49:56.000Z</time></trkpt>
        <trkpt lat="29.7831898" lon="103.4329414"><ele>825.54</ele><time>2026-03-11T23:50:00.000Z</time></trkpt>
        <trkpt lat="29.7832377" lon="103.432925"><ele>824.97</ele><time>2026-03-11T23:50:04.000Z</time></trkpt>
        <trkpt lat="29.7832875" lon="103.4329169"><ele>824.26</ele><time>2026-03-11T23:50:08.000Z</time></trkpt>
        <trkpt lat="29.7833368" lon="103.4329117"><ele>823.82</ele><time>2026-03-11T23:50:12.000Z</time></trkpt>
        <trkpt lat="29.7833942" lon="103.4329103"><ele>823.36</ele><time>2026-03-11T23:50:18.000Z</time></trkpt>
        <trkpt lat="29.7834322" lon="103.4329099"><ele>823.53</ele><time>2026-03-11T23:50:24.000Z</time></trkpt>
        <trkpt lat="29.7834782" lon="103.4329075"><ele>823.55</ele><time>2026-03-11T23:50:46.000Z</time></trkpt>
        <trkpt lat="29.7835345" lon="103.4329099"><ele>823.31</ele><time>2026-03-11T23:50:52.000Z</time></trkpt>
        <trkpt lat="29.7835841" lon="103.4329167"><ele>822.43</ele><time>2026-03-11T23:50:56.000Z</time></trkpt>
        <trkpt lat="29.7836445" lon="103.432911"><ele>821.54</ele><time>2026-03-11T23:51:02.000Z</time></trkpt>
        <trkpt lat="29.7837077" lon="103.4329121"><ele>820.39</ele><time>2026-03-11T23:51:08.000Z</time></trkpt>
        <trkpt lat="29.7837615" lon="103.4329229"><ele>819.3</ele><time>2026-03-11T23:51:12.000Z</time></trkpt>
        <trkpt lat="29.7838059" lon="103.432948"><ele>818.12</ele><time>2026-03-11T23:51:16.000Z</time></trkpt>
        <trkpt lat="29.7838359" lon="103.4329951"><ele>817.16</ele><time>2026-03-11T23:51:20.000Z</time></trkpt>
        <trkpt lat="29.7838555" lon="103.4330511"><ele>816.42</ele><time>2026-03-11T23:51:24.000Z</time></trkpt>
        <trkpt lat="29.7838776" lon="103.4331031"><ele>816.17</ele><time>2026-03-11T23:51:28.000Z</time></trkpt>
        <trkpt lat="29.7839111" lon="103.433145"><ele>815.32</ele><time>2026-03-11T23:51:32.000Z</time></trkpt>
        <trkpt lat="29.7839348" lon="103.433165"><ele>813.94</ele><time>2026-03-11T23:51:36.000Z</time></trkpt>
        <trkpt lat="29.7839795" lon="103.4331883"><ele>813.4</ele><time>2026-03-11T23:51:50.000Z</time></trkpt>
        <trkpt lat="29.7840305" lon="103.4332114"><ele>812.77</ele><time>2026-03-11T23:51:56.000Z</time></trkpt>
        <trkpt lat="29.7840826" lon="103.4332013"><ele>812.72</ele><time>2026-03-11T23:52:02.000Z</time></trkpt>
        <trkpt lat="29.7841249" lon="103.4331901"><ele>811.49</ele><time>2026-03-11T23:52:10.000Z</time></trkpt>
        <trkpt lat="29.7841781" lon="103.4331751"><ele>811.7</ele><time>2026-03-11T23:52:56.000Z</time></trkpt>
        <trkpt lat="29.784224" lon="103.433147"><ele>812.89</ele><time>2026-03-11T23:53:02.000Z</time></trkpt>
        <trkpt lat="29.7842824" lon="103.4331416"><ele>813.94</ele><time>2026-03-11T23:53:08.000Z</time></trkpt>
        <trkpt lat="29.78434" lon="103.4331645"><ele>814.3</ele><time>2026-03-11T23:53:14.000Z</time></trkpt>
        <trkpt lat="29.7843883" lon="103.4331918"><ele>812.69</ele><time>2026-03-11T23:53:18.000Z</time></trkpt>
        <trkpt lat="29.7844397" lon="103.4332182"><ele>812.41</ele><time>2026-03-11T23:53:22.000Z</time></trkpt>
        <trkpt lat="29.7845035" lon="103.4332423"><ele>811.35</ele><time>2026-03-11T23:53:28.000Z</time></trkpt>
        <trkpt lat="29.7845626" lon="103.4332801"><ele>811.42</ele><time>2026-03-11T23:53:34.000Z</time></trkpt>
        <trkpt lat="29.7845902" lon="103.4333374"><ele>811.84</ele><time>2026-03-11T23:53:38.000Z</time></trkpt>
        <trkpt lat="29.7846014" lon="103.4333935"><ele>811.47</ele><time>2026-03-11T23:53:42.000Z</time></trkpt>
        <trkpt lat="29.7846173" lon="103.4334571"><ele>809.55</ele><time>2026-03-11T23:53:46.000Z</time></trkpt>
        <trkpt lat="29.784645" lon="103.433514"><ele>807.39</ele><time>2026-03-11T23:53:50.000Z</time></trkpt>
        <trkpt lat="29.7847085" lon="103.4335528"><ele>805.5</ele><time>2026-03-11T23:53:54.000Z</time></trkpt>
        <trkpt lat="29.7847189" lon="103.4335369"><ele>804.09</ele><time>2026-03-11T23:54:00.000Z</time></trkpt>
        <trkpt lat="29.7847522" lon="103.4335128"><ele>802.22</ele><time>2026-03-11T23:54:06.000Z</time></trkpt>
        <trkpt lat="29.7847998" lon="103.4334928"><ele>800.94</ele><time>2026-03-11T23:54:10.000Z</time></trkpt>
        <trkpt lat="29.7848103" lon="103.4334956"><ele>800.54</ele><time>2026-03-11T23:54:12.000Z</time></trkpt>
        <trkpt lat="29.7848405" lon="103.433522"><ele>800.04</ele><time>2026-03-11T23:54:20.000Z</time></trkpt>
        <trkpt lat="29.7848746" lon="103.4335616"><ele>799.07</ele><time>2026-03-11T23:54:28.000Z</time></trkpt>
        <trkpt lat="29.7849047" lon="103.4336092"><ele>798.24</ele><time>2026-03-11T23:54:34.000Z</time></trkpt>
        <trkpt lat="29.7849151" lon="103.4336744"><ele>798.23</ele><time>2026-03-11T23:54:42.000Z</time></trkpt>
        <trkpt lat="29.784951" lon="103.433693"><ele>799.23</ele><time>2026-03-11T23:54:58.000Z</time></trkpt>
        <trkpt lat="29.7849884" lon="103.4337238"><ele>796.94</ele><time>2026-03-11T23:55:08.000Z</time></trkpt>
        <trkpt lat="29.7850012" lon="103.4337755"><ele>794.09</ele><time>2026-03-11T23:55:20.000Z</time></trkpt>
        <trkpt lat="29.7850407" lon="103.4338104"><ele>791.29</ele><time>2026-03-11T23:55:34.000Z</time></trkpt>
        <trkpt lat="29.7850903" lon="103.4338109"><ele>788.02</ele><time>2026-03-11T23:55:40.000Z</time></trkpt>
        <trkpt lat="29.7851446" lon="103.4337922"><ele>787.78</ele><time>2026-03-11T23:55:45.000Z</time></trkpt>
        <trkpt lat="29.7851732" lon="103.4338239"><ele>787.92</ele><time>2026-03-11T23:55:53.000Z</time></trkpt>
        <trkpt lat="29.7851459" lon="103.4338655"><ele>789.48</ele><time>2026-03-11T23:56:01.000Z</time></trkpt>
        <trkpt lat="29.7851187" lon="103.433918"><ele>791</ele><time>2026-03-11T23:56:23.000Z</time></trkpt>
        <trkpt lat="29.7851104" lon="103.4339898"><ele>792.94</ele><time>2026-03-11T23:56:29.000Z</time></trkpt>
        <trkpt lat="29.7851057" lon="103.4340645"><ele>794.28</ele><time>2026-03-11T23:56:35.000Z</time></trkpt>
        <trkpt lat="29.785108" lon="103.4341147"><ele>795.37</ele><time>2026-03-11T23:56:41.000Z</time></trkpt>
        <trkpt lat="29.7851277" lon="103.4341707"><ele>795.84</ele><time>2026-03-11T23:56:55.000Z</time></trkpt>
        <trkpt lat="29.7851685" lon="103.4341694"><ele>795.86</ele><time>2026-03-11T23:57:01.000Z</time></trkpt>
        <trkpt lat="29.7852155" lon="103.4341771"><ele>795.86</ele><time>2026-03-11T23:57:15.000Z</time></trkpt>
        <trkpt lat="29.7852676" lon="103.434185"><ele>795.39</ele><time>2026-03-11T23:57:21.000Z</time></trkpt>
        <trkpt lat="29.7853295" lon="103.4341818"><ele>794.65</ele><time>2026-03-11T23:57:27.000Z</time></trkpt>
        <trkpt lat="29.7853953" lon="103.4341663"><ele>793.91</ele><time>2026-03-11T23:57:33.000Z</time></trkpt>
        <trkpt lat="29.7854454" lon="103.4341718"><ele>792.06</ele><time>2026-03-11T23:57:39.000Z</time></trkpt>
        <trkpt lat="29.7854744" lon="103.4342133"><ele>790.95</ele><time>2026-03-11T23:57:57.000Z</time></trkpt>
        <trkpt lat="29.7855235" lon="103.4342166"><ele>791.06</ele><time>2026-03-11T23:58:01.000Z</time></trkpt>
        <trkpt lat="29.7855786" lon="103.4341864"><ele>791.78</ele><time>2026-03-11T23:58:05.000Z</time></trkpt>
        <trkpt lat="29.7856385" lon="103.4341701"><ele>792.59</ele><time>2026-03-11T23:58:11.000Z</time></trkpt>
        <trkpt lat="29.7857056" lon="103.4341481"><ele>792.64</ele><time>2026-03-11T23:58:17.000Z</time></trkpt>
        <trkpt lat="29.7857521" lon="103.4341629"><ele>792.92</ele><time>2026-03-11T23:58:21.000Z</time></trkpt>
        <trkpt lat="29.7857935" lon="103.4341913"><ele>792.21</ele><time>2026-03-11T23:58:27.000Z</time></trkpt>
        <trkpt lat="29.7858335" lon="103.4342353"><ele>792.28</ele><time>2026-03-11T23:58:45.000Z</time></trkpt>
        <trkpt lat="29.7858791" lon="103.4342571"><ele>793.37</ele><time>2026-03-11T23:58:51.000Z</time></trkpt>
        <trkpt lat="29.7859205" lon="103.4342859"><ele>793.34</ele><time>2026-03-11T23:58:57.000Z</time></trkpt>
        <trkpt lat="29.7859635" lon="103.434314"><ele>793.17</ele><time>2026-03-11T23:59:05.000Z</time></trkpt>
        <trkpt lat="29.7860035" lon="103.4343517"><ele>792.77</ele><time>2026-03-11T23:59:13.000Z</time></trkpt>
        <trkpt lat="29.7860524" lon="103.4343868"><ele>792.98</ele><time>2026-03-11T23:59:19.000Z</time></trkpt>
        <trkpt lat="29.7861069" lon="103.4344098"><ele>793.29</ele><time>2026-03-11T23:59:24.000Z</time></trkpt>
        <trkpt lat="29.7861554" lon="103.4344296"><ele>792.65</ele><time>2026-03-11T23:59:28.000Z</time></trkpt>
        <trkpt lat="29.7862114" lon="103.4344363"><ele>791.59</ele><time>2026-03-11T23:59:34.000Z</time></trkpt>
        <trkpt lat="29.7862618" lon="103.4344341"><ele>791.69</ele><time>2026-03-11T23:59:38.000Z</time></trkpt>
        <trkpt lat="29.7863086" lon="103.4344054"><ele>792.27</ele><time>2026-03-11T23:59:52.000Z</time></trkpt>
        <trkpt lat="29.7863672" lon="103.434385"><ele>791.22</ele><time>2026-03-12T00:00:01.000Z</time></trkpt>
        <trkpt lat="29.7864265" lon="103.4343633"><ele>789.61</ele><time>2026-03-12T00:00:05.000Z</time></trkpt>
        <trkpt lat="29.7864768" lon="103.4343591"><ele>788.38</ele><time>2026-03-12T00:00:09.000Z</time></trkpt>
        <trkpt lat="29.7865317" lon="103.434364"><ele>787.45</ele><time>2026-03-12T00:00:15.000Z</time></trkpt>
        <trkpt lat="29.786583" lon="103.4343731"><ele>786.48</ele><time>2026-03-12T00:00:33.000Z</time></trkpt>
        <trkpt lat="29.786601" lon="103.4344168"><ele>786.55</ele><time>2026-03-12T00:00:47.000Z</time></trkpt>
        <trkpt lat="29.7865683" lon="103.4344603"><ele>786.52</ele><time>2026-03-12T00:01:03.000Z</time></trkpt>
        <trkpt lat="29.7865447" lon="103.4344685"><ele>787.05</ele><time>2026-03-12T00:01:07.000Z</time></trkpt>
        <trkpt lat="29.7865057" lon="103.4344905"><ele>786.34</ele><time>2026-03-12T00:01:21.000Z</time></trkpt>
        <trkpt lat="29.7864583" lon="103.4345107"><ele>784.93</ele><time>2026-03-12T00:01:29.000Z</time></trkpt>
        <trkpt lat="29.7864139" lon="103.4345509"><ele>784.06</ele><time>2026-03-12T00:01:33.000Z</time></trkpt>
        <trkpt lat="29.7863616" lon="103.4345935"><ele>782.86</ele><time>2026-03-12T00:01:39.000Z</time></trkpt>
        <trkpt lat="29.7863174" lon="103.4346381"><ele>780.77</ele><time>2026-03-12T00:01:43.000Z</time></trkpt>
        <trkpt lat="29.7862776" lon="103.4346994"><ele>779.87</ele><time>2026-03-12T00:01:47.000Z</time></trkpt>
        <trkpt lat="29.7862646" lon="103.4347563"><ele>779.72</ele><time>2026-03-12T00:01:49.000Z</time></trkpt>
        <trkpt lat="29.7862695" lon="103.4348197"><ele>778.99</ele><time>2026-03-12T00:01:51.000Z</time></trkpt>
        <trkpt lat="29.7862738" lon="103.4348794"><ele>778.19</ele><time>2026-03-12T00:01:53.000Z</time></trkpt>
        <trkpt lat="29.7862785" lon="103.4349456"><ele>777.49</ele><time>2026-03-12T00:01:55.000Z</time></trkpt>
        <trkpt lat="29.7863188" lon="103.4349756"><ele>777.02</ele><time>2026-03-12T00:01:59.000Z</time></trkpt>
        <trkpt lat="29.7863723" lon="103.4349476"><ele>776.9</ele><time>2026-03-12T00:02:03.000Z</time></trkpt>
        <trkpt lat="29.7864272" lon="103.4349091"><ele>775.78</ele><time>2026-03-12T00:02:07.000Z</time></trkpt>
        <trkpt lat="29.7864856" lon="103.4348812"><ele>774.21</ele><time>2026-03-12T00:02:13.000Z</time></trkpt>
        <trkpt lat="29.7865344" lon="103.4348383"><ele>772.08</ele><time>2026-03-12T00:02:19.000Z</time></trkpt>
        <trkpt lat="29.7865894" lon="103.4348151"><ele>772.22</ele><time>2026-03-12T00:02:25.000Z</time></trkpt>
        <trkpt lat="29.7866438" lon="103.4348051"><ele>772.14</ele><time>2026-03-12T00:02:31.000Z</time></trkpt>
        <trkpt lat="29.7866955" lon="103.4348148"><ele>771.48</ele><time>2026-03-12T00:02:37.000Z</time></trkpt>
        <trkpt lat="29.7867503" lon="103.4348388"><ele>769.61</ele><time>2026-03-12T00:02:41.000Z</time></trkpt>
        <trkpt lat="29.7867974" lon="103.4348754"><ele>768.79</ele><time>2026-03-12T00:02:45.000Z</time></trkpt>
        <trkpt lat="29.7868545" lon="103.4349179"><ele>767.17</ele><time>2026-03-12T00:02:49.000Z</time></trkpt>
        <trkpt lat="29.7869075" lon="103.4349224"><ele>766.57</ele><time>2026-03-12T00:02:53.000Z</time></trkpt>
        <trkpt lat="29.7869589" lon="103.434919"><ele>766.52</ele><time>2026-03-12T00:02:57.000Z</time></trkpt>
        <trkpt lat="29.7870152" lon="103.4349195"><ele>766.46</ele><time>2026-03-12T00:03:01.000Z</time></trkpt>
        <trkpt lat="29.787067" lon="103.4349321"><ele>765.86</ele><time>2026-03-12T00:03:05.000Z</time></trkpt>
        <trkpt lat="29.7871159" lon="103.4349143"><ele>765.19</ele><time>2026-03-12T00:03:09.000Z</time></trkpt>
        <trkpt lat="29.7871678" lon="103.4348725"><ele>765.25</ele><time>2026-03-12T00:03:15.000Z</time></trkpt>
        <trkpt lat="29.7872332" lon="103.4348607"><ele>764.95</ele><time>2026-03-12T00:03:21.000Z</time></trkpt>
        <trkpt lat="29.7872868" lon="103.4348722"><ele>764.38</ele><time>2026-03-12T00:03:25.000Z</time></trkpt>
        <trkpt lat="29.7873405" lon="103.4348736"><ele>763.67</ele><time>2026-03-12T00:03:29.000Z</time></trkpt>
        <trkpt lat="29.787392" lon="103.4348827"><ele>762.1</ele><time>2026-03-12T00:03:33.000Z</time></trkpt>
        <trkpt lat="29.7874412" lon="103.4349105"><ele>761.38</ele><time>2026-03-12T00:03:37.000Z</time></trkpt>
        <trkpt lat="29.7874797" lon="103.4349449"><ele>761.23</ele><time>2026-03-12T00:03:41.000Z</time></trkpt>
        <trkpt lat="29.7875176" lon="103.4349809"><ele>761.45</ele><time>2026-03-12T00:03:45.000Z</time></trkpt>
        <trkpt lat="29.787563" lon="103.4350023"><ele>762.93</ele><time>2026-03-12T00:03:49.000Z</time></trkpt>
        <trkpt lat="29.7876105" lon="103.4350065"><ele>763.97</ele><time>2026-03-12T00:03:53.000Z</time></trkpt>
        <trkpt lat="29.7876563" lon="103.4349981"><ele>764.48</ele><time>2026-03-12T00:03:57.000Z</time></trkpt>
        <trkpt lat="29.7877125" lon="103.434978"><ele>763.26</ele><time>2026-03-12T00:04:02.000Z</time></trkpt>
        <trkpt lat="29.7877633" lon="103.4349697"><ele>761.13</ele><time>2026-03-12T00:04:08.000Z</time></trkpt>
        <trkpt lat="29.7877901" lon="103.4349583"><ele>759.91</ele><time>2026-03-12T00:04:12.000Z</time></trkpt>
        <trkpt lat="29.787837" lon="103.4349233"><ele>758.69</ele><time>2026-03-12T00:04:18.000Z</time></trkpt>
        <trkpt lat="29.7878987" lon="103.4349001"><ele>758.06</ele><time>2026-03-12T00:04:22.000Z</time></trkpt>
        <trkpt lat="29.7879667" lon="103.4349086"><ele>757.32</ele><time>2026-03-12T00:04:26.000Z</time></trkpt>
        <trkpt lat="29.788015" lon="103.4348888"><ele>757.34</ele><time>2026-03-12T00:04:30.000Z</time></trkpt>
        <trkpt lat="29.7880755" lon="103.4348718"><ele>756.95</ele><time>2026-03-12T00:04:34.000Z</time></trkpt>
        <trkpt lat="29.7881337" lon="103.4348711"><ele>755.27</ele><time>2026-03-12T00:04:38.000Z</time></trkpt>
        <trkpt lat="29.7881841" lon="103.4348843"><ele>753.95</ele><time>2026-03-12T00:04:42.000Z</time></trkpt>
        <trkpt lat="29.7882432" lon="103.4349026"><ele>752.95</ele><time>2026-03-12T00:04:48.000Z</time></trkpt>
        <trkpt lat="29.78829" lon="103.4349286"><ele>752.47</ele><time>2026-03-12T00:04:52.000Z</time></trkpt>
        <trkpt lat="29.7883295" lon="103.4349621"><ele>752.39</ele><time>2026-03-12T00:04:56.000Z</time></trkpt>
        <trkpt lat="29.7883717" lon="103.434985"><ele>752.76</ele><time>2026-03-12T00:05:00.000Z</time></trkpt>
        <trkpt lat="29.788418" lon="103.4350013"><ele>752.71</ele><time>2026-03-12T00:05:04.000Z</time></trkpt>
        <trkpt lat="29.7884801" lon="103.4350223"><ele>752.21</ele><time>2026-03-12T00:05:10.000Z</time></trkpt>
        <trkpt lat="29.7885443" lon="103.4350422"><ele>751.33</ele><time>2026-03-12T00:05:16.000Z</time></trkpt>
        <trkpt lat="29.7885977" lon="103.4350558"><ele>750.65</ele><time>2026-03-12T00:05:20.000Z</time></trkpt>
        <trkpt lat="29.7886472" lon="103.4350568"><ele>750.02</ele><time>2026-03-12T00:05:24.000Z</time></trkpt>
        <trkpt lat="29.7886948" lon="103.4350562"><ele>749.34</ele><time>2026-03-12T00:05:28.000Z</time></trkpt>
        <trkpt lat="29.788755" lon="103.4350503"><ele>748.73</ele><time>2026-03-12T00:05:34.000Z</time></trkpt>
        <trkpt lat="29.788811" lon="103.4350529"><ele>748.09</ele><time>2026-03-12T00:05:38.000Z</time></trkpt>
        <trkpt lat="29.7888595" lon="103.4350616"><ele>747.84</ele><time>2026-03-12T00:05:42.000Z</time></trkpt>
        <trkpt lat="29.7889044" lon="103.4350559"><ele>747.23</ele><time>2026-03-12T00:05:46.000Z</time></trkpt>
        <trkpt lat="29.7889509" lon="103.4350579"><ele>746.84</ele><time>2026-03-12T00:05:50.000Z</time></trkpt>
        <trkpt lat="29.7889969" lon="103.4350789"><ele>745.88</ele><time>2026-03-12T00:05:54.000Z</time></trkpt>
        <trkpt lat="29.7890439" lon="103.435103"><ele>744.65</ele><time>2026-03-12T00:05:58.000Z</time></trkpt>
        <trkpt lat="29.789093" lon="103.4351212"><ele>743.58</ele><time>2026-03-12T00:06:02.000Z</time></trkpt>
        <trkpt lat="29.7891408" lon="103.4351373"><ele>742.53</ele><time>2026-03-12T00:06:06.000Z</time></trkpt>
        <trkpt lat="29.7891909" lon="103.4351351"><ele>741.65</ele><time>2026-03-12T00:06:10.000Z</time></trkpt>
        <trkpt lat="29.7892386" lon="103.4351316"><ele>740.08</ele><time>2026-03-12T00:06:14.000Z</time></trkpt>
        <trkpt lat="29.7892885" lon="103.4351256"><ele>738.78</ele><time>2026-03-12T00:06:18.000Z</time></trkpt>
        <trkpt lat="29.789336" lon="103.4351089"><ele>737.78</ele><time>2026-03-12T00:06:22.000Z</time></trkpt>
        <trkpt lat="29.7893564" lon="103.4350643"><ele>737.17</ele><time>2026-03-12T00:06:26.000Z</time></trkpt>
        <trkpt lat="29.7893619" lon="103.4350005"><ele>736.85</ele><time>2026-03-12T00:06:32.000Z</time></trkpt>
        <trkpt lat="29.7893923" lon="103.4349435"><ele>736.87</ele><time>2026-03-12T00:06:38.000Z</time></trkpt>
        <trkpt lat="29.7894505" lon="103.4349335"><ele>736.25</ele><time>2026-03-12T00:06:44.000Z</time></trkpt>
        <trkpt lat="29.7895145" lon="103.4349588"><ele>735.72</ele><time>2026-03-12T00:06:50.000Z</time></trkpt>
        <trkpt lat="29.789582" lon="103.4349919"><ele>735.09</ele><time>2026-03-12T00:06:56.000Z</time></trkpt>
        <trkpt lat="29.7896269" lon="103.4350156"><ele>734.39</ele><time>2026-03-12T00:07:02.000Z</time></trkpt>
        <trkpt lat="29.7896636" lon="103.4349993"><ele>733.66</ele><time>2026-03-12T00:07:08.000Z</time></trkpt>
        <trkpt lat="29.78971" lon="103.4349712"><ele>732.66</ele><time>2026-03-12T00:07:16.000Z</time></trkpt>
        <trkpt lat="29.7897559" lon="103.4349644"><ele>731.96</ele><time>2026-03-12T00:07:20.000Z</time></trkpt>
        <trkpt lat="29.7898085" lon="103.4349848"><ele>731.66</ele><time>2026-03-12T00:07:26.000Z</time></trkpt>
        <trkpt lat="29.7898648" lon="103.4350181"><ele>730.96</ele><time>2026-03-12T00:07:32.000Z</time></trkpt>
        <trkpt lat="29.7899203" lon="103.4350363"><ele>729.84</ele><time>2026-03-12T00:07:38.000Z</time></trkpt>
        <trkpt lat="29.7899747" lon="103.4350395"><ele>728.86</ele><time>2026-03-12T00:07:44.000Z</time></trkpt>
        <trkpt lat="29.7900184" lon="103.435027"><ele>727.84</ele><time>2026-03-12T00:07:50.000Z</time></trkpt>
        <trkpt lat="29.7900184" lon="103.435027"><ele>727.84</ele><time>2026-03-12T00:08:04.000Z</time></trkpt>
        <trkpt lat="29.7900184" lon="103.435027"><ele>727.84</ele><time>2026-03-12T00:08:21.000Z</time></trkpt>
        <trkpt lat="29.7900184" lon="103.435027"><ele>727.84</ele><time>2026-03-12T00:08:34.000Z</time></trkpt>
        <trkpt lat="29.7900724" lon="103.435018"><ele>727.18</ele><time>2026-03-12T00:08:37.000Z</time></trkpt>
        <trkpt lat="29.7900724" lon="103.435018"><ele>727.18</ele><time>2026-03-12T00:08:42.000Z</time></trkpt>
        <trkpt lat="29.7901196" lon="103.4350223"><ele>726.84</ele><time>2026-03-12T00:08:46.000Z</time></trkpt>
        <trkpt lat="29.7901684" lon="103.4350041"><ele>725.41</ele><time>2026-03-12T00:08:54.000Z</time></trkpt>
        <trkpt lat="29.7901776" lon="103.434943"><ele>723.08</ele><time>2026-03-12T00:09:06.000Z</time></trkpt>
        <trkpt lat="29.7901448" lon="103.4348958"><ele>722.07</ele><time>2026-03-12T00:09:10.000Z</time></trkpt>
        <trkpt lat="29.7901259" lon="103.4348849"><ele>721.37</ele><time>2026-03-12T00:09:12.000Z</time></trkpt>
        <trkpt lat="29.7901268" lon="103.4348413"><ele>721.1</ele><time>2026-03-12T00:09:18.000Z</time></trkpt>
        <trkpt lat="29.7901418" lon="103.4347758"><ele>721.18</ele><time>2026-03-12T00:09:22.000Z</time></trkpt>
        <trkpt lat="29.7901766" lon="103.4347131"><ele>722.2</ele><time>2026-03-12T00:09:28.000Z</time></trkpt>
        <trkpt lat="29.790242" lon="103.4347196"><ele>722.41</ele><time>2026-03-12T00:09:34.000Z</time></trkpt>
        <trkpt lat="29.790285" lon="103.4347497"><ele>721.01</ele><time>2026-03-12T00:09:38.000Z</time></trkpt>
        <trkpt lat="29.7903322" lon="103.4347604"><ele>720.6</ele><time>2026-03-12T00:09:44.000Z</time></trkpt>
        <trkpt lat="29.7903675" lon="103.4347304"><ele>719</ele><time>2026-03-12T00:09:48.000Z</time></trkpt>
        <trkpt lat="29.7903882" lon="103.4346623"><ele>717.3</ele><time>2026-03-12T00:09:54.000Z</time></trkpt>
        <trkpt lat="29.7903976" lon="103.4345818"><ele>715.34</ele><time>2026-03-12T00:10:00.000Z</time></trkpt>
        <trkpt lat="29.7904327" lon="103.4345282"><ele>714.33</ele><time>2026-03-12T00:10:06.000Z</time></trkpt>
        <trkpt lat="29.7904735" lon="103.4344836"><ele>713.86</ele><time>2026-03-12T00:10:12.000Z</time></trkpt>
        <trkpt lat="29.7905081" lon="103.4344267"><ele>712.75</ele><time>2026-03-12T00:10:18.000Z</time></trkpt>
        <trkpt lat="29.7905446" lon="103.4343721"><ele>711.95</ele><time>2026-03-12T00:10:24.000Z</time></trkpt>
        <trkpt lat="29.7905929" lon="103.4343603"><ele>711.35</ele><time>2026-03-12T00:10:28.000Z</time></trkpt>
        <trkpt lat="29.790641" lon="103.4343644"><ele>710.82</ele><time>2026-03-12T00:10:34.000Z</time></trkpt>
        <trkpt lat="29.7906797" lon="103.4343655"><ele>709.89</ele><time>2026-03-12T00:10:38.000Z</time></trkpt>
        <trkpt lat="29.790733" lon="103.4343561"><ele>709.49</ele><time>2026-03-12T00:10:42.000Z</time></trkpt>
        <trkpt lat="29.7907928" lon="103.4343321"><ele>708.79</ele><time>2026-03-12T00:10:48.000Z</time></trkpt>
        <trkpt lat="29.7908444" lon="103.4343245"><ele>709.04</ele><time>2026-03-12T00:10:52.000Z</time></trkpt>
        <trkpt lat="29.7908974" lon="103.4343274"><ele>709.33</ele><time>2026-03-12T00:10:56.000Z</time></trkpt>
        <trkpt lat="29.7909467" lon="103.4343201"><ele>709.18</ele><time>2026-03-12T00:11:00.000Z</time></trkpt>
        <trkpt lat="29.7909891" lon="103.4342971"><ele>709.51</ele><time>2026-03-12T00:11:04.000Z</time></trkpt>
        <trkpt lat="29.7910468" lon="103.4342827"><ele>709.42</ele><time>2026-03-12T00:11:10.000Z</time></trkpt>
        <trkpt lat="29.7911013" lon="103.4342834"><ele>709.26</ele><time>2026-03-12T00:11:14.000Z</time></trkpt>
        <trkpt lat="29.7911574" lon="103.4342904"><ele>708.53</ele><time>2026-03-12T00:11:18.000Z</time></trkpt>
        <trkpt lat="29.7912132" lon="103.4343107"><ele>708</ele><time>2026-03-12T00:11:22.000Z</time></trkpt>
        <trkpt lat="29.7912429" lon="103.4342681"><ele>706.32</ele><time>2026-03-12T00:11:26.000Z</time></trkpt>
        <trkpt lat="29.7912352" lon="103.4341984"><ele>704.46</ele><time>2026-03-12T00:11:30.000Z</time></trkpt>
        <trkpt lat="29.791214" lon="103.4341648"><ele>703.02</ele><time>2026-03-12T00:11:34.000Z</time></trkpt>
        <trkpt lat="29.7912161" lon="103.4341116"><ele>703.19</ele><time>2026-03-12T00:11:42.000Z</time></trkpt>
        <trkpt lat="29.7912399" lon="103.4340392"><ele>703.71</ele><time>2026-03-12T00:11:50.000Z</time></trkpt>
        <trkpt lat="29.7912941" lon="103.4339826"><ele>703.58</ele><time>2026-03-12T00:11:54.000Z</time></trkpt>
        <trkpt lat="29.7913558" lon="103.433994"><ele>703.69</ele><time>2026-03-12T00:12:00.000Z</time></trkpt>
        <trkpt lat="29.7913989" lon="103.4340324"><ele>704.89</ele><time>2026-03-12T00:12:04.000Z</time></trkpt>
        <trkpt lat="29.7914381" lon="103.4340779"><ele>705.39</ele><time>2026-03-12T00:12:12.000Z</time></trkpt>
        <trkpt lat="29.7914823" lon="103.4341095"><ele>704.6</ele><time>2026-03-12T00:12:16.000Z</time></trkpt>
        <trkpt lat="29.7915348" lon="103.434141"><ele>704.84</ele><time>2026-03-12T00:12:20.000Z</time></trkpt>
        <trkpt lat="29.7915853" lon="103.4341594"><ele>704.63</ele><time>2026-03-12T00:12:24.000Z</time></trkpt>
        <trkpt lat="29.791634" lon="103.4341927"><ele>703.2</ele><time>2026-03-12T00:12:32.000Z</time></trkpt>
        <trkpt lat="29.7916812" lon="103.4341984"><ele>702.67</ele><time>2026-03-12T00:12:36.000Z</time></trkpt>
        <trkpt lat="29.7917414" lon="103.4341923"><ele>701.6</ele><time>2026-03-12T00:12:42.000Z</time></trkpt>
        <trkpt lat="29.7917989" lon="103.4341941"><ele>701.92</ele><time>2026-03-12T00:12:47.000Z</time></trkpt>
        <trkpt lat="29.791861" lon="103.4341934"><ele>701.65</ele><time>2026-03-12T00:12:53.000Z</time></trkpt>
        <trkpt lat="29.7919129" lon="103.4341984"><ele>700.34</ele><time>2026-03-12T00:12:57.000Z</time></trkpt>
        <trkpt lat="29.7919621" lon="103.4342061"><ele>698.77</ele><time>2026-03-12T00:13:01.000Z</time></trkpt>
        <trkpt lat="29.792017" lon="103.4342142"><ele>697.05</ele><time>2026-03-12T00:13:07.000Z</time></trkpt>
        <trkpt lat="29.7920745" lon="103.4342286"><ele>695.83</ele><time>2026-03-12T00:13:11.000Z</time></trkpt>
        <trkpt lat="29.7921233" lon="103.4342366"><ele>694.8</ele><time>2026-03-12T00:13:13.000Z</time></trkpt>
        <trkpt lat="29.7921803" lon="103.4342314"><ele>694.08</ele><time>2026-03-12T00:13:17.000Z</time></trkpt>
        <trkpt lat="29.7921803" lon="103.4342314"><ele>694.08</ele><time>2026-03-12T00:13:30.000Z</time></trkpt>
        <trkpt lat="29.7922228" lon="103.434206"><ele>692.76</ele><time>2026-03-12T00:13:33.000Z</time></trkpt>
        <trkpt lat="29.7922228" lon="103.434206"><ele>692.76</ele><time>2026-03-12T00:13:36.000Z</time></trkpt>
        <trkpt lat="29.7922567" lon="103.4341674"><ele>692.96</ele><time>2026-03-12T00:13:38.000Z</time></trkpt>
        <trkpt lat="29.7923089" lon="103.4341746"><ele>690.92</ele><time>2026-03-12T00:13:42.000Z</time></trkpt>
        <trkpt lat="29.7923756" lon="103.4341781"><ele>690.12</ele><time>2026-03-12T00:13:48.000Z</time></trkpt>
        <trkpt lat="29.7924337" lon="103.43417"><ele>690.61</ele><time>2026-03-12T00:13:52.000Z</time></trkpt>
        <trkpt lat="29.7924817" lon="103.434147"><ele>689.77</ele><time>2026-03-12T00:13:56.000Z</time></trkpt>
        <trkpt lat="29.7925276" lon="103.4341088"><ele>688.9</ele><time>2026-03-12T00:14:00.000Z</time></trkpt>
        <trkpt lat="29.7925589" lon="103.4340929"><ele>688.37</ele><time>2026-03-12T00:14:04.000Z</time></trkpt>
        <trkpt lat="29.7926063" lon="103.434082"><ele>686.98</ele><time>2026-03-12T00:14:10.000Z</time></trkpt>
        <trkpt lat="29.7926507" lon="103.4340637"><ele>686.17</ele><time>2026-03-12T00:14:15.000Z</time></trkpt>
        <trkpt lat="29.7926748" lon="103.4340545"><ele>685.44</ele><time>2026-03-12T00:14:19.000Z</time></trkpt>
        <trkpt lat="29.7927227" lon="103.4340324"><ele>685.01</ele><time>2026-03-12T00:14:31.000Z</time></trkpt>
        <trkpt lat="29.7927942" lon="103.4340293"><ele>684.08</ele><time>2026-03-12T00:14:35.000Z</time></trkpt>
        <trkpt lat="29.7928521" lon="103.4340204"><ele>682.63</ele><time>2026-03-12T00:14:39.000Z</time></trkpt>
        <trkpt lat="29.7928986" lon="103.4340036"><ele>681.77</ele><time>2026-03-12T00:14:43.000Z</time></trkpt>
        <trkpt lat="29.7929493" lon="103.4339957"><ele>681.59</ele><time>2026-03-12T00:14:53.000Z</time></trkpt>
        <trkpt lat="29.7929998" lon="103.4339983"><ele>681.17</ele><time>2026-03-12T00:14:59.000Z</time></trkpt>
        <trkpt lat="29.7930506" lon="103.4340024"><ele>680.54</ele><time>2026-03-12T00:15:05.000Z</time></trkpt>
        <trkpt lat="29.7931047" lon="103.4339911"><ele>679.51</ele><time>2026-03-12T00:15:11.000Z</time></trkpt>
        <trkpt lat="29.7931553" lon="103.4339818"><ele>678.52</ele><time>2026-03-12T00:15:25.000Z</time></trkpt>
        <trkpt lat="29.7932013" lon="103.4339878"><ele>677.72</ele><time>2026-03-12T00:15:47.000Z</time></trkpt>
        <trkpt lat="29.7932478" lon="103.4339922"><ele>675.81</ele><time>2026-03-12T00:16:03.000Z</time></trkpt>
        <trkpt lat="29.7932989" lon="103.4339894"><ele>673.72</ele><time>2026-03-12T00:16:17.000Z</time></trkpt>
        <trkpt lat="29.7933461" lon="103.434019"><ele>670.45</ele><time>2026-03-12T00:16:37.000Z</time></trkpt>
        <trkpt lat="29.7933835" lon="103.4340599"><ele>668.23</ele><time>2026-03-12T00:16:41.000Z</time></trkpt>
        <trkpt lat="29.7934295" lon="103.4340722"><ele>666.63</ele><time>2026-03-12T00:16:47.000Z</time></trkpt>
        <trkpt lat="29.793475" lon="103.4340629"><ele>663.87</ele><time>2026-03-12T00:17:13.000Z</time></trkpt>
        <trkpt lat="29.7935216" lon="103.434049"><ele>661.79</ele><time>2026-03-12T00:17:23.000Z</time></trkpt>
        <trkpt lat="29.7935708" lon="103.4340461"><ele>660.46</ele><time>2026-03-12T00:17:35.000Z</time></trkpt>
        <trkpt lat="29.7936181" lon="103.43406"><ele>660.35</ele><time>2026-03-12T00:17:41.000Z</time></trkpt>
        <trkpt lat="29.7936677" lon="103.4340724"><ele>660.81</ele><time>2026-03-12T00:18:15.000Z</time></trkpt>
        <trkpt lat="29.7937158" lon="103.4340618"><ele>660.84</ele><time>2026-03-12T00:18:23.000Z</time></trkpt>
        <trkpt lat="29.7937668" lon="103.4340736"><ele>661.55</ele><time>2026-03-12T00:18:31.000Z</time></trkpt>
        <trkpt lat="29.7938175" lon="103.4340657"><ele>662.99</ele><time>2026-03-12T00:18:39.000Z</time></trkpt>
        <trkpt lat="29.7938681" lon="103.4340425"><ele>664.69</ele><time>2026-03-12T00:18:47.000Z</time></trkpt>
        <trkpt lat="29.7939154" lon="103.4340223"><ele>665.41</ele><time>2026-03-12T00:18:55.000Z</time></trkpt>
        <trkpt lat="29.7939671" lon="103.433994"><ele>666.54</ele><time>2026-03-12T00:19:03.000Z</time></trkpt>
        <trkpt lat="29.794014" lon="103.4339743"><ele>666.93</ele><time>2026-03-12T00:19:09.000Z</time></trkpt>
        <trkpt lat="29.7940648" lon="103.4339844"><ele>667.77</ele><time>2026-03-12T00:19:25.000Z</time></trkpt>
        <trkpt lat="29.7941232" lon="103.4340225"><ele>667.59</ele><time>2026-03-12T00:19:35.000Z</time></trkpt>
        <trkpt lat="29.7941707" lon="103.4340528"><ele>666.99</ele><time>2026-03-12T00:19:43.000Z</time></trkpt>
        <trkpt lat="29.7942206" lon="103.4340655"><ele>666.86</ele><time>2026-03-12T00:19:49.000Z</time></trkpt>
        <trkpt lat="29.7942809" lon="103.4340601"><ele>666.49</ele><time>2026-03-12T00:19:57.000Z</time></trkpt>
        <trkpt lat="29.7943285" lon="103.4340737"><ele>664.65</ele><time>2026-03-12T00:20:19.000Z</time></trkpt>
        <trkpt lat="29.7943688" lon="103.434106"><ele>662.57</ele><time>2026-03-12T00:20:25.000Z</time></trkpt>
        <trkpt lat="29.7943926" lon="103.4341596"><ele>660.47</ele><time>2026-03-12T00:20:39.000Z</time></trkpt>
        <trkpt lat="29.7944223" lon="103.434206"><ele>658.52</ele><time>2026-03-12T00:20:45.000Z</time></trkpt>
        <trkpt lat="29.7944324" lon="103.4342611"><ele>656.57</ele><time>2026-03-12T00:21:01.000Z</time></trkpt>
        <trkpt lat="29.7944793" lon="103.4342824"><ele>656.59</ele><time>2026-03-12T00:21:05.000Z</time></trkpt>
        <trkpt lat="29.7944559" lon="103.4342954"><ele>657.1</ele><time>2026-03-12T00:21:09.000Z</time></trkpt>
        <trkpt lat="29.7944098" lon="103.4342772"><ele>657.95</ele><time>2026-03-12T00:21:13.000Z</time></trkpt>
        <trkpt lat="29.7943565" lon="103.4342888"><ele>658.54</ele><time>2026-03-12T00:21:21.000Z</time></trkpt>
        <trkpt lat="29.7943223" lon="103.4342557"><ele>659.42</ele><time>2026-03-12T00:21:51.000Z</time></trkpt>
        <trkpt lat="29.7942948" lon="103.4341974"><ele>659.74</ele><time>2026-03-12T00:21:55.000Z</time></trkpt>
        <trkpt lat="29.794252" lon="103.4341872"><ele>660.93</ele><time>2026-03-12T00:22:17.000Z</time></trkpt>
        <trkpt lat="29.7942086" lon="103.4342034"><ele>662.42</ele><time>2026-03-12T00:22:39.000Z</time></trkpt>
        <trkpt lat="29.7942244" lon="103.4342498"><ele>663.69</ele><time>2026-03-12T00:22:45.000Z</time></trkpt>
        <trkpt lat="29.7942828" lon="103.4342922"><ele>664.22</ele><time>2026-03-12T00:22:49.000Z</time></trkpt>
        <trkpt lat="29.7943403" lon="103.4343189"><ele>663.93</ele><time>2026-03-12T00:22:51.000Z</time></trkpt>
        <trkpt lat="29.7944035" lon="103.4343478"><ele>663.88</ele><time>2026-03-12T00:22:55.000Z</time></trkpt>
        <trkpt lat="29.794462" lon="103.4343811"><ele>663.95</ele><time>2026-03-12T00:23:03.000Z</time></trkpt>
        <trkpt lat="29.7944604" lon="103.4344375"><ele>664.33</ele><time>2026-03-12T00:23:09.000Z</time></trkpt>
        <trkpt lat="29.7944457" lon="103.4345028"><ele>664.08</ele><time>2026-03-12T00:23:17.000Z</time></trkpt>
        <trkpt lat="29.794462" lon="103.4345577"><ele>662.44</ele><time>2026-03-12T00:23:33.000Z</time></trkpt>
        <trkpt lat="29.7944925" lon="103.434603"><ele>654.16</ele><time>2026-03-12T00:23:45.000Z</time></trkpt>
        <trkpt lat="29.7945153" lon="103.4346574"><ele>651.61</ele><time>2026-03-12T00:23:57.000Z</time></trkpt>
        <trkpt lat="29.7945357" lon="103.4347107"><ele>649.9</ele><time>2026-03-12T00:24:09.000Z</time></trkpt>
        <trkpt lat="29.7945312" lon="103.4347647"><ele>651.32</ele><time>2026-03-12T00:24:17.000Z</time></trkpt>
        <trkpt lat="29.7945067" lon="103.4348149"><ele>652.96</ele><time>2026-03-12T00:24:23.000Z</time></trkpt>
        <trkpt lat="29.7945067" lon="103.4348149"><ele>652.96</ele><time>2026-03-12T00:25:00.000Z</time></trkpt>
        <trkpt lat="29.7945153" lon="103.4347533"><ele>654.32</ele><time>2026-03-12T00:25:13.000Z</time></trkpt>
        <trkpt lat="29.7945153" lon="103.4347533"><ele>654.32</ele><time>2026-03-12T00:25:25.000Z</time></trkpt>
        <trkpt lat="29.7945602" lon="103.4347469"><ele>654.82</ele><time>2026-03-12T00:25:33.000Z</time></trkpt>
        <trkpt lat="29.794591" lon="103.4347843"><ele>654.91</ele><time>2026-03-12T00:25:39.000Z</time></trkpt>
        <trkpt lat="29.7945878" lon="103.434837"><ele>655.2</ele><time>2026-03-12T00:25:45.000Z</time></trkpt>
        <trkpt lat="29.794613" lon="103.4348781"><ele>655.38</ele><time>2026-03-12T00:25:53.000Z</time></trkpt>
        <trkpt lat="29.7946549" lon="103.4349086"><ele>655.41</ele><time>2026-03-12T00:25:59.000Z</time></trkpt>
        <trkpt lat="29.7946999" lon="103.4349492"><ele>655.25</ele><time>2026-03-12T00:26:05.000Z</time></trkpt>
        <trkpt lat="29.7947407" lon="103.4349981"><ele>655.19</ele><time>2026-03-12T00:26:13.000Z</time></trkpt>
        <trkpt lat="29.7947796" lon="103.4350561"><ele>655.16</ele><time>2026-03-12T00:26:19.000Z</time></trkpt>
        <trkpt lat="29.7948028" lon="103.4351102"><ele>655.09</ele><time>2026-03-12T00:26:27.000Z</time></trkpt>
        <trkpt lat="29.7948266" lon="103.4351579"><ele>654.42</ele><time>2026-03-12T00:26:43.000Z</time></trkpt>
        <trkpt lat="29.7948611" lon="103.4351931"><ele>653.33</ele><time>2026-03-12T00:26:51.000Z</time></trkpt>
        <trkpt lat="29.794912" lon="103.4352003"><ele>651.72</ele><time>2026-03-12T00:26:57.000Z</time></trkpt>
        <trkpt lat="29.7949713" lon="103.4352033"><ele>650.37</ele><time>2026-03-12T00:27:03.000Z</time></trkpt>
        <trkpt lat="29.7950209" lon="103.4352132"><ele>650.89</ele><time>2026-03-12T00:27:09.000Z</time></trkpt>
        <trkpt lat="29.7950697" lon="103.4352228"><ele>651.4</ele><time>2026-03-12T00:27:15.000Z</time></trkpt>
        <trkpt lat="29.7951285" lon="103.4352283"><ele>651.5</ele><time>2026-03-12T00:27:21.000Z</time></trkpt>
        <trkpt lat="29.7951757" lon="103.4352659"><ele>652.09</ele><time>2026-03-12T00:27:39.000Z</time></trkpt>
        <trkpt lat="29.7951849" lon="103.4352736"><ele>653.19</ele><time>2026-03-12T00:27:41.000Z</time></trkpt>
        <trkpt lat="29.795212" lon="103.4353064"><ele>653.29</ele><time>2026-03-12T00:27:51.000Z</time></trkpt>
        <trkpt lat="29.7952623" lon="103.435327"><ele>651.4</ele><time>2026-03-12T00:27:59.000Z</time></trkpt>
        <trkpt lat="29.7953163" lon="103.4353494"><ele>649.83</ele><time>2026-03-12T00:28:11.000Z</time></trkpt>
        <trkpt lat="29.7953491" lon="103.4353887"><ele>647.67</ele><time>2026-03-12T00:28:19.000Z</time></trkpt>
        <trkpt lat="29.7953915" lon="103.4354131"><ele>645.52</ele><time>2026-03-12T00:28:25.000Z</time></trkpt>
        <trkpt lat="29.7954388" lon="103.4354324"><ele>642.94</ele><time>2026-03-12T00:28:35.000Z</time></trkpt>
        <trkpt lat="29.7954874" lon="103.4354305"><ele>640.13</ele><time>2026-03-12T00:28:41.000Z</time></trkpt>
        <trkpt lat="29.7955352" lon="103.4354173"><ele>638.38</ele><time>2026-03-12T00:28:49.000Z</time></trkpt>
        <trkpt lat="29.7955873" lon="103.435386"><ele>637.19</ele><time>2026-03-12T00:28:57.000Z</time></trkpt>
        <trkpt lat="29.7956333" lon="103.4353554"><ele>636.25</ele><time>2026-03-12T00:29:01.000Z</time></trkpt>
        <trkpt lat="29.7956704" lon="103.4353137"><ele>635.94</ele><time>2026-03-12T00:29:09.000Z</time></trkpt>
        <trkpt lat="29.7957148" lon="103.4352667"><ele>636.45</ele><time>2026-03-12T00:29:15.000Z</time></trkpt>
        <trkpt lat="29.7957234" lon="103.4352498"><ele>637.05</ele><time>2026-03-12T00:29:21.000Z</time></trkpt>
        <trkpt lat="29.7957572" lon="103.4352128"><ele>636.4</ele><time>2026-03-12T00:29:29.000Z</time></trkpt>
        <trkpt lat="29.7958062" lon="103.4351937"><ele>636.74</ele><time>2026-03-12T00:29:33.000Z</time></trkpt>
        <trkpt lat="29.7958559" lon="103.4351841"><ele>635.42</ele><time>2026-03-12T00:29:37.000Z</time></trkpt>
        <trkpt lat="29.7959091" lon="103.4351949"><ele>634.36</ele><time>2026-03-12T00:29:43.000Z</time></trkpt>
        <trkpt lat="29.7959676" lon="103.435205"><ele>633.31</ele><time>2026-03-12T00:29:49.000Z</time></trkpt>
        <trkpt lat="29.7960063" lon="103.4352429"><ele>632.19</ele><time>2026-03-12T00:29:57.000Z</time></trkpt>
        <trkpt lat="29.796028" lon="103.4352982"><ele>630.94</ele><time>2026-03-12T00:30:03.000Z</time></trkpt>
        <trkpt lat="29.7960551" lon="103.4353566"><ele>629.61</ele><time>2026-03-12T00:30:09.000Z</time></trkpt>
        <trkpt lat="29.7960778" lon="103.4354138"><ele>628.31</ele><time>2026-03-12T00:30:15.000Z</time></trkpt>
        <trkpt lat="29.7961088" lon="103.4354694"><ele>627.44</ele><time>2026-03-12T00:30:21.000Z</time></trkpt>
        <trkpt lat="29.7961561" lon="103.4355101"><ele>626.12</ele><time>2026-03-12T00:30:27.000Z</time></trkpt>
        <trkpt lat="29.7961933" lon="103.4355534"><ele>624.75</ele><time>2026-03-12T00:30:33.000Z</time></trkpt>
        <trkpt lat="29.7962073" lon="103.4355532"><ele>622.88</ele><time>2026-03-12T00:30:37.000Z</time></trkpt>
        <trkpt lat="29.7962344" lon="103.4355226"><ele>622.46</ele><time>2026-03-12T00:30:45.000Z</time></trkpt>
        <trkpt lat="29.7962395" lon="103.4355022"><ele>621.84</ele><time>2026-03-12T00:30:47.000Z</time></trkpt>
        <trkpt lat="29.7962395" lon="103.4355022"><ele>621.84</ele><time>2026-03-12T00:31:04.000Z</time></trkpt>
        <trkpt lat="29.7962395" lon="103.4355022"><ele>621.84</ele><time>2026-03-12T00:31:05.000Z</time></trkpt>
        <trkpt lat="29.7962395" lon="103.4355022"><ele>621.84</ele><time>2026-03-12T00:31:26.000Z</time></trkpt>
        <trkpt lat="29.79625" lon="103.4355331"><ele>621.84</ele><time>2026-03-12T00:31:39.000Z</time></trkpt>
        <trkpt lat="29.79625" lon="103.4355331"><ele>621.84</ele><time>2026-03-12T00:31:44.000Z</time></trkpt>
        <trkpt lat="29.7962169" lon="103.4355405"><ele>621.84</ele><time>2026-03-12T00:32:11.000Z</time></trkpt>
        <trkpt lat="29.7961687" lon="103.4355438"><ele>623.76</ele><time>2026-03-12T00:33:01.000Z</time></trkpt>
        <trkpt lat="29.7961687" lon="103.4355438"><ele>623.76</ele><time>2026-03-12T00:33:20.000Z</time></trkpt>
        <trkpt lat="29.7961857" lon="103.4355591"><ele>623.77</ele><time>2026-03-12T00:33:37.000Z</time></trkpt>
        <trkpt lat="29.7961857" lon="103.4355591"><ele>623.77</ele><time>2026-03-12T00:33:48.000Z</time></trkpt>
        <trkpt lat="29.7962282" lon="103.4355725"><ele>622.34</ele><time>2026-03-12T00:34:00.000Z</time></trkpt>
        <trkpt lat="29.796267" lon="103.4355313"><ele>622.04</ele><time>2026-03-12T00:34:06.000Z</time></trkpt>
        <trkpt lat="29.7962889" lon="103.4354522"><ele>620.61</ele><time>2026-03-12T00:34:12.000Z</time></trkpt>
        <trkpt lat="29.7963263" lon="103.4354466"><ele>618.58</ele><time>2026-03-12T00:34:20.000Z</time></trkpt>
        <trkpt lat="29.7963622" lon="103.4354898"><ele>616.55</ele><time>2026-03-12T00:34:28.000Z</time></trkpt>
        <trkpt lat="29.7963959" lon="103.4355372"><ele>615</ele><time>2026-03-12T00:34:36.000Z</time></trkpt>
        <trkpt lat="29.7964273" lon="103.4355899"><ele>613.27</ele><time>2026-03-12T00:34:48.000Z</time></trkpt>
        <trkpt lat="29.7964741" lon="103.4355971"><ele>611.03</ele><time>2026-03-12T00:34:56.000Z</time></trkpt>
        <trkpt lat="29.7964798" lon="103.4355543"><ele>609.61</ele><time>2026-03-12T00:35:04.000Z</time></trkpt>
        <trkpt lat="29.7964547" lon="103.4354969"><ele>608.61</ele><time>2026-03-12T00:35:10.000Z</time></trkpt>
        <trkpt lat="29.7964398" lon="103.4354339"><ele>607.26</ele><time>2026-03-12T00:35:16.000Z</time></trkpt>
        <trkpt lat="29.7964164" lon="103.4353794"><ele>605.8</ele><time>2026-03-12T00:35:22.000Z</time></trkpt>
        <trkpt lat="29.7964148" lon="103.4353265"><ele>603.37</ele><time>2026-03-12T00:35:26.000Z</time></trkpt>
        <trkpt lat="29.7964274" lon="103.4352752"><ele>601.47</ele><time>2026-03-12T00:35:30.000Z</time></trkpt>
        <trkpt lat="29.796442" lon="103.4352198"><ele>600.77</ele><time>2026-03-12T00:35:36.000Z</time></trkpt>
        <trkpt lat="29.7964391" lon="103.4351638"><ele>599.76</ele><time>2026-03-12T00:35:40.000Z</time></trkpt>
        <trkpt lat="29.796437" lon="103.4351408"><ele>599.02</ele><time>2026-03-12T00:35:42.000Z</time></trkpt>
        <trkpt lat="29.7964027" lon="103.435117"><ele>598.12</ele><time>2026-03-12T00:35:51.000Z</time></trkpt>
        <trkpt lat="29.7964079" lon="103.4351082"><ele>596.48</ele><time>2026-03-12T00:35:54.000Z</time></trkpt>
        <trkpt lat="29.7964418" lon="103.4351324"><ele>595.4</ele><time>2026-03-12T00:36:00.000Z</time></trkpt>
        <trkpt lat="29.7964879" lon="103.4351701"><ele>594.77</ele><time>2026-03-12T00:36:06.000Z</time></trkpt>
        <trkpt lat="29.7965359" lon="103.4352201"><ele>594.26</ele><time>2026-03-12T00:36:12.000Z</time></trkpt>
        <trkpt lat="29.7965819" lon="103.4352765"><ele>593.04</ele><time>2026-03-12T00:36:18.000Z</time></trkpt>
        <trkpt lat="29.7966098" lon="103.435328"><ele>591.34</ele><time>2026-03-12T00:36:22.000Z</time></trkpt>
        <trkpt lat="29.7966294" lon="103.4353813"><ele>589.69</ele><time>2026-03-12T00:36:26.000Z</time></trkpt>
        <trkpt lat="29.7966615" lon="103.4354339"><ele>587.88</ele><time>2026-03-12T00:36:32.000Z</time></trkpt>
        <trkpt lat="29.7967079" lon="103.4354738"><ele>585.79</ele><time>2026-03-12T00:36:38.000Z</time></trkpt>
        <trkpt lat="29.7967677" lon="103.4354772"><ele>583.57</ele><time>2026-03-12T00:36:42.000Z</time></trkpt>
        <trkpt lat="29.7967893" lon="103.4354694"><ele>582.88</ele><time>2026-03-12T00:36:44.000Z</time></trkpt>
        <trkpt lat="29.7968327" lon="103.4354986"><ele>582.63</ele><time>2026-03-12T00:37:42.000Z</time></trkpt>
        <trkpt lat="29.7968552" lon="103.4355472"><ele>582.93</ele><time>2026-03-12T00:37:46.000Z</time></trkpt>
        <trkpt lat="29.7968781" lon="103.4355269"><ele>582.49</ele><time>2026-03-12T00:38:02.000Z</time></trkpt>
        <trkpt lat="29.7969239" lon="103.4355318"><ele>580.72</ele><time>2026-03-12T00:38:20.000Z</time></trkpt>
        <trkpt lat="29.7969638" lon="103.4355587"><ele>578.17</ele><time>2026-03-12T00:38:42.000Z</time></trkpt>
        <trkpt lat="29.7970074" lon="103.4355567"><ele>573.32</ele><time>2026-03-12T00:38:54.000Z</time></trkpt>
        <trkpt lat="29.7970353" lon="103.4355174"><ele>570.17</ele><time>2026-03-12T00:39:04.000Z</time></trkpt>
        <trkpt lat="29.7970282" lon="103.435461"><ele>566.82</ele><time>2026-03-12T00:39:10.000Z</time></trkpt>
        <trkpt lat="29.7970176" lon="103.4353964"><ele>564.69</ele><time>2026-03-12T00:39:16.000Z</time></trkpt>
        <trkpt lat="29.7970459" lon="103.4353519"><ele>562.76</ele><time>2026-03-12T00:39:22.000Z</time></trkpt>
        <trkpt lat="29.7970755" lon="103.4353144"><ele>561.42</ele><time>2026-03-12T00:39:28.000Z</time></trkpt>
        <trkpt lat="29.797106" lon="103.4352634"><ele>559.07</ele><time>2026-03-12T00:39:52.000Z</time></trkpt>
        <trkpt lat="29.7971181" lon="103.4352473"><ele>557.66</ele><time>2026-03-12T00:39:56.000Z</time></trkpt>
        <trkpt lat="29.7971404" lon="103.4352024"><ele>557.11</ele><time>2026-03-12T00:40:10.000Z</time></trkpt>
        <trkpt lat="29.7971684" lon="103.4352279"><ele>555.59</ele><time>2026-03-12T00:40:20.000Z</time></trkpt>
        <trkpt lat="29.7971751" lon="103.4352762"><ele>554.28</ele><time>2026-03-12T00:40:26.000Z</time></trkpt>
        <trkpt lat="29.7971641" lon="103.4353427"><ele>553.21</ele><time>2026-03-12T00:40:32.000Z</time></trkpt>
        <trkpt lat="29.797161" lon="103.4354079"><ele>551.73</ele><time>2026-03-12T00:40:36.000Z</time></trkpt>
        <trkpt lat="29.7971766" lon="103.4354672"><ele>550.39</ele><time>2026-03-12T00:40:40.000Z</time></trkpt>
        <trkpt lat="29.7972111" lon="103.4355125"><ele>549.58</ele><time>2026-03-12T00:40:44.000Z</time></trkpt>
        <trkpt lat="29.7972607" lon="103.4354974"><ele>549.31</ele><time>2026-03-12T00:40:50.000Z</time></trkpt>
        <trkpt lat="29.7972591" lon="103.435445"><ele>550.07</ele><time>2026-03-12T00:40:54.000Z</time></trkpt>
        <trkpt lat="29.7972457" lon="103.4353828"><ele>550.86</ele><time>2026-03-12T00:40:58.000Z</time></trkpt>
        <trkpt lat="29.7972326" lon="103.4353081"><ele>551.81</ele><time>2026-03-12T00:41:04.000Z</time></trkpt>
        <trkpt lat="29.7972428" lon="103.4352328"><ele>551.25</ele><time>2026-03-12T00:41:10.000Z</time></trkpt>
        <trkpt lat="29.7972659" lon="103.4351767"><ele>549.86</ele><time>2026-03-12T00:41:14.000Z</time></trkpt>
        <trkpt lat="29.7972962" lon="103.4351152"><ele>548.21</ele><time>2026-03-12T00:41:20.000Z</time></trkpt>
        <trkpt lat="29.7973466" lon="103.4350699"><ele>545.6</ele><time>2026-03-12T00:41:26.000Z</time></trkpt>
        <trkpt lat="29.7973973" lon="103.4350585"><ele>543.7</ele><time>2026-03-12T00:41:30.000Z</time></trkpt>
        <trkpt lat="29.7974241" lon="103.4350971"><ele>542.94</ele><time>2026-03-12T00:41:54.000Z</time></trkpt>
        <trkpt lat="29.7974087" lon="103.4351608"><ele>542.42</ele><time>2026-03-12T00:42:00.000Z</time></trkpt>
        <trkpt lat="29.7974054" lon="103.4351909"><ele>542.75</ele><time>2026-03-12T00:42:02.000Z</time></trkpt>
        <trkpt lat="29.7973838" lon="103.4352314"><ele>542.23</ele><time>2026-03-12T00:42:10.000Z</time></trkpt>
        <trkpt lat="29.7973409" lon="103.4352764"><ele>542.86</ele><time>2026-03-12T00:42:14.000Z</time></trkpt>
        <trkpt lat="29.7973255" lon="103.4353372"><ele>543.89</ele><time>2026-03-12T00:42:18.000Z</time></trkpt>
        <trkpt lat="29.7973365" lon="103.4354005"><ele>544.13</ele><time>2026-03-12T00:42:22.000Z</time></trkpt>
        <trkpt lat="29.797362" lon="103.4354529"><ele>543.89</ele><time>2026-03-12T00:42:26.000Z</time></trkpt>
        <trkpt lat="29.797402" lon="103.4355123"><ele>542.59</ele><time>2026-03-12T00:42:32.000Z</time></trkpt>
        <trkpt lat="29.7974177" lon="103.4355388"><ele>541.16</ele><time>2026-03-12T00:42:38.000Z</time></trkpt>
        <trkpt lat="29.7974232" lon="103.4354965"><ele>539.87</ele><time>2026-03-12T00:42:44.000Z</time></trkpt>
        <trkpt lat="29.7974544" lon="103.4354904"><ele>539.02</ele><time>2026-03-12T00:42:54.000Z</time></trkpt>
        <trkpt lat="29.7975154" lon="103.4354961"><ele>536.57</ele><time>2026-03-12T00:43:00.000Z</time></trkpt>
        <trkpt lat="29.7975377" lon="103.4354516"><ele>534.62</ele><time>2026-03-12T00:43:22.000Z</time></trkpt>
        <trkpt lat="29.7975738" lon="103.4354706"><ele>533.49</ele><time>2026-03-12T00:43:34.000Z</time></trkpt>
        <trkpt lat="29.7976206" lon="103.435502"><ele>532.55</ele><time>2026-03-12T00:43:40.000Z</time></trkpt>
        <trkpt lat="29.7976597" lon="103.4354776"><ele>531.62</ele><time>2026-03-12T00:43:46.000Z</time></trkpt>
        <trkpt lat="29.7976735" lon="103.435421"><ele>530.97</ele><time>2026-03-12T00:43:52.000Z</time></trkpt>
        <trkpt lat="29.7976962" lon="103.4353815"><ele>530.48</ele><time>2026-03-12T00:43:59.000Z</time></trkpt>
        <trkpt lat="29.7977318" lon="103.4353443"><ele>530.32</ele><time>2026-03-12T00:44:27.000Z</time></trkpt>
        <trkpt lat="29.7977748" lon="103.4353136"><ele>530.13</ele><time>2026-03-12T00:44:33.000Z</time></trkpt>
        <trkpt lat="29.7978096" lon="103.4352745"><ele>528.91</ele><time>2026-03-12T00:44:39.000Z</time></trkpt>
        <trkpt lat="29.7978576" lon="103.43524"><ele>527.55</ele><time>2026-03-12T00:45:01.000Z</time></trkpt>
        <trkpt lat="29.7978949" lon="103.4351994"><ele>526.67</ele><time>2026-03-12T00:45:07.000Z</time></trkpt>
        <trkpt lat="29.7979402" lon="103.4351595"><ele>526.01</ele><time>2026-03-12T00:45:15.000Z</time></trkpt>
        <trkpt lat="29.7979903" lon="103.43515"><ele>525.08</ele><time>2026-03-12T00:45:21.000Z</time></trkpt>
        <trkpt lat="29.798029" lon="103.4351122"><ele>523.97</ele><time>2026-03-12T00:45:29.000Z</time></trkpt>
        <trkpt lat="29.7980418" lon="103.4350531"><ele>522.38</ele><time>2026-03-12T00:45:37.000Z</time></trkpt>
        <trkpt lat="29.7980598" lon="103.4349953"><ele>520.67</ele><time>2026-03-12T00:45:41.000Z</time></trkpt>
        <trkpt lat="29.7980767" lon="103.4349271"><ele>519.01</ele><time>2026-03-12T00:45:43.000Z</time></trkpt>
        <trkpt lat="29.7980936" lon="103.4348553"><ele>517.59</ele><time>2026-03-12T00:45:45.000Z</time></trkpt>
        <trkpt lat="29.7981216" lon="103.4347853"><ele>516.54</ele><time>2026-03-12T00:45:49.000Z</time></trkpt>
        <trkpt lat="29.7981333" lon="103.4347075"><ele>515.92</ele><time>2026-03-12T00:45:53.000Z</time></trkpt>
        <trkpt lat="29.7981637" lon="103.4347282"><ele>515.13</ele><time>2026-03-12T00:46:01.000Z</time></trkpt>
        <trkpt lat="29.7981974" lon="103.4346859"><ele>510.53</ele><time>2026-03-12T00:46:13.000Z</time></trkpt>
        <trkpt lat="29.7982315" lon="103.4346147"><ele>508.76</ele><time>2026-03-12T00:46:17.000Z</time></trkpt>
        <trkpt lat="29.7982488" lon="103.4345524"><ele>508.52</ele><time>2026-03-12T00:46:21.000Z</time></trkpt>
        <trkpt lat="29.7982806" lon="103.4344977"><ele>508.27</ele><time>2026-03-12T00:46:27.000Z</time></trkpt>
        <trkpt lat="29.7982935" lon="103.4344423"><ele>508.66</ele><time>2026-03-12T00:46:31.000Z</time></trkpt>
        <trkpt lat="29.7982982" lon="103.4343876"><ele>509.25</ele><time>2026-03-12T00:46:35.000Z</time></trkpt>
        <trkpt lat="29.7983072" lon="103.4343165"><ele>510.05</ele><time>2026-03-12T00:46:41.000Z</time></trkpt>
        <trkpt lat="29.798345" lon="103.4342636"><ele>510.21</ele><time>2026-03-12T00:46:47.000Z</time></trkpt>
        <trkpt lat="29.7983625" lon="103.4341959"><ele>509.97</ele><time>2026-03-12T00:46:53.000Z</time></trkpt>
        <trkpt lat="29.7983646" lon="103.4341716"><ele>510.43</ele><time>2026-03-12T00:46:55.000Z</time></trkpt>
        <trkpt lat="29.7983506" lon="103.4341329"><ele>510.66</ele><time>2026-03-12T00:47:05.000Z</time></trkpt>
        <trkpt lat="29.7983473" lon="103.4340812"><ele>510.72</ele><time>2026-03-12T00:47:11.000Z</time></trkpt>
        <trkpt lat="29.7983533" lon="103.4340287"><ele>510.61</ele><time>2026-03-12T00:47:17.000Z</time></trkpt>
        <trkpt lat="29.7983541" lon="103.4339689"><ele>510.35</ele><time>2026-03-12T00:47:23.000Z</time></trkpt>
        <trkpt lat="29.7983792" lon="103.4339075"><ele>509.73</ele><time>2026-03-12T00:47:31.000Z</time></trkpt>
        <trkpt lat="29.7984085" lon="103.4338564"><ele>507.91</ele><time>2026-03-12T00:47:37.000Z</time></trkpt>
        <trkpt lat="29.7984458" lon="103.433813"><ele>505.83</ele><time>2026-03-12T00:47:45.000Z</time></trkpt>
        <trkpt lat="29.7984568" lon="103.4337448"><ele>504.19</ele><time>2026-03-12T00:47:51.000Z</time></trkpt>
        <trkpt lat="29.7984441" lon="103.4336921"><ele>501.76</ele><time>2026-03-12T00:47:59.000Z</time></trkpt>
        <trkpt lat="29.798453" lon="103.4336435"><ele>499.99</ele><time>2026-03-12T00:48:31.000Z</time></trkpt>
        <trkpt lat="29.7984569" lon="103.4336283"><ele>497.56</ele><time>2026-03-12T00:48:35.000Z</time></trkpt>
        <trkpt lat="29.7984961" lon="103.433619"><ele>496.02</ele><time>2026-03-12T00:49:13.000Z</time></trkpt>
        <trkpt lat="29.7984961" lon="103.433619"><ele>496.02</ele><time>2026-03-12T00:49:24.000Z</time></trkpt>
        <trkpt lat="29.7985327" lon="103.4335872"><ele>492.75</ele><time>2026-03-12T00:49:25.000Z</time></trkpt>
        <trkpt lat="29.7985327" lon="103.4335872"><ele>492.75</ele><time>2026-03-12T00:49:39.000Z</time></trkpt>
        <trkpt lat="29.7985523" lon="103.4335391"><ele>489.6</ele><time>2026-03-12T00:49:45.000Z</time></trkpt>
        <trkpt lat="29.7985704" lon="103.4334867"><ele>487.13</ele><time>2026-03-12T00:49:51.000Z</time></trkpt>
        <trkpt lat="29.7985741" lon="103.4334284"><ele>485.55</ele><time>2026-03-12T00:49:55.000Z</time></trkpt>
        <trkpt lat="29.7985899" lon="103.4333685"><ele>485.25</ele><time>2026-03-12T00:50:03.000Z</time></trkpt>
        <trkpt lat="29.798622" lon="103.4333086"><ele>484.69</ele><time>2026-03-12T00:50:11.000Z</time></trkpt>
        <trkpt lat="29.7986367" lon="103.4332864"><ele>482.91</ele><time>2026-03-12T00:50:15.000Z</time></trkpt>
        <trkpt lat="29.7986512" lon="103.4332306"><ele>481.96</ele><time>2026-03-12T00:50:21.000Z</time></trkpt>
        <trkpt lat="29.7986768" lon="103.4331814"><ele>480.65</ele><time>2026-03-12T00:50:25.000Z</time></trkpt>
        <trkpt lat="29.7986951" lon="103.4331322"><ele>479.01</ele><time>2026-03-12T00:50:31.000Z</time></trkpt>
        <trkpt lat="29.7986894" lon="103.4330794"><ele>477.45</ele><time>2026-03-12T00:50:35.000Z</time></trkpt>
        <trkpt lat="29.7986782" lon="103.433023"><ele>476.23</ele><time>2026-03-12T00:50:39.000Z</time></trkpt>
        <trkpt lat="29.7986756" lon="103.4329578"><ele>475.83</ele><time>2026-03-12T00:50:45.000Z</time></trkpt>
        <trkpt lat="29.7986699" lon="103.4329399"><ele>474.71</ele><time>2026-03-12T00:50:47.000Z</time></trkpt>
        <trkpt lat="29.7986699" lon="103.4329399"><ele>474.71</ele><time>2026-03-12T00:51:04.000Z</time></trkpt>
        <trkpt lat="29.7986699" lon="103.4328909"><ele>474.39</ele><time>2026-03-12T00:51:11.000Z</time></trkpt>
        <trkpt lat="29.7986699" lon="103.4328909"><ele>474.39</ele><time>2026-03-12T00:51:17.000Z</time></trkpt>
        <trkpt lat="29.7986545" lon="103.4328414"><ele>473.99</ele><time>2026-03-12T00:51:21.000Z</time></trkpt>
        <trkpt lat="29.7986478" lon="103.4327772"><ele>474.03</ele><time>2026-03-12T00:51:27.000Z</time></trkpt>
        <trkpt lat="29.7986166" lon="103.4327189"><ele>473.83</ele><time>2026-03-12T00:51:33.000Z</time></trkpt>
        <trkpt lat="29.7985991" lon="103.4326578"><ele>473.63</ele><time>2026-03-12T00:51:45.000Z</time></trkpt>
        <trkpt lat="29.7986248" lon="103.432611"><ele>474.02</ele><time>2026-03-12T00:51:51.000Z</time></trkpt>
        <trkpt lat="29.798661" lon="103.4325713"><ele>474.66</ele><time>2026-03-12T00:51:59.000Z</time></trkpt>
        <trkpt lat="29.7986875" lon="103.4325273"><ele>474.22</ele><time>2026-03-12T00:52:05.000Z</time></trkpt>
        <trkpt lat="29.7986986" lon="103.4324963"><ele>473.03</ele><time>2026-03-12T00:52:13.000Z</time></trkpt>
        <trkpt lat="29.7987386" lon="103.4324781"><ele>471.14</ele><time>2026-03-12T00:52:23.000Z</time></trkpt>
        <trkpt lat="29.7987674" lon="103.4324358"><ele>468.4</ele><time>2026-03-12T00:52:31.000Z</time></trkpt>
        <trkpt lat="29.7987807" lon="103.4323802"><ele>466.68</ele><time>2026-03-12T00:52:37.000Z</time></trkpt>
        <trkpt lat="29.7988044" lon="103.4323243"><ele>464.78</ele><time>2026-03-12T00:52:43.000Z</time></trkpt>
        <trkpt lat="29.7988434" lon="103.4322849"><ele>464.12</ele><time>2026-03-12T00:52:49.000Z</time></trkpt>
        <trkpt lat="29.7988488" lon="103.432237"><ele>462.98</ele><time>2026-03-12T00:52:55.000Z</time></trkpt>
        <trkpt lat="29.7988828" lon="103.4322422"><ele>461.97</ele><time>2026-03-12T00:53:05.000Z</time></trkpt>
        <trkpt lat="29.7988915" lon="103.4322524"><ele>460.71</ele><time>2026-03-12T00:53:07.000Z</time></trkpt>
        <trkpt lat="29.7989269" lon="103.4322593"><ele>459.88</ele><time>2026-03-12T00:53:25.000Z</time></trkpt>
        <trkpt lat="29.7989548" lon="103.432305"><ele>457.31</ele><time>2026-03-12T00:53:51.000Z</time></trkpt>
        <trkpt lat="29.7989851" lon="103.4322909"><ele>453.92</ele><time>2026-03-12T00:53:55.000Z</time></trkpt>
        <trkpt lat="29.7989735" lon="103.432286"><ele>452.09</ele><time>2026-03-12T00:53:57.000Z</time></trkpt>
        <trkpt lat="29.7989735" lon="103.432286"><ele>452.09</ele><time>2026-03-12T00:54:44.000Z</time></trkpt>
        <trkpt lat="29.798932" lon="103.4322866"><ele>450.72</ele><time>2026-03-12T00:54:51.000Z</time></trkpt>
        <trkpt lat="29.798932" lon="103.4322866"><ele>450.72</ele><time>2026-03-12T00:54:54.000Z</time></trkpt>
        <trkpt lat="29.7988565" lon="103.4322803"><ele>449.82</ele><time>2026-03-12T00:54:57.000Z</time></trkpt>
        <trkpt lat="29.7988487" lon="103.4323128"><ele>453.13</ele><time>2026-03-12T00:55:01.000Z</time></trkpt>
        <trkpt lat="29.7988757" lon="103.4323607"><ele>451.9</ele><time>2026-03-12T00:55:17.000Z</time></trkpt>
        <trkpt lat="29.7989215" lon="103.4323653"><ele>450.49</ele><time>2026-03-12T00:55:29.000Z</time></trkpt>
        <trkpt lat="29.7989738" lon="103.4323247"><ele>449.22</ele><time>2026-03-12T00:55:51.000Z</time></trkpt>
        <trkpt lat="29.798989" lon="103.4322638"><ele>446.52</ele><time>2026-03-12T00:56:17.000Z</time></trkpt>
        <trkpt lat="29.798989" lon="103.4322638"><ele>446.52</ele><time>2026-03-12T00:56:30.000Z</time></trkpt>
        <trkpt lat="29.7989646" lon="103.4321941"><ele>445.65</ele><time>2026-03-12T00:56:37.000Z</time></trkpt>
        <trkpt lat="29.7989646" lon="103.4321941"><ele>445.65</ele><time>2026-03-12T00:56:42.000Z</time></trkpt>
        <trkpt lat="29.7989646" lon="103.4321941"><ele>445.65</ele><time>2026-03-12T00:56:48.000Z</time></trkpt>
        <trkpt lat="29.7989478" lon="103.4322293"><ele>443.37</ele><time>2026-03-12T00:57:03.000Z</time></trkpt>
        <trkpt lat="29.7989478" lon="103.4322293"><ele>443.37</ele><time>2026-03-12T00:57:08.000Z</time></trkpt>
        <trkpt lat="29.7989478" lon="103.4322293"><ele>443.37</ele><time>2026-03-12T00:57:24.000Z</time></trkpt>
        <trkpt lat="29.7989872" lon="103.4322844"><ele>441.12</ele><time>2026-03-12T00:57:33.000Z</time></trkpt>
        <trkpt lat="29.7989872" lon="103.4322844"><ele>441.12</ele><time>2026-03-12T00:57:38.000Z</time></trkpt>
        <trkpt lat="29.7989872" lon="103.4322844"><ele>441.12</ele><time>2026-03-12T00:57:58.000Z</time></trkpt>
        <trkpt lat="29.7989779" lon="103.4323401"><ele>444.81</ele><time>2026-03-12T00:58:05.000Z</time></trkpt>
        <trkpt lat="29.7989779" lon="103.4323401"><ele>444.81</ele><time>2026-03-12T00:58:24.000Z</time></trkpt>
        <trkpt lat="29.7989779" lon="103.4323401"><ele>444.81</ele><time>2026-03-12T00:58:26.000Z</time></trkpt>
        <trkpt lat="29.7989779" lon="103.4323401"><ele>444.81</ele><time>2026-03-12T00:58:29.000Z</time></trkpt>
        <trkpt lat="29.7989779" lon="103.4323401"><ele>444.81</ele><time>2026-03-12T00:58:44.000Z</time></trkpt>
        <trkpt lat="29.7989908" lon="103.4323228"><ele>447.23</ele><time>2026-03-12T00:58:49.000Z</time></trkpt>
        <trkpt lat="29.7989908" lon="103.4323228"><ele>447.23</ele><time>2026-03-12T00:58:53.000Z</time></trkpt>
        <trkpt lat="29.7989908" lon="103.4323228"><ele>447.23</ele><time>2026-03-12T01:00:26.000Z</time></trkpt>
        <trkpt lat="29.7989908" lon="103.4323228"><ele>447.23</ele><time>2026-03-12T01:00:55.000Z</time></trkpt>
        <trkpt lat="29.7989908" lon="103.4323228"><ele>447.23</ele><time>2026-03-12T01:01:06.000Z</time></trkpt>
        <trkpt lat="29.7989908" lon="103.4323228"><ele>447.23</ele><time>2026-03-12T01:02:07.000Z</time></trkpt>
        <trkpt lat="29.7989908" lon="103.4323228"><ele>447.23</ele><time>2026-03-12T01:02:18.000Z</time></trkpt>
        <trkpt lat="29.7989908" lon="103.4323228"><ele>447.23</ele><time>2026-03-12T01:02:19.000Z</time></trkpt>
        <trkpt lat="29.7989908" lon="103.4323228"><ele>447.23</ele><time>2026-03-12T01:02:30.000Z</time></trkpt>
        <trkpt lat="29.7989908" lon="103.4323228"><ele>447.23</ele><time>2026-03-12T01:03:07.000Z</time></trkpt>
        <trkpt lat="29.7989908" lon="103.4323228"><ele>447.23</ele><time>2026-03-12T01:03:24.000Z</time></trkpt>
        <trkpt lat="29.7990404" lon="103.4323122"><ele>448.78</ele><time>2026-03-12T01:04:59.000Z</time></trkpt>
        <trkpt lat="29.7990404" lon="103.4323122"><ele>448.78</ele><time>2026-03-12T01:05:32.000Z</time></trkpt>
        <trkpt lat="29.7990404" lon="103.4323122"><ele>448.78</ele><time>2026-03-12T01:05:40.000Z</time></trkpt>
        <trkpt lat="29.7990404" lon="103.4323122"><ele>448.78</ele><time>2026-03-12T01:05:49.000Z</time></trkpt>
        <trkpt lat="29.7990404" lon="103.4323122"><ele>448.78</ele><time>2026-03-12T01:06:08.000Z</time></trkpt>
        <trkpt lat="29.7990326" lon="103.4322587"><ele>450.5</ele><time>2026-03-12T01:06:51.000Z</time></trkpt>
        <trkpt lat="29.7990326" lon="103.4322587"><ele>450.5</ele><time>2026-03-12T01:07:26.000Z</time></trkpt>
        <trkpt lat="29.7990326" lon="103.4322587"><ele>450.5</ele><time>2026-03-12T01:07:32.000Z</time></trkpt>
        <trkpt lat="29.7990326" lon="103.4322587"><ele>450.5</ele><time>2026-03-12T01:07:33.000Z</time></trkpt>
        <trkpt lat="29.7990326" lon="103.4322587"><ele>450.5</ele><time>2026-03-12T01:07:44.000Z</time></trkpt>
        <trkpt lat="29.7990326" lon="103.4322587"><ele>450.5</ele><time>2026-03-12T01:07:51.000Z</time></trkpt>
        <trkpt lat="29.7990326" lon="103.4322587"><ele>450.5</ele><time>2026-03-12T01:08:04.000Z</time></trkpt>
        <trkpt lat="29.79908" lon="103.4322474"><ele>446.82</ele><time>2026-03-12T01:08:09.000Z</time></trkpt>
        <trkpt lat="29.79908" lon="103.4322474"><ele>446.82</ele><time>2026-03-12T01:08:30.000Z</time></trkpt>
        <trkpt lat="29.7991261" lon="103.4322121"><ele>444.94</ele><time>2026-03-12T01:08:34.000Z</time></trkpt>
        <trkpt lat="29.7991553" lon="103.4321646"><ele>444</ele><time>2026-03-12T01:08:38.000Z</time></trkpt>
        <trkpt lat="29.7991753" lon="103.4321137"><ele>444.26</ele><time>2026-03-12T01:08:44.000Z</time></trkpt>
        <trkpt lat="29.7992181" lon="103.4320997"><ele>446.91</ele><time>2026-03-12T01:08:50.000Z</time></trkpt>
        <trkpt lat="29.7992687" lon="103.4320841"><ele>448.25</ele><time>2026-03-12T01:08:56.000Z</time></trkpt>
        <trkpt lat="29.7993247" lon="103.4320698"><ele>449.27</ele><time>2026-03-12T01:09:02.000Z</time></trkpt>
        <trkpt lat="29.7993778" lon="103.4320538"><ele>450.2</ele><time>2026-03-12T01:09:08.000Z</time></trkpt>
        <trkpt lat="29.7994387" lon="103.4320498"><ele>450.14</ele><time>2026-03-12T01:09:14.000Z</time></trkpt>
        <trkpt lat="29.7995009" lon="103.4320343"><ele>452.44</ele><time>2026-03-12T01:09:20.000Z</time></trkpt>
        <trkpt lat="29.7995545" lon="103.4320197"><ele>454.77</ele><time>2026-03-12T01:09:26.000Z</time></trkpt>
        <trkpt lat="29.7996079" lon="103.4320165"><ele>457.09</ele><time>2026-03-12T01:09:32.000Z</time></trkpt>
        <trkpt lat="29.7996665" lon="103.4319995"><ele>459.83</ele><time>2026-03-12T01:09:38.000Z</time></trkpt>
        <trkpt lat="29.7997207" lon="103.4319792"><ele>462.09</ele><time>2026-03-12T01:09:44.000Z</time></trkpt>
        <trkpt lat="29.7997722" lon="103.4319578"><ele>464.8</ele><time>2026-03-12T01:09:50.000Z</time></trkpt>
        <trkpt lat="29.7998363" lon="103.4319466"><ele>467.17</ele><time>2026-03-12T01:09:56.000Z</time></trkpt>
        <trkpt lat="29.7998892" lon="103.43194"><ele>468.31</ele><time>2026-03-12T01:10:00.000Z</time></trkpt>
        <trkpt lat="29.7999367" lon="103.431942"><ele>468.63</ele><time>2026-03-12T01:10:04.000Z</time></trkpt>
        <trkpt lat="29.7999822" lon="103.4319617"><ele>468.02</ele><time>2026-03-12T01:10:08.000Z</time></trkpt>
        <trkpt lat="29.8000187" lon="103.4319983"><ele>465.53</ele><time>2026-03-12T01:10:12.000Z</time></trkpt>
        <trkpt lat="29.8000623" lon="103.4320372"><ele>463.05</ele><time>2026-03-12T01:10:18.000Z</time></trkpt>
        <trkpt lat="29.8001191" lon="103.4320698"><ele>461.94</ele><time>2026-03-12T01:10:24.000Z</time></trkpt>
        <trkpt lat="29.8001444" lon="103.4320547"><ele>459.03</ele><time>2026-03-12T01:10:32.000Z</time></trkpt>
        <trkpt lat="29.8001841" lon="103.4320528"><ele>455.54</ele><time>2026-03-12T01:10:38.000Z</time></trkpt>
        <trkpt lat="29.800228" lon="103.432086"><ele>449.7</ele><time>2026-03-12T01:10:42.000Z</time></trkpt>
        <trkpt lat="29.8002567" lon="103.4321396"><ele>444.73</ele><time>2026-03-12T01:10:46.000Z</time></trkpt>
        <trkpt lat="29.8003014" lon="103.4321759"><ele>441.96</ele><time>2026-03-12T01:10:52.000Z</time></trkpt>
        <trkpt lat="29.8003542" lon="103.4322025"><ele>438.64</ele><time>2026-03-12T01:10:58.000Z</time></trkpt>
        <trkpt lat="29.8004046" lon="103.4322248"><ele>437.18</ele><time>2026-03-12T01:11:04.000Z</time></trkpt>
        <trkpt lat="29.8004604" lon="103.4322585"><ele>435.24</ele><time>2026-03-12T01:11:10.000Z</time></trkpt>
        <trkpt lat="29.8005135" lon="103.4322863"><ele>434.62</ele><time>2026-03-12T01:11:16.000Z</time></trkpt>
        <trkpt lat="29.8005607" lon="103.432292"><ele>434.08</ele><time>2026-03-12T01:11:20.000Z</time></trkpt>
        <trkpt lat="29.8006059" lon="103.4322878"><ele>435</ele><time>2026-03-12T01:11:24.000Z</time></trkpt>
        <trkpt lat="29.800654" lon="103.4322719"><ele>436.77</ele><time>2026-03-12T01:11:30.000Z</time></trkpt>
        <trkpt lat="29.8007041" lon="103.4322711"><ele>439.03</ele><time>2026-03-12T01:11:38.000Z</time></trkpt>
        <trkpt lat="29.8007041" lon="103.4322711"><ele>439.03</ele><time>2026-03-12T01:12:06.000Z</time></trkpt>
        <trkpt lat="29.8007262" lon="103.4322337"><ele>440.75</ele><time>2026-03-12T01:12:17.000Z</time></trkpt>
        <trkpt lat="29.8007262" lon="103.4322337"><ele>440.75</ele><time>2026-03-12T01:12:22.000Z</time></trkpt>
        <trkpt lat="29.8007634" lon="103.4322391"><ele>451.66</ele><time>2026-03-12T01:12:30.000Z</time></trkpt>
        <trkpt lat="29.800815" lon="103.4322376"><ele>456.04</ele><time>2026-03-12T01:12:38.000Z</time></trkpt>
        <trkpt lat="29.8008719" lon="103.4322234"><ele>457.66</ele><time>2026-03-12T01:12:44.000Z</time></trkpt>
        <trkpt lat="29.8009123" lon="103.4321787"><ele>459.15</ele><time>2026-03-12T01:12:56.000Z</time></trkpt>
        <trkpt lat="29.8009561" lon="103.4321835"><ele>460.07</ele><time>2026-03-12T01:13:00.000Z</time></trkpt>
        <trkpt lat="29.8009958" lon="103.4322152"><ele>461.49</ele><time>2026-03-12T01:13:04.000Z</time></trkpt>
        <trkpt lat="29.8010554" lon="103.432205"><ele>462.95</ele><time>2026-03-12T01:13:17.000Z</time></trkpt>
        <trkpt lat="29.801116" lon="103.4321819"><ele>463.78</ele><time>2026-03-12T01:13:23.000Z</time></trkpt>
        <trkpt lat="29.8011549" lon="103.4321394"><ele>464.5</ele><time>2026-03-12T01:13:29.000Z</time></trkpt>
        <trkpt lat="29.8012012" lon="103.4321096"><ele>464.39</ele><time>2026-03-12T01:13:35.000Z</time></trkpt>
        <trkpt lat="29.8012512" lon="103.4320877"><ele>462.97</ele><time>2026-03-12T01:13:45.000Z</time></trkpt>
        <trkpt lat="29.8012781" lon="103.4320314"><ele>458.44</ele><time>2026-03-12T01:13:51.000Z</time></trkpt>
        <trkpt lat="29.8012867" lon="103.4319636"><ele>453.92</ele><time>2026-03-12T01:13:57.000Z</time></trkpt>
        <trkpt lat="29.8012937" lon="103.4319014"><ele>448.79</ele><time>2026-03-12T01:14:03.000Z</time></trkpt>
        <trkpt lat="29.8013259" lon="103.4318471"><ele>443.55</ele><time>2026-03-12T01:14:09.000Z</time></trkpt>
        <trkpt lat="29.801369" lon="103.4317939"><ele>440.13</ele><time>2026-03-12T01:14:19.000Z</time></trkpt>
        <trkpt lat="29.8014217" lon="103.4317604"><ele>438.41</ele><time>2026-03-12T01:14:41.000Z</time></trkpt>
        <trkpt lat="29.8014527" lon="103.4317324"><ele>427.83</ele><time>2026-03-12T01:14:50.000Z</time></trkpt>
        <trkpt lat="29.801504" lon="103.4317168"><ele>420.83</ele><time>2026-03-12T01:14:58.000Z</time></trkpt>
        <trkpt lat="29.8015566" lon="103.4316936"><ele>417.74</ele><time>2026-03-12T01:15:22.000Z</time></trkpt>
        <trkpt lat="29.8016051" lon="103.4316793"><ele>413.22</ele><time>2026-03-12T01:15:32.000Z</time></trkpt>
        <trkpt lat="29.8016584" lon="103.4316788"><ele>412.42</ele><time>2026-03-12T01:15:40.000Z</time></trkpt>
        <trkpt lat="29.8017049" lon="103.4316911"><ele>411.93</ele><time>2026-03-12T01:15:56.000Z</time></trkpt>
        <trkpt lat="29.8017443" lon="103.4317376"><ele>410.3</ele><time>2026-03-12T01:16:06.000Z</time></trkpt>
        <trkpt lat="29.801786" lon="103.4317987"><ele>406.1</ele><time>2026-03-12T01:16:12.000Z</time></trkpt>
        <trkpt lat="29.8018329" lon="103.4318269"><ele>400.02</ele><time>2026-03-12T01:16:16.000Z</time></trkpt>
        <trkpt lat="29.8018854" lon="103.4318299"><ele>395.69</ele><time>2026-03-12T01:16:32.000Z</time></trkpt>
        <trkpt lat="29.8019375" lon="103.4318584"><ele>393.53</ele><time>2026-03-12T01:16:38.000Z</time></trkpt>
        <trkpt lat="29.8019911" lon="103.4318652"><ele>393.07</ele><time>2026-03-12T01:16:46.000Z</time></trkpt>
        <trkpt lat="29.8020515" lon="103.4318623"><ele>395.42</ele><time>2026-03-12T01:16:50.000Z</time></trkpt>
        <trkpt lat="29.8020699" lon="103.4318601"><ele>398</ele><time>2026-03-12T01:16:54.000Z</time></trkpt>
        <trkpt lat="29.8021172" lon="103.4318657"><ele>400.2</ele><time>2026-03-12T01:17:00.000Z</time></trkpt>
        <trkpt lat="29.8021626" lon="103.4318824"><ele>403.04</ele><time>2026-03-12T01:17:04.000Z</time></trkpt>
        <trkpt lat="29.8022064" lon="103.4319162"><ele>407.3</ele><time>2026-03-12T01:17:16.000Z</time></trkpt>
        <trkpt lat="29.8022529" lon="103.4319427"><ele>414.46</ele><time>2026-03-12T01:17:24.000Z</time></trkpt>
        <trkpt lat="29.8022977" lon="103.4319644"><ele>420.82</ele><time>2026-03-12T01:17:32.000Z</time></trkpt>
        <trkpt lat="29.8023485" lon="103.4319747"><ele>424.02</ele><time>2026-03-12T01:17:38.000Z</time></trkpt>
        <trkpt lat="29.8023825" lon="103.4320178"><ele>425.69</ele><time>2026-03-12T01:17:44.000Z</time></trkpt>
        <trkpt lat="29.8024315" lon="103.4319983"><ele>427.79</ele><time>2026-03-12T01:17:48.000Z</time></trkpt>
        <trkpt lat="29.80242" lon="103.4319646"><ele>428.09</ele><time>2026-03-12T01:17:50.000Z</time></trkpt>
        <trkpt lat="29.8024492" lon="103.4319304"><ele>428.78</ele><time>2026-03-12T01:18:06.000Z</time></trkpt>
        <trkpt lat="29.8024872" lon="103.4319003"><ele>428.57</ele><time>2026-03-12T01:18:12.000Z</time></trkpt>
        <trkpt lat="29.8025352" lon="103.4319075"><ele>429.76</ele><time>2026-03-12T01:18:18.000Z</time></trkpt>
        <trkpt lat="29.8025827" lon="103.4318991"><ele>433.27</ele><time>2026-03-12T01:18:26.000Z</time></trkpt>
        <trkpt lat="29.8026302" lon="103.4318533"><ele>434.68</ele><time>2026-03-12T01:18:44.000Z</time></trkpt>
        <trkpt lat="29.8026387" lon="103.4317875"><ele>432.93</ele><time>2026-03-12T01:18:48.000Z</time></trkpt>
        <trkpt lat="29.8026611" lon="103.4317305"><ele>432.36</ele><time>2026-03-12T01:18:58.000Z</time></trkpt>
        <trkpt lat="29.8026982" lon="103.4316835"><ele>434.28</ele><time>2026-03-12T01:19:08.000Z</time></trkpt>
        <trkpt lat="29.8027512" lon="103.4316642"><ele>434.6</ele><time>2026-03-12T01:19:18.000Z</time></trkpt>
        <trkpt lat="29.8028066" lon="103.4316602"><ele>434.99</ele><time>2026-03-12T01:19:26.000Z</time></trkpt>
        <trkpt lat="29.8028581" lon="103.431657"><ele>434.78</ele><time>2026-03-12T01:19:34.000Z</time></trkpt>
        <trkpt lat="29.802876" lon="103.4316183"><ele>434.39</ele><time>2026-03-12T01:19:40.000Z</time></trkpt>
        <trkpt lat="29.8028949" lon="103.4315725"><ele>434.1</ele><time>2026-03-12T01:19:46.000Z</time></trkpt>
        <trkpt lat="29.8029292" lon="103.4315339"><ele>433.41</ele><time>2026-03-12T01:19:52.000Z</time></trkpt>
        <trkpt lat="29.8029749" lon="103.4314927"><ele>432.89</ele><time>2026-03-12T01:19:58.000Z</time></trkpt>
        <trkpt lat="29.8030118" lon="103.4314657"><ele>432.51</ele><time>2026-03-12T01:20:04.000Z</time></trkpt>
        <trkpt lat="29.8030549" lon="103.4314538"><ele>432.13</ele><time>2026-03-12T01:20:12.000Z</time></trkpt>
        <trkpt lat="29.8031099" lon="103.4314377"><ele>431.2</ele><time>2026-03-12T01:20:34.000Z</time></trkpt>
        <trkpt lat="29.8031445" lon="103.4314108"><ele>431.8</ele><time>2026-03-12T01:20:46.000Z</time></trkpt>
        <trkpt lat="29.8031816" lon="103.4313594"><ele>433.12</ele><time>2026-03-12T01:20:58.000Z</time></trkpt>
        <trkpt lat="29.8032134" lon="103.4313109"><ele>433.98</ele><time>2026-03-12T01:21:02.000Z</time></trkpt>
        <trkpt lat="29.8032452" lon="103.4312703"><ele>434.94</ele><time>2026-03-12T01:21:06.000Z</time></trkpt>
        <trkpt lat="29.8032782" lon="103.4312315"><ele>435.6</ele><time>2026-03-12T01:21:10.000Z</time></trkpt>
        <trkpt lat="29.8033058" lon="103.4311794"><ele>436.14</ele><time>2026-03-12T01:21:14.000Z</time></trkpt>
        <trkpt lat="29.8033541" lon="103.4311373"><ele>437.01</ele><time>2026-03-12T01:21:18.000Z</time></trkpt>
        <trkpt lat="29.8033664" lon="103.4311266"><ele>438.52</ele><time>2026-03-12T01:21:22.000Z</time></trkpt>
        <trkpt lat="29.803395" lon="103.4310931"><ele>439.28</ele><time>2026-03-12T01:21:30.000Z</time></trkpt>
        <trkpt lat="29.8034419" lon="103.4310624"><ele>439.43</ele><time>2026-03-12T01:21:38.000Z</time></trkpt>
        <trkpt lat="29.8034912" lon="103.4310219"><ele>438.72</ele><time>2026-03-12T01:21:44.000Z</time></trkpt>
        <trkpt lat="29.8035394" lon="103.4310363"><ele>438.23</ele><time>2026-03-12T01:21:48.000Z</time></trkpt>
        <trkpt lat="29.8035866" lon="103.4310698"><ele>437.25</ele><time>2026-03-12T01:21:54.000Z</time></trkpt>
        <trkpt lat="29.8036357" lon="103.4310866"><ele>436.26</ele><time>2026-03-12T01:22:08.000Z</time></trkpt>
        <trkpt lat="29.8036734" lon="103.4311196"><ele>436.15</ele><time>2026-03-12T01:22:16.000Z</time></trkpt>
        <trkpt lat="29.803721" lon="103.4311294"><ele>436.05</ele><time>2026-03-12T01:22:34.000Z</time></trkpt>
        <trkpt lat="29.8037014" lon="103.4311157"><ele>434.85</ele><time>2026-03-12T01:22:52.000Z</time></trkpt>
        <trkpt lat="29.8037014" lon="103.4311157"><ele>434.85</ele><time>2026-03-12T01:23:02.000Z</time></trkpt>
        <trkpt lat="29.8033752" lon="103.4309207"><ele>434.42</ele><time>2026-03-12T01:23:13.000Z</time></trkpt>
        <trkpt lat="29.8033752" lon="103.4309207"><ele>434.42</ele><time>2026-03-12T01:23:17.000Z</time></trkpt>
        <trkpt lat="29.8033371" lon="103.4308495"><ele>466.59</ele><time>2026-03-12T01:23:20.000Z</time></trkpt>
        <trkpt lat="29.8033753" lon="103.4308422"><ele>482.32</ele><time>2026-03-12T01:23:24.000Z</time></trkpt>
        <trkpt lat="29.8034233" lon="103.4308811"><ele>486.11</ele><time>2026-03-12T01:23:28.000Z</time></trkpt>
        <trkpt lat="29.8034761" lon="103.4309301"><ele>483.89</ele><time>2026-03-12T01:23:32.000Z</time></trkpt>
        <trkpt lat="29.8034761" lon="103.4309301"><ele>483.89</ele><time>2026-03-12T01:23:34.000Z</time></trkpt>
        <trkpt lat="29.8036084" lon="103.4311582"><ele>479.36</ele><time>2026-03-12T01:23:41.000Z</time></trkpt>
        <trkpt lat="29.8036084" lon="103.4311582"><ele>479.36</ele><time>2026-03-12T01:23:45.000Z</time></trkpt>
        <trkpt lat="29.8036277" lon="103.4312073"><ele>457.93</ele><time>2026-03-12T01:23:48.000Z</time></trkpt>
        <trkpt lat="29.8036277" lon="103.4312073"><ele>457.93</ele><time>2026-03-12T01:24:04.000Z</time></trkpt>
        <trkpt lat="29.8035941" lon="103.4311432"><ele>446.94</ele><time>2026-03-12T01:24:07.000Z</time></trkpt>
        <trkpt lat="29.8035941" lon="103.4311432"><ele>446.94</ele><time>2026-03-12T01:24:12.000Z</time></trkpt>
        <trkpt lat="29.8035649" lon="103.431147"><ele>438.65</ele><time>2026-03-12T01:24:30.000Z</time></trkpt>
        <trkpt lat="29.8034943" lon="103.4312039"><ele>432.09</ele><time>2026-03-12T01:24:36.000Z</time></trkpt>
        <trkpt lat="29.8034291" lon="103.4312354"><ele>428.03</ele><time>2026-03-12T01:24:38.000Z</time></trkpt>
        <trkpt lat="29.8034673" lon="103.4312512"><ele>425.83</ele><time>2026-03-12T01:24:46.000Z</time></trkpt>
        <trkpt lat="29.8034432" lon="103.4312311"><ele>424.66</ele><time>2026-03-12T01:24:50.000Z</time></trkpt>
        <trkpt lat="29.8033889" lon="103.43125"><ele>424.17</ele><time>2026-03-12T01:24:52.000Z</time></trkpt>
        <trkpt lat="29.803154" lon="103.4310001"><ele>423.93</ele><time>2026-03-12T01:25:00.000Z</time></trkpt>
        <trkpt lat="29.803154" lon="103.4310001"><ele>423.93</ele><time>2026-03-12T01:25:04.000Z</time></trkpt>
        <trkpt lat="29.8031143" lon="103.4308199"><ele>421.8</ele><time>2026-03-12T01:25:15.000Z</time></trkpt>
        <trkpt lat="29.8031143" lon="103.4308199"><ele>421.8</ele><time>2026-03-12T01:25:20.000Z</time></trkpt>
        <trkpt lat="29.8031484" lon="103.4307519"><ele>426.42</ele><time>2026-03-12T01:25:28.000Z</time></trkpt>
        <trkpt lat="29.8031484" lon="103.4307519"><ele>426.42</ele><time>2026-03-12T01:25:46.000Z</time></trkpt>
        <trkpt lat="29.8033077" lon="103.4309087"><ele>431.89</ele><time>2026-03-12T01:25:51.000Z</time></trkpt>
        <trkpt lat="29.8033077" lon="103.4309087"><ele>431.89</ele><time>2026-03-12T01:25:56.000Z</time></trkpt>
        <trkpt lat="29.8034572" lon="103.430993"><ele>433.41</ele><time>2026-03-12T01:25:59.000Z</time></trkpt>
        <trkpt lat="29.803559" lon="103.4310823"><ele>436.68</ele><time>2026-03-12T01:26:09.000Z</time></trkpt>
        <trkpt lat="29.8035961" lon="103.4311334"><ele>439.43</ele><time>2026-03-12T01:26:11.000Z</time></trkpt>
        <trkpt lat="29.803636" lon="103.4311311"><ele>439.31</ele><time>2026-03-12T01:26:19.000Z</time></trkpt>
        <trkpt lat="29.803677" lon="103.4311177"><ele>438.41</ele><time>2026-03-12T01:26:27.000Z</time></trkpt>
        <trkpt lat="29.8037184" lon="103.4310996"><ele>438.37</ele><time>2026-03-12T01:26:31.000Z</time></trkpt>
        <trkpt lat="29.8037644" lon="103.4310953"><ele>438.18</ele><time>2026-03-12T01:26:35.000Z</time></trkpt>
        <trkpt lat="29.8038175" lon="103.4311019"><ele>438.84</ele><time>2026-03-12T01:26:39.000Z</time></trkpt>
        <trkpt lat="29.8038687" lon="103.4311142"><ele>438.36</ele><time>2026-03-12T01:26:43.000Z</time></trkpt>
        <trkpt lat="29.8039218" lon="103.4311563"><ele>438.23</ele><time>2026-03-12T01:26:49.000Z</time></trkpt>
        <trkpt lat="29.8039652" lon="103.4311992"><ele>438.19</ele><time>2026-03-12T01:26:53.000Z</time></trkpt>
        <trkpt lat="29.8040029" lon="103.4312357"><ele>438.3</ele><time>2026-03-12T01:26:57.000Z</time></trkpt>
        <trkpt lat="29.8040476" lon="103.4312388"><ele>438.08</ele><time>2026-03-12T01:27:01.000Z</time></trkpt>
        <trkpt lat="29.8040932" lon="103.4312582"><ele>436.26</ele><time>2026-03-12T01:27:05.000Z</time></trkpt>
        <trkpt lat="29.8041365" lon="103.4312858"><ele>433.81</ele><time>2026-03-12T01:27:09.000Z</time></trkpt>
        <trkpt lat="29.8041935" lon="103.4313173"><ele>432.06</ele><time>2026-03-12T01:27:15.000Z</time></trkpt>
        <trkpt lat="29.8042408" lon="103.4313441"><ele>430.31</ele><time>2026-03-12T01:27:19.000Z</time></trkpt>
        <trkpt lat="29.8042849" lon="103.4313642"><ele>428.81</ele><time>2026-03-12T01:27:23.000Z</time></trkpt>
        <trkpt lat="29.8043311" lon="103.4313866"><ele>426.9</ele><time>2026-03-12T01:27:27.000Z</time></trkpt>
        <trkpt lat="29.8043745" lon="103.4314251"><ele>424.84</ele><time>2026-03-12T01:27:31.000Z</time></trkpt>
        <trkpt lat="29.8044128" lon="103.431467"><ele>422.45</ele><time>2026-03-12T01:27:35.000Z</time></trkpt>
        <trkpt lat="29.8044519" lon="103.431529"><ele>420.99</ele><time>2026-03-12T01:27:47.000Z</time></trkpt>
        <trkpt lat="29.8044615" lon="103.4315516"><ele>420.3</ele><time>2026-03-12T01:27:49.000Z</time></trkpt>
        <trkpt lat="29.8044612" lon="103.4316024"><ele>419.5</ele><time>2026-03-12T01:28:07.000Z</time></trkpt>
        <trkpt lat="29.804474" lon="103.4316518"><ele>419.12</ele><time>2026-03-12T01:28:17.000Z</time></trkpt>
        <trkpt lat="29.8045083" lon="103.431684"><ele>418.47</ele><time>2026-03-12T01:28:21.000Z</time></trkpt>
        <trkpt lat="29.8045476" lon="103.4317157"><ele>418.33</ele><time>2026-03-12T01:28:25.000Z</time></trkpt>
        <trkpt lat="29.8045924" lon="103.4317371"><ele>418.2</ele><time>2026-03-12T01:28:29.000Z</time></trkpt>
        <trkpt lat="29.8046134" lon="103.4317666"><ele>417.96</ele><time>2026-03-12T01:28:33.000Z</time></trkpt>
        <trkpt lat="29.8046365" lon="103.4318182"><ele>416.59</ele><time>2026-03-12T01:28:39.000Z</time></trkpt>
        <trkpt lat="29.8046557" lon="103.4318634"><ele>414.88</ele><time>2026-03-12T01:28:45.000Z</time></trkpt>
        <trkpt lat="29.8046858" lon="103.4319017"><ele>414.13</ele><time>2026-03-12T01:28:55.000Z</time></trkpt>
        <trkpt lat="29.804701" lon="103.4319258"><ele>413.65</ele><time>2026-03-12T01:28:59.000Z</time></trkpt>
        <trkpt lat="29.804731" lon="103.4319669"><ele>413.56</ele><time>2026-03-12T01:29:07.000Z</time></trkpt>
        <trkpt lat="29.8047632" lon="103.43201"><ele>413.57</ele><time>2026-03-12T01:29:11.000Z</time></trkpt>
        <trkpt lat="29.8048142" lon="103.432051"><ele>414.22</ele><time>2026-03-12T01:29:17.000Z</time></trkpt>
        <trkpt lat="29.8048731" lon="103.4320775"><ele>414.49</ele><time>2026-03-12T01:29:23.000Z</time></trkpt>
        <trkpt lat="29.8049222" lon="103.432098"><ele>414.62</ele><time>2026-03-12T01:29:27.000Z</time></trkpt>
        <trkpt lat="29.8049775" lon="103.4321195"><ele>414.76</ele><time>2026-03-12T01:29:33.000Z</time></trkpt>
        <trkpt lat="29.8050298" lon="103.4321555"><ele>414.85</ele><time>2026-03-12T01:29:39.000Z</time></trkpt>
        <trkpt lat="29.8050828" lon="103.4321708"><ele>415.02</ele><time>2026-03-12T01:29:45.000Z</time></trkpt>
        <trkpt lat="29.8051368" lon="103.4321811"><ele>414.64</ele><time>2026-03-12T01:29:51.000Z</time></trkpt>
        <trkpt lat="29.8051959" lon="103.4321853"><ele>413.23</ele><time>2026-03-12T01:29:57.000Z</time></trkpt>
        <trkpt lat="29.8052452" lon="103.432166"><ele>412.22</ele><time>2026-03-12T01:30:01.000Z</time></trkpt>
        <trkpt lat="29.8052942" lon="103.4321701"><ele>411.7</ele><time>2026-03-12T01:30:07.000Z</time></trkpt>
        <trkpt lat="29.8053505" lon="103.432195"><ele>412.25</ele><time>2026-03-12T01:30:13.000Z</time></trkpt>
        <trkpt lat="29.8054124" lon="103.4322184"><ele>413.32</ele><time>2026-03-12T01:30:19.000Z</time></trkpt>
        <trkpt lat="29.8054668" lon="103.4322268"><ele>413.55</ele><time>2026-03-12T01:30:23.000Z</time></trkpt>
        <trkpt lat="29.805528" lon="103.4322259"><ele>414.07</ele><time>2026-03-12T01:30:29.000Z</time></trkpt>
        <trkpt lat="29.8055803" lon="103.4322128"><ele>415.1</ele><time>2026-03-12T01:30:33.000Z</time></trkpt>
        <trkpt lat="29.8056293" lon="103.4322196"><ele>415.83</ele><time>2026-03-12T01:30:37.000Z</time></trkpt>
        <trkpt lat="29.805679" lon="103.4322345"><ele>416.77</ele><time>2026-03-12T01:30:41.000Z</time></trkpt>
        <trkpt lat="29.8057249" lon="103.4322562"><ele>416.71</ele><time>2026-03-12T01:30:45.000Z</time></trkpt>
        <trkpt lat="29.8057681" lon="103.4322834"><ele>416.84</ele><time>2026-03-12T01:30:49.000Z</time></trkpt>
        <trkpt lat="29.8058078" lon="103.4323162"><ele>416.63</ele><time>2026-03-12T01:30:53.000Z</time></trkpt>
        <trkpt lat="29.8058449" lon="103.4323491"><ele>416.77</ele><time>2026-03-12T01:30:57.000Z</time></trkpt>
        <trkpt lat="29.8058828" lon="103.4323822"><ele>417.29</ele><time>2026-03-12T01:31:01.000Z</time></trkpt>
        <trkpt lat="29.8059297" lon="103.4324127"><ele>418.31</ele><time>2026-03-12T01:31:09.000Z</time></trkpt>
        <trkpt lat="29.8059772" lon="103.4324298"><ele>418.43</ele><time>2026-03-12T01:31:13.000Z</time></trkpt>
        <trkpt lat="29.8060268" lon="103.4324408"><ele>418.32</ele><time>2026-03-12T01:31:17.000Z</time></trkpt>
        <trkpt lat="29.8060807" lon="103.4324681"><ele>418.13</ele><time>2026-03-12T01:31:23.000Z</time></trkpt>
        <trkpt lat="29.8061302" lon="103.4324899"><ele>417.74</ele><time>2026-03-12T01:31:29.000Z</time></trkpt>
        <trkpt lat="29.806173" lon="103.4325121"><ele>417.15</ele><time>2026-03-12T01:31:35.000Z</time></trkpt>
        <trkpt lat="29.8062018" lon="103.432566"><ele>416.37</ele><time>2026-03-12T01:31:41.000Z</time></trkpt>
        <trkpt lat="29.8061729" lon="103.4326159"><ele>415.83</ele><time>2026-03-12T01:31:43.000Z</time></trkpt>
        <trkpt lat="29.8061097" lon="103.4326611"><ele>414.98</ele><time>2026-03-12T01:31:45.000Z</time></trkpt>
        <trkpt lat="29.8060501" lon="103.4326965"><ele>414.24</ele><time>2026-03-12T01:31:47.000Z</time></trkpt>
        <trkpt lat="29.8059959" lon="103.4327297"><ele>413.2</ele><time>2026-03-12T01:31:49.000Z</time></trkpt>
        <trkpt lat="29.8059444" lon="103.4327712"><ele>412.19</ele><time>2026-03-12T01:31:55.000Z</time></trkpt>
        <trkpt lat="29.805936" lon="103.4328208"><ele>407.08</ele><time>2026-03-12T01:32:01.000Z</time></trkpt>
        <trkpt lat="29.8059475" lon="103.4328756"><ele>398.73</ele><time>2026-03-12T01:32:07.000Z</time></trkpt>
        <trkpt lat="29.8059892" lon="103.4329132"><ele>388.52</ele><time>2026-03-12T01:32:11.000Z</time></trkpt>
        <trkpt lat="29.8060268" lon="103.4329605"><ele>381.02</ele><time>2026-03-12T01:32:19.000Z</time></trkpt>
        <trkpt lat="29.8060927" lon="103.4329814"><ele>372.44</ele><time>2026-03-12T01:32:23.000Z</time></trkpt>
        <trkpt lat="29.8061529" lon="103.432994"><ele>368.86</ele><time>2026-03-12T01:32:27.000Z</time></trkpt>
        <trkpt lat="29.8061799" lon="103.4330325"><ele>365.37</ele><time>2026-03-12T01:32:39.000Z</time></trkpt>
        <trkpt lat="29.8062139" lon="103.4330696"><ele>351.42</ele><time>2026-03-12T01:32:43.000Z</time></trkpt>
        <trkpt lat="29.8062705" lon="103.4331037"><ele>344.25</ele><time>2026-03-12T01:32:47.000Z</time></trkpt>
        <trkpt lat="29.8063349" lon="103.4331415"><ele>341.89</ele><time>2026-03-12T01:32:53.000Z</time></trkpt>
        <trkpt lat="29.8063928" lon="103.4331676"><ele>341.37</ele><time>2026-03-12T01:32:57.000Z</time></trkpt>
        <trkpt lat="29.8064524" lon="103.433191"><ele>343.41</ele><time>2026-03-12T01:33:01.000Z</time></trkpt>
        <trkpt lat="29.8065217" lon="103.4332176"><ele>346.56</ele><time>2026-03-12T01:33:05.000Z</time></trkpt>
        <trkpt lat="29.8065846" lon="103.4332407"><ele>350.3</ele><time>2026-03-12T01:33:09.000Z</time></trkpt>
        <trkpt lat="29.8066387" lon="103.4332575"><ele>352.42</ele><time>2026-03-12T01:33:13.000Z</time></trkpt>
        <trkpt lat="29.8067013" lon="103.4332759"><ele>354.92</ele><time>2026-03-12T01:33:17.000Z</time></trkpt>
        <trkpt lat="29.8067675" lon="103.4332951"><ele>359.94</ele><time>2026-03-12T01:33:21.000Z</time></trkpt>
        <trkpt lat="29.8068187" lon="103.4332927"><ele>367.42</ele><time>2026-03-12T01:33:25.000Z</time></trkpt>
        <trkpt lat="29.8068782" lon="103.4332836"><ele>375.83</ele><time>2026-03-12T01:33:31.000Z</time></trkpt>
        <trkpt lat="29.8069365" lon="103.4332651"><ele>385.55</ele><time>2026-03-12T01:33:35.000Z</time></trkpt>
        <trkpt lat="29.8069846" lon="103.4332246"><ele>394.43</ele><time>2026-03-12T01:33:39.000Z</time></trkpt>
        <trkpt lat="29.807028" lon="103.4331871"><ele>400.89</ele><time>2026-03-12T01:33:43.000Z</time></trkpt>
        <trkpt lat="29.8070646" lon="103.4331454"><ele>404.95</ele><time>2026-03-12T01:33:47.000Z</time></trkpt>
        <trkpt lat="29.8071098" lon="103.4330938"><ele>407.45</ele><time>2026-03-12T01:33:53.000Z</time></trkpt>
        <trkpt lat="29.8071399" lon="103.433043"><ele>409.59</ele><time>2026-03-12T01:33:57.000Z</time></trkpt>
        <trkpt lat="29.8071685" lon="103.432998"><ele>411.4</ele><time>2026-03-12T01:34:01.000Z</time></trkpt>
        <trkpt lat="29.8071854" lon="103.4329423"><ele>412.67</ele><time>2026-03-12T01:34:07.000Z</time></trkpt>
        <trkpt lat="29.8072078" lon="103.4328818"><ele>412.93</ele><time>2026-03-12T01:34:13.000Z</time></trkpt>
        <trkpt lat="29.8072286" lon="103.4328151"><ele>412.92</ele><time>2026-03-12T01:34:19.000Z</time></trkpt>
        <trkpt lat="29.8072543" lon="103.4327441"><ele>412.91</ele><time>2026-03-12T01:34:25.000Z</time></trkpt>
        <trkpt lat="29.8072642" lon="103.4326717"><ele>413.11</ele><time>2026-03-12T01:34:31.000Z</time></trkpt>
        <trkpt lat="29.8072851" lon="103.4326"><ele>413.39</ele><time>2026-03-12T01:34:37.000Z</time></trkpt>
        <trkpt lat="29.8073298" lon="103.4325681"><ele>413.07</ele><time>2026-03-12T01:34:43.000Z</time></trkpt>
        <trkpt lat="29.8073869" lon="103.4325713"><ele>412.16</ele><time>2026-03-12T01:34:49.000Z</time></trkpt>
        <trkpt lat="29.8074313" lon="103.4325476"><ele>411.39</ele><time>2026-03-12T01:34:55.000Z</time></trkpt>
        <trkpt lat="29.8074684" lon="103.4325122"><ele>410.5</ele><time>2026-03-12T01:34:59.000Z</time></trkpt>
        <trkpt lat="29.8075132" lon="103.4324618"><ele>410.67</ele><time>2026-03-12T01:35:05.000Z</time></trkpt>
        <trkpt lat="29.8075479" lon="103.4324083"><ele>411.31</ele><time>2026-03-12T01:35:09.000Z</time></trkpt>
        <trkpt lat="29.8075847" lon="103.4323484"><ele>412.34</ele><time>2026-03-12T01:35:15.000Z</time></trkpt>
        <trkpt lat="29.8076228" lon="103.4322889"><ele>412.99</ele><time>2026-03-12T01:35:21.000Z</time></trkpt>
        <trkpt lat="29.8076674" lon="103.4322525"><ele>413.36</ele><time>2026-03-12T01:35:25.000Z</time></trkpt>
        <trkpt lat="29.8077164" lon="103.4322136"><ele>413.54</ele><time>2026-03-12T01:35:31.000Z</time></trkpt>
        <trkpt lat="29.8077651" lon="103.4321663"><ele>413.29</ele><time>2026-03-12T01:35:37.000Z</time></trkpt>
        <trkpt lat="29.8078079" lon="103.4321242"><ele>412.92</ele><time>2026-03-12T01:35:41.000Z</time></trkpt>
        <trkpt lat="29.8078456" lon="103.432087"><ele>413.44</ele><time>2026-03-12T01:35:45.000Z</time></trkpt>
        <trkpt lat="29.807845" lon="103.4320641"><ele>413.28</ele><time>2026-03-12T01:35:49.000Z</time></trkpt>
        <trkpt lat="29.8078089" lon="103.4320387"><ele>413.14</ele><time>2026-03-12T01:36:03.000Z</time></trkpt>
        <trkpt lat="29.8077706" lon="103.4319918"><ele>412.28</ele><time>2026-03-12T01:36:11.000Z</time></trkpt>
        <trkpt lat="29.8077706" lon="103.4319918"><ele>412.28</ele><time>2026-03-12T01:36:24.000Z</time></trkpt>
        <trkpt lat="29.8077912" lon="103.4320656"><ele>411.88</ele><time>2026-03-12T01:36:49.000Z</time></trkpt>
        <trkpt lat="29.8077912" lon="103.4320656"><ele>411.88</ele><time>2026-03-12T01:36:52.000Z</time></trkpt>
        <trkpt lat="29.8077801" lon="103.4321344"><ele>414.95</ele><time>2026-03-12T01:36:54.000Z</time></trkpt>
        <trkpt lat="29.8078259" lon="103.432155"><ele>411.44</ele><time>2026-03-12T01:36:58.000Z</time></trkpt>
        <trkpt lat="29.8078804" lon="103.4321241"><ele>406.25</ele><time>2026-03-12T01:37:04.000Z</time></trkpt>
        <trkpt lat="29.8079288" lon="103.4320757"><ele>402.7</ele><time>2026-03-12T01:37:08.000Z</time></trkpt>
        <trkpt lat="29.8079888" lon="103.4320372"><ele>400.87</ele><time>2026-03-12T01:37:14.000Z</time></trkpt>
        <trkpt lat="29.8080383" lon="103.4320039"><ele>400</ele><time>2026-03-12T01:37:18.000Z</time></trkpt>
        <trkpt lat="29.8080832" lon="103.4319633"><ele>399.93</ele><time>2026-03-12T01:37:22.000Z</time></trkpt>
        <trkpt lat="29.8081244" lon="103.4319354"><ele>401.08</ele><time>2026-03-12T01:37:26.000Z</time></trkpt>
        <trkpt lat="29.8081809" lon="103.4319049"><ele>401.77</ele><time>2026-03-12T01:37:32.000Z</time></trkpt>
        <trkpt lat="29.8082288" lon="103.4318862"><ele>401.61</ele><time>2026-03-12T01:37:36.000Z</time></trkpt>
        <trkpt lat="29.8082797" lon="103.431851"><ele>401.15</ele><time>2026-03-12T01:37:42.000Z</time></trkpt>
        <trkpt lat="29.8083253" lon="103.4318105"><ele>403.97</ele><time>2026-03-12T01:37:46.000Z</time></trkpt>
        <trkpt lat="29.8083686" lon="103.431775"><ele>408.33</ele><time>2026-03-12T01:37:50.000Z</time></trkpt>
        <trkpt lat="29.8084133" lon="103.4317285"><ele>410.52</ele><time>2026-03-12T01:37:54.000Z</time></trkpt>
        <trkpt lat="29.8084517" lon="103.4316823"><ele>410.36</ele><time>2026-03-12T01:37:58.000Z</time></trkpt>
        <trkpt lat="29.8084925" lon="103.4316419"><ele>409.96</ele><time>2026-03-12T01:38:02.000Z</time></trkpt>
        <trkpt lat="29.8085364" lon="103.4316128"><ele>409.99</ele><time>2026-03-12T01:38:06.000Z</time></trkpt>
        <trkpt lat="29.8085776" lon="103.4315885"><ele>410.33</ele><time>2026-03-12T01:38:10.000Z</time></trkpt>
        <trkpt lat="29.8086303" lon="103.4315621"><ele>411.13</ele><time>2026-03-12T01:38:16.000Z</time></trkpt>
        <trkpt lat="29.808691" lon="103.4315327"><ele>411.97</ele><time>2026-03-12T01:38:22.000Z</time></trkpt>
        <trkpt lat="29.8087412" lon="103.4315365"><ele>413.24</ele><time>2026-03-12T01:38:26.000Z</time></trkpt>
        <trkpt lat="29.808755" lon="103.4315444"><ele>413.85</ele><time>2026-03-12T01:38:28.000Z</time></trkpt>
        <trkpt lat="29.8087907" lon="103.4315505"><ele>414.02</ele><time>2026-03-12T01:38:34.000Z</time></trkpt>
        <trkpt lat="29.8088441" lon="103.4315403"><ele>412.95</ele><time>2026-03-12T01:38:40.000Z</time></trkpt>
        <trkpt lat="29.8089057" lon="103.4315271"><ele>414.28</ele><time>2026-03-12T01:38:46.000Z</time></trkpt>
        <trkpt lat="29.8089604" lon="103.431511"><ele>415.98</ele><time>2026-03-12T01:38:50.000Z</time></trkpt>
        <trkpt lat="29.8090139" lon="103.4315055"><ele>417.47</ele><time>2026-03-12T01:38:54.000Z</time></trkpt>
        <trkpt lat="29.8090656" lon="103.4314932"><ele>417.95</ele><time>2026-03-12T01:38:58.000Z</time></trkpt>
        <trkpt lat="29.8091198" lon="103.4315024"><ele>419.6</ele><time>2026-03-12T01:39:08.000Z</time></trkpt>
        <trkpt lat="29.809173" lon="103.4314832"><ele>419.61</ele><time>2026-03-12T01:39:12.000Z</time></trkpt>
        <trkpt lat="29.809229" lon="103.4314759"><ele>419.68</ele><time>2026-03-12T01:39:16.000Z</time></trkpt>
        <trkpt lat="29.8092839" lon="103.431467"><ele>418.85</ele><time>2026-03-12T01:39:20.000Z</time></trkpt>
        <trkpt lat="29.8093283" lon="103.4314344"><ele>416.74</ele><time>2026-03-12T01:39:24.000Z</time></trkpt>
        <trkpt lat="29.8093732" lon="103.4313933"><ele>415.53</ele><time>2026-03-12T01:39:28.000Z</time></trkpt>
        <trkpt lat="29.809413" lon="103.4313593"><ele>414.91</ele><time>2026-03-12T01:39:32.000Z</time></trkpt>
        <trkpt lat="29.8094563" lon="103.4313461"><ele>414.84</ele><time>2026-03-12T01:39:36.000Z</time></trkpt>
        <trkpt lat="29.8095037" lon="103.4313289"><ele>413.85</ele><time>2026-03-12T01:39:40.000Z</time></trkpt>
        <trkpt lat="29.8095481" lon="103.4312933"><ele>413.11</ele><time>2026-03-12T01:39:44.000Z</time></trkpt>
        <trkpt lat="29.8095965" lon="103.4312811"><ele>411.47</ele><time>2026-03-12T01:39:48.000Z</time></trkpt>
        <trkpt lat="29.8096437" lon="103.4312743"><ele>410.32</ele><time>2026-03-12T01:39:52.000Z</time></trkpt>
        <trkpt lat="29.8097031" lon="103.4312866"><ele>410.05</ele><time>2026-03-12T01:39:58.000Z</time></trkpt>
        <trkpt lat="29.8097646" lon="103.431288"><ele>411.25</ele><time>2026-03-12T01:40:04.000Z</time></trkpt>
        <trkpt lat="29.8098266" lon="103.4312851"><ele>412.57</ele><time>2026-03-12T01:40:10.000Z</time></trkpt>
        <trkpt lat="29.8098795" lon="103.4312847"><ele>413.74</ele><time>2026-03-12T01:40:14.000Z</time></trkpt>
        <trkpt lat="29.8099303" lon="103.43127"><ele>414.13</ele><time>2026-03-12T01:40:18.000Z</time></trkpt>
        <trkpt lat="29.8099774" lon="103.4312677"><ele>413.37</ele><time>2026-03-12T01:40:22.000Z</time></trkpt>
        <trkpt lat="29.810023" lon="103.4312813"><ele>412.43</ele><time>2026-03-12T01:40:26.000Z</time></trkpt>
        <trkpt lat="29.8100719" lon="103.4313026"><ele>411.66</ele><time>2026-03-12T01:40:32.000Z</time></trkpt>
        <trkpt lat="29.8101206" lon="103.4313089"><ele>411.5</ele><time>2026-03-12T01:40:36.000Z</time></trkpt>
        <trkpt lat="29.8101702" lon="103.4313075"><ele>411.71</ele><time>2026-03-12T01:40:40.000Z</time></trkpt>
        <trkpt lat="29.8102187" lon="103.4313016"><ele>411.2</ele><time>2026-03-12T01:40:46.000Z</time></trkpt>
        <trkpt lat="29.8102741" lon="103.4313126"><ele>409.97</ele><time>2026-03-12T01:41:00.000Z</time></trkpt>
        <trkpt lat="29.810332" lon="103.431327"><ele>409.91</ele><time>2026-03-12T01:41:04.000Z</time></trkpt>
        <trkpt lat="29.8103796" lon="103.4313498"><ele>410.07</ele><time>2026-03-12T01:41:08.000Z</time></trkpt>
        <trkpt lat="29.8104313" lon="103.4313821"><ele>410.5</ele><time>2026-03-12T01:41:16.000Z</time></trkpt>
        <trkpt lat="29.810466" lon="103.4314268"><ele>410.68</ele><time>2026-03-12T01:41:22.000Z</time></trkpt>
        <trkpt lat="29.8104932" lon="103.4314753"><ele>410.37</ele><time>2026-03-12T01:41:28.000Z</time></trkpt>
        <trkpt lat="29.8105255" lon="103.431525"><ele>409.56</ele><time>2026-03-12T01:41:34.000Z</time></trkpt>
        <trkpt lat="29.8105508" lon="103.4315787"><ele>408.43</ele><time>2026-03-12T01:41:40.000Z</time></trkpt>
        <trkpt lat="29.8105686" lon="103.4316342"><ele>407.2</ele><time>2026-03-12T01:41:44.000Z</time></trkpt>
        <trkpt lat="29.8105908" lon="103.431681"><ele>406.67</ele><time>2026-03-12T01:41:48.000Z</time></trkpt>
        <trkpt lat="29.8106148" lon="103.4317423"><ele>406.41</ele><time>2026-03-12T01:41:54.000Z</time></trkpt>
        <trkpt lat="29.8106476" lon="103.4317934"><ele>406.27</ele><time>2026-03-12T01:42:02.000Z</time></trkpt>
        <trkpt lat="29.8106618" lon="103.4317819"><ele>405.13</ele><time>2026-03-12T01:42:04.000Z</time></trkpt>
        <trkpt lat="29.8106551" lon="103.4318467"><ele>403.36</ele><time>2026-03-12T01:42:12.000Z</time></trkpt>
        <trkpt lat="29.8106706" lon="103.4319231"><ele>404.05</ele><time>2026-03-12T01:42:18.000Z</time></trkpt>
        <trkpt lat="29.8106905" lon="103.4319867"><ele>404.39</ele><time>2026-03-12T01:42:22.000Z</time></trkpt>
        <trkpt lat="29.8107061" lon="103.432051"><ele>404.39</ele><time>2026-03-12T01:42:30.000Z</time></trkpt>
        <trkpt lat="29.8107125" lon="103.4321114"><ele>404.09</ele><time>2026-03-12T01:42:36.000Z</time></trkpt>
        <trkpt lat="29.8107211" lon="103.4321695"><ele>403.28</ele><time>2026-03-12T01:42:42.000Z</time></trkpt>
        <trkpt lat="29.8107296" lon="103.4322346"><ele>402.57</ele><time>2026-03-12T01:42:50.000Z</time></trkpt>
        <trkpt lat="29.810738" lon="103.432303"><ele>401.33</ele><time>2026-03-12T01:42:56.000Z</time></trkpt>
        <trkpt lat="29.8107598" lon="103.4323301"><ele>400.78</ele><time>2026-03-12T01:43:00.000Z</time></trkpt>
        <trkpt lat="29.8107795" lon="103.4323725"><ele>398.81</ele><time>2026-03-12T01:43:06.000Z</time></trkpt>
        <trkpt lat="29.8107804" lon="103.4324239"><ele>397.78</ele><time>2026-03-12T01:43:10.000Z</time></trkpt>
        <trkpt lat="29.8107715" lon="103.4324871"><ele>398.09</ele><time>2026-03-12T01:43:14.000Z</time></trkpt>
        <trkpt lat="29.8107636" lon="103.4325468"><ele>398.34</ele><time>2026-03-12T01:43:18.000Z</time></trkpt>
        <trkpt lat="29.8107512" lon="103.4326135"><ele>398.82</ele><time>2026-03-12T01:43:24.000Z</time></trkpt>
        <trkpt lat="29.8107366" lon="103.4326736"><ele>399.16</ele><time>2026-03-12T01:43:28.000Z</time></trkpt>
        <trkpt lat="29.8107196" lon="103.4327245"><ele>400.14</ele><time>2026-03-12T01:43:32.000Z</time></trkpt>
        <trkpt lat="29.8107027" lon="103.4327774"><ele>400.95</ele><time>2026-03-12T01:43:38.000Z</time></trkpt>
        <trkpt lat="29.8107001" lon="103.4328316"><ele>401.58</ele><time>2026-03-12T01:43:42.000Z</time></trkpt>
        <trkpt lat="29.8106887" lon="103.4328979"><ele>402.45</ele><time>2026-03-12T01:43:48.000Z</time></trkpt>
        <trkpt lat="29.8106692" lon="103.4329648"><ele>403.07</ele><time>2026-03-12T01:43:54.000Z</time></trkpt>
        <trkpt lat="29.8106464" lon="103.4330319"><ele>403.76</ele><time>2026-03-12T01:44:00.000Z</time></trkpt>
        <trkpt lat="29.8106296" lon="103.4330868"><ele>404.42</ele><time>2026-03-12T01:44:04.000Z</time></trkpt>
        <trkpt lat="29.8106001" lon="103.4331448"><ele>405.03</ele><time>2026-03-12T01:44:10.000Z</time></trkpt>
        <trkpt lat="29.8105581" lon="103.4331959"><ele>406.02</ele><time>2026-03-12T01:44:16.000Z</time></trkpt>
        <trkpt lat="29.8105581" lon="103.4331959"><ele>406.02</ele><time>2026-03-12T01:44:18.000Z</time></trkpt>
      </trkseg>
  </trk>
</gpx>